<?xml version='1.0' encoding='UTF-8'?><gpx version="1.1" creator="JPX - https://github.com/jenetics/jpx" xmlns="http://www.topografix.com/GPX/1/1"><trk><trkseg><trkpt lat="45.73198236468093" lon="10.45623746809365"><ele>369.42857142857144</ele><time>2026-04-18T12:31:38Z</time></trkpt><trkpt lat="45.731982104771284" lon="10.456333521826478"><ele>369.85714285714283</ele><time>2026-04-18T12:31:39Z</time></trkpt><trkpt lat="45.73198410620955" lon="10.456430529832007"><ele>370.28571428571433</ele><time>2026-04-18T12:31:40Z</time></trkpt><trkpt lat="45.73198948082107" lon="10.456525804123556"><ele>370.7142857142857</ele><time>2026-04-18T12:31:41Z</time></trkpt><trkpt lat="45.731996347977194" lon="10.456621320808079"><ele>371.14285714285717</ele><time>2026-04-18T12:31:42Z</time></trkpt><trkpt lat="45.7320054312162" lon="10.456719283536636"><ele>371.5714285714286</ele><time>2026-04-18T12:31:43Z</time></trkpt><trkpt lat="45.732017041368415" lon="10.456821149926295"><ele>372.0</ele><time>2026-04-18T12:31:44Z</time></trkpt><trkpt lat="45.7320363344594" lon="10.456929780273104"><ele>372.0</ele><time>2026-04-18T12:31:45Z</time></trkpt><trkpt lat="45.73206888638527" lon="10.457073241462748"><ele>372.0</ele><time>2026-04-18T12:31:46Z</time></trkpt><trkpt lat="45.73209230396506" lon="10.457206889079645"><ele>372.0</ele><time>2026-04-18T12:31:47Z</time></trkpt><trkpt lat="45.732127274767144" lon="10.457315033366493"><ele>372.0</ele><time>2026-04-18T12:31:48Z</time></trkpt><trkpt lat="45.73216120860843" lon="10.457431889492677"><ele>372.0</ele><time>2026-04-18T12:31:49Z</time></trkpt><trkpt lat="45.7321991105128" lon="10.45755128523005"><ele>371.40000000000003</ele><time>2026-04-18T12:31:50Z</time></trkpt><trkpt lat="45.73223320619176" lon="10.457681736892864"><ele>370.8</ele><time>2026-04-18T12:31:51Z</time></trkpt><trkpt lat="45.73227194783548" lon="10.457822864090758"><ele>370.2</ele><time>2026-04-18T12:31:52Z</time></trkpt><trkpt lat="45.73231438155317" lon="10.457944441125573"><ele>369.6</ele><time>2026-04-18T12:31:53Z</time></trkpt><trkpt lat="45.7323597998822" lon="10.458062936687908"><ele>369.0</ele><time>2026-04-18T12:31:54Z</time></trkpt><trkpt lat="45.732402601457814" lon="10.458182144908559"><ele>369.0</ele><time>2026-04-18T12:31:55Z</time></trkpt><trkpt lat="45.73245119485863" lon="10.458292616104577"><ele>369.0</ele><time>2026-04-18T12:31:56Z</time></trkpt><trkpt lat="45.73249527291489" lon="10.458406362636419"><ele>369.0</ele><time>2026-04-18T12:31:57Z</time></trkpt><trkpt lat="45.73254308579381" lon="10.458511921004279"><ele>369.0</ele><time>2026-04-18T12:31:58Z</time></trkpt><trkpt lat="45.73259519590587" lon="10.458613288404457"><ele>369.0</ele><time>2026-04-18T12:31:59Z</time></trkpt><trkpt lat="45.7326498223933" lon="10.458727662804396"><ele>369.2</ele><time>2026-04-18T12:32:00Z</time></trkpt><trkpt lat="45.732709952950785" lon="10.45882951018122"><ele>369.4</ele><time>2026-04-18T12:32:01Z</time></trkpt><trkpt lat="45.732767468456274" lon="10.458930270949745"><ele>369.6</ele><time>2026-04-18T12:32:02Z</time></trkpt><trkpt lat="45.73282866582427" lon="10.459035532112733"><ele>369.8</ele><time>2026-04-18T12:32:03Z</time></trkpt><trkpt lat="45.73288901293161" lon="10.459151090978898"><ele>370.0</ele><time>2026-04-18T12:32:04Z</time></trkpt><trkpt lat="45.732947031975016" lon="10.459250366357386"><ele>370.16666666666663</ele><time>2026-04-18T12:32:05Z</time></trkpt><trkpt lat="45.73300512924351" lon="10.459346876280712"><ele>370.3333333333333</ele><time>2026-04-18T12:32:06Z</time></trkpt><trkpt lat="45.733063034352206" lon="10.459445556484331"><ele>370.5</ele><time>2026-04-18T12:32:07Z</time></trkpt><trkpt lat="45.733111416360714" lon="10.459530174621056"><ele>370.6666666666667</ele><time>2026-04-18T12:32:08Z</time></trkpt><trkpt lat="45.733163077052744" lon="10.459627280748723"><ele>370.83333333333337</ele><time>2026-04-18T12:32:09Z</time></trkpt><trkpt lat="45.73322507096425" lon="10.459754368121601"><ele>371.0</ele><time>2026-04-18T12:32:10Z</time></trkpt><trkpt lat="45.7332825853169" lon="10.459894663490372"><ele>370.5</ele><time>2026-04-18T12:32:11Z</time></trkpt><trkpt lat="45.73334031589769" lon="10.460031864511206"><ele>370.0</ele><time>2026-04-18T12:32:12Z</time></trkpt><trkpt lat="45.73340619452648" lon="10.460171934158483"><ele>369.5</ele><time>2026-04-18T12:32:13Z</time></trkpt><trkpt lat="45.733473136646985" lon="10.460313449969952"><ele>369.0</ele><time>2026-04-18T12:32:14Z</time></trkpt><trkpt lat="45.733533855501435" lon="10.460443998948376"><ele>368.75</ele><time>2026-04-18T12:32:15Z</time></trkpt><trkpt lat="45.73360465767956" lon="10.460577157382305"><ele>368.5</ele><time>2026-04-18T12:32:16Z</time></trkpt><trkpt lat="45.73367575681577" lon="10.46070884288569"><ele>368.25</ele><time>2026-04-18T12:32:17Z</time></trkpt><trkpt lat="45.73373497898152" lon="10.460842126161399"><ele>368.0</ele><time>2026-04-18T12:32:18Z</time></trkpt><trkpt lat="45.733802483914936" lon="10.460980801589832"><ele>368.0</ele><time>2026-04-18T12:32:19Z</time></trkpt><trkpt lat="45.73386952054013" lon="10.461118425393309"><ele>368.0</ele><time>2026-04-18T12:32:20Z</time></trkpt><trkpt lat="45.73394121305899" lon="10.461254970068786"><ele>368.0</ele><time>2026-04-18T12:32:21Z</time></trkpt><trkpt lat="45.734012394318796" lon="10.461394932373613"><ele>368.0</ele><time>2026-04-18T12:32:22Z</time></trkpt><trkpt lat="45.734085108531396" lon="10.461530699560472"><ele>368.75</ele><time>2026-04-18T12:32:23Z</time></trkpt><trkpt lat="45.73415439666814" lon="10.461667071477565"><ele>369.5</ele><time>2026-04-18T12:32:24Z</time></trkpt><trkpt lat="45.734229806099194" lon="10.46180586803751"><ele>370.25</ele><time>2026-04-18T12:32:25Z</time></trkpt><trkpt lat="45.734299681562476" lon="10.461942435760188"><ele>371.0</ele><time>2026-04-18T12:32:26Z</time></trkpt><trkpt lat="45.73437134387367" lon="10.462079606187901"><ele>370.75</ele><time>2026-04-18T12:32:27Z</time></trkpt><trkpt lat="45.73444423591004" lon="10.462219159131886"><ele>370.5</ele><time>2026-04-18T12:32:28Z</time></trkpt><trkpt lat="45.734517468282036" lon="10.46234667245914"><ele>370.25</ele><time>2026-04-18T12:32:29Z</time></trkpt><trkpt lat="45.734604125283134" lon="10.46246229252536"><ele>370.0</ele><time>2026-04-18T12:32:30Z</time></trkpt><trkpt lat="45.73469408546197" lon="10.462584028137995"><ele>370.0</ele><time>2026-04-18T12:32:31Z</time></trkpt><trkpt lat="45.73478258091352" lon="10.462695248640653"><ele>370.0</ele><time>2026-04-18T12:32:32Z</time></trkpt><trkpt lat="45.734875058162736" lon="10.462805660289813"><ele>370.0</ele><time>2026-04-18T12:32:33Z</time></trkpt><trkpt lat="45.73495638795828" lon="10.462906300611623"><ele>370.0</ele><time>2026-04-18T12:32:34Z</time></trkpt><trkpt lat="45.735008553946976" lon="10.463021939919368"><ele>370.0</ele><time>2026-04-18T12:32:35Z</time></trkpt><trkpt lat="45.73507934013282" lon="10.463142013682385"><ele>369.4</ele><time>2026-04-18T12:32:36Z</time></trkpt><trkpt lat="45.73514786688704" lon="10.463257275168113"><ele>368.8</ele><time>2026-04-18T12:32:37Z</time></trkpt><trkpt lat="45.73522020634504" lon="10.463386695835142"><ele>368.20000000000005</ele><time>2026-04-18T12:32:38Z</time></trkpt><trkpt lat="45.73528075255436" lon="10.463512169004588"><ele>367.6</ele><time>2026-04-18T12:32:39Z</time></trkpt><trkpt lat="45.73533921326851" lon="10.46363834187644"><ele>367.0</ele><time>2026-04-18T12:32:40Z</time></trkpt><trkpt lat="45.73537655330903" lon="10.463768154572382"><ele>367.6</ele><time>2026-04-18T12:32:41Z</time></trkpt><trkpt lat="45.73537640895682" lon="10.46392405693479"><ele>368.20000000000005</ele><time>2026-04-18T12:32:42Z</time></trkpt><trkpt lat="45.735371704545095" lon="10.4640803349964"><ele>368.8</ele><time>2026-04-18T12:32:43Z</time></trkpt><trkpt lat="45.735367491360286" lon="10.464232761204348"><ele>369.4</ele><time>2026-04-18T12:32:44Z</time></trkpt><trkpt lat="45.73537751542644" lon="10.464407900106492"><ele>370.0</ele><time>2026-04-18T12:32:45Z</time></trkpt><trkpt lat="45.73537977728865" lon="10.464583502391077"><ele>370.6</ele><time>2026-04-18T12:32:46Z</time></trkpt><trkpt lat="45.735383592157774" lon="10.4647458657212"><ele>371.2</ele><time>2026-04-18T12:32:47Z</time></trkpt><trkpt lat="45.73538769252014" lon="10.46491610216146"><ele>371.79999999999995</ele><time>2026-04-18T12:32:48Z</time></trkpt><trkpt lat="45.73540213110694" lon="10.465073006226987"><ele>372.4</ele><time>2026-04-18T12:32:49Z</time></trkpt><trkpt lat="45.735398469571365" lon="10.465213899771165"><ele>373.0</ele><time>2026-04-18T12:32:50Z</time></trkpt><trkpt lat="45.735399526235135" lon="10.465350575744836"><ele>373.0</ele><time>2026-04-18T12:32:51.001Z</time></trkpt><trkpt lat="45.7353957300546" lon="10.465486004479395"><ele>373.0</ele><time>2026-04-18T12:32:52.001Z</time></trkpt><trkpt lat="45.7354002276068" lon="10.465601774197022"><ele>373.0</ele><time>2026-04-18T12:32:53.001Z</time></trkpt><trkpt lat="45.73540036125601" lon="10.465733472732001"><ele>373.0</ele><time>2026-04-18T12:32:54.001Z</time></trkpt><trkpt lat="45.735397812322034" lon="10.465865214605685"><ele>373.0</ele><time>2026-04-18T12:32:55.001Z</time></trkpt><trkpt lat="45.7354058891845" lon="10.46599323139642"><ele>373.0</ele><time>2026-04-18T12:32:56.001Z</time></trkpt><trkpt lat="45.73540713510711" lon="10.466111394551767"><ele>373.0</ele><time>2026-04-18T12:32:57.001Z</time></trkpt><trkpt lat="45.73539646114994" lon="10.466224629757775"><ele>373.0</ele><time>2026-04-18T12:32:58.001Z</time></trkpt><trkpt lat="45.735382398357544" lon="10.466329107136907"><ele>373.0</ele><time>2026-04-18T12:32:59.001Z</time></trkpt><trkpt lat="45.73535687977008" lon="10.46641952002805"><ele>373.0</ele><time>2026-04-18T12:33:00.001Z</time></trkpt><trkpt lat="45.7352996402131" lon="10.466475699966917"><ele>373.0</ele><time>2026-04-18T12:33:01.001Z</time></trkpt><trkpt lat="45.73524486117126" lon="10.466640891641651"><ele>373.0</ele><time>2026-04-18T12:33:02.001Z</time></trkpt><trkpt lat="45.735197685257035" lon="10.466784970035556"><ele>373.59999999999997</ele><time>2026-04-18T12:33:03.001Z</time></trkpt><trkpt lat="45.73512525680961" lon="10.466905308337509"><ele>374.2</ele><time>2026-04-18T12:33:04.001Z</time></trkpt><trkpt lat="45.735069233324495" lon="10.467021304733892"><ele>374.8</ele><time>2026-04-18T12:33:05.001Z</time></trkpt><trkpt lat="45.735014461211875" lon="10.4671425136637"><ele>375.4</ele><time>2026-04-18T12:33:06.001Z</time></trkpt><trkpt lat="45.73496634400072" lon="10.467247854681148"><ele>376.0</ele><time>2026-04-18T12:33:07.001Z</time></trkpt><trkpt lat="45.73490392389063" lon="10.46734779428164"><ele>376.0</ele><time>2026-04-18T12:33:08.001Z</time></trkpt><trkpt lat="45.73482073371276" lon="10.46746835548367"><ele>376.0</ele><time>2026-04-18T12:33:09.001Z</time></trkpt><trkpt lat="45.734782253137844" lon="10.467627405453547"><ele>376.0</ele><time>2026-04-18T12:33:10.001Z</time></trkpt><trkpt lat="45.73472030485302" lon="10.467792202067304"><ele>376.0</ele><time>2026-04-18T12:33:11.001Z</time></trkpt><trkpt lat="45.734659318714485" lon="10.467955743402575"><ele>375.25</ele><time>2026-04-18T12:33:12.001Z</time></trkpt><trkpt lat="45.73461658289287" lon="10.468130868013423"><ele>374.5</ele><time>2026-04-18T12:33:13.001Z</time></trkpt><trkpt lat="45.73455743614982" lon="10.468310826794784"><ele>373.75</ele><time>2026-04-18T12:33:14.001Z</time></trkpt><trkpt lat="45.73450126378522" lon="10.468485553468453"><ele>373.0</ele><time>2026-04-18T12:33:15.001Z</time></trkpt><trkpt lat="45.73447101327477" lon="10.468633167933415"><ele>372.0</ele><time>2026-04-18T12:33:16.001Z</time></trkpt><trkpt lat="45.734399583767114" lon="10.468793473466349"><ele>371.0</ele><time>2026-04-18T12:33:17.001Z</time></trkpt><trkpt lat="45.73437161466698" lon="10.468965188535263"><ele>370.0</ele><time>2026-04-18T12:33:18.001Z</time></trkpt><trkpt lat="45.73432859572222" lon="10.469105725705093"><ele>369.0</ele><time>2026-04-18T12:33:19.001Z</time></trkpt><trkpt lat="45.73431566017265" lon="10.469262239157649"><ele>369.5</ele><time>2026-04-18T12:33:20.001Z</time></trkpt><trkpt lat="45.73432783523699" lon="10.469426212439602"><ele>370.0</ele><time>2026-04-18T12:33:21.001Z</time></trkpt><trkpt lat="45.73436552083888" lon="10.469598816914566"><ele>370.5</ele><time>2026-04-18T12:33:22.001Z</time></trkpt><trkpt lat="45.73440184126218" lon="10.469758530239654"><ele>371.0</ele><time>2026-04-18T12:33:23.001Z</time></trkpt><trkpt lat="45.73446327178127" lon="10.469907271552696"><ele>371.0</ele><time>2026-04-18T12:33:24.001Z</time></trkpt><trkpt lat="45.73452580913022" lon="10.470039878004279"><ele>371.0</ele><time>2026-04-18T12:33:25.001Z</time></trkpt><trkpt lat="45.734581492908596" lon="10.470167877317094"><ele>371.0</ele><time>2026-04-18T12:33:26.001Z</time></trkpt><trkpt lat="45.73463230212749" lon="10.470306289342492"><ele>371.0</ele><time>2026-04-18T12:33:27.001Z</time></trkpt><trkpt lat="45.73465030456729" lon="10.470437224881694"><ele>371.0</ele><time>2026-04-18T12:33:28.001Z</time></trkpt><trkpt lat="45.7346655374816" lon="10.470577818555238"><ele>370.8</ele><time>2026-04-18T12:33:29.001Z</time></trkpt><trkpt lat="45.7346873557134" lon="10.470725014459012"><ele>370.6</ele><time>2026-04-18T12:33:30.001Z</time></trkpt><trkpt lat="45.734697839713185" lon="10.470856151634289"><ele>370.4</ele><time>2026-04-18T12:33:31.001Z</time></trkpt><trkpt lat="45.73470481296739" lon="10.471003377990138"><ele>370.2</ele><time>2026-04-18T12:33:32.001Z</time></trkpt><trkpt lat="45.734714957959916" lon="10.471132287929317"><ele>370.0</ele><time>2026-04-18T12:33:33.001Z</time></trkpt><trkpt lat="45.73472443419673" lon="10.47125121523895"><ele>370.0</ele><time>2026-04-18T12:33:34.001Z</time></trkpt><trkpt lat="45.73473468561513" lon="10.47135833700753"><ele>370.0</ele><time>2026-04-18T12:33:35.001Z</time></trkpt><trkpt lat="45.73474397622762" lon="10.471466313846008"><ele>370.0</ele><time>2026-04-18T12:33:36.001Z</time></trkpt><trkpt lat="45.734758770409314" lon="10.471588975598845"><ele>370.0</ele><time>2026-04-18T12:33:37.001Z</time></trkpt><trkpt lat="45.73478090119885" lon="10.471735816672467"><ele>370.0</ele><time>2026-04-18T12:33:38Z</time></trkpt><trkpt lat="45.734792562034755" lon="10.471898583707514"><ele>370.0</ele><time>2026-04-18T12:33:39Z</time></trkpt><trkpt lat="45.734797751696085" lon="10.472071141012426"><ele>370.0</ele><time>2026-04-18T12:33:40Z</time></trkpt><trkpt lat="45.7348191741172" lon="10.472254084103808"><ele>370.0</ele><time>2026-04-18T12:33:41Z</time></trkpt><trkpt lat="45.73483302500464" lon="10.472409369191196"><ele>370.0</ele><time>2026-04-18T12:33:42Z</time></trkpt><trkpt lat="45.73484598888987" lon="10.472551364671599"><ele>370.4</ele><time>2026-04-18T12:33:43Z</time></trkpt><trkpt lat="45.73485902847507" lon="10.472685802364976"><ele>370.8</ele><time>2026-04-18T12:33:44Z</time></trkpt><trkpt lat="45.734871907641974" lon="10.472811158006612"><ele>371.20000000000005</ele><time>2026-04-18T12:33:45Z</time></trkpt><trkpt lat="45.73488118569016" lon="10.472950838399523"><ele>371.6</ele><time>2026-04-18T12:33:46Z</time></trkpt><trkpt lat="45.73490318533912" lon="10.47310598102471"><ele>372.0</ele><time>2026-04-18T12:33:47Z</time></trkpt><trkpt lat="45.73492478984375" lon="10.47327237192664"><ele>373.0</ele><time>2026-04-18T12:33:48Z</time></trkpt><trkpt lat="45.734943713829466" lon="10.473449367731488"><ele>374.0</ele><time>2026-04-18T12:33:49Z</time></trkpt><trkpt lat="45.73496926857147" lon="10.47361626985056"><ele>375.0</ele><time>2026-04-18T12:33:50Z</time></trkpt><trkpt lat="45.73499895329023" lon="10.473764467428353"><ele>376.0</ele><time>2026-04-18T12:33:51Z</time></trkpt><trkpt lat="45.735025474703804" lon="10.473909791916626"><ele>377.0</ele><time>2026-04-18T12:33:52Z</time></trkpt><trkpt lat="45.735049783785044" lon="10.474060830137498"><ele>378.0</ele><time>2026-04-18T12:33:53Z</time></trkpt><trkpt lat="45.73507991690408" lon="10.474210615457238"><ele>379.0</ele><time>2026-04-18T12:33:54Z</time></trkpt><trkpt lat="45.735108687428436" lon="10.474370972517116"><ele>380.0</ele><time>2026-04-18T12:33:55Z</time></trkpt><trkpt lat="45.735132612835315" lon="10.474537180735012"><ele>379.8</ele><time>2026-04-18T12:33:56Z</time></trkpt><trkpt lat="45.73516033471846" lon="10.474689343241403"><ele>379.6</ele><time>2026-04-18T12:33:57Z</time></trkpt><trkpt lat="45.73519021817712" lon="10.474832702780358"><ele>379.4</ele><time>2026-04-18T12:33:58Z</time></trkpt><trkpt lat="45.73522269382219" lon="10.474965952556964"><ele>379.2</ele><time>2026-04-18T12:33:59Z</time></trkpt><trkpt lat="45.73525659125643" lon="10.4751060911744"><ele>379.0</ele><time>2026-04-18T12:34:00Z</time></trkpt><trkpt lat="45.73529405285997" lon="10.475249653796071"><ele>379.0</ele><time>2026-04-18T12:34:01Z</time></trkpt><trkpt lat="45.73533703889583" lon="10.475391271933026"><ele>379.0</ele><time>2026-04-18T12:34:02Z</time></trkpt><trkpt lat="45.735388205734054" lon="10.475527650858414"><ele>379.0</ele><time>2026-04-18T12:34:03Z</time></trkpt><trkpt lat="45.73543570494522" lon="10.475664777517986"><ele>379.0</ele><time>2026-04-18T12:34:04Z</time></trkpt><trkpt lat="45.735487664941886" lon="10.475795484621232"><ele>379.0</ele><time>2026-04-18T12:34:05Z</time></trkpt><trkpt lat="45.73554056800161" lon="10.475919839063332"><ele>379.4</ele><time>2026-04-18T12:34:06Z</time></trkpt><trkpt lat="45.73559643834754" lon="10.47603928658792"><ele>379.79999999999995</ele><time>2026-04-18T12:34:07Z</time></trkpt><trkpt lat="45.73565475152742" lon="10.476162243346094"><ele>380.20000000000005</ele><time>2026-04-18T12:34:08Z</time></trkpt><trkpt lat="45.73571431991617" lon="10.47628869744162"><ele>380.6</ele><time>2026-04-18T12:34:09Z</time></trkpt><trkpt lat="45.73576861051487" lon="10.476420923410355"><ele>381.0</ele><time>2026-04-18T12:34:10Z</time></trkpt><trkpt lat="45.735819782388006" lon="10.476552036757086"><ele>381.6</ele><time>2026-04-18T12:34:11Z</time></trkpt><trkpt lat="45.73587843549425" lon="10.476677818800448"><ele>382.20000000000005</ele><time>2026-04-18T12:34:12Z</time></trkpt><trkpt lat="45.73593147751132" lon="10.476801059523334"><ele>382.79999999999995</ele><time>2026-04-18T12:34:13Z</time></trkpt><trkpt lat="45.73598734522747" lon="10.476922931438747"><ele>383.4</ele><time>2026-04-18T12:34:14Z</time></trkpt><trkpt lat="45.736041554937884" lon="10.477045069371991"><ele>384.0</ele><time>2026-04-18T12:34:15Z</time></trkpt><trkpt lat="45.736094524357696" lon="10.47716953197917"><ele>384.0</ele><time>2026-04-18T12:34:16Z</time></trkpt><trkpt lat="45.73614867317019" lon="10.477285385283356"><ele>384.0</ele><time>2026-04-18T12:34:17Z</time></trkpt><trkpt lat="45.73619675242835" lon="10.477399951002768"><ele>384.0</ele><time>2026-04-18T12:34:18Z</time></trkpt><trkpt lat="45.7362525655829" lon="10.47751356829967"><ele>384.0</ele><time>2026-04-18T12:34:19Z</time></trkpt><trkpt lat="45.736307622729036" lon="10.477628778144647"><ele>384.0</ele><time>2026-04-18T12:34:20Z</time></trkpt><trkpt lat="45.736355522761976" lon="10.477755640922581"><ele>384.0</ele><time>2026-04-18T12:34:21Z</time></trkpt><trkpt lat="45.73640720635631" lon="10.477879304815369"><ele>384.0</ele><time>2026-04-18T12:34:22Z</time></trkpt><trkpt lat="45.73644910618586" lon="10.478026616262685"><ele>384.0</ele><time>2026-04-18T12:34:23Z</time></trkpt><trkpt lat="45.736490663866235" lon="10.47815460290706"><ele>384.0</ele><time>2026-04-18T12:34:24Z</time></trkpt><trkpt lat="45.73651987547482" lon="10.478297034906516"><ele>384.0</ele><time>2026-04-18T12:34:25Z</time></trkpt><trkpt lat="45.73655025076168" lon="10.47843192470694"><ele>385.0</ele><time>2026-04-18T12:34:26Z</time></trkpt><trkpt lat="45.73656947462454" lon="10.478554959219965"><ele>386.0</ele><time>2026-04-18T12:34:27Z</time></trkpt><trkpt lat="45.73656849825506" lon="10.478671560373263"><ele>387.0</ele><time>2026-04-18T12:34:28Z</time></trkpt><trkpt lat="45.73654137364595" lon="10.47877324062996"><ele>388.0</ele><time>2026-04-18T12:34:29Z</time></trkpt><trkpt lat="45.73649920166327" lon="10.478882988803456"><ele>389.0</ele><time>2026-04-18T12:34:30Z</time></trkpt><trkpt lat="45.73646828388952" lon="10.479005918704877"><ele>390.0</ele><time>2026-04-18T12:34:31Z</time></trkpt><trkpt lat="45.73649188786098" lon="10.479140294524681"><ele>391.2</ele><time>2026-04-18T12:34:32Z</time></trkpt><trkpt lat="45.73656574448906" lon="10.479246970458458"><ele>392.4</ele><time>2026-04-18T12:34:33Z</time></trkpt><trkpt lat="45.73664401498399" lon="10.479337858570974"><ele>393.6</ele><time>2026-04-18T12:34:34Z</time></trkpt><trkpt lat="45.736700142179416" lon="10.479465528121937"><ele>394.8</ele><time>2026-04-18T12:34:35Z</time></trkpt><trkpt lat="45.73674186354672" lon="10.479589948637784"><ele>396.0</ele><time>2026-04-18T12:34:36Z</time></trkpt><trkpt lat="45.73675999712504" lon="10.479707423973318"><ele>395.3333333333333</ele><time>2026-04-18T12:34:37Z</time></trkpt><trkpt lat="45.73677522867065" lon="10.479833014724841"><ele>394.66666666666663</ele><time>2026-04-18T12:34:38Z</time></trkpt><trkpt lat="45.73679692271122" lon="10.479952997400195"><ele>394.0</ele><time>2026-04-18T12:34:39Z</time></trkpt><trkpt lat="45.73681551423642" lon="10.480067026107859"><ele>393.3333333333333</ele><time>2026-04-18T12:34:40Z</time></trkpt><trkpt lat="45.73683885921477" lon="10.48017787313036"><ele>392.66666666666663</ele><time>2026-04-18T12:34:41Z</time></trkpt><trkpt lat="45.73686616316097" lon="10.48029577893186"><ele>392.0</ele><time>2026-04-18T12:34:42Z</time></trkpt><trkpt lat="45.73689787775411" lon="10.480415105002447"><ele>393.20000000000005</ele><time>2026-04-18T12:34:43Z</time></trkpt><trkpt lat="45.73693850889851" lon="10.48055071811815"><ele>394.4</ele><time>2026-04-18T12:34:44Z</time></trkpt><trkpt lat="45.7369772933938" lon="10.480698806250377"><ele>395.6</ele><time>2026-04-18T12:34:45Z</time></trkpt><trkpt lat="45.737029696333366" lon="10.480841559528312"><ele>396.79999999999995</ele><time>2026-04-18T12:34:46Z</time></trkpt><trkpt lat="45.7370781858659" lon="10.480983579507111"><ele>398.0</ele><time>2026-04-18T12:34:47Z</time></trkpt><trkpt lat="45.73712531379582" lon="10.481121127594694"><ele>398.0</ele><time>2026-04-18T12:34:48Z</time></trkpt><trkpt lat="45.737171280243786" lon="10.481264236126545"><ele>398.0</ele><time>2026-04-18T12:34:49Z</time></trkpt><trkpt lat="45.73721265865583" lon="10.481401891277674"><ele>398.0</ele><time>2026-04-18T12:34:50Z</time></trkpt><trkpt lat="45.73726086402411" lon="10.481542876479406"><ele>398.0</ele><time>2026-04-18T12:34:51Z</time></trkpt><trkpt lat="45.737310741386445" lon="10.48167128776252"><ele>398.0</ele><time>2026-04-18T12:34:52Z</time></trkpt><trkpt lat="45.737361135796995" lon="10.481799659099678"><ele>399.8333333333333</ele><time>2026-04-18T12:34:53Z</time></trkpt><trkpt lat="45.73741679500529" lon="10.481909056560346"><ele>401.66666666666663</ele><time>2026-04-18T12:34:54Z</time></trkpt><trkpt lat="45.73746946822362" lon="10.482017084926897"><ele>403.5</ele><time>2026-04-18T12:34:55Z</time></trkpt><trkpt lat="45.73752184544382" lon="10.482117022756096"><ele>405.33333333333337</ele><time>2026-04-18T12:34:56Z</time></trkpt><trkpt lat="45.737575603957254" lon="10.482214662023221"><ele>407.1666666666667</ele><time>2026-04-18T12:34:57Z</time></trkpt><trkpt lat="45.73763242543522" lon="10.482305797571248"><ele>409.0</ele><time>2026-04-18T12:34:58.001Z</time></trkpt><trkpt lat="45.73768255500966" lon="10.482384486181152"><ele>407.83333333333337</ele><time>2026-04-18T12:34:59.001Z</time></trkpt><trkpt lat="45.737733853995586" lon="10.482469695303855"><ele>406.6666666666667</ele><time>2026-04-18T12:35:00.001Z</time></trkpt><trkpt lat="45.73775380023018" lon="10.48255693031532"><ele>405.5</ele><time>2026-04-18T12:35:01.001Z</time></trkpt><trkpt lat="45.73770816847324" lon="10.48266395095526"><ele>404.33333333333337</ele><time>2026-04-18T12:35:03.001Z</time></trkpt><trkpt lat="45.73763737125487" lon="10.482689909707688"><ele>403.1666666666667</ele><time>2026-04-18T12:35:04.001Z</time></trkpt><trkpt lat="45.73754711606893" lon="10.482715120681927"><ele>402.0</ele><time>2026-04-18T12:35:05.001Z</time></trkpt><trkpt lat="45.73745989836573" lon="10.482745870009534"><ele>405.0</ele><time>2026-04-18T12:35:06.001Z</time></trkpt><trkpt lat="45.73736758801129" lon="10.482722672723472"><ele>408.0</ele><time>2026-04-18T12:35:07.001Z</time></trkpt><trkpt lat="45.73728385659505" lon="10.482825468919465"><ele>411.0</ele><time>2026-04-18T12:35:08.001Z</time></trkpt><trkpt lat="45.737204740401154" lon="10.482875433981587"><ele>414.0</ele><time>2026-04-18T12:35:09.001Z</time></trkpt><trkpt lat="45.737125432153434" lon="10.482896078960975"><ele>417.0</ele><time>2026-04-18T12:35:10.001Z</time></trkpt><trkpt lat="45.73704796902676" lon="10.482936528041781"><ele>418.6666666666667</ele><time>2026-04-18T12:35:11.001Z</time></trkpt><trkpt lat="45.73696691668052" lon="10.482978851324154"><ele>420.33333333333337</ele><time>2026-04-18T12:35:12.001Z</time></trkpt><trkpt lat="45.73689043211522" lon="10.483015380640124"><ele>422.0</ele><time>2026-04-18T12:35:13.001Z</time></trkpt><trkpt lat="45.73681737538111" lon="10.483029863084882"><ele>423.6666666666667</ele><time>2026-04-18T12:35:14.001Z</time></trkpt><trkpt lat="45.7367411988871" lon="10.483063876631723"><ele>425.33333333333337</ele><time>2026-04-18T12:35:15.001Z</time></trkpt><trkpt lat="45.73666223952472" lon="10.483082090991957"><ele>427.0</ele><time>2026-04-18T12:35:16.001Z</time></trkpt><trkpt lat="45.73658486220431" lon="10.48311566804851"><ele>429.33333333333337</ele><time>2026-04-18T12:35:17.001Z</time></trkpt><trkpt lat="45.73650406639834" lon="10.483155838210006"><ele>431.6666666666667</ele><time>2026-04-18T12:35:18.001Z</time></trkpt><trkpt lat="45.736415618726404" lon="10.48315960610235"><ele>434.0</ele><time>2026-04-18T12:35:19.001Z</time></trkpt><trkpt lat="45.736336059327655" lon="10.483207358133232"><ele>436.33333333333337</ele><time>2026-04-18T12:35:20.001Z</time></trkpt><trkpt lat="45.73625497046426" lon="10.483235953424812"><ele>438.6666666666667</ele><time>2026-04-18T12:35:21.001Z</time></trkpt><trkpt lat="45.73618037859669" lon="10.483260614829813"><ele>441.0</ele><time>2026-04-18T12:35:22.001Z</time></trkpt><trkpt lat="45.736103784121084" lon="10.483257180998555"><ele>442.6666666666667</ele><time>2026-04-18T12:35:23.001Z</time></trkpt><trkpt lat="45.736034608065204" lon="10.483273144520048"><ele>444.33333333333337</ele><time>2026-04-18T12:35:24.001Z</time></trkpt><trkpt lat="45.735972806894445" lon="10.483310767050307"><ele>446.0</ele><time>2026-04-18T12:35:25.001Z</time></trkpt><trkpt lat="45.73591647910131" lon="10.483357701905305"><ele>447.6666666666667</ele><time>2026-04-18T12:35:34.001Z</time></trkpt><trkpt lat="45.73586362611806" lon="10.483409966138334"><ele>449.33333333333337</ele><time>2026-04-18T12:35:36.001Z</time></trkpt><trkpt lat="45.73594986487765" lon="10.483361810352193"><ele>451.0</ele><time>2026-04-18T12:36:09Z</time></trkpt><trkpt lat="45.73604085711863" lon="10.483303937056478"><ele>449.33333333333337</ele><time>2026-04-18T12:36:11Z</time></trkpt><trkpt lat="45.736109537858454" lon="10.483289645456539"><ele>447.6666666666667</ele><time>2026-04-18T12:36:12Z</time></trkpt><trkpt lat="45.73623604031023" lon="10.483262432416897"><ele>446.0</ele><time>2026-04-18T12:36:14Z</time></trkpt><trkpt lat="45.73629931152479" lon="10.483244729868355"><ele>444.33333333333337</ele><time>2026-04-18T12:36:15Z</time></trkpt><trkpt lat="45.736375805961174" lon="10.483222087329784"><ele>442.6666666666667</ele><time>2026-04-18T12:36:16Z</time></trkpt><trkpt lat="45.73644701714702" lon="10.48319427664759"><ele>441.0</ele><time>2026-04-18T12:36:17Z</time></trkpt><trkpt lat="45.736513455673354" lon="10.483171282498082"><ele>441.0</ele><time>2026-04-18T12:36:18Z</time></trkpt><trkpt lat="45.73659743393218" lon="10.483151754698818"><ele>441.0</ele><time>2026-04-18T12:36:19Z</time></trkpt><trkpt lat="45.73668183037275" lon="10.483115760825683"><ele>441.0</ele><time>2026-04-18T12:36:20Z</time></trkpt><trkpt lat="45.736752865426375" lon="10.48307645273193"><ele>441.0</ele><time>2026-04-18T12:36:21Z</time></trkpt><trkpt lat="45.73684648388849" lon="10.483053956906922"><ele>441.0</ele><time>2026-04-18T12:36:22Z</time></trkpt><trkpt lat="45.73695256268774" lon="10.483057603796775"><ele>438.6666666666667</ele><time>2026-04-18T12:36:23Z</time></trkpt><trkpt lat="45.737037314045196" lon="10.483026830567251"><ele>436.33333333333337</ele><time>2026-04-18T12:36:24Z</time></trkpt><trkpt lat="45.737116327032425" lon="10.482973595607449"><ele>434.0</ele><time>2026-04-18T12:36:25Z</time></trkpt><trkpt lat="45.737188548985934" lon="10.482925411123352"><ele>431.6666666666667</ele><time>2026-04-18T12:36:26Z</time></trkpt><trkpt lat="45.73724741718187" lon="10.482859647528072"><ele>429.33333333333337</ele><time>2026-04-18T12:36:27Z</time></trkpt><trkpt lat="45.73733232300596" lon="10.482808779290801"><ele>427.0</ele><time>2026-04-18T12:36:28Z</time></trkpt><trkpt lat="45.73740881030067" lon="10.4827795798754"><ele>425.33333333333337</ele><time>2026-04-18T12:36:29Z</time></trkpt><trkpt lat="45.73748291451244" lon="10.482756450654337"><ele>423.6666666666667</ele><time>2026-04-18T12:36:30Z</time></trkpt><trkpt lat="45.737555165139334" lon="10.482725003725879"><ele>422.0</ele><time>2026-04-18T12:36:31Z</time></trkpt><trkpt lat="45.737671216760894" lon="10.482689317499215"><ele>420.33333333333337</ele><time>2026-04-18T12:36:33Z</time></trkpt><trkpt lat="45.73776086113245" lon="10.482633398505458"><ele>418.6666666666667</ele><time>2026-04-18T12:36:35Z</time></trkpt><trkpt lat="45.73783343715686" lon="10.48258309602923"><ele>417.0</ele><time>2026-04-18T12:36:41Z</time></trkpt><trkpt lat="45.7379635483841" lon="10.482530496134016"><ele>414.0</ele><time>2026-04-18T12:36:43Z</time></trkpt><trkpt lat="45.73803320430523" lon="10.482499090481653"><ele>411.0</ele><time>2026-04-18T12:36:44Z</time></trkpt><trkpt lat="45.738095510946145" lon="10.482478945833245"><ele>408.0</ele><time>2026-04-18T12:36:45Z</time></trkpt><trkpt lat="45.73818357690617" lon="10.482486569101656"><ele>405.0</ele><time>2026-04-18T12:36:47Z</time></trkpt><trkpt lat="45.738279085948925" lon="10.482423671212123"><ele>402.0</ele><time>2026-04-18T12:36:49Z</time></trkpt><trkpt lat="45.73841360959938" lon="10.482363235061845"><ele>402.0</ele><time>2026-04-18T12:36:51Z</time></trkpt><trkpt lat="45.73849134230068" lon="10.482360911760084"><ele>402.0</ele><time>2026-04-18T12:36:52Z</time></trkpt><trkpt lat="45.7385875765242" lon="10.482371262856404"><ele>402.0</ele><time>2026-04-18T12:36:53Z</time></trkpt><trkpt lat="45.73868986144237" lon="10.48238623666196"><ele>402.0</ele><time>2026-04-18T12:36:54Z</time></trkpt><trkpt lat="45.7387861380846" lon="10.482382256895654"><ele>402.0</ele><time>2026-04-18T12:36:55Z</time></trkpt><trkpt lat="45.73888053833599" lon="10.482380352097652"><ele>401.20000000000005</ele><time>2026-04-18T12:36:56Z</time></trkpt><trkpt lat="45.73896150455744" lon="10.482375089287203"><ele>400.4</ele><time>2026-04-18T12:36:57Z</time></trkpt><trkpt lat="45.73905236609934" lon="10.482379854127657"><ele>399.6</ele><time>2026-04-18T12:36:58Z</time></trkpt><trkpt lat="45.73914482973821" lon="10.482363060899488"><ele>398.79999999999995</ele><time>2026-04-18T12:36:59Z</time></trkpt><trkpt lat="45.73924075663635" lon="10.482338408355629"><ele>398.0</ele><time>2026-04-18T12:37:00Z</time></trkpt><trkpt lat="45.739328379162714" lon="10.482309050473134"><ele>397.3333333333333</ele><time>2026-04-18T12:37:01Z</time></trkpt><trkpt lat="45.7394046467888" lon="10.48225472865964"><ele>396.66666666666663</ele><time>2026-04-18T12:37:02Z</time></trkpt><trkpt lat="45.73948463197209" lon="10.482209902978727"><ele>396.0</ele><time>2026-04-18T12:37:03Z</time></trkpt><trkpt lat="45.739550043901644" lon="10.482174728556709"><ele>395.33333333333337</ele><time>2026-04-18T12:37:04Z</time></trkpt><trkpt lat="45.73963439483184" lon="10.482194025685727"><ele>394.6666666666667</ele><time>2026-04-18T12:37:05Z</time></trkpt><trkpt lat="45.739718871991485" lon="10.482170328174128"><ele>394.0</ele><time>2026-04-18T12:37:06Z</time></trkpt><trkpt lat="45.73980120528346" lon="10.482189223764347"><ele>394.00000000000006</ele><time>2026-04-18T12:37:07.001Z</time></trkpt><trkpt lat="45.73987739416788" lon="10.482197337427163"><ele>394.0</ele><time>2026-04-18T12:37:08.001Z</time></trkpt><trkpt lat="45.739950286780726" lon="10.482201187513681"><ele>394.0</ele><time>2026-04-18T12:37:09.001Z</time></trkpt><trkpt lat="45.74002850894209" lon="10.482175053574364"><ele>394.0</ele><time>2026-04-18T12:37:13.001Z</time></trkpt><trkpt lat="45.74012877026159" lon="10.482216154358412"><ele>394.00000000000006</ele><time>2026-04-18T12:37:15.001Z</time></trkpt><trkpt lat="45.74019902457315" lon="10.482259874183024"><ele>394.0</ele><time>2026-04-18T12:37:17.001Z</time></trkpt><trkpt lat="45.740265808451255" lon="10.48222928618139"><ele>393.0</ele><time>2026-04-18T12:37:19.001Z</time></trkpt><trkpt lat="45.740325316569695" lon="10.482199639105044"><ele>392.0</ele><time>2026-04-18T12:37:20.001Z</time></trkpt><trkpt lat="45.74039336682992" lon="10.482195000972023"><ele>391.0</ele><time>2026-04-18T12:37:21.001Z</time></trkpt><trkpt lat="45.7404659216602" lon="10.482203109077194"><ele>390.0</ele><time>2026-04-18T12:37:22.001Z</time></trkpt><trkpt lat="45.740526009115065" lon="10.482234034040388"><ele>389.0</ele><time>2026-04-18T12:37:23.001Z</time></trkpt><trkpt lat="45.74059453569477" lon="10.482227310104815"><ele>388.0</ele><time>2026-04-18T12:37:24.001Z</time></trkpt><trkpt lat="45.740687740931975" lon="10.48224356115686"><ele>387.0</ele><time>2026-04-18T12:37:26.001Z</time></trkpt><trkpt lat="45.74077976101251" lon="10.48224136331139"><ele>387.0</ele><time>2026-04-18T12:37:28.001Z</time></trkpt><trkpt lat="45.740870717264" lon="10.482147537938047"><ele>387.0</ele><time>2026-04-18T12:37:30.001Z</time></trkpt><trkpt lat="45.74089758737598" lon="10.482042022787398"><ele>387.0</ele><time>2026-04-18T12:37:31.001Z</time></trkpt><trkpt lat="45.740886965260785" lon="10.481876334238628"><ele>387.0</ele><time>2026-04-18T12:37:33.001Z</time></trkpt><trkpt lat="45.74086350400929" lon="10.481785004487215"><ele>387.0</ele><time>2026-04-18T12:37:34.001Z</time></trkpt><trkpt lat="45.74089694994877" lon="10.481668162560023"><ele>385.8333333333333</ele><time>2026-04-18T12:37:35.001Z</time></trkpt><trkpt lat="45.740949337487834" lon="10.481516853314858"><ele>384.6666666666667</ele><time>2026-04-18T12:37:37.001Z</time></trkpt><trkpt lat="45.74097778330061" lon="10.48140208414542"><ele>383.5</ele><time>2026-04-18T12:37:39.001Z</time></trkpt><trkpt lat="45.741017903082955" lon="10.48133132533102"><ele>382.33333333333337</ele><time>2026-04-18T12:37:40.001Z</time></trkpt><trkpt lat="45.741037146266486" lon="10.481233995803317"><ele>381.1666666666667</ele><time>2026-04-18T12:37:41.001Z</time></trkpt><trkpt lat="45.74107104235967" lon="10.48113670343352"><ele>380.0</ele><time>2026-04-18T12:37:42.001Z</time></trkpt><trkpt lat="45.74111544019811" lon="10.481032079805845"><ele>378.8</ele><time>2026-04-18T12:37:44.001Z</time></trkpt><trkpt lat="45.74117614807415" lon="10.480972190757115"><ele>377.6</ele><time>2026-04-18T12:37:47.001Z</time></trkpt><trkpt lat="45.741249049924896" lon="10.481115334425036"><ele>376.4</ele><time>2026-04-18T12:37:48.001Z</time></trkpt><trkpt lat="45.74132308009669" lon="10.48119714956639"><ele>375.2</ele><time>2026-04-18T12:37:49.001Z</time></trkpt><trkpt lat="45.74140926090717" lon="10.481296365204953"><ele>374.0</ele><time>2026-04-18T12:37:50Z</time></trkpt><trkpt lat="45.741499225576966" lon="10.481399773423766"><ele>374.0</ele><time>2026-04-18T12:37:51Z</time></trkpt><trkpt lat="45.74162751570563" lon="10.481468380524431"><ele>374.0</ele><time>2026-04-18T12:37:52Z</time></trkpt><trkpt lat="45.74171409640641" lon="10.481573898191726"><ele>374.0</ele><time>2026-04-18T12:37:53Z</time></trkpt><trkpt lat="45.741799912311976" lon="10.481701567155422"><ele>374.0</ele><time>2026-04-18T12:37:54Z</time></trkpt><trkpt lat="45.74187725459398" lon="10.481844925499379"><ele>373.0</ele><time>2026-04-18T12:37:55Z</time></trkpt><trkpt lat="45.741956253960645" lon="10.481983984563822"><ele>372.0</ele><time>2026-04-18T12:37:56Z</time></trkpt><trkpt lat="45.7420303997603" lon="10.482101728392221"><ele>371.0</ele><time>2026-04-18T12:37:57Z</time></trkpt><trkpt lat="45.742104343758065" lon="10.482218119812652"><ele>370.0</ele><time>2026-04-18T12:37:58Z</time></trkpt><trkpt lat="45.74217726553798" lon="10.482333027394038"><ele>370.0</ele><time>2026-04-18T12:37:59Z</time></trkpt><trkpt lat="45.742260449872376" lon="10.48244370661891"><ele>370.0</ele><time>2026-04-18T12:38:00Z</time></trkpt><trkpt lat="45.742342737700675" lon="10.482548306713666"><ele>370.0</ele><time>2026-04-18T12:38:01Z</time></trkpt><trkpt lat="45.742430191230284" lon="10.4826645324179"><ele>370.0</ele><time>2026-04-18T12:38:02Z</time></trkpt><trkpt lat="45.74251772281318" lon="10.482770106450896"><ele>370.0</ele><time>2026-04-18T12:38:03Z</time></trkpt><trkpt lat="45.74260099518604" lon="10.482872771371675"><ele>370.0</ele><time>2026-04-18T12:38:04Z</time></trkpt><trkpt lat="45.742690437818254" lon="10.48296839558084"><ele>370.0</ele><time>2026-04-18T12:38:05Z</time></trkpt><trkpt lat="45.742755875473186" lon="10.483092719326867"><ele>370.0</ele><time>2026-04-18T12:38:06Z</time></trkpt><trkpt lat="45.74284207247118" lon="10.48319924094054"><ele>370.0</ele><time>2026-04-18T12:38:07Z</time></trkpt><trkpt lat="45.74292145066287" lon="10.483306312399217"><ele>369.8</ele><time>2026-04-18T12:38:08Z</time></trkpt><trkpt lat="45.74300481255843" lon="10.483410254886623"><ele>369.6</ele><time>2026-04-18T12:38:09Z</time></trkpt><trkpt lat="45.74309378772519" lon="10.48351683122715"><ele>369.4</ele><time>2026-04-18T12:38:10Z</time></trkpt><trkpt lat="45.743170821623416" lon="10.483614065826082"><ele>369.2</ele><time>2026-04-18T12:38:11Z</time></trkpt><trkpt lat="45.74323790406269" lon="10.483705171672744"><ele>369.0</ele><time>2026-04-18T12:38:12Z</time></trkpt><trkpt lat="45.74331840980819" lon="10.483788769330896"><ele>369.6</ele><time>2026-04-18T12:38:13Z</time></trkpt><trkpt lat="45.74340658081788" lon="10.483868052584931"><ele>370.2</ele><time>2026-04-18T12:38:14Z</time></trkpt><trkpt lat="45.743504328524104" lon="10.48395098191768"><ele>370.8</ele><time>2026-04-18T12:38:15Z</time></trkpt><trkpt lat="45.7436041059725" lon="10.484006031885297"><ele>371.40000000000003</ele><time>2026-04-18T12:38:16Z</time></trkpt><trkpt lat="45.743702030736145" lon="10.484072462620087"><ele>372.0</ele><time>2026-04-18T12:38:17Z</time></trkpt><trkpt lat="45.74379463959892" lon="10.484163160387292"><ele>372.0</ele><time>2026-04-18T12:38:18Z</time></trkpt><trkpt lat="45.74387021772274" lon="10.484261016529974"><ele>372.0</ele><time>2026-04-18T12:38:19Z</time></trkpt><trkpt lat="45.74394199363001" lon="10.484344790944732"><ele>372.0</ele><time>2026-04-18T12:38:20Z</time></trkpt><trkpt lat="45.74400065536606" lon="10.484394641158712"><ele>372.0</ele><time>2026-04-18T12:38:21Z</time></trkpt><trkpt lat="45.744041025572365" lon="10.484564453470199"><ele>372.0</ele><time>2026-04-18T12:38:23Z</time></trkpt><trkpt lat="45.74398930444259" lon="10.484664473484006"><ele>373.1666666666667</ele><time>2026-04-18T12:38:24Z</time></trkpt><trkpt lat="45.74396362056297" lon="10.484781425116585"><ele>374.3333333333333</ele><time>2026-04-18T12:38:25Z</time></trkpt><trkpt lat="45.743938545562614" lon="10.484895603432872"><ele>375.5</ele><time>2026-04-18T12:38:26Z</time></trkpt><trkpt lat="45.74391874984265" lon="10.485008046185042"><ele>376.66666666666663</ele><time>2026-04-18T12:38:27Z</time></trkpt><trkpt lat="45.74388750029306" lon="10.48510504923169"><ele>377.8333333333333</ele><time>2026-04-18T12:38:28Z</time></trkpt><trkpt lat="45.74383916127575" lon="10.48518487717868"><ele>379.0</ele><time>2026-04-18T12:38:29Z</time></trkpt><trkpt lat="45.74377895609032" lon="10.485265166625496"><ele>379.0</ele><time>2026-04-18T12:38:30Z</time></trkpt><trkpt lat="45.74372027154546" lon="10.485367719174754"><ele>379.0</ele><time>2026-04-18T12:38:31Z</time></trkpt><trkpt lat="45.74364813051581" lon="10.48544808143912"><ele>379.0</ele><time>2026-04-18T12:38:32Z</time></trkpt><trkpt lat="45.743585049101426" lon="10.485551889814676"><ele>379.0</ele><time>2026-04-18T12:38:33Z</time></trkpt><trkpt lat="45.74353248830298" lon="10.485676366401758"><ele>379.0</ele><time>2026-04-18T12:38:34Z</time></trkpt><trkpt lat="45.743491745355605" lon="10.485805123056343"><ele>381.6</ele><time>2026-04-18T12:38:35Z</time></trkpt><trkpt lat="45.74344465030977" lon="10.485929024065266"><ele>384.2</ele><time>2026-04-18T12:38:36Z</time></trkpt><trkpt lat="45.74339935601607" lon="10.486047747572108"><ele>386.8</ele><time>2026-04-18T12:38:37Z</time></trkpt><trkpt lat="45.74336619141952" lon="10.486174074390894"><ele>389.40000000000003</ele><time>2026-04-18T12:38:38Z</time></trkpt><trkpt lat="45.7433102144857" lon="10.486276524178626"><ele>392.0</ele><time>2026-04-18T12:38:39Z</time></trkpt><trkpt lat="45.7432649177093" lon="10.486384298142593"><ele>393.6</ele><time>2026-04-18T12:38:40Z</time></trkpt><trkpt lat="45.74323064546501" lon="10.486510387055091"><ele>395.20000000000005</ele><time>2026-04-18T12:38:41Z</time></trkpt><trkpt lat="45.74321783334501" lon="10.486630367957712"><ele>396.8</ele><time>2026-04-18T12:38:42Z</time></trkpt><trkpt lat="45.74321937000057" lon="10.486763729423146"><ele>398.4</ele><time>2026-04-18T12:38:43Z</time></trkpt><trkpt lat="45.743226768524224" lon="10.486893350346772"><ele>400.0</ele><time>2026-04-18T12:38:44Z</time></trkpt><trkpt lat="45.74324560909233" lon="10.487025586811518"><ele>401.83333333333337</ele><time>2026-04-18T12:38:45Z</time></trkpt><trkpt lat="45.74327022711799" lon="10.487150306058044"><ele>403.6666666666667</ele><time>2026-04-18T12:38:46Z</time></trkpt><trkpt lat="45.74329698020793" lon="10.487268852801407"><ele>405.5</ele><time>2026-04-18T12:38:47Z</time></trkpt><trkpt lat="45.743335567408025" lon="10.487383935329502"><ele>407.33333333333337</ele><time>2026-04-18T12:38:48Z</time></trkpt><trkpt lat="45.74338774853493" lon="10.48748401428934"><ele>409.1666666666667</ele><time>2026-04-18T12:38:49Z</time></trkpt><trkpt lat="45.743449970235595" lon="10.487569746595273"><ele>411.0</ele><time>2026-04-18T12:38:50Z</time></trkpt><trkpt lat="45.7435107098972" lon="10.48766272535656"><ele>411.5</ele><time>2026-04-18T12:38:51Z</time></trkpt><trkpt lat="45.74355544185918" lon="10.487741077326206"><ele>412.0</ele><time>2026-04-18T12:38:52Z</time></trkpt><trkpt lat="45.743604356537716" lon="10.487848717063853"><ele>412.5</ele><time>2026-04-18T12:38:53Z</time></trkpt><trkpt lat="45.7436436234791" lon="10.487966760752059"><ele>413.0</ele><time>2026-04-18T12:38:54Z</time></trkpt><trkpt lat="45.74368153430344" lon="10.488045416322105"><ele>413.5</ele><time>2026-04-18T12:38:55Z</time></trkpt><trkpt lat="45.74371857337356" lon="10.488151586601095"><ele>414.0</ele><time>2026-04-18T12:38:57Z</time></trkpt><trkpt lat="45.74385553451457" lon="10.488142904866036"><ele>417.0</ele><time>2026-04-18T12:39:04Z</time></trkpt><trkpt lat="45.74391652426172" lon="10.48817748306797"><ele>420.0</ele><time>2026-04-18T12:39:05Z</time></trkpt><trkpt lat="45.74401173516132" lon="10.488261776767903"><ele>423.0</ele><time>2026-04-18T12:39:07Z</time></trkpt><trkpt lat="45.74409869661081" lon="10.48832273244532"><ele>426.0</ele><time>2026-04-18T12:39:09Z</time></trkpt><trkpt lat="45.74417959166712" lon="10.488421037167303"><ele>429.0</ele><time>2026-04-18T12:39:11Z</time></trkpt><trkpt lat="45.744225995417125" lon="10.48849476875669"><ele>429.0</ele><time>2026-04-18T12:39:12Z</time></trkpt><trkpt lat="45.74425522481773" lon="10.48859432680216"><ele>429.0</ele><time>2026-04-18T12:39:13Z</time></trkpt><trkpt lat="45.74429741586945" lon="10.488695993102493"><ele>429.0</ele><time>2026-04-18T12:39:14Z</time></trkpt><trkpt lat="45.744326510629236" lon="10.488809003645558"><ele>429.0</ele><time>2026-04-18T12:39:15Z</time></trkpt><trkpt lat="45.7443591584622" lon="10.488914055617016"><ele>429.0</ele><time>2026-04-18T12:39:16Z</time></trkpt><trkpt lat="45.74440087483716" lon="10.489004456308459"><ele>429.0</ele><time>2026-04-18T12:39:17.001Z</time></trkpt><trkpt lat="45.7444145104528" lon="10.489092989791626"><ele>432.1666666666667</ele><time>2026-04-18T12:39:18.001Z</time></trkpt><trkpt lat="45.74444915207315" lon="10.489204973517753"><ele>435.33333333333337</ele><time>2026-04-18T12:39:20.001Z</time></trkpt><trkpt lat="45.74458045344334" lon="10.489150091250822"><ele>438.5</ele><time>2026-04-18T12:39:23.001Z</time></trkpt><trkpt lat="45.74463796451837" lon="10.489195631584668"><ele>441.6666666666667</ele><time>2026-04-18T12:39:25.001Z</time></trkpt><trkpt lat="45.744567248967016" lon="10.48918234700237"><ele>444.83333333333337</ele><time>2026-04-18T12:40:29Z</time></trkpt><trkpt lat="45.74449843856289" lon="10.489207039323377"><ele>448.0</ele><time>2026-04-18T12:41:01Z</time></trkpt><trkpt lat="45.7445162534041" lon="10.489091675723785"><ele>448.00000000000006</ele><time>2026-04-18T12:41:04Z</time></trkpt><trkpt lat="45.744615297281115" lon="10.48916259785878"><ele>448.0</ele><time>2026-04-18T12:41:06Z</time></trkpt><trkpt lat="45.744641036553595" lon="10.489254539968067"><ele>448.0</ele><time>2026-04-18T12:41:07Z</time></trkpt><trkpt lat="45.7446536250793" lon="10.489376430943961"><ele>448.0</ele><time>2026-04-18T12:41:08Z</time></trkpt><trkpt lat="45.744679248629154" lon="10.489507553854466"><ele>448.00000000000006</ele><time>2026-04-18T12:41:09Z</time></trkpt><trkpt lat="45.74468678534474" lon="10.48961240533552"><ele>448.0</ele><time>2026-04-18T12:41:10Z</time></trkpt><trkpt lat="45.74467772745053" lon="10.48971358226803"><ele>451.33333333333337</ele><time>2026-04-18T12:41:11Z</time></trkpt><trkpt lat="45.74469667219962" lon="10.489810285164877"><ele>454.6666666666667</ele><time>2026-04-18T12:41:12Z</time></trkpt><trkpt lat="45.74470978305922" lon="10.489917801404784"><ele>458.0</ele><time>2026-04-18T12:41:13Z</time></trkpt><trkpt lat="45.74472700794323" lon="10.490029836575227"><ele>461.33333333333337</ele><time>2026-04-18T12:41:14Z</time></trkpt><trkpt lat="45.744707836307384" lon="10.49014885865977"><ele>464.6666666666667</ele><time>2026-04-18T12:41:15Z</time></trkpt><trkpt lat="45.744684562149324" lon="10.490246048665506"><ele>468.0</ele><time>2026-04-18T12:41:16Z</time></trkpt><trkpt lat="45.74466591813684" lon="10.490344404966669"><ele>471.6666666666667</ele><time>2026-04-18T12:41:17Z</time></trkpt><trkpt lat="45.74464056912945" lon="10.490460537225706"><ele>475.33333333333337</ele><time>2026-04-18T12:41:18Z</time></trkpt><trkpt lat="45.74462481704312" lon="10.490623380993064"><ele>479.0</ele><time>2026-04-18T12:41:20Z</time></trkpt><trkpt lat="45.74462406700794" lon="10.490714356071178"><ele>482.6666666666667</ele><time>2026-04-18T12:41:21Z</time></trkpt><trkpt lat="45.74460548148052" lon="10.490808990377412"><ele>486.33333333333337</ele><time>2026-04-18T12:41:22Z</time></trkpt><trkpt lat="45.74461170160162" lon="10.49096128639041"><ele>490.0</ele><time>2026-04-18T12:41:24.001Z</time></trkpt><trkpt lat="45.74462282925815" lon="10.491061783351462"><ele>490.0</ele><time>2026-04-18T12:41:25.001Z</time></trkpt><trkpt lat="45.7446023766852" lon="10.491219659309483"><ele>490.0</ele><time>2026-04-18T12:41:29.001Z</time></trkpt><trkpt lat="45.74461748460619" lon="10.491333697061966"><ele>490.0</ele><time>2026-04-18T12:41:32.001Z</time></trkpt><trkpt lat="45.74465199944061" lon="10.491433347095523"><ele>490.0</ele><time>2026-04-18T12:41:35.001Z</time></trkpt><trkpt lat="45.74470447256051" lon="10.491551781946121"><ele>490.0</ele><time>2026-04-18T12:41:36.001Z</time></trkpt><trkpt lat="45.744722100990316" lon="10.491674125613176"><ele>494.4</ele><time>2026-04-18T12:41:37.001Z</time></trkpt><trkpt lat="45.744718746159656" lon="10.49179900522464"><ele>498.8</ele><time>2026-04-18T12:41:38.001Z</time></trkpt><trkpt lat="45.7447338057501" lon="10.491997155326127"><ele>503.20000000000005</ele><time>2026-04-18T12:41:39.001Z</time></trkpt><trkpt lat="45.74471604748723" lon="10.492140102828113"><ele>507.6</ele><time>2026-04-18T12:41:40.001Z</time></trkpt><trkpt lat="45.74475355542238" lon="10.492252602556537"><ele>512.0</ele><time>2026-04-18T12:41:41.001Z</time></trkpt><trkpt lat="45.744777285058724" lon="10.492349754647725"><ele>515.8333333333333</ele><time>2026-04-18T12:41:42.001Z</time></trkpt><trkpt lat="45.744817008988996" lon="10.492483634782879"><ele>519.6666666666666</ele><time>2026-04-18T12:41:44.001Z</time></trkpt><trkpt lat="45.744831880864695" lon="10.49258708944699"><ele>523.5</ele><time>2026-04-18T12:41:45.001Z</time></trkpt><trkpt lat="45.74479858100126" lon="10.492721938227415"><ele>527.3333333333334</ele><time>2026-04-18T12:41:47.001Z</time></trkpt><trkpt lat="45.744742490888335" lon="10.492779236569067"><ele>531.1666666666667</ele><time>2026-04-18T12:41:53.001Z</time></trkpt><trkpt lat="45.74467472400039" lon="10.492885185128985"><ele>535.0</ele><time>2026-04-18T12:41:56.001Z</time></trkpt><trkpt lat="45.74460179468304" lon="10.492906707572875"><ele>535.0</ele><time>2026-04-18T12:41:57.001Z</time></trkpt><trkpt lat="45.744501862326864" lon="10.492830590771609"><ele>535.0</ele><time>2026-04-18T12:41:58.001Z</time></trkpt><trkpt lat="45.74444075493288" lon="10.49272778887137"><ele>535.0</ele><time>2026-04-18T12:41:59.001Z</time></trkpt><trkpt lat="45.7443459528194" lon="10.492622971877605"><ele>535.0</ele><time>2026-04-18T12:42:00.001Z</time></trkpt><trkpt lat="45.74422259718051" lon="10.492531276644389"><ele>531.5</ele><time>2026-04-18T12:42:01.001Z</time></trkpt><trkpt lat="45.744116069151964" lon="10.492517470639086"><ele>528.0</ele><time>2026-04-18T12:42:02Z</time></trkpt><trkpt lat="45.7440236909116" lon="10.492572186048715"><ele>524.5</ele><time>2026-04-18T12:42:03Z</time></trkpt><trkpt lat="45.74395858516352" lon="10.492610699165974"><ele>521.0</ele><time>2026-04-18T12:42:04Z</time></trkpt><trkpt lat="45.744013114785396" lon="10.492908962529537"><ele>527.6</ele><time>2026-04-18T12:42:09Z</time></trkpt><trkpt lat="45.74401454301167" lon="10.493024401152741"><ele>534.2</ele><time>2026-04-18T12:42:11Z</time></trkpt><trkpt lat="45.74407306584194" lon="10.49312642432188"><ele>540.8</ele><time>2026-04-18T12:42:14Z</time></trkpt><trkpt lat="45.744154990446084" lon="10.493077099898562"><ele>547.4</ele><time>2026-04-18T12:42:16Z</time></trkpt><trkpt lat="45.74426458530084" lon="10.49301087763719"><ele>554.0</ele><time>2026-04-18T12:42:18Z</time></trkpt><trkpt lat="45.74430967171989" lon="10.493111824121016"><ele>554.0</ele><time>2026-04-18T12:42:34Z</time></trkpt><trkpt lat="45.74431241867607" lon="10.493203522095197"><ele>554.0</ele><time>2026-04-18T12:42:36Z</time></trkpt><trkpt lat="45.744372405274525" lon="10.493276524714066"><ele>554.0</ele><time>2026-04-18T12:42:41Z</time></trkpt><trkpt lat="45.744462143942165" lon="10.493318151476288"><ele>554.0</ele><time>2026-04-18T12:42:42Z</time></trkpt><trkpt lat="45.74458800448372" lon="10.49346843085897"><ele>554.0</ele><time>2026-04-18T12:42:44Z</time></trkpt><trkpt lat="45.744696333240874" lon="10.49361193638441"><ele>554.0</ele><time>2026-04-18T12:42:46Z</time></trkpt><trkpt lat="45.744628146453714" lon="10.493654504100038"><ele>554.0</ele><time>2026-04-18T12:42:49Z</time></trkpt><trkpt lat="45.74455444683136" lon="10.493588254007122"><ele>554.0</ele><time>2026-04-18T12:42:51Z</time></trkpt><trkpt lat="45.7443846119453" lon="10.493625820580284"><ele>554.0</ele><time>2026-04-18T12:42:53Z</time></trkpt><trkpt lat="45.744301111507994" lon="10.493657942456418"><ele>554.0</ele><time>2026-04-18T12:42:55Z</time></trkpt><trkpt lat="45.74425105742885" lon="10.493738205326961"><ele>561.25</ele><time>2026-04-18T12:42:57Z</time></trkpt><trkpt lat="45.74422085485547" lon="10.49382919184453"><ele>568.5</ele><time>2026-04-18T12:42:59Z</time></trkpt><trkpt lat="45.74432427966196" lon="10.493862048358979"><ele>575.75</ele><time>2026-04-18T12:43:00Z</time></trkpt><trkpt lat="45.74447824586287" lon="10.4938764796238"><ele>583.0</ele><time>2026-04-18T12:43:02Z</time></trkpt><trkpt lat="45.744640313828604" lon="10.494014629972538"><ele>583.0</ele><time>2026-04-18T12:43:04Z</time></trkpt><trkpt lat="45.744717299306345" lon="10.494064621246032"><ele>583.0</ele><time>2026-04-18T12:43:05Z</time></trkpt><trkpt lat="45.74477562920203" lon="10.494112181109926"><ele>583.0</ele><time>2026-04-18T12:43:06Z</time></trkpt><trkpt lat="45.744828738805126" lon="10.494202373349708"><ele>583.0</ele><time>2026-04-18T12:43:07Z</time></trkpt><trkpt lat="45.74490505987294" lon="10.494277829492903"><ele>583.0</ele><time>2026-04-18T12:43:08Z</time></trkpt><trkpt lat="45.74498983673565" lon="10.494418402067224"><ele>583.0000000000001</ele><time>2026-04-18T12:43:09Z</time></trkpt><trkpt lat="45.74506379567074" lon="10.494419502242884"><ele>583.0</ele><time>2026-04-18T12:43:12Z</time></trkpt><trkpt lat="45.74500960763736" lon="10.494364333867713"><ele>583.0</ele><time>2026-04-18T12:43:17Z</time></trkpt><trkpt lat="45.74494594350036" lon="10.494360394231323"><ele>583.0</ele><time>2026-04-18T12:43:20Z</time></trkpt><trkpt lat="45.744883142377326" lon="10.49431722165226"><ele>583.0</ele><time>2026-04-18T12:43:34.001Z</time></trkpt><trkpt lat="45.74481637168063" lon="10.494331522600296"><ele>583.0000000000001</ele><time>2026-04-18T12:43:36.001Z</time></trkpt><trkpt lat="45.74472488290318" lon="10.494331488776998"><ele>583.0</ele><time>2026-04-18T12:43:38.001Z</time></trkpt><trkpt lat="45.74471837573567" lon="10.494459029905887"><ele>583.0</ele><time>2026-04-18T12:43:42.001Z</time></trkpt><trkpt lat="45.74480873232584" lon="10.494524871091262"><ele>583.0</ele><time>2026-04-18T12:43:46.001Z</time></trkpt><trkpt lat="45.744863777727325" lon="10.494601460176417"><ele>583.0</ele><time>2026-04-18T12:43:47.001Z</time></trkpt><trkpt lat="45.74493588195658" lon="10.494615531241113"><ele>583.0</ele><time>2026-04-18T12:43:49.001Z</time></trkpt><trkpt lat="45.7450195527343" lon="10.494695969860956"><ele>583.0</ele><time>2026-04-18T12:43:51.001Z</time></trkpt><trkpt lat="45.74508644561915" lon="10.494754017986683"><ele>583.0</ele><time>2026-04-18T12:43:52.001Z</time></trkpt><trkpt lat="45.74515417743103" lon="10.494779010479164"><ele>589.5</ele><time>2026-04-18T12:43:54.001Z</time></trkpt><trkpt lat="45.74516363610136" lon="10.494879393404782"><ele>596.0</ele><time>2026-04-18T12:43:55.001Z</time></trkpt><trkpt lat="45.745233064040875" lon="10.49495760703717"><ele>602.5</ele><time>2026-04-18T12:43:57.001Z</time></trkpt><trkpt lat="45.74528761324574" lon="10.495064759462714"><ele>609.0</ele><time>2026-04-18T12:43:59.001Z</time></trkpt><trkpt lat="45.74533812195031" lon="10.495169293199046"><ele>615.5</ele><time>2026-04-18T12:44:01.001Z</time></trkpt><trkpt lat="45.74532954839934" lon="10.495297759289137"><ele>622.0</ele><time>2026-04-18T12:44:06.001Z</time></trkpt><trkpt lat="45.74536102246239" lon="10.495383427719084"><ele>628.3333333333334</ele><time>2026-04-18T12:44:09Z</time></trkpt><trkpt lat="45.745377573015176" lon="10.495498627724949"><ele>634.6666666666667</ele><time>2026-04-18T12:44:11Z</time></trkpt><trkpt lat="45.74542528073176" lon="10.495578572282495"><ele>641.0</ele><time>2026-04-18T12:44:15Z</time></trkpt><trkpt lat="45.74549165251369" lon="10.495553304003645"><ele>647.3333333333334</ele><time>2026-04-18T12:44:16Z</time></trkpt><trkpt lat="45.74554946190072" lon="10.495616098395862"><ele>653.6666666666666</ele><time>2026-04-18T12:44:55Z</time></trkpt><trkpt lat="45.74566921921719" lon="10.495654835439199"><ele>660.0</ele><time>2026-04-18T12:45:19Z</time></trkpt><trkpt lat="45.745745067239575" lon="10.495677253127946"><ele>660.0</ele><time>2026-04-18T12:45:50.001Z</time></trkpt><trkpt lat="45.74583396449138" lon="10.49571498084358"><ele>660.0</ele><time>2026-04-18T12:45:53.001Z</time></trkpt><trkpt lat="45.74590951151677" lon="10.4957213674329"><ele>660.0</ele><time>2026-04-18T12:45:55.001Z</time></trkpt><trkpt lat="45.74599372368856" lon="10.495660019621484"><ele>660.0</ele><time>2026-04-18T12:45:58.001Z</time></trkpt><trkpt lat="45.74603563057035" lon="10.495563273484684"><ele>660.0</ele><time>2026-04-18T12:46:00.001Z</time></trkpt><trkpt lat="45.74606677711229" lon="10.49546306815479"><ele>660.0</ele><time>2026-04-18T12:46:01.001Z</time></trkpt><trkpt lat="45.746095485303115" lon="10.495308958709149"><ele>663.6666666666666</ele><time>2026-04-18T12:46:03.001Z</time></trkpt><trkpt lat="45.74610963395827" lon="10.495198862819704"><ele>667.3333333333334</ele><time>2026-04-18T12:46:04.001Z</time></trkpt><trkpt lat="45.74617416102664" lon="10.49511272068792"><ele>671.0</ele><time>2026-04-18T12:46:06.001Z</time></trkpt><trkpt lat="45.74622953550968" lon="10.495156807217143"><ele>674.6666666666667</ele><time>2026-04-18T12:46:10.001Z</time></trkpt><trkpt lat="45.74624511611056" lon="10.49529689440166"><ele>678.3333333333334</ele><time>2026-04-18T12:46:12.001Z</time></trkpt><trkpt lat="45.7462664231606" lon="10.495426348326356"><ele>682.0</ele><time>2026-04-18T12:46:14Z</time></trkpt><trkpt lat="45.7463019993659" lon="10.495329684535589"><ele>682.0</ele><time>2026-04-18T12:46:17Z</time></trkpt><trkpt lat="45.74629995357378" lon="10.495226877117307"><ele>682.0</ele><time>2026-04-18T12:46:19Z</time></trkpt><trkpt lat="45.746318759467734" lon="10.495112158947844"><ele>682.0</ele><time>2026-04-18T12:46:21Z</time></trkpt><trkpt lat="45.74640629396949" lon="10.495119301326751"><ele>682.0</ele><time>2026-04-18T12:46:24Z</time></trkpt><trkpt lat="45.74641602175609" lon="10.495236795066626"><ele>682.0</ele><time>2026-04-18T12:46:26Z</time></trkpt><trkpt lat="45.74643993172652" lon="10.495336186783817"><ele>682.0</ele><time>2026-04-18T12:46:28Z</time></trkpt><trkpt lat="45.74646631261964" lon="10.495421002429886"><ele>682.0</ele><time>2026-04-18T12:46:30Z</time></trkpt><trkpt lat="45.74649750589213" lon="10.495504963237874"><ele>682.0</ele><time>2026-04-18T12:46:33Z</time></trkpt><trkpt lat="45.746493508985715" lon="10.495611795868301"><ele>682.0</ele><time>2026-04-18T12:46:37Z</time></trkpt><trkpt lat="45.74642979885235" lon="10.495680504730611"><ele>682.0</ele><time>2026-04-18T12:46:39Z</time></trkpt><trkpt lat="45.74647766395545" lon="10.49581969291138"><ele>682.0</ele><time>2026-04-18T12:46:41Z</time></trkpt><trkpt lat="45.7465055393712" lon="10.495903193753009"><ele>682.0</ele><time>2026-04-18T12:46:43Z</time></trkpt><trkpt lat="45.746574684160336" lon="10.495966625152136"><ele>682.0</ele><time>2026-04-18T12:46:45Z</time></trkpt><trkpt lat="45.74663343779335" lon="10.496042790206271"><ele>682.0</ele><time>2026-04-18T12:46:48Z</time></trkpt><trkpt lat="45.746668236454354" lon="10.496129077797592"><ele>682.0</ele><time>2026-04-18T12:46:53Z</time></trkpt><trkpt lat="45.74668727992209" lon="10.496382335664073"><ele>682.0</ele><time>2026-04-18T12:46:57Z</time></trkpt><trkpt lat="45.74675747625767" lon="10.49641701693035"><ele>682.0</ele><time>2026-04-18T12:47:00Z</time></trkpt><trkpt lat="45.746814901924324" lon="10.496463528020819"><ele>682.0</ele><time>2026-04-18T12:47:01Z</time></trkpt><trkpt lat="45.746871557121956" lon="10.496530992491072"><ele>682.0</ele><time>2026-04-18T12:47:03Z</time></trkpt><trkpt lat="45.746938738563074" lon="10.496435600765357"><ele>682.0</ele><time>2026-04-18T12:47:06Z</time></trkpt><trkpt lat="45.746967772579" lon="10.496291069001144"><ele>682.0</ele><time>2026-04-18T12:47:08Z</time></trkpt><trkpt lat="45.7470444266073" lon="10.496204755058297"><ele>682.0</ele><time>2026-04-18T12:47:09Z</time></trkpt><trkpt lat="45.747121763026094" lon="10.49614553245091"><ele>682.0</ele><time>2026-04-18T12:47:10Z</time></trkpt><trkpt lat="45.74720073403656" lon="10.496202501110478"><ele>682.0</ele><time>2026-04-18T12:47:11Z</time></trkpt><trkpt lat="45.747294963342554" lon="10.49618260348743"><ele>682.0</ele><time>2026-04-18T12:47:12Z</time></trkpt><trkpt lat="45.74735897590703" lon="10.49614487868458"><ele>682.0</ele><time>2026-04-18T12:47:13Z</time></trkpt><trkpt lat="45.747426176631656" lon="10.496137696885992"><ele>682.0</ele><time>2026-04-18T12:47:14Z</time></trkpt><trkpt lat="45.74752037982624" lon="10.496126364966734"><ele>682.0</ele><time>2026-04-18T12:47:16Z</time></trkpt><trkpt lat="45.74742427376556" lon="10.496339198950823"><ele>674.0</ele><time>2026-04-18T12:47:17Z</time></trkpt><trkpt lat="45.74735435209199" lon="10.496335185455159"><ele>666.0</ele><time>2026-04-18T12:47:19Z</time></trkpt><trkpt lat="45.74723647478582" lon="10.4964711835408"><ele>658.0</ele><time>2026-04-18T12:47:21Z</time></trkpt><trkpt lat="45.7471809533102" lon="10.496700731474128"><ele>650.0</ele><time>2026-04-18T12:47:23Z</time></trkpt><trkpt lat="45.74716899195677" lon="10.496831771658218"><ele>650.0</ele><time>2026-04-18T12:47:24Z</time></trkpt><trkpt lat="45.74721958035246" lon="10.496935281903959"><ele>650.0</ele><time>2026-04-18T12:47:25Z</time></trkpt><trkpt lat="45.74725048363323" lon="10.497047872484343"><ele>650.0</ele><time>2026-04-18T12:47:26Z</time></trkpt><trkpt lat="45.7472883274329" lon="10.49713794262921"><ele>650.0</ele><time>2026-04-18T12:47:27Z</time></trkpt><trkpt lat="45.74741446618181" lon="10.497254121883893"><ele>650.0</ele><time>2026-04-18T12:47:29Z</time></trkpt><trkpt lat="45.7475161950807" lon="10.49727917882714"><ele>646.0</ele><time>2026-04-18T12:47:30Z</time></trkpt><trkpt lat="45.747575548889124" lon="10.497334332532908"><ele>642.0</ele><time>2026-04-18T12:47:31Z</time></trkpt><trkpt lat="45.74770985650251" lon="10.497274179078357"><ele>638.0</ele><time>2026-04-18T12:47:33Z</time></trkpt><trkpt lat="45.747769212829844" lon="10.497374037903576"><ele>634.0</ele><time>2026-04-18T12:47:35Z</time></trkpt><trkpt lat="45.74774986531202" lon="10.49748850713052"><ele>630.0</ele><time>2026-04-18T12:47:37Z</time></trkpt><trkpt lat="45.74768941931397" lon="10.497571460451358"><ele>630.0</ele><time>2026-04-18T12:47:38Z</time></trkpt><trkpt lat="45.747630247539064" lon="10.497692029231283"><ele>630.0</ele><time>2026-04-18T12:47:40Z</time></trkpt><trkpt lat="45.747530831653705" lon="10.497755744593753"><ele>630.0</ele><time>2026-04-18T12:47:42Z</time></trkpt><trkpt lat="45.74734745836553" lon="10.497629967273063"><ele>630.0</ele><time>2026-04-18T12:47:44.001Z</time></trkpt><trkpt lat="45.747267219269546" lon="10.497622427675006"><ele>630.0</ele><time>2026-04-18T12:47:45.001Z</time></trkpt><trkpt lat="45.747182914856" lon="10.497600784770242"><ele>630.0</ele><time>2026-04-18T12:47:46.001Z</time></trkpt><trkpt lat="45.74710333787738" lon="10.49758010837528"><ele>630.0</ele><time>2026-04-18T12:47:47.001Z</time></trkpt><trkpt lat="45.74702678321273" lon="10.497557699481218"><ele>630.0</ele><time>2026-04-18T12:47:48.001Z</time></trkpt><trkpt lat="45.746983211613056" lon="10.497637755044432"><ele>630.0</ele><time>2026-04-18T12:47:50.001Z</time></trkpt><trkpt lat="45.74722439142674" lon="10.497706027113006"><ele>630.0</ele><time>2026-04-18T12:47:51.001Z</time></trkpt><trkpt lat="45.74730183280131" lon="10.497815742793401"><ele>630.0</ele><time>2026-04-18T12:47:52.001Z</time></trkpt><trkpt lat="45.747384394534194" lon="10.497928387266397"><ele>630.0</ele><time>2026-04-18T12:47:53.001Z</time></trkpt><trkpt lat="45.747439134938425" lon="10.498030968640673"><ele>630.0</ele><time>2026-04-18T12:47:54.001Z</time></trkpt><trkpt lat="45.74750725405337" lon="10.498110098205514"><ele>630.0</ele><time>2026-04-18T12:47:55.001Z</time></trkpt><trkpt lat="45.74755651016574" lon="10.498180002464768"><ele>625.8333333333334</ele><time>2026-04-18T12:47:56.001Z</time></trkpt><trkpt lat="45.74760604227692" lon="10.49824042687641"><ele>621.6666666666666</ele><time>2026-04-18T12:47:57.001Z</time></trkpt><trkpt lat="45.747716973474375" lon="10.498297759152923"><ele>617.5</ele><time>2026-04-18T12:47:59.001Z</time></trkpt><trkpt lat="45.747784587712125" lon="10.498305335552104"><ele>613.3333333333333</ele><time>2026-04-18T12:48:00.001Z</time></trkpt><trkpt lat="45.747887846913905" lon="10.498297095164547"><ele>609.1666666666666</ele><time>2026-04-18T12:48:02.001Z</time></trkpt><trkpt lat="45.74794072726822" lon="10.498226625976883"><ele>605.0</ele><time>2026-04-18T12:48:03.001Z</time></trkpt><trkpt lat="45.74805072661907" lon="10.498077300589163"><ele>604.5</ele><time>2026-04-18T12:48:05.001Z</time></trkpt><trkpt lat="45.74815572421575" lon="10.497953294394772"><ele>604.0</ele><time>2026-04-18T12:48:07.001Z</time></trkpt><trkpt lat="45.748200931752756" lon="10.497852077766675"><ele>603.5</ele><time>2026-04-18T12:48:08.001Z</time></trkpt><trkpt lat="45.74825620828345" lon="10.497768827313946"><ele>603.0</ele><time>2026-04-18T12:48:09.001Z</time></trkpt><trkpt lat="45.748300216012915" lon="10.49769327209948"><ele>602.5</ele><time>2026-04-18T12:48:10.001Z</time></trkpt><trkpt lat="45.74834409122995" lon="10.497628439181778"><ele>602.0</ele><time>2026-04-18T12:48:11.001Z</time></trkpt><trkpt lat="45.74843390888355" lon="10.497538050570645"><ele>602.0</ele><time>2026-04-18T12:48:13.001Z</time></trkpt><trkpt lat="45.74852090620066" lon="10.497606638907142"><ele>602.0</ele><time>2026-04-18T12:48:14.001Z</time></trkpt><trkpt lat="45.74849547848574" lon="10.497727007932884"><ele>602.0</ele><time>2026-04-18T12:48:15.001Z</time></trkpt><trkpt lat="45.7483932962741" lon="10.497783359120888"><ele>602.0</ele><time>2026-04-18T12:48:18.001Z</time></trkpt><trkpt lat="45.74836135640236" lon="10.497907467842765"><ele>602.0</ele><time>2026-04-18T12:48:21Z</time></trkpt><trkpt lat="45.7483357705551" lon="10.498121190195928"><ele>597.75</ele><time>2026-04-18T12:48:23Z</time></trkpt><trkpt lat="45.74831911281271" lon="10.498346692386718"><ele>593.5</ele><time>2026-04-18T12:48:24Z</time></trkpt><trkpt lat="45.74826303107463" lon="10.498537385183358"><ele>589.25</ele><time>2026-04-18T12:48:25Z</time></trkpt><trkpt lat="45.74819927416067" lon="10.498673477007163"><ele>585.0</ele><time>2026-04-18T12:48:26Z</time></trkpt><trkpt lat="45.748164524690715" lon="10.498753336465903"><ele>580.4</ele><time>2026-04-18T12:48:27Z</time></trkpt><trkpt lat="45.74808220595851" lon="10.498880844882446"><ele>575.8</ele><time>2026-04-18T12:48:28Z</time></trkpt><trkpt lat="45.74801622672902" lon="10.49893933035178"><ele>571.2</ele><time>2026-04-18T12:48:29Z</time></trkpt><trkpt lat="45.74791252855657" lon="10.498966459978709"><ele>566.6</ele><time>2026-04-18T12:48:30Z</time></trkpt><trkpt lat="45.74783723801646" lon="10.49896841435546"><ele>562.0</ele><time>2026-04-18T12:48:31Z</time></trkpt><trkpt lat="45.74775670444515" lon="10.498970087627946"><ele>565.0</ele><time>2026-04-18T12:48:32Z</time></trkpt><trkpt lat="45.747592040307325" lon="10.498987665820161"><ele>568.0</ele><time>2026-04-18T12:48:34Z</time></trkpt><trkpt lat="45.74750333282904" lon="10.498982862992444"><ele>571.0</ele><time>2026-04-18T12:48:35Z</time></trkpt><trkpt lat="45.74743358208105" lon="10.49892441164435"><ele>574.0</ele><time>2026-04-18T12:48:36Z</time></trkpt><trkpt lat="45.74732308703032" lon="10.498880576516939"><ele>577.0</ele><time>2026-04-18T12:48:37Z</time></trkpt><trkpt lat="45.74722210377023" lon="10.498854662939936"><ele>577.0</ele><time>2026-04-18T12:48:38Z</time></trkpt><trkpt lat="45.74710466674166" lon="10.498860275091769"><ele>577.0</ele><time>2026-04-18T12:48:39Z</time></trkpt><trkpt lat="45.747004979905384" lon="10.498911460313424"><ele>577.0</ele><time>2026-04-18T12:48:40Z</time></trkpt><trkpt lat="45.74692087700816" lon="10.4990237215415"><ele>577.0</ele><time>2026-04-18T12:48:41Z</time></trkpt><trkpt lat="45.74686191337368" lon="10.499165296834848"><ele>575.0</ele><time>2026-04-18T12:48:42Z</time></trkpt><trkpt lat="45.746823724812465" lon="10.499295680371095"><ele>573.0</ele><time>2026-04-18T12:48:43Z</time></trkpt><trkpt lat="45.7467586595416" lon="10.499434881758877"><ele>571.0</ele><time>2026-04-18T12:48:44Z</time></trkpt><trkpt lat="45.746715629500365" lon="10.499570334551928"><ele>569.0</ele><time>2026-04-18T12:48:45Z</time></trkpt><trkpt lat="45.74665064620018" lon="10.49968072427864"><ele>567.0</ele><time>2026-04-18T12:48:46Z</time></trkpt><trkpt lat="45.746579926197846" lon="10.499768738910484"><ele>567.0</ele><time>2026-04-18T12:48:47Z</time></trkpt><trkpt lat="45.746500117355794" lon="10.4998547631078"><ele>567.0</ele><time>2026-04-18T12:48:48Z</time></trkpt><trkpt lat="45.74643168606467" lon="10.499918538003833"><ele>567.0</ele><time>2026-04-18T12:48:49Z</time></trkpt><trkpt lat="45.7463599953707" lon="10.499969229609814"><ele>567.0</ele><time>2026-04-18T12:48:50Z</time></trkpt><trkpt lat="45.74626411508762" lon="10.500027991317006"><ele>567.0</ele><time>2026-04-18T12:48:51Z</time></trkpt><trkpt lat="45.74618496320142" lon="10.50008276750621"><ele>567.0</ele><time>2026-04-18T12:48:52Z</time></trkpt><trkpt lat="45.74610718846097" lon="10.500150222349875"><ele>567.0</ele><time>2026-04-18T12:48:53Z</time></trkpt><trkpt lat="45.74601812602319" lon="10.500211424808922"><ele>567.0</ele><time>2026-04-18T12:48:54Z</time></trkpt><trkpt lat="45.74594350175928" lon="10.500213454404868"><ele>567.0</ele><time>2026-04-18T12:48:55Z</time></trkpt><trkpt lat="45.74586872741642" lon="10.500242930680326"><ele>567.0</ele><time>2026-04-18T12:48:56Z</time></trkpt><trkpt lat="45.74578194653417" lon="10.500227899012797"><ele>567.0</ele><time>2026-04-18T12:48:57Z</time></trkpt><trkpt lat="45.74568086905726" lon="10.500187275760524"><ele>570.0</ele><time>2026-04-18T12:48:58Z</time></trkpt><trkpt lat="45.74560054720248" lon="10.500169035908547"><ele>573.0</ele><time>2026-04-18T12:48:59Z</time></trkpt><trkpt lat="45.74551259502649" lon="10.50015431403612"><ele>576.0</ele><time>2026-04-18T12:49:00Z</time></trkpt><trkpt lat="45.745431451600886" lon="10.500132827159524"><ele>579.0</ele><time>2026-04-18T12:49:01Z</time></trkpt><trkpt lat="45.74535194771787" lon="10.500108554738725"><ele>582.0</ele><time>2026-04-18T12:49:02Z</time></trkpt><trkpt lat="45.74524938677589" lon="10.50007686405893"><ele>585.0</ele><time>2026-04-18T12:49:03Z</time></trkpt><trkpt lat="45.745112598376814" lon="10.500066778065364"><ele>585.0</ele><time>2026-04-18T12:49:04Z</time></trkpt><trkpt lat="45.74500824251124" lon="10.500047138442646"><ele>585.0</ele><time>2026-04-18T12:49:05Z</time></trkpt><trkpt lat="45.74490285912267" lon="10.500040769383357"><ele>585.0</ele><time>2026-04-18T12:49:06Z</time></trkpt><trkpt lat="45.744825296444205" lon="10.500024567746221"><ele>585.0</ele><time>2026-04-18T12:49:07Z</time></trkpt><trkpt lat="45.74472436604282" lon="10.500017100774919"><ele>585.0</ele><time>2026-04-18T12:49:08Z</time></trkpt><trkpt lat="45.74465330423337" lon="10.500017429389807"><ele>585.0</ele><time>2026-04-18T12:49:09Z</time></trkpt><trkpt lat="45.744562104015" lon="10.500019200853277"><ele>585.0</ele><time>2026-04-18T12:49:10Z</time></trkpt><trkpt lat="45.74447129386893" lon="10.50002069670735"><ele>585.0</ele><time>2026-04-18T12:49:11Z</time></trkpt><trkpt lat="45.74436641769273" lon="10.500031933586326"><ele>585.0</ele><time>2026-04-18T12:49:12Z</time></trkpt><trkpt lat="45.744294888615585" lon="10.50005374561209"><ele>585.0</ele><time>2026-04-18T12:49:13Z</time></trkpt><trkpt lat="45.74420325562714" lon="10.500093989816841"><ele>583.6</ele><time>2026-04-18T12:49:14Z</time></trkpt><trkpt lat="45.744112568548616" lon="10.500123087900478"><ele>582.2</ele><time>2026-04-18T12:49:15Z</time></trkpt><trkpt lat="45.74399982963818" lon="10.500099218916382"><ele>580.8</ele><time>2026-04-18T12:49:16Z</time></trkpt><trkpt lat="45.74390375492345" lon="10.500062712156879"><ele>579.4</ele><time>2026-04-18T12:49:17Z</time></trkpt><trkpt lat="45.74381691597634" lon="10.50001882780545"><ele>578.0</ele><time>2026-04-18T12:49:18Z</time></trkpt><trkpt lat="45.7437261823577" lon="10.499962614985932"><ele>578.0</ele><time>2026-04-18T12:49:19Z</time></trkpt><trkpt lat="45.7436429340221" lon="10.49991626473051"><ele>578.0</ele><time>2026-04-18T12:49:20Z</time></trkpt><trkpt lat="45.74356668621285" lon="10.499873758512804"><ele>578.0</ele><time>2026-04-18T12:49:21Z</time></trkpt><trkpt lat="45.743500634758306" lon="10.49983619308559"><ele>578.0</ele><time>2026-04-18T12:49:22Z</time></trkpt><trkpt lat="45.74339620814587" lon="10.499801232409698"><ele>578.0</ele><time>2026-04-18T12:49:24Z</time></trkpt><trkpt lat="45.743314747631516" lon="10.499729058774937"><ele>578.0</ele><time>2026-04-18T12:49:26Z</time></trkpt><trkpt lat="45.74324884682584" lon="10.49992886230666"><ele>577.25</ele><time>2026-04-18T12:49:33Z</time></trkpt><trkpt lat="45.74325181942095" lon="10.500082405176089"><ele>576.5</ele><time>2026-04-18T12:49:34Z</time></trkpt><trkpt lat="45.74326545676447" lon="10.500262522136103"><ele>575.75</ele><time>2026-04-18T12:49:35Z</time></trkpt><trkpt lat="45.74327184577408" lon="10.500428887806313"><ele>575.0</ele><time>2026-04-18T12:49:36Z</time></trkpt><trkpt lat="45.74329979739376" lon="10.500604652972235"><ele>574.8</ele><time>2026-04-18T12:49:37Z</time></trkpt><trkpt lat="45.74334281108397" lon="10.500745815080146"><ele>574.6</ele><time>2026-04-18T12:49:38Z</time></trkpt><trkpt lat="45.743408231767226" lon="10.500853933654613"><ele>574.4</ele><time>2026-04-18T12:49:39Z</time></trkpt><trkpt lat="45.743473656593295" lon="10.50098160235971"><ele>574.2</ele><time>2026-04-18T12:49:40Z</time></trkpt><trkpt lat="45.743556141750524" lon="10.501090139627117"><ele>574.0</ele><time>2026-04-18T12:49:41Z</time></trkpt><trkpt lat="45.74364626157205" lon="10.50118774879373"><ele>574.75</ele><time>2026-04-18T12:49:42Z</time></trkpt><trkpt lat="45.74374739734556" lon="10.501268205577448"><ele>575.5</ele><time>2026-04-18T12:49:43Z</time></trkpt><trkpt lat="45.74385967997457" lon="10.50133660844045"><ele>576.25</ele><time>2026-04-18T12:49:44Z</time></trkpt><trkpt lat="45.74397622924392" lon="10.501396921731999"><ele>577.0</ele><time>2026-04-18T12:49:45Z</time></trkpt><trkpt lat="45.74409646560538" lon="10.501455762304735"><ele>577.0</ele><time>2026-04-18T12:49:46Z</time></trkpt><trkpt lat="45.74420874742452" lon="10.501512857752765"><ele>577.0</ele><time>2026-04-18T12:49:47Z</time></trkpt><trkpt lat="45.74433507485451" lon="10.50154061973805"><ele>577.0</ele><time>2026-04-18T12:49:48Z</time></trkpt><trkpt lat="45.74446655497183" lon="10.501588876525782"><ele>577.0</ele><time>2026-04-18T12:49:49.001Z</time></trkpt><trkpt lat="45.74458258439468" lon="10.501629931310962"><ele>574.2</ele><time>2026-04-18T12:49:50.001Z</time></trkpt><trkpt lat="45.744684237928276" lon="10.501679034189426"><ele>571.4000000000001</ele><time>2026-04-18T12:49:51.001Z</time></trkpt><trkpt lat="45.74479211994231" lon="10.501731699318471"><ele>568.5999999999999</ele><time>2026-04-18T12:49:52.001Z</time></trkpt><trkpt lat="45.74488601452224" lon="10.501779075650903"><ele>565.8</ele><time>2026-04-18T12:49:53.001Z</time></trkpt><trkpt lat="45.744993069554184" lon="10.501825465523343"><ele>563.0</ele><time>2026-04-18T12:49:54.001Z</time></trkpt><trkpt lat="45.74509679949867" lon="10.501869997200002"><ele>563.0</ele><time>2026-04-18T12:49:55.001Z</time></trkpt><trkpt lat="45.745211242550695" lon="10.501909367021636"><ele>563.0</ele><time>2026-04-18T12:49:56.001Z</time></trkpt><trkpt lat="45.74532037508953" lon="10.501949028397874"><ele>563.0</ele><time>2026-04-18T12:49:57.001Z</time></trkpt><trkpt lat="45.745438474645" lon="10.501999662016553"><ele>563.0</ele><time>2026-04-18T12:49:58.001Z</time></trkpt><trkpt lat="45.74554139594929" lon="10.502046227501966"><ele>566.5</ele><time>2026-04-18T12:49:59.001Z</time></trkpt><trkpt lat="45.745645096791854" lon="10.502088950717118"><ele>570.0</ele><time>2026-04-18T12:50:00.001Z</time></trkpt><trkpt lat="45.745754748951875" lon="10.502124322900002"><ele>573.5</ele><time>2026-04-18T12:50:01.001Z</time></trkpt><trkpt lat="45.74586558053449" lon="10.502163611032298"><ele>577.0</ele><time>2026-04-18T12:50:02.001Z</time></trkpt><trkpt lat="45.74598297542079" lon="10.502213520696792"><ele>574.5</ele><time>2026-04-18T12:50:03.001Z</time></trkpt><trkpt lat="45.74611260614203" lon="10.502267416565278"><ele>572.0</ele><time>2026-04-18T12:50:04.001Z</time></trkpt><trkpt lat="45.74623704208368" lon="10.50231411298917"><ele>569.5</ele><time>2026-04-18T12:50:05.001Z</time></trkpt><trkpt lat="45.74635135755885" lon="10.50235780912649"><ele>567.0</ele><time>2026-04-18T12:50:06.001Z</time></trkpt><trkpt lat="45.74646268724221" lon="10.502388431282302"><ele>567.0</ele><time>2026-04-18T12:50:07.001Z</time></trkpt><trkpt lat="45.74658146070922" lon="10.502429469024776"><ele>567.0</ele><time>2026-04-18T12:50:08.001Z</time></trkpt><trkpt lat="45.74669702910888" lon="10.502465120547354"><ele>567.0</ele><time>2026-04-18T12:50:09.001Z</time></trkpt><trkpt lat="45.74680199382347" lon="10.502484277928062"><ele>567.0</ele><time>2026-04-18T12:50:10.001Z</time></trkpt><trkpt lat="45.74690283536233" lon="10.502510398120556"><ele>567.0</ele><time>2026-04-18T12:50:11.001Z</time></trkpt><trkpt lat="45.747025231698316" lon="10.502536241131175"><ele>564.0</ele><time>2026-04-18T12:50:12.001Z</time></trkpt><trkpt lat="45.74712747686622" lon="10.50257133268169"><ele>561.0</ele><time>2026-04-18T12:50:13.001Z</time></trkpt><trkpt lat="45.74722811830785" lon="10.502610740206066"><ele>558.0</ele><time>2026-04-18T12:50:14.001Z</time></trkpt><trkpt lat="45.74729937783834" lon="10.502631193669428"><ele>555.0</ele><time>2026-04-18T12:50:15.001Z</time></trkpt><trkpt lat="45.74736729931619" lon="10.502656430877407"><ele>552.0</ele><time>2026-04-18T12:50:16.001Z</time></trkpt><trkpt lat="45.74743874421191" lon="10.502690105321918"><ele>549.0</ele><time>2026-04-18T12:50:17.001Z</time></trkpt><trkpt lat="45.74750100514865" lon="10.502758986440218"><ele>549.0</ele><time>2026-04-18T12:50:18.001Z</time></trkpt><trkpt lat="45.747638080639895" lon="10.502839584030914"><ele>549.0</ele><time>2026-04-18T12:50:20.001Z</time></trkpt><trkpt lat="45.747701816525314" lon="10.502884633757429"><ele>549.0</ele><time>2026-04-18T12:50:21.001Z</time></trkpt><trkpt lat="45.74777510461521" lon="10.502943448399334"><ele>549.0</ele><time>2026-04-18T12:50:22.001Z</time></trkpt><trkpt lat="45.74783461228094" lon="10.50299308390587"><ele>549.0</ele><time>2026-04-18T12:50:23.001Z</time></trkpt><trkpt lat="45.74791248643007" lon="10.503065787810263"><ele>550.0</ele><time>2026-04-18T12:50:24.001Z</time></trkpt><trkpt lat="45.7479995200368" lon="10.503162430832129"><ele>551.0</ele><time>2026-04-18T12:50:25.001Z</time></trkpt><trkpt lat="45.74807624298539" lon="10.503271380181562"><ele>552.0</ele><time>2026-04-18T12:50:26Z</time></trkpt><trkpt lat="45.7481589229792" lon="10.503432120981824"><ele>553.0</ele><time>2026-04-18T12:50:27Z</time></trkpt><trkpt lat="45.74821514284094" lon="10.503574588006702"><ele>553.0</ele><time>2026-04-18T12:50:28Z</time></trkpt><trkpt lat="45.74824673408573" lon="10.5036673767024"><ele>553.0</ele><time>2026-04-18T12:50:29Z</time></trkpt><trkpt lat="45.74828223560522" lon="10.503779247988493"><ele>553.0</ele><time>2026-04-18T12:50:30Z</time></trkpt><trkpt lat="45.74831747449454" lon="10.503894245487398"><ele>553.0</ele><time>2026-04-18T12:50:31Z</time></trkpt><trkpt lat="45.74834669853482" lon="10.503991039156448"><ele>553.0</ele><time>2026-04-18T12:50:32Z</time></trkpt><trkpt lat="45.74837964411795" lon="10.504102663405769"><ele>553.0</ele><time>2026-04-18T12:50:33Z</time></trkpt><trkpt lat="45.74841079587042" lon="10.504210818863054"><ele>555.25</ele><time>2026-04-18T12:50:34Z</time></trkpt><trkpt lat="45.748443786810704" lon="10.504328691803236"><ele>557.5</ele><time>2026-04-18T12:50:35Z</time></trkpt><trkpt lat="45.74847097872104" lon="10.504437669474083"><ele>559.75</ele><time>2026-04-18T12:50:36Z</time></trkpt><trkpt lat="45.74850425209816" lon="10.504584380708335"><ele>562.0</ele><time>2026-04-18T12:50:37Z</time></trkpt><trkpt lat="45.74852732201285" lon="10.504832787133813"><ele>562.3333333333334</ele><time>2026-04-18T12:50:38Z</time></trkpt><trkpt lat="45.748499017608204" lon="10.505036440185538"><ele>562.6666666666667</ele><time>2026-04-18T12:50:39Z</time></trkpt><trkpt lat="45.74848404204859" lon="10.505135119458432"><ele>563.0</ele><time>2026-04-18T12:50:40Z</time></trkpt><trkpt lat="45.74847376420846" lon="10.505231299176542"><ele>563.3333333333334</ele><time>2026-04-18T12:50:41Z</time></trkpt><trkpt lat="45.74846133237357" lon="10.50532905551555"><ele>563.6666666666666</ele><time>2026-04-18T12:50:42Z</time></trkpt><trkpt lat="45.748444594128124" lon="10.505459184554848"><ele>564.0</ele><time>2026-04-18T12:50:43Z</time></trkpt><trkpt lat="45.74842804586002" lon="10.50558783722165"><ele>564.0</ele><time>2026-04-18T12:50:44Z</time></trkpt><trkpt lat="45.748417235178024" lon="10.505692141806003"><ele>564.0</ele><time>2026-04-18T12:50:45Z</time></trkpt><trkpt lat="45.748404949899296" lon="10.505860554806029"><ele>564.0</ele><time>2026-04-18T12:50:47Z</time></trkpt><trkpt lat="45.748400719284895" lon="10.505972495535735"><ele>564.0</ele><time>2026-04-18T12:50:48Z</time></trkpt><trkpt lat="45.74840046576691" lon="10.506093238080584"><ele>564.0</ele><time>2026-04-18T12:50:49Z</time></trkpt><trkpt lat="45.74840904497161" lon="10.506263567266586"><ele>563.2</ele><time>2026-04-18T12:50:51Z</time></trkpt><trkpt lat="45.748414176036626" lon="10.506353687582497"><ele>562.4</ele><time>2026-04-18T12:50:52Z</time></trkpt><trkpt lat="45.74842569863734" lon="10.506471897946831"><ele>561.6</ele><time>2026-04-18T12:50:53Z</time></trkpt><trkpt lat="45.7484410986579" lon="10.506617374925499"><ele>560.8</ele><time>2026-04-18T12:50:54Z</time></trkpt><trkpt lat="45.748458853565985" lon="10.506790097624027"><ele>560.0</ele><time>2026-04-18T12:50:55Z</time></trkpt><trkpt lat="45.74847053659222" lon="10.506936387969331"><ele>560.0</ele><time>2026-04-18T12:50:56Z</time></trkpt><trkpt lat="45.74847850202632" lon="10.507067643151789"><ele>560.0</ele><time>2026-04-18T12:50:57Z</time></trkpt><trkpt lat="45.74848717933332" lon="10.507210047849524"><ele>560.0</ele><time>2026-04-18T12:50:58Z</time></trkpt><trkpt lat="45.74849422770978" lon="10.50732032769377"><ele>560.0</ele><time>2026-04-18T12:50:59Z</time></trkpt><trkpt lat="45.74850767565442" lon="10.507492925227982"><ele>560.0</ele><time>2026-04-18T12:51:01Z</time></trkpt><trkpt lat="45.74852282816058" lon="10.507624827129373"><ele>557.8</ele><time>2026-04-18T12:51:03Z</time></trkpt><trkpt lat="45.74854294235387" lon="10.50774835888314"><ele>555.6</ele><time>2026-04-18T12:51:05Z</time></trkpt><trkpt lat="45.74857877486748" lon="10.507876778241195"><ele>553.4</ele><time>2026-04-18T12:51:07Z</time></trkpt><trkpt lat="45.748628758728074" lon="10.50796995144628"><ele>551.2</ele><time>2026-04-18T12:51:09Z</time></trkpt><trkpt lat="45.74868852212437" lon="10.508056605442846"><ele>549.0</ele><time>2026-04-18T12:51:11Z</time></trkpt><trkpt lat="45.74860856566178" lon="10.508713825114837"><ele>552.0</ele><time>2026-04-18T12:51:21Z</time></trkpt><trkpt lat="45.74889193401838" lon="10.5092786341673"><ele>552.0</ele><time>2026-04-18T12:51:25Z</time></trkpt><trkpt lat="45.74897147858824" lon="10.509436120641732"><ele>552.0</ele><time>2026-04-18T12:51:26Z</time></trkpt><trkpt lat="45.74902791962416" lon="10.509617626852025"><ele>552.0</ele><time>2026-04-18T12:51:27Z</time></trkpt><trkpt lat="45.7490720534164" lon="10.509781165683496"><ele>552.0</ele><time>2026-04-18T12:51:28Z</time></trkpt><trkpt lat="45.7491211480921" lon="10.509902517106017"><ele>552.0</ele><time>2026-04-18T12:51:29Z</time></trkpt><trkpt lat="45.749152518491805" lon="10.510007713692586"><ele>552.0</ele><time>2026-04-18T12:51:30Z</time></trkpt><trkpt lat="45.749183508535616" lon="10.510121061300213"><ele>552.0</ele><time>2026-04-18T12:51:32Z</time></trkpt><trkpt lat="45.74924636295444" lon="10.510149376354901"><ele>552.0</ele><time>2026-04-18T12:51:34Z</time></trkpt><trkpt lat="45.74933286439943" lon="10.51011478590599"><ele>552.0</ele><time>2026-04-18T12:51:35Z</time></trkpt><trkpt lat="45.74945054092821" lon="10.510108404106314"><ele>552.0</ele><time>2026-04-18T12:51:36Z</time></trkpt><trkpt lat="45.749522916143015" lon="10.510070037005976"><ele>557.1666666666666</ele><time>2026-04-18T12:51:37Z</time></trkpt><trkpt lat="45.749585585418735" lon="10.510052939673967"><ele>562.3333333333334</ele><time>2026-04-18T12:51:38Z</time></trkpt><trkpt lat="45.74964120248184" lon="10.510112698300075"><ele>567.5</ele><time>2026-04-18T12:51:40Z</time></trkpt><trkpt lat="45.7496474204737" lon="10.510224405667547"><ele>572.6666666666667</ele><time>2026-04-18T12:51:43Z</time></trkpt><trkpt lat="45.74963143052885" lon="10.510322165524526"><ele>577.8333333333334</ele><time>2026-04-18T12:51:44Z</time></trkpt><trkpt lat="45.74957725929428" lon="10.510453201691837"><ele>583.0</ele><time>2026-04-18T12:51:53.001Z</time></trkpt><trkpt lat="45.749534323889435" lon="10.51053380460377"><ele>584.1666666666667</ele><time>2026-04-18T12:52:07.001Z</time></trkpt><trkpt lat="45.74953393716489" lon="10.510655433090733"><ele>585.3333333333334</ele><time>2026-04-18T12:52:16.001Z</time></trkpt><trkpt lat="45.74950711646642" lon="10.510741694882311"><ele>586.5</ele><time>2026-04-18T12:52:18.001Z</time></trkpt><trkpt lat="45.74943392772794" lon="10.510818429038439"><ele>587.6666666666666</ele><time>2026-04-18T12:52:20.001Z</time></trkpt><trkpt lat="45.74935926353924" lon="10.510779916911362"><ele>588.8333333333333</ele><time>2026-04-18T12:52:23.001Z</time></trkpt><trkpt lat="45.74927265440685" lon="10.510850716819762"><ele>590.0</ele><time>2026-04-18T12:52:27.001Z</time></trkpt><trkpt lat="45.749296250781065" lon="10.510947721144356"><ele>588.0000000000001</ele><time>2026-04-18T12:52:32Z</time></trkpt><trkpt lat="45.74923762121881" lon="10.511030978938104"><ele>586.0</ele><time>2026-04-18T12:52:35Z</time></trkpt><trkpt lat="45.749243135344095" lon="10.511133374114792"><ele>584.0</ele><time>2026-04-18T12:52:39Z</time></trkpt><trkpt lat="45.74918668448615" lon="10.511179638376671"><ele>582.0</ele><time>2026-04-18T12:52:41Z</time></trkpt><trkpt lat="45.749128050756084" lon="10.51124462475885"><ele>580.0</ele><time>2026-04-18T12:52:43Z</time></trkpt><trkpt lat="45.74913083505694" lon="10.511343259796156"><ele>578.0000000000001</ele><time>2026-04-18T12:52:48Z</time></trkpt><trkpt lat="45.74907880338931" lon="10.511399159802863"><ele>576.0</ele><time>2026-04-18T12:52:50Z</time></trkpt><trkpt lat="45.74900351404674" lon="10.511388658463106"><ele>576.0</ele><time>2026-04-18T12:52:53Z</time></trkpt><trkpt lat="45.74891885388902" lon="10.511309505530317"><ele>576.0</ele><time>2026-04-18T12:52:55Z</time></trkpt><trkpt lat="45.74884824977602" lon="10.511319161896216"><ele>576.0</ele><time>2026-04-18T12:52:58Z</time></trkpt><trkpt lat="45.74878698767313" lon="10.511408517869256"><ele>576.0</ele><time>2026-04-18T12:53:05Z</time></trkpt><trkpt lat="45.748769665309446" lon="10.511505448325693"><ele>576.0</ele><time>2026-04-18T12:53:06Z</time></trkpt><trkpt lat="45.748641194582554" lon="10.511611910051169"><ele>576.0</ele><time>2026-04-18T12:53:08Z</time></trkpt><trkpt lat="45.74859467791878" lon="10.511719760497622"><ele>576.0</ele><time>2026-04-18T12:53:09Z</time></trkpt><trkpt lat="45.748633268087005" lon="10.511804049185164"><ele>576.0</ele><time>2026-04-18T12:53:14Z</time></trkpt><trkpt lat="45.74866391632395" lon="10.511893270584844"><ele>576.0</ele><time>2026-04-18T12:53:17Z</time></trkpt><trkpt lat="45.748736826791166" lon="10.511973413837534"><ele>576.0</ele><time>2026-04-18T12:53:21Z</time></trkpt><trkpt lat="45.748663563258944" lon="10.51196760841603"><ele>576.0</ele><time>2026-04-18T12:53:24Z</time></trkpt><trkpt lat="45.74872377117308" lon="10.512016984219972"><ele>576.0</ele><time>2026-04-18T12:54:18.001Z</time></trkpt><trkpt lat="45.748800052710116" lon="10.512053841909829"><ele>576.0</ele><time>2026-04-18T12:54:22.001Z</time></trkpt><trkpt lat="45.74883340085733" lon="10.51216802061233"><ele>576.0</ele><time>2026-04-18T12:54:26.001Z</time></trkpt><trkpt lat="45.748878084439674" lon="10.512246075000592"><ele>576.0</ele><time>2026-04-18T12:54:28.001Z</time></trkpt><trkpt lat="45.748852385471935" lon="10.512344770303743"><ele>576.0</ele><time>2026-04-18T12:54:30.001Z</time></trkpt><trkpt lat="45.74878836938986" lon="10.512412837765911"><ele>576.0</ele><time>2026-04-18T12:54:33.001Z</time></trkpt><trkpt lat="45.748862586684176" lon="10.51246657933949"><ele>578.6666666666666</ele><time>2026-04-18T12:54:38Z</time></trkpt><trkpt lat="45.74891495574487" lon="10.512523617040936"><ele>581.3333333333334</ele><time>2026-04-18T12:54:39Z</time></trkpt><trkpt lat="45.74892618181347" lon="10.512642397120281"><ele>584.0</ele><time>2026-04-18T12:54:42Z</time></trkpt><trkpt lat="45.748860614876655" lon="10.512670709777549"><ele>586.6666666666667</ele><time>2026-04-18T12:54:46Z</time></trkpt><trkpt lat="45.74880529893104" lon="10.512616137006097"><ele>589.3333333333334</ele><time>2026-04-18T12:54:50Z</time></trkpt><trkpt lat="45.748713604800116" lon="10.512558984530598"><ele>592.0</ele><time>2026-04-18T12:54:52Z</time></trkpt><trkpt lat="45.74877516060405" lon="10.5124817206366"><ele>592.0</ele><time>2026-04-18T12:55:02Z</time></trkpt><trkpt lat="45.748707935014274" lon="10.512512945347925"><ele>592.0</ele><time>2026-04-18T12:55:09Z</time></trkpt><trkpt lat="45.7486347423716" lon="10.512527843846561"><ele>592.0</ele><time>2026-04-18T12:55:20Z</time></trkpt><trkpt lat="45.74863147435358" lon="10.51264085566422"><ele>592.0</ele><time>2026-04-18T12:55:24Z</time></trkpt><trkpt lat="45.74862662439696" lon="10.512749232102047"><ele>592.0</ele><time>2026-04-18T12:55:28Z</time></trkpt><trkpt lat="45.74867460343724" lon="10.512826334762094"><ele>592.0</ele><time>2026-04-18T12:55:32Z</time></trkpt><trkpt lat="45.748713030084396" lon="10.512904108868279"><ele>592.0</ele><time>2026-04-18T13:00:09Z</time></trkpt><trkpt lat="45.74871028860309" lon="10.513008610696296"><ele>596.3333333333334</ele><time>2026-04-18T13:00:13Z</time></trkpt><trkpt lat="45.74869284710059" lon="10.51310528837695"><ele>600.6666666666667</ele><time>2026-04-18T13:00:15.001Z</time></trkpt><trkpt lat="45.74867100798349" lon="10.513195522043834"><ele>605.0</ele><time>2026-04-18T13:00:17.001Z</time></trkpt><trkpt lat="45.74863111836285" lon="10.513336027981731"><ele>609.3333333333334</ele><time>2026-04-18T13:00:19.001Z</time></trkpt><trkpt lat="45.74861822806022" lon="10.513425090507237"><ele>613.6666666666666</ele><time>2026-04-18T13:00:22.001Z</time></trkpt><trkpt lat="45.74857493508031" lon="10.513509218852093"><ele>618.0</ele><time>2026-04-18T13:00:27.001Z</time></trkpt><trkpt lat="45.74854120398655" lon="10.513600326524012"><ele>630.0</ele><time>2026-04-18T13:00:29.001Z</time></trkpt><trkpt lat="45.74847017260132" lon="10.513754909617253"><ele>642.0</ele><time>2026-04-18T13:00:31.001Z</time></trkpt><trkpt lat="45.74848102672053" lon="10.513847238000869"><ele>654.0</ele><time>2026-04-18T13:00:35.001Z</time></trkpt><trkpt lat="45.748453992921704" lon="10.513950259876108"><ele>666.0</ele><time>2026-04-18T13:00:39.001Z</time></trkpt><trkpt lat="45.74841237199396" lon="10.514073657173165"><ele>678.0</ele><time>2026-04-18T13:00:42.001Z</time></trkpt><trkpt lat="45.74840301537244" lon="10.514165824564138"><ele>690.0</ele><time>2026-04-18T13:00:44.001Z</time></trkpt><trkpt lat="45.7484608148625" lon="10.514232803092106"><ele>690.0</ele><time>2026-04-18T13:00:47.001Z</time></trkpt><trkpt lat="45.74849133171785" lon="10.514321226478629"><ele>690.0</ele><time>2026-04-18T13:00:49.001Z</time></trkpt><trkpt lat="45.748478572823686" lon="10.514416464771493"><ele>690.0</ele><time>2026-04-18T13:00:51.001Z</time></trkpt><trkpt lat="45.74849193235446" lon="10.514533299966214"><ele>690.0</ele><time>2026-04-18T13:00:53.001Z</time></trkpt><trkpt lat="45.74848159861625" lon="10.514627389927663"><ele>690.0</ele><time>2026-04-18T13:00:56Z</time></trkpt><trkpt lat="45.74853117643697" lon="10.514706413357684"><ele>690.0</ele><time>2026-04-18T13:01:31Z</time></trkpt><trkpt lat="45.748526220507735" lon="10.514568787043409"><ele>685.1428571428571</ele><time>2026-04-18T13:01:33Z</time></trkpt><trkpt lat="45.74860388718889" lon="10.514549630325956"><ele>680.2857142857142</ele><time>2026-04-18T13:01:35Z</time></trkpt><trkpt lat="45.74866579000574" lon="10.514571275221524"><ele>675.4285714285713</ele><time>2026-04-18T13:01:41Z</time></trkpt><trkpt lat="45.74859571011753" lon="10.514591084411318"><ele>670.5714285714286</ele><time>2026-04-18T13:01:57Z</time></trkpt><trkpt lat="45.74860383883581" lon="10.514705466848069"><ele>665.7142857142857</ele><time>2026-04-18T13:02:03Z</time></trkpt><trkpt lat="45.74864186612966" lon="10.514783052825734"><ele>660.8571428571428</ele><time>2026-04-18T13:02:05Z</time></trkpt><trkpt lat="45.74858023217115" lon="10.51486775303122"><ele>656.0</ele><time>2026-04-18T13:02:07Z</time></trkpt><trkpt lat="45.748549817152906" lon="10.514965093469009"><ele>664.6666666666666</ele><time>2026-04-18T13:02:14Z</time></trkpt><trkpt lat="45.74853023522475" lon="10.515050925216583"><ele>673.3333333333333</ele><time>2026-04-18T13:02:19Z</time></trkpt><trkpt lat="45.74842849974811" lon="10.51509044605895"><ele>682.0</ele><time>2026-04-18T13:02:23.001Z</time></trkpt><trkpt lat="45.74833375319177" lon="10.515107825210391"><ele>690.6666666666666</ele><time>2026-04-18T13:02:25.001Z</time></trkpt><trkpt lat="45.74828144625462" lon="10.51516476299457"><ele>699.3333333333334</ele><time>2026-04-18T13:02:28.001Z</time></trkpt><trkpt lat="45.748335685791304" lon="10.515223364124179"><ele>708.0</ele><time>2026-04-18T13:02:32.001Z</time></trkpt><trkpt lat="45.74828674265943" lon="10.51528700309717"><ele>708.0</ele><time>2026-04-18T13:03:34Z</time></trkpt><trkpt lat="45.748223450624145" lon="10.515380187437822"><ele>708.0</ele><time>2026-04-18T13:03:36Z</time></trkpt><trkpt lat="45.74821664327044" lon="10.515280831825002"><ele>708.0</ele><time>2026-04-18T13:03:46Z</time></trkpt><trkpt lat="45.7481201207447" lon="10.515303544050465"><ele>708.0</ele><time>2026-04-18T13:03:49Z</time></trkpt><trkpt lat="45.74804180642993" lon="10.515302678477234"><ele>708.0</ele><time>2026-04-18T13:03:51Z</time></trkpt><trkpt lat="45.74795593518626" lon="10.515301871550598"><ele>708.0</ele><time>2026-04-18T13:03:54Z</time></trkpt><trkpt lat="45.748023100025186" lon="10.515289728882374"><ele>708.0</ele><time>2026-04-18T13:04:55.001Z</time></trkpt><trkpt lat="45.748254910789946" lon="10.515281322828603"><ele>708.0</ele><time>2026-04-18T13:05:04.001Z</time></trkpt><trkpt lat="45.748197920025746" lon="10.515366174582178"><ele>708.0</ele><time>2026-04-18T13:05:17Z</time></trkpt><trkpt lat="45.748213340428755" lon="10.515252510872033"><ele>708.0</ele><time>2026-04-18T13:05:33Z</time></trkpt><trkpt lat="45.74828534510065" lon="10.515243641840978"><ele>708.0</ele><time>2026-04-18T13:06:20Z</time></trkpt><trkpt lat="45.74825679521446" lon="10.515377887145364"><ele>708.0</ele><time>2026-04-18T13:06:43.001Z</time></trkpt><trkpt lat="45.74820176741696" lon="10.515308105031599"><ele>708.0</ele><time>2026-04-18T13:06:50.001Z</time></trkpt><trkpt lat="45.74813124600092" lon="10.515253067334665"><ele>708.0</ele><time>2026-04-18T13:06:52.001Z</time></trkpt><trkpt lat="45.74806761532633" lon="10.51523206842628"><ele>708.0</ele><time>2026-04-18T13:06:54.001Z</time></trkpt><trkpt lat="45.74798460703717" lon="10.515227981774238"><ele>708.0</ele><time>2026-04-18T13:07:04.001Z</time></trkpt><trkpt lat="45.748039108387424" lon="10.515277035396672"><ele>708.0</ele><time>2026-04-18T13:07:13.001Z</time></trkpt><trkpt lat="45.74811323302157" lon="10.515261223598403"><ele>708.0</ele><time>2026-04-18T13:07:39Z</time></trkpt><trkpt lat="45.74814855353787" lon="10.515351788652076"><ele>708.0</ele><time>2026-04-18T13:07:51Z</time></trkpt><trkpt lat="45.748156830880795" lon="10.515474298045287"><ele>708.0</ele><time>2026-04-18T13:07:54Z</time></trkpt><trkpt lat="45.748093395407025" lon="10.515461701542863"><ele>708.0</ele><time>2026-04-18T13:07:59Z</time></trkpt><trkpt lat="45.74802724879617" lon="10.515402687121115"><ele>708.0</ele><time>2026-04-18T13:08:01Z</time></trkpt><trkpt lat="45.74796580367072" lon="10.515330069090187"><ele>708.0</ele><time>2026-04-18T13:08:03Z</time></trkpt><trkpt lat="45.74788599861889" lon="10.515307601436673"><ele>708.0</ele><time>2026-04-18T13:08:12Z</time></trkpt><trkpt lat="45.74780331406902" lon="10.515259889272365"><ele>708.0</ele><time>2026-04-18T13:08:15Z</time></trkpt><trkpt lat="45.747733480907534" lon="10.51530198994569"><ele>708.0</ele><time>2026-04-18T13:08:30Z</time></trkpt><trkpt lat="45.74766304821023" lon="10.515266992379145"><ele>708.0</ele><time>2026-04-18T13:08:32Z</time></trkpt><trkpt lat="45.74761561762892" lon="10.515328543845397"><ele>708.0</ele><time>2026-04-18T13:09:00.001Z</time></trkpt><trkpt lat="45.74755045663063" lon="10.515340449009456"><ele>713.8571428571429</ele><time>2026-04-18T13:09:50Z</time></trkpt><trkpt lat="45.74750071338541" lon="10.515273897808983"><ele>719.7142857142857</ele><time>2026-04-18T13:09:53Z</time></trkpt><trkpt lat="45.747448624183534" lon="10.515218711228625"><ele>725.5714285714286</ele><time>2026-04-18T13:09:56Z</time></trkpt><trkpt lat="45.747382575148855" lon="10.51515369326947"><ele>731.4285714285714</ele><time>2026-04-18T13:10:04Z</time></trkpt><trkpt lat="45.74744444320282" lon="10.515103463466172"><ele>737.2857142857142</ele><time>2026-04-18T13:10:39Z</time></trkpt><trkpt lat="45.74741832449556" lon="10.51501111342784"><ele>743.1428571428571</ele><time>2026-04-18T13:11:31Z</time></trkpt><trkpt lat="45.74736633052848" lon="10.514921055361683"><ele>749.0</ele><time>2026-04-18T13:11:34Z</time></trkpt><trkpt lat="45.74736364982893" lon="10.515013559033278"><ele>749.0</ele><time>2026-04-18T13:11:50Z</time></trkpt><trkpt lat="45.74728414254008" lon="10.515066664043914"><ele>749.0</ele><time>2026-04-18T13:12:02Z</time></trkpt><trkpt lat="45.747224295711675" lon="10.515105070533657"><ele>749.0</ele><time>2026-04-18T13:12:05Z</time></trkpt><trkpt lat="45.747167832546936" lon="10.515061913267123"><ele>749.0</ele><time>2026-04-18T13:14:26Z</time></trkpt><trkpt lat="45.74713390432065" lon="10.514976479898865"><ele>749.0</ele><time>2026-04-18T13:14:32Z</time></trkpt><trkpt lat="45.74720019244201" lon="10.515036162607277"><ele>749.0</ele><time>2026-04-18T13:15:53Z</time></trkpt><trkpt lat="45.747128428793715" lon="10.515051499269962"><ele>749.0</ele><time>2026-04-18T13:17:19.001Z</time></trkpt><trkpt lat="45.74705546565878" lon="10.515052201862465"><ele>749.0</ele><time>2026-04-18T13:17:21.001Z</time></trkpt><trkpt lat="45.746964261904516" lon="10.515115614206092"><ele>749.0</ele><time>2026-04-18T13:17:32.001Z</time></trkpt><trkpt lat="45.74689237197129" lon="10.515176463531285"><ele>749.0</ele><time>2026-04-18T13:17:35.001Z</time></trkpt><trkpt lat="45.74682848965601" lon="10.515268261990906"><ele>749.0</ele><time>2026-04-18T13:17:36.001Z</time></trkpt><trkpt lat="45.74676340167792" lon="10.515329379877999"><ele>749.0</ele><time>2026-04-18T13:17:37.001Z</time></trkpt><trkpt lat="45.746663993364386" lon="10.515415261927126"><ele>753.8333333333333</ele><time>2026-04-18T13:17:39.001Z</time></trkpt><trkpt lat="45.74655701007545" lon="10.515390495208363"><ele>758.6666666666666</ele><time>2026-04-18T13:17:41.001Z</time></trkpt><trkpt lat="45.74647843521267" lon="10.515338806857494"><ele>763.5</ele><time>2026-04-18T13:17:43.001Z</time></trkpt><trkpt lat="45.74643590009945" lon="10.515410956962608"><ele>768.3333333333333</ele><time>2026-04-18T13:17:46Z</time></trkpt><trkpt lat="45.74637401897094" lon="10.515460623065145"><ele>773.1666666666666</ele><time>2026-04-18T13:17:48Z</time></trkpt><trkpt lat="45.74631081251747" lon="10.515513401823222"><ele>778.0</ele><time>2026-04-18T13:17:50Z</time></trkpt><trkpt lat="45.746256588457534" lon="10.515566392586734"><ele>777.9999999999999</ele><time>2026-04-18T13:17:52Z</time></trkpt><trkpt lat="45.746186433762404" lon="10.515626884107906"><ele>778.0</ele><time>2026-04-18T13:17:54Z</time></trkpt><trkpt lat="45.746118156158204" lon="10.515653159457262"><ele>778.0</ele><time>2026-04-18T13:17:56Z</time></trkpt><trkpt lat="45.74603182396944" lon="10.51567245512424"><ele>778.0</ele><time>2026-04-18T13:18:01Z</time></trkpt><trkpt lat="45.74598183442159" lon="10.5158129206392"><ele>777.9999999999999</ele><time>2026-04-18T13:18:03Z</time></trkpt><trkpt lat="45.74591978328642" lon="10.515902202577355"><ele>778.0</ele><time>2026-04-18T13:18:05Z</time></trkpt><trkpt lat="45.74586063159338" lon="10.515995739002504"><ele>784.1666666666666</ele><time>2026-04-18T13:18:07Z</time></trkpt><trkpt lat="45.74583177846707" lon="10.516103176851875"><ele>790.3333333333333</ele><time>2026-04-18T13:18:08Z</time></trkpt><trkpt lat="45.74580376437651" lon="10.516202532763586"><ele>796.5</ele><time>2026-04-18T13:18:09Z</time></trkpt><trkpt lat="45.74585387329772" lon="10.51613808329991"><ele>802.6666666666667</ele><time>2026-04-18T13:18:10Z</time></trkpt><trkpt lat="45.745822724573976" lon="10.516237528596417"><ele>808.8333333333334</ele><time>2026-04-18T13:18:12Z</time></trkpt><trkpt lat="45.74579918596883" lon="10.516330913919713"><ele>815.0</ele><time>2026-04-18T13:18:13Z</time></trkpt><trkpt lat="45.745741773448415" lon="10.516552164788802"><ele>815.0</ele><time>2026-04-18T13:18:15Z</time></trkpt><trkpt lat="45.74573352326118" lon="10.516656310142196"><ele>815.0</ele><time>2026-04-18T13:18:16Z</time></trkpt><trkpt lat="45.745742571734056" lon="10.516823096633837"><ele>815.0</ele><time>2026-04-18T13:18:18Z</time></trkpt><trkpt lat="45.74575094958305" lon="10.516976130156339"><ele>815.0</ele><time>2026-04-18T13:18:20Z</time></trkpt><trkpt lat="45.745696185698975" lon="10.51707430575595"><ele>815.0</ele><time>2026-04-18T13:18:22Z</time></trkpt><trkpt lat="45.74562522943354" lon="10.517138750763264"><ele>815.0000000000001</ele><time>2026-04-18T13:18:24Z</time></trkpt><trkpt lat="45.74555994013123" lon="10.517167714572453"><ele>815.0</ele><time>2026-04-18T13:18:26Z</time></trkpt><trkpt lat="45.74549624867691" lon="10.517186665610543"><ele>815.0</ele><time>2026-04-18T13:18:27Z</time></trkpt><trkpt lat="45.74543644390661" lon="10.51721876847546"><ele>815.0</ele><time>2026-04-18T13:18:28Z</time></trkpt><trkpt lat="45.74541399880801" lon="10.517391022734543"><ele>815.0000000000001</ele><time>2026-04-18T13:18:30Z</time></trkpt><trkpt lat="45.745481453970626" lon="10.517461204182801"><ele>815.0</ele><time>2026-04-18T13:18:32Z</time></trkpt><trkpt lat="45.74554712708596" lon="10.517488485069624"><ele>815.0000000000001</ele><time>2026-04-18T13:18:35Z</time></trkpt><trkpt lat="45.74561835185451" lon="10.517543852806693"><ele>815.0</ele><time>2026-04-18T13:18:38Z</time></trkpt><trkpt lat="45.745664885894435" lon="10.517655608266015"><ele>815.0</ele><time>2026-04-18T13:18:40Z</time></trkpt><trkpt lat="45.74569465156318" lon="10.517753127293005"><ele>815.0</ele><time>2026-04-18T13:18:42Z</time></trkpt><trkpt lat="45.745692385646514" lon="10.517902297772558"><ele>815.0000000000001</ele><time>2026-04-18T13:18:44Z</time></trkpt><trkpt lat="45.74569375911435" lon="10.518000202042849"><ele>815.0</ele><time>2026-04-18T13:18:45Z</time></trkpt><trkpt lat="45.74572881304098" lon="10.518172923082085"><ele>814.1428571428571</ele><time>2026-04-18T13:18:47Z</time></trkpt><trkpt lat="45.74575879576639" lon="10.518264991414068"><ele>813.2857142857142</ele><time>2026-04-18T13:18:48Z</time></trkpt><trkpt lat="45.74577202260897" lon="10.518362537237588"><ele>812.4285714285714</ele><time>2026-04-18T13:18:49Z</time></trkpt><trkpt lat="45.74577391982472" lon="10.518456487930566"><ele>811.5714285714286</ele><time>2026-04-18T13:18:50Z</time></trkpt><trkpt lat="45.745781784397316" lon="10.518546636183643"><ele>810.7142857142858</ele><time>2026-04-18T13:18:51Z</time></trkpt><trkpt lat="45.745767136355525" lon="10.518641667421495"><ele>809.8571428571429</ele><time>2026-04-18T13:18:52Z</time></trkpt><trkpt lat="45.74574467646163" lon="10.518743654346682"><ele>809.0</ele><time>2026-04-18T13:18:55Z</time></trkpt><trkpt lat="45.74578892604308" lon="10.518642415023347"><ele>809.0000000000001</ele><time>2026-04-18T13:19:44.001Z</time></trkpt><trkpt lat="45.74582644603559" lon="10.518521025778416"><ele>809.0</ele><time>2026-04-18T13:19:46.001Z</time></trkpt><trkpt lat="45.745811407441586" lon="10.518419871376697"><ele>809.0</ele><time>2026-04-18T13:19:48.001Z</time></trkpt><trkpt lat="45.74579203837591" lon="10.518266131910288"><ele>809.0</ele><time>2026-04-18T13:19:49.001Z</time></trkpt><trkpt lat="45.74578240493457" lon="10.518176783970013"><ele>809.0000000000001</ele><time>2026-04-18T13:19:50Z</time></trkpt><trkpt lat="45.7457349595412" lon="10.51806968506106"><ele>809.0</ele><time>2026-04-18T13:19:51Z</time></trkpt><trkpt lat="45.74571607355273" lon="10.517953539108737"><ele>810.0000000000001</ele><time>2026-04-18T13:19:52Z</time></trkpt><trkpt lat="45.74570639030697" lon="10.517834473433352"><ele>811.0</ele><time>2026-04-18T13:19:53Z</time></trkpt><trkpt lat="45.745699658089734" lon="10.51774063176948"><ele>812.0</ele><time>2026-04-18T13:19:54Z</time></trkpt><trkpt lat="45.745680722073395" lon="10.517598229228899"><ele>813.0</ele><time>2026-04-18T13:19:56Z</time></trkpt><trkpt lat="45.74563291352277" lon="10.517468932403581"><ele>814.0000000000001</ele><time>2026-04-18T13:19:58Z</time></trkpt><trkpt lat="45.745582324574876" lon="10.517409156390373"><ele>815.0</ele><time>2026-04-18T13:19:59Z</time></trkpt><trkpt lat="45.745508946277425" lon="10.51734534794759"><ele>815.0</ele><time>2026-04-18T13:20:00Z</time></trkpt><trkpt lat="45.74544929012659" lon="10.517169115740096"><ele>815.0</ele><time>2026-04-18T13:20:02Z</time></trkpt><trkpt lat="45.745341670351074" lon="10.517055115764732"><ele>815.0</ele><time>2026-04-18T13:20:04Z</time></trkpt><trkpt lat="45.745272356694606" lon="10.51708162917597"><ele>815.0</ele><time>2026-04-18T13:20:05Z</time></trkpt><trkpt lat="45.74519827568539" lon="10.517173878313411"><ele>815.0</ele><time>2026-04-18T13:20:06Z</time></trkpt><trkpt lat="45.7451511608154" lon="10.517308915122587"><ele>817.1428571428571</ele><time>2026-04-18T13:20:07Z</time></trkpt><trkpt lat="45.74509317566338" lon="10.517367787355472"><ele>819.2857142857142</ele><time>2026-04-18T13:20:08Z</time></trkpt><trkpt lat="45.74502294117511" lon="10.517468629911958"><ele>821.4285714285714</ele><time>2026-04-18T13:20:09Z</time></trkpt><trkpt lat="45.74496935838248" lon="10.517545252518916"><ele>823.5714285714286</ele><time>2026-04-18T13:20:10Z</time></trkpt><trkpt lat="45.74490991589027" lon="10.517582204641618"><ele>825.7142857142858</ele><time>2026-04-18T13:20:11Z</time></trkpt><trkpt lat="45.74484426592289" lon="10.517616538915222"><ele>827.8571428571429</ele><time>2026-04-18T13:20:12Z</time></trkpt><trkpt lat="45.74479466571149" lon="10.517679853856285"><ele>830.0</ele><time>2026-04-18T13:20:13Z</time></trkpt><trkpt lat="45.744730881474155" lon="10.517717503227468"><ele>830.0000000000001</ele><time>2026-04-18T13:20:14Z</time></trkpt><trkpt lat="45.74463739584748" lon="10.517755733665748"><ele>830.0</ele><time>2026-04-18T13:20:15Z</time></trkpt><trkpt lat="45.74456118573285" lon="10.517776866152666"><ele>830.0</ele><time>2026-04-18T13:20:16Z</time></trkpt><trkpt lat="45.744483029380575" lon="10.517807419341562"><ele>830.0</ele><time>2026-04-18T13:20:17Z</time></trkpt><trkpt lat="45.74441135609509" lon="10.517825724566135"><ele>830.0000000000001</ele><time>2026-04-18T13:20:18Z</time></trkpt><trkpt lat="45.74433846153287" lon="10.517840954704624"><ele>830.0</ele><time>2026-04-18T13:20:19Z</time></trkpt><trkpt lat="45.74426693142887" lon="10.517854491164728"><ele>827.6666666666667</ele><time>2026-04-18T13:20:20Z</time></trkpt><trkpt lat="45.74418265077962" lon="10.517854679853945"><ele>825.3333333333333</ele><time>2026-04-18T13:20:21Z</time></trkpt><trkpt lat="45.7439087033428" lon="10.517705225770893"><ele>823.0</ele><time>2026-04-18T13:20:25Z</time></trkpt><trkpt lat="45.74384168328709" lon="10.517653782823187"><ele>822.9999999999999</ele><time>2026-04-18T13:20:26Z</time></trkpt><trkpt lat="45.74375703799873" lon="10.517606463830955"><ele>823.0</ele><time>2026-04-18T13:20:27Z</time></trkpt><trkpt lat="45.74367127837931" lon="10.517587375289146"><ele>823.0</ele><time>2026-04-18T13:20:28Z</time></trkpt><trkpt lat="45.743592509544975" lon="10.517575364761194"><ele>823.0</ele><time>2026-04-18T13:20:29Z</time></trkpt><trkpt lat="45.743525665144396" lon="10.517592790347644"><ele>822.9999999999999</ele><time>2026-04-18T13:20:30Z</time></trkpt><trkpt lat="45.7434576227785" lon="10.517612014017232"><ele>823.0</ele><time>2026-04-18T13:20:31Z</time></trkpt><trkpt lat="45.74339565922649" lon="10.517658524794467"><ele>825.4999999999999</ele><time>2026-04-18T13:20:32Z</time></trkpt><trkpt lat="45.74334409769024" lon="10.517719575518393"><ele>828.0</ele><time>2026-04-18T13:20:33Z</time></trkpt><trkpt lat="45.7432882946533" lon="10.517785953950707"><ele>830.5</ele><time>2026-04-18T13:20:34Z</time></trkpt><trkpt lat="45.74323402020197" lon="10.517871308390752"><ele>833.0</ele><time>2026-04-18T13:20:35Z</time></trkpt><trkpt lat="45.74318854750963" lon="10.517971083567604"><ele>835.4999999999999</ele><time>2026-04-18T13:20:36Z</time></trkpt><trkpt lat="45.74312020577632" lon="10.518034413325276"><ele>838.0</ele><time>2026-04-18T13:20:37Z</time></trkpt><trkpt lat="45.743055581751385" lon="10.518111908297069"><ele>837.9999999999999</ele><time>2026-04-18T13:20:38Z</time></trkpt><trkpt lat="45.74300021556775" lon="10.518178307805105"><ele>838.0</ele><time>2026-04-18T13:20:39Z</time></trkpt><trkpt lat="45.74290296040385" lon="10.51821504460448"><ele>838.0</ele><time>2026-04-18T13:20:40Z</time></trkpt><trkpt lat="45.7428290433355" lon="10.518225357719963"><ele>838.0</ele><time>2026-04-18T13:20:41Z</time></trkpt><trkpt lat="45.74275612408041" lon="10.518176458091231"><ele>837.9999999999999</ele><time>2026-04-18T13:20:42Z</time></trkpt><trkpt lat="45.742689304478766" lon="10.518090265540097"><ele>838.0</ele><time>2026-04-18T13:20:43Z</time></trkpt><trkpt lat="45.74262956860586" lon="10.518021033615815"><ele>835.8333333333333</ele><time>2026-04-18T13:20:44Z</time></trkpt><trkpt lat="45.74256578948579" lon="10.517954669254209"><ele>833.6666666666666</ele><time>2026-04-18T13:20:45Z</time></trkpt><trkpt lat="45.74246666162346" lon="10.517930089537485"><ele>831.5</ele><time>2026-04-18T13:20:47Z</time></trkpt><trkpt lat="45.74239387597652" lon="10.517953832494563"><ele>829.3333333333333</ele><time>2026-04-18T13:20:49Z</time></trkpt><trkpt lat="45.742327683836606" lon="10.518003487196193"><ele>827.1666666666666</ele><time>2026-04-18T13:20:51Z</time></trkpt><trkpt lat="45.742280936832664" lon="10.518107696575195"><ele>825.0</ele><time>2026-04-18T13:20:53Z</time></trkpt><trkpt lat="45.74224031837426" lon="10.51822770549454"><ele>825.0</ele><time>2026-04-18T13:20:55Z</time></trkpt><trkpt lat="45.74216421283998" lon="10.518225315557665"><ele>825.0</ele><time>2026-04-18T13:20:57Z</time></trkpt><trkpt lat="45.74209958814233" lon="10.518281933796718"><ele>825.0</ele><time>2026-04-18T13:21:00Z</time></trkpt><trkpt lat="45.74209741799741" lon="10.51837522866259"><ele>825.0</ele><time>2026-04-18T13:21:02Z</time></trkpt><trkpt lat="45.74203860437292" lon="10.518519398321972"><ele>825.0</ele><time>2026-04-18T13:21:05Z</time></trkpt><trkpt lat="45.74195797749945" lon="10.518584025837418"><ele>825.0</ele><time>2026-04-18T13:21:07Z</time></trkpt><trkpt lat="45.74189318484225" lon="10.518634253136327"><ele>826.0</ele><time>2026-04-18T13:21:10Z</time></trkpt><trkpt lat="45.74180794945331" lon="10.518676918285742"><ele>827.0</ele><time>2026-04-18T13:21:12Z</time></trkpt><trkpt lat="45.74169131197936" lon="10.518705759932155"><ele>828.0</ele><time>2026-04-18T13:21:14Z</time></trkpt><trkpt lat="45.741636714165594" lon="10.518627572180167"><ele>829.0</ele><time>2026-04-18T13:21:16.001Z</time></trkpt><trkpt lat="45.74161458906163" lon="10.518527594922455"><ele>830.0</ele><time>2026-04-18T13:21:21.001Z</time></trkpt><trkpt lat="45.7414316154649" lon="10.518510038456627"><ele>830.0</ele><time>2026-04-18T13:22:33Z</time></trkpt><trkpt lat="45.74145145630363" lon="10.518606773304333"><ele>830.0</ele><time>2026-04-18T13:22:37Z</time></trkpt><trkpt lat="45.74139750900713" lon="10.51866654165458"><ele>830.0</ele><time>2026-04-18T13:22:40Z</time></trkpt><trkpt lat="45.7413269174375" lon="10.518671656696254"><ele>830.0</ele><time>2026-04-18T13:22:43Z</time></trkpt><trkpt lat="45.74124960979244" lon="10.51864801465497"><ele>830.0</ele><time>2026-04-18T13:22:46Z</time></trkpt><trkpt lat="45.74117618441345" lon="10.5186792528997"><ele>830.0</ele><time>2026-04-18T13:23:07Z</time></trkpt><trkpt lat="45.74111253521064" lon="10.518708971328651"><ele>830.0</ele><time>2026-04-18T13:23:09Z</time></trkpt><trkpt lat="45.741048491245465" lon="10.518749155666677"><ele>837.0000000000001</ele><time>2026-04-18T13:23:12Z</time></trkpt><trkpt lat="45.74098816197262" lon="10.518820673781244"><ele>844.0</ele><time>2026-04-18T13:23:14Z</time></trkpt><trkpt lat="45.741022684442804" lon="10.51891054456707"><ele>851.0</ele><time>2026-04-18T13:23:17Z</time></trkpt><trkpt lat="45.741092788707334" lon="10.51889599971012"><ele>858.0</ele><time>2026-04-18T13:23:35.001Z</time></trkpt><trkpt lat="45.74118753194123" lon="10.518945210211925"><ele>865.0000000000001</ele><time>2026-04-18T13:23:43.001Z</time></trkpt><trkpt lat="45.7411587877194" lon="10.519043151128335"><ele>872.0</ele><time>2026-04-18T13:23:47.001Z</time></trkpt><trkpt lat="45.741137281608076" lon="10.51913931806263"><ele>872.0000000000001</ele><time>2026-04-18T13:23:52.001Z</time></trkpt><trkpt lat="45.741095539726" lon="10.51921752994726"><ele>872.0</ele><time>2026-04-18T13:23:54.001Z</time></trkpt><trkpt lat="45.741189486847404" lon="10.519275047384662"><ele>872.0</ele><time>2026-04-18T13:23:59.001Z</time></trkpt><trkpt lat="45.74126632606009" lon="10.519299401949654"><ele>872.0</ele><time>2026-04-18T13:24:02Z</time></trkpt><trkpt lat="45.74134195495291" lon="10.519363316599021"><ele>872.0000000000001</ele><time>2026-04-18T13:24:04Z</time></trkpt><trkpt lat="45.74139958993548" lon="10.519424259627018"><ele>872.0</ele><time>2026-04-18T13:24:05Z</time></trkpt><trkpt lat="45.74145259479472" lon="10.519498475126555"><ele>878.8333333333334</ele><time>2026-04-18T13:24:08Z</time></trkpt><trkpt lat="45.74148235157329" lon="10.51961964851091"><ele>885.6666666666667</ele><time>2026-04-18T13:24:10Z</time></trkpt><trkpt lat="45.74138997574879" lon="10.519605246934798"><ele>892.5</ele><time>2026-04-18T13:24:13Z</time></trkpt><trkpt lat="45.74130507700323" lon="10.519615556697225"><ele>899.3333333333333</ele><time>2026-04-18T13:24:16Z</time></trkpt><trkpt lat="45.74122934921265" lon="10.519599984674379"><ele>906.1666666666666</ele><time>2026-04-18T13:24:18Z</time></trkpt><trkpt lat="45.741271559318555" lon="10.51967184132541"><ele>913.0</ele><time>2026-04-18T13:24:24Z</time></trkpt><trkpt lat="45.74122504121134" lon="10.519750554693786"><ele>912.9999999999999</ele><time>2026-04-18T13:25:24Z</time></trkpt><trkpt lat="45.74116009157371" lon="10.519777493146353"><ele>913.0</ele><time>2026-04-18T13:25:41.001Z</time></trkpt><trkpt lat="45.74107699789626" lon="10.519850702558559"><ele>913.0</ele><time>2026-04-18T13:25:44.001Z</time></trkpt><trkpt lat="45.74101393451889" lon="10.519876790057873"><ele>913.0</ele><time>2026-04-18T13:25:46.001Z</time></trkpt><trkpt lat="45.74094578020375" lon="10.519911699868894"><ele>912.9999999999999</ele><time>2026-04-18T13:25:48.001Z</time></trkpt><trkpt lat="45.74085299063981" lon="10.519910363030544"><ele>913.0</ele><time>2026-04-18T13:25:50.001Z</time></trkpt><trkpt lat="45.740771305857436" lon="10.519948870776695"><ele>914.2</ele><time>2026-04-18T13:25:52.001Z</time></trkpt><trkpt lat="45.74066964921463" lon="10.520005517623366"><ele>915.4</ele><time>2026-04-18T13:25:54.001Z</time></trkpt><trkpt lat="45.74058260270328" lon="10.520043484169264"><ele>916.6000000000001</ele><time>2026-04-18T13:25:56.001Z</time></trkpt><trkpt lat="45.74048903967939" lon="10.520080954515628"><ele>917.8000000000001</ele><time>2026-04-18T13:25:58.001Z</time></trkpt><trkpt lat="45.74039241529645" lon="10.520100249955194"><ele>919.0</ele><time>2026-04-18T13:26:00.001Z</time></trkpt><trkpt lat="45.740356272867764" lon="10.520212732122607"><ele>918.9999999999999</ele><time>2026-04-18T13:26:04.001Z</time></trkpt><trkpt lat="45.74043590532898" lon="10.520235307032841"><ele>919.0</ele><time>2026-04-18T13:26:07.001Z</time></trkpt><trkpt lat="45.74051064385046" lon="10.520267078396737"><ele>919.0</ele><time>2026-04-18T13:26:08Z</time></trkpt><trkpt lat="45.74055554979025" lon="10.520349077471465"><ele>919.0</ele><time>2026-04-18T13:26:10Z</time></trkpt><trkpt lat="45.74047504408414" lon="10.520355231929686"><ele>918.9999999999999</ele><time>2026-04-18T13:26:13Z</time></trkpt><trkpt lat="45.74040196877765" lon="10.520414726597462"><ele>919.0</ele><time>2026-04-18T13:26:16Z</time></trkpt><trkpt lat="45.740376028046676" lon="10.520504760767755"><ele>923.7142857142857</ele><time>2026-04-18T13:26:21Z</time></trkpt><trkpt lat="45.74044640994253" lon="10.520582706107625"><ele>928.4285714285713</ele><time>2026-04-18T13:26:24Z</time></trkpt><trkpt lat="45.74044277013984" lon="10.520676012143566"><ele>933.1428571428571</ele><time>2026-04-18T13:26:33Z</time></trkpt><trkpt lat="45.74052179534332" lon="10.520709287159951"><ele>937.8571428571429</ele><time>2026-04-18T13:26:36Z</time></trkpt><trkpt lat="45.740586888962" lon="10.520716357440065"><ele>942.5714285714286</ele><time>2026-04-18T13:26:38Z</time></trkpt><trkpt lat="45.740650762346306" lon="10.520755922793844"><ele>947.2857142857142</ele><time>2026-04-18T13:26:40Z</time></trkpt><trkpt lat="45.74068421306348" lon="10.520839848282042"><ele>952.0</ele><time>2026-04-18T13:26:42Z</time></trkpt><trkpt lat="45.74073130633835" lon="10.520933893767722"><ele>952.0</ele><time>2026-04-18T13:26:45Z</time></trkpt><trkpt lat="45.74066468895282" lon="10.520937032766541"><ele>952.0</ele><time>2026-04-18T13:26:48Z</time></trkpt><trkpt lat="45.74074766167261" lon="10.520979703116058"><ele>952.0</ele><time>2026-04-18T13:26:57Z</time></trkpt><trkpt lat="45.740776021906235" lon="10.521073864347365"><ele>952.0</ele><time>2026-04-18T13:27:14Z</time></trkpt><trkpt lat="45.740711340991076" lon="10.521115196371024"><ele>952.0</ele><time>2026-04-18T13:27:17Z</time></trkpt><trkpt lat="45.740656470219605" lon="10.521162327814428"><ele>952.0</ele><time>2026-04-18T13:27:19Z</time></trkpt><trkpt lat="45.74069047587312" lon="10.521241183296512"><ele>952.0</ele><time>2026-04-18T13:27:28Z</time></trkpt><trkpt lat="45.740751382065525" lon="10.521270623219692"><ele>955.0</ele><time>2026-04-18T13:27:30Z</time></trkpt><trkpt lat="45.74081206822975" lon="10.521305690756817"><ele>958.0</ele><time>2026-04-18T13:27:32Z</time></trkpt><trkpt lat="45.74088981682238" lon="10.521360955434497"><ele>961.0</ele><time>2026-04-18T13:27:35Z</time></trkpt><trkpt lat="45.74094451114435" lon="10.521461974996685"><ele>964.0</ele><time>2026-04-18T13:27:37Z</time></trkpt><trkpt lat="45.74092085207222" lon="10.52156089626109"><ele>967.0</ele><time>2026-04-18T13:27:39Z</time></trkpt><trkpt lat="45.740807916465954" lon="10.521668766596632"><ele>966.9999999999999</ele><time>2026-04-18T13:27:41.001Z</time></trkpt><trkpt lat="45.740742623042316" lon="10.521689218416993"><ele>967.0</ele><time>2026-04-18T13:27:42.001Z</time></trkpt><trkpt lat="45.74066600490075" lon="10.521682584624129"><ele>967.0</ele><time>2026-04-18T13:27:44.001Z</time></trkpt><trkpt lat="45.74059451897118" lon="10.521676191769616"><ele>967.0</ele><time>2026-04-18T13:27:47.001Z</time></trkpt><trkpt lat="45.74051209594303" lon="10.521657664326664"><ele>966.9999999999999</ele><time>2026-04-18T13:31:13Z</time></trkpt><trkpt lat="45.74047273328761" lon="10.521805264474175"><ele>967.0</ele><time>2026-04-18T13:31:15Z</time></trkpt><trkpt lat="45.740457818313445" lon="10.521912259847559"><ele>966.9999999999999</ele><time>2026-04-18T13:31:16Z</time></trkpt><trkpt lat="45.740431902943286" lon="10.5220201886139"><ele>967.0</ele><time>2026-04-18T13:31:17Z</time></trkpt><trkpt lat="45.740369772841774" lon="10.522093011976281"><ele>967.0</ele><time>2026-04-18T13:31:18Z</time></trkpt><trkpt lat="45.74032991684358" lon="10.522171943871996"><ele>967.0</ele><time>2026-04-18T13:31:19Z</time></trkpt><trkpt lat="45.74028339279119" lon="10.522264081365362"><ele>966.9999999999999</ele><time>2026-04-18T13:31:20Z</time></trkpt><trkpt lat="45.74023963267929" lon="10.522347386838026"><ele>967.0</ele><time>2026-04-18T13:31:21Z</time></trkpt><trkpt lat="45.740131126227396" lon="10.522411522323312"><ele>970.9999999999999</ele><time>2026-04-18T13:31:23Z</time></trkpt><trkpt lat="45.740064602568225" lon="10.522436532068124"><ele>975.0</ele><time>2026-04-18T13:31:24Z</time></trkpt><trkpt lat="45.73998427258024" lon="10.522503241019743"><ele>979.0</ele><time>2026-04-18T13:31:25Z</time></trkpt><trkpt lat="45.73992295113825" lon="10.52260450997868"><ele>983.0</ele><time>2026-04-18T13:31:26Z</time></trkpt><trkpt lat="45.73988295023317" lon="10.522717340452537"><ele>986.9999999999999</ele><time>2026-04-18T13:31:27Z</time></trkpt><trkpt lat="45.739820048284734" lon="10.522814836003262"><ele>991.0</ele><time>2026-04-18T13:31:28Z</time></trkpt><trkpt lat="45.73974772285313" lon="10.522878602730211"><ele>989.9999999999999</ele><time>2026-04-18T13:31:29Z</time></trkpt><trkpt lat="45.7396618403613" lon="10.522938639589656"><ele>989.0</ele><time>2026-04-18T13:31:30Z</time></trkpt><trkpt lat="45.739585129990544" lon="10.522980793076435"><ele>988.0</ele><time>2026-04-18T13:31:31Z</time></trkpt><trkpt lat="45.739498270437494" lon="10.523020600074359"><ele>987.0</ele><time>2026-04-18T13:31:32Z</time></trkpt><trkpt lat="45.73942110485116" lon="10.523060680701809"><ele>985.9999999999999</ele><time>2026-04-18T13:31:33Z</time></trkpt><trkpt lat="45.73934275657597" lon="10.523107355738707"><ele>985.0</ele><time>2026-04-18T13:31:34Z</time></trkpt><trkpt lat="45.73925467937378" lon="10.52321435111124"><ele>985.0</ele><time>2026-04-18T13:31:36Z</time></trkpt><trkpt lat="45.73917156140528" lon="10.52334182871185"><ele>985.0</ele><time>2026-04-18T13:31:38Z</time></trkpt><trkpt lat="45.73906141641822" lon="10.523426407530215"><ele>985.0</ele><time>2026-04-18T13:31:40Z</time></trkpt><trkpt lat="45.73897802591131" lon="10.523481097299607"><ele>985.0</ele><time>2026-04-18T13:31:42Z</time></trkpt><trkpt lat="45.738871282033614" lon="10.523427332170249"><ele>985.0</ele><time>2026-04-18T13:31:44.001Z</time></trkpt><trkpt lat="45.73872909332233" lon="10.52342934076658"><ele>985.0</ele><time>2026-04-18T13:31:45.001Z</time></trkpt><trkpt lat="45.73858661118246" lon="10.52348855062405"><ele>985.0</ele><time>2026-04-18T13:31:46.001Z</time></trkpt><trkpt lat="45.73849859690637" lon="10.523570453667382"><ele>985.0</ele><time>2026-04-18T13:31:47.001Z</time></trkpt><trkpt lat="45.73842481780005" lon="10.523698907863606"><ele>979.25</ele><time>2026-04-18T13:31:48.001Z</time></trkpt><trkpt lat="45.738374468368335" lon="10.52377586051572"><ele>973.5</ele><time>2026-04-18T13:31:49.001Z</time></trkpt><trkpt lat="45.73819792336787" lon="10.523870373658964"><ele>967.75</ele><time>2026-04-18T13:31:51.001Z</time></trkpt><trkpt lat="45.73806682750122" lon="10.524009951960782"><ele>962.0</ele><time>2026-04-18T13:31:52.001Z</time></trkpt><trkpt lat="45.738009886663946" lon="10.524106198313913"><ele>962.0</ele><time>2026-04-18T13:31:53.001Z</time></trkpt><trkpt lat="45.737966168303856" lon="10.524179432755918"><ele>962.0</ele><time>2026-04-18T13:31:54.001Z</time></trkpt><trkpt lat="45.737838274883565" lon="10.524283060799025"><ele>962.0</ele><time>2026-04-18T13:31:56.001Z</time></trkpt><trkpt lat="45.737781145292345" lon="10.524349124250287"><ele>962.0</ele><time>2026-04-18T13:31:57.001Z</time></trkpt><trkpt lat="45.73772799298055" lon="10.524410588471758"><ele>962.0</ele><time>2026-04-18T13:31:58.001Z</time></trkpt><trkpt lat="45.73774653702858" lon="10.524559319106045"><ele>963.0</ele><time>2026-04-18T13:31:59.001Z</time></trkpt><trkpt lat="45.73772652397464" lon="10.5247112457833"><ele>964.0</ele><time>2026-04-18T13:32:01.001Z</time></trkpt><trkpt lat="45.73758398238568" lon="10.524740525992348"><ele>965.0</ele><time>2026-04-18T13:32:03.001Z</time></trkpt><trkpt lat="45.73753211480417" lon="10.524806094456533"><ele>966.0</ele><time>2026-04-18T13:32:04.001Z</time></trkpt><trkpt lat="45.73748781130729" lon="10.524932828231913"><ele>967.0</ele><time>2026-04-18T13:32:05.001Z</time></trkpt><trkpt lat="45.73744348656684" lon="10.525045952428163"><ele>966.9999999999999</ele><time>2026-04-18T13:32:06.001Z</time></trkpt><trkpt lat="45.73744899434011" lon="10.525186054911151"><ele>967.0</ele><time>2026-04-18T13:32:07.001Z</time></trkpt><trkpt lat="45.73743115868948" lon="10.525289939709298"><ele>967.0</ele><time>2026-04-18T13:32:08.001Z</time></trkpt><trkpt lat="45.73743649802821" lon="10.52542783305885"><ele>967.0</ele><time>2026-04-18T13:32:09.001Z</time></trkpt><trkpt lat="45.737421470420955" lon="10.525555509405484"><ele>966.9999999999999</ele><time>2026-04-18T13:32:10.001Z</time></trkpt><trkpt lat="45.737426190842925" lon="10.525653864229449"><ele>967.0</ele><time>2026-04-18T13:32:11.001Z</time></trkpt><trkpt lat="45.737415697574185" lon="10.525785705505665"><ele>967.6</ele><time>2026-04-18T13:32:14.001Z</time></trkpt><trkpt lat="45.73750043216214" lon="10.525878375258305"><ele>968.2</ele><time>2026-04-18T13:33:46Z</time></trkpt><trkpt lat="45.73755685247239" lon="10.52598077223536"><ele>968.8</ele><time>2026-04-18T13:33:48Z</time></trkpt><trkpt lat="45.73760882833788" lon="10.526086763366665"><ele>969.4</ele><time>2026-04-18T13:33:50Z</time></trkpt><trkpt lat="45.73765994460888" lon="10.52618644243373"><ele>970.0</ele><time>2026-04-18T13:33:52.001Z</time></trkpt><trkpt lat="45.73772308174205" lon="10.526275081188631"><ele>970.0</ele><time>2026-04-18T13:33:54.001Z</time></trkpt><trkpt lat="45.73782303249194" lon="10.526261778559046"><ele>970.0</ele><time>2026-04-18T13:33:56.001Z</time></trkpt><trkpt lat="45.73791494604658" lon="10.526123770105675"><ele>970.0</ele><time>2026-04-18T13:33:58.001Z</time></trkpt><trkpt lat="45.73794570105859" lon="10.526041371366203"><ele>970.0</ele><time>2026-04-18T13:33:59.001Z</time></trkpt><trkpt lat="45.73797117141814" lon="10.525892213240269"><ele>970.0</ele><time>2026-04-18T13:34:00.001Z</time></trkpt><trkpt lat="45.738089142884526" lon="10.52582087211455"><ele>963.8333333333333</ele><time>2026-04-18T13:34:01.001Z</time></trkpt><trkpt lat="45.73815755035614" lon="10.525783043932199"><ele>957.6666666666666</ele><time>2026-04-18T13:34:02.001Z</time></trkpt><trkpt lat="45.73822522288495" lon="10.525749563968231"><ele>951.5</ele><time>2026-04-18T13:34:03.001Z</time></trkpt><trkpt lat="45.73835782226631" lon="10.525703116377484"><ele>945.3333333333333</ele><time>2026-04-18T13:34:05.001Z</time></trkpt><trkpt lat="45.73843435567744" lon="10.525684388331031"><ele>939.1666666666666</ele><time>2026-04-18T13:34:06.001Z</time></trkpt><trkpt lat="45.73851828684107" lon="10.525674781828775"><ele>933.0</ele><time>2026-04-18T13:34:07.001Z</time></trkpt><trkpt lat="45.73868070676832" lon="10.525688216593274"><ele>933.0</ele><time>2026-04-18T13:34:08.001Z</time></trkpt><trkpt lat="45.738791801507865" lon="10.525702633109628"><ele>933.0</ele><time>2026-04-18T13:34:09.001Z</time></trkpt><trkpt lat="45.738893597711574" lon="10.525693586177516"><ele>933.0</ele><time>2026-04-18T13:34:10.001Z</time></trkpt><trkpt lat="45.738956371891064" lon="10.525673739172431"><ele>933.0</ele><time>2026-04-18T13:34:11.001Z</time></trkpt><trkpt lat="45.73903852585339" lon="10.525633712412622"><ele>933.0</ele><time>2026-04-18T13:34:12.001Z</time></trkpt><trkpt lat="45.73912620312005" lon="10.525608688345093"><ele>933.0</ele><time>2026-04-18T13:34:13.001Z</time></trkpt><trkpt lat="45.739191275308976" lon="10.52563825732984"><ele>933.0</ele><time>2026-04-18T13:34:14.001Z</time></trkpt><trkpt lat="45.739282319158434" lon="10.52566749658327"><ele>933.0</ele><time>2026-04-18T13:34:15.001Z</time></trkpt><trkpt lat="45.73938739033438" lon="10.525687332319304"><ele>933.0</ele><time>2026-04-18T13:34:16.001Z</time></trkpt><trkpt lat="45.739490681120785" lon="10.5256709713159"><ele>933.0</ele><time>2026-04-18T13:34:17.001Z</time></trkpt><trkpt lat="45.739592331076445" lon="10.525624626550089"><ele>935.0</ele><time>2026-04-18T13:34:18.001Z</time></trkpt><trkpt lat="45.739678297687774" lon="10.525608148769646"><ele>937.0</ele><time>2026-04-18T13:34:19.001Z</time></trkpt><trkpt lat="45.73977479822147" lon="10.525595025317477"><ele>939.0</ele><time>2026-04-18T13:34:20.001Z</time></trkpt><trkpt lat="45.73986223303103" lon="10.525607854941008"><ele>941.0</ele><time>2026-04-18T13:34:21.001Z</time></trkpt><trkpt lat="45.73995965806771" lon="10.525632967976406"><ele>943.0</ele><time>2026-04-18T13:34:22.001Z</time></trkpt><trkpt lat="45.74004757467581" lon="10.525598562061232"><ele>942.9999999999999</ele><time>2026-04-18T13:34:23.001Z</time></trkpt><trkpt lat="45.74015475524844" lon="10.525600138601401"><ele>943.0</ele><time>2026-04-18T13:34:24.001Z</time></trkpt><trkpt lat="45.74025183904497" lon="10.52556722169124"><ele>943.0</ele><time>2026-04-18T13:34:25.001Z</time></trkpt><trkpt lat="45.7403217211357" lon="10.525560145487072"><ele>943.0</ele><time>2026-04-18T13:34:26.001Z</time></trkpt><trkpt lat="45.740400607591326" lon="10.525575079023167"><ele>942.9999999999999</ele><time>2026-04-18T13:34:27.001Z</time></trkpt><trkpt lat="45.74048394934472" lon="10.525611102738077"><ele>943.0</ele><time>2026-04-18T13:34:28.001Z</time></trkpt><trkpt lat="45.740547068644695" lon="10.52565900634851"><ele>943.8</ele><time>2026-04-18T13:34:29.001Z</time></trkpt><trkpt lat="45.74064035638989" lon="10.525702829640537"><ele>944.5999999999999</ele><time>2026-04-18T13:34:30.001Z</time></trkpt><trkpt lat="45.740721590646665" lon="10.525720203648277"><ele>945.4000000000001</ele><time>2026-04-18T13:34:31.001Z</time></trkpt><trkpt lat="45.74081489828215" lon="10.52570227098573"><ele>946.2</ele><time>2026-04-18T13:34:32Z</time></trkpt><trkpt lat="45.74091103967449" lon="10.525639352291524"><ele>947.0</ele><time>2026-04-18T13:34:33Z</time></trkpt><trkpt lat="45.74099593093977" lon="10.525595790278533"><ele>945.5000000000001</ele><time>2026-04-18T13:34:34Z</time></trkpt><trkpt lat="45.74105805144223" lon="10.525575054264987"><ele>944.0</ele><time>2026-04-18T13:34:35Z</time></trkpt><trkpt lat="45.74113796582442" lon="10.525552088650915"><ele>942.5</ele><time>2026-04-18T13:34:36Z</time></trkpt><trkpt lat="45.74120891012783" lon="10.525608482509417"><ele>941.0</ele><time>2026-04-18T13:34:37Z</time></trkpt><trkpt lat="45.74128648008041" lon="10.525650145642658"><ele>939.5000000000001</ele><time>2026-04-18T13:34:38Z</time></trkpt><trkpt lat="45.741332342422155" lon="10.525784719711588"><ele>938.0</ele><time>2026-04-18T13:34:39Z</time></trkpt><trkpt lat="45.74140191899477" lon="10.525852846783954"><ele>938.0</ele><time>2026-04-18T13:34:40Z</time></trkpt><trkpt lat="45.74146172823592" lon="10.525903158082127"><ele>938.0</ele><time>2026-04-18T13:34:41Z</time></trkpt><trkpt lat="45.74153080060308" lon="10.525925343986849"><ele>938.0</ele><time>2026-04-18T13:34:42Z</time></trkpt><trkpt lat="45.741605166247346" lon="10.52597153041359"><ele>938.0</ele><time>2026-04-18T13:34:43Z</time></trkpt><trkpt lat="45.74169277405821" lon="10.525752423422182"><ele>938.0</ele><time>2026-04-18T13:34:45Z</time></trkpt><trkpt lat="45.7417341671647" lon="10.52565465711852"><ele>938.0000000000001</ele><time>2026-04-18T13:34:46Z</time></trkpt><trkpt lat="45.74177993245715" lon="10.525569433305696"><ele>938.0</ele><time>2026-04-18T13:34:47Z</time></trkpt><trkpt lat="45.74185059113964" lon="10.525562559311075"><ele>938.0</ele><time>2026-04-18T13:34:48Z</time></trkpt><trkpt lat="45.74195899539921" lon="10.525620219841427"><ele>938.0</ele><time>2026-04-18T13:34:50Z</time></trkpt><trkpt lat="45.74201422239101" lon="10.525684079990702"><ele>938.0000000000001</ele><time>2026-04-18T13:34:51Z</time></trkpt><trkpt lat="45.74205805195034" lon="10.525780979130069"><ele>938.0</ele><time>2026-04-18T13:34:52Z</time></trkpt><trkpt lat="45.74203637351671" lon="10.52593544751059"><ele>936.8</ele><time>2026-04-18T13:34:53Z</time></trkpt><trkpt lat="45.74208381961687" lon="10.526020596355531"><ele>935.5999999999999</ele><time>2026-04-18T13:34:54Z</time></trkpt><trkpt lat="45.74213616217147" lon="10.526114532581282"><ele>934.4000000000001</ele><time>2026-04-18T13:34:55Z</time></trkpt><trkpt lat="45.74224513203537" lon="10.526136068049656"><ele>933.2</ele><time>2026-04-18T13:34:56Z</time></trkpt><trkpt lat="45.742326975148295" lon="10.526181203569985"><ele>932.0</ele><time>2026-04-18T13:34:57Z</time></trkpt><trkpt lat="45.74243979767755" lon="10.52620181405837"><ele>932.0</ele><time>2026-04-18T13:34:58Z</time></trkpt><trkpt lat="45.742525467314444" lon="10.526106366312646"><ele>932.0</ele><time>2026-04-18T13:34:59Z</time></trkpt><trkpt lat="45.74256661596134" lon="10.525952287492098"><ele>932.0</ele><time>2026-04-18T13:35:00Z</time></trkpt><trkpt lat="45.74259534718806" lon="10.525835899423809"><ele>932.0</ele><time>2026-04-18T13:35:01Z</time></trkpt><trkpt lat="45.74266000714974" lon="10.525775151711658"><ele>932.0</ele><time>2026-04-18T13:35:02Z</time></trkpt><trkpt lat="45.742766151364165" lon="10.52570391034654"><ele>936.75</ele><time>2026-04-18T13:35:04Z</time></trkpt><trkpt lat="45.74282525820512" lon="10.525893502058244"><ele>941.5</ele><time>2026-04-18T13:35:06Z</time></trkpt><trkpt lat="45.74289935974886" lon="10.525921789073942"><ele>946.25</ele><time>2026-04-18T13:35:07Z</time></trkpt><trkpt lat="45.74299788783166" lon="10.525914547974743"><ele>951.0</ele><time>2026-04-18T13:35:08Z</time></trkpt><trkpt lat="45.74312314851034" lon="10.52580482662968"><ele>951.0</ele><time>2026-04-18T13:35:09Z</time></trkpt><trkpt lat="45.7431831958176" lon="10.52568431785338"><ele>951.0</ele><time>2026-04-18T13:35:10Z</time></trkpt><trkpt lat="45.743231824102565" lon="10.52562293994353"><ele>951.0</ele><time>2026-04-18T13:35:11Z</time></trkpt><trkpt lat="45.74328812429619" lon="10.525566821926635"><ele>951.0</ele><time>2026-04-18T13:35:12Z</time></trkpt><trkpt lat="45.74334907181302" lon="10.525519216897765"><ele>951.0</ele><time>2026-04-18T13:35:13Z</time></trkpt><trkpt lat="45.743416086034436" lon="10.525598575900565"><ele>951.0</ele><time>2026-04-18T13:35:14Z</time></trkpt><trkpt lat="45.743550236563536" lon="10.525515492569607"><ele>951.8333333333334</ele><time>2026-04-18T13:35:16Z</time></trkpt><trkpt lat="45.74363030569769" lon="10.525469486771307"><ele>952.6666666666667</ele><time>2026-04-18T13:35:17Z</time></trkpt><trkpt lat="45.7437195182951" lon="10.525452130015257"><ele>953.5</ele><time>2026-04-18T13:35:18Z</time></trkpt><trkpt lat="45.74379227002711" lon="10.525466638957264"><ele>954.3333333333334</ele><time>2026-04-18T13:35:19Z</time></trkpt><trkpt lat="45.743879616881706" lon="10.525480446965343"><ele>955.1666666666667</ele><time>2026-04-18T13:35:20Z</time></trkpt><trkpt lat="45.74396137415613" lon="10.52546683844059"><ele>956.0</ele><time>2026-04-18T13:35:21Z</time></trkpt><trkpt lat="45.744033063129514" lon="10.525466312564976"><ele>956.0000000000001</ele><time>2026-04-18T13:35:22Z</time></trkpt><trkpt lat="45.74411051580834" lon="10.52544495125804"><ele>956.0</ele><time>2026-04-18T13:35:23Z</time></trkpt><trkpt lat="45.7441837590068" lon="10.525415640000086"><ele>956.0</ele><time>2026-04-18T13:35:24Z</time></trkpt><trkpt lat="45.74424675398195" lon="10.525453868655179"><ele>956.0</ele><time>2026-04-18T13:35:25Z</time></trkpt><trkpt lat="45.7443264401525" lon="10.525464167509922"><ele>956.0000000000001</ele><time>2026-04-18T13:35:26Z</time></trkpt><trkpt lat="45.744405982611134" lon="10.525488620879939"><ele>956.0</ele><time>2026-04-18T13:35:27Z</time></trkpt><trkpt lat="45.744470398682225" lon="10.525562123400347"><ele>949.0000000000001</ele><time>2026-04-18T13:35:28Z</time></trkpt><trkpt lat="45.74448825258553" lon="10.525673104265163"><ele>942.0</ele><time>2026-04-18T13:35:29Z</time></trkpt><trkpt lat="45.7445533978968" lon="10.525756999928245"><ele>935.0</ele><time>2026-04-18T13:35:30Z</time></trkpt><trkpt lat="45.7446347657109" lon="10.525813826935327"><ele>928.0</ele><time>2026-04-18T13:35:31Z</time></trkpt><trkpt lat="45.744721355289876" lon="10.525829657723603"><ele>921.0000000000001</ele><time>2026-04-18T13:35:32Z</time></trkpt><trkpt lat="45.74480987729445" lon="10.525887127256691"><ele>914.0</ele><time>2026-04-18T13:35:33Z</time></trkpt><trkpt lat="45.744928188247236" lon="10.52592463346585"><ele>914.0000000000001</ele><time>2026-04-18T13:35:34Z</time></trkpt><trkpt lat="45.74499299904439" lon="10.525951400047541"><ele>914.0</ele><time>2026-04-18T13:35:35Z</time></trkpt><trkpt lat="45.745081101877176" lon="10.525998893981798"><ele>914.0</ele><time>2026-04-18T13:35:37Z</time></trkpt><trkpt lat="45.74511774614048" lon="10.526114633677258"><ele>914.0</ele><time>2026-04-18T13:35:39Z</time></trkpt><trkpt lat="45.74508142487882" lon="10.52619185729624"><ele>914.0000000000001</ele><time>2026-04-18T13:35:40Z</time></trkpt><trkpt lat="45.74505094671158" lon="10.526296693430602"><ele>914.0</ele><time>2026-04-18T13:35:41Z</time></trkpt><trkpt lat="45.74502192523206" lon="10.526431410032249"><ele>916.6</ele><time>2026-04-18T13:35:42Z</time></trkpt><trkpt lat="45.74501295765577" lon="10.526549474838896"><ele>919.2</ele><time>2026-04-18T13:35:43Z</time></trkpt><trkpt lat="45.7450375775382" lon="10.526709558013989"><ele>921.8000000000001</ele><time>2026-04-18T13:35:44Z</time></trkpt><trkpt lat="45.745048580335734" lon="10.526842567585197"><ele>924.4000000000001</ele><time>2026-04-18T13:35:45Z</time></trkpt><trkpt lat="45.745052159804025" lon="10.527002110733727"><ele>927.0</ele><time>2026-04-18T13:35:46Z</time></trkpt><trkpt lat="45.745056820753945" lon="10.52713034055696"><ele>927.0</ele><time>2026-04-18T13:35:47Z</time></trkpt><trkpt lat="45.745061024064185" lon="10.527225259042094"><ele>927.0</ele><time>2026-04-18T13:35:48Z</time></trkpt><trkpt lat="45.74506368009262" lon="10.527350823972782"><ele>927.0</ele><time>2026-04-18T13:35:49Z</time></trkpt><trkpt lat="45.74507105100949" lon="10.527480874594218"><ele>927.0</ele><time>2026-04-18T13:35:50Z</time></trkpt><trkpt lat="45.74511457619008" lon="10.527580287012915"><ele>927.0</ele><time>2026-04-18T13:35:51Z</time></trkpt><trkpt lat="45.74518280722354" lon="10.52770287346439"><ele>927.0</ele><time>2026-04-18T13:35:52Z</time></trkpt><trkpt lat="45.745259533799604" lon="10.527772856343232"><ele>925.0</ele><time>2026-04-18T13:35:53Z</time></trkpt><trkpt lat="45.74534381529621" lon="10.52781346470478"><ele>923.0</ele><time>2026-04-18T13:35:54Z</time></trkpt><trkpt lat="45.745432958066516" lon="10.527826771079374"><ele>921.0</ele><time>2026-04-18T13:35:55.001Z</time></trkpt><trkpt lat="45.74551258497885" lon="10.527857861802403"><ele>919.0</ele><time>2026-04-18T13:35:56.001Z</time></trkpt><trkpt lat="45.74560190906512" lon="10.527876990179433"><ele>917.0</ele><time>2026-04-18T13:35:57.001Z</time></trkpt><trkpt lat="45.74568380891326" lon="10.527919852372456"><ele>915.0</ele><time>2026-04-18T13:35:58.001Z</time></trkpt><trkpt lat="45.74575548235532" lon="10.528025357772414"><ele>915.0</ele><time>2026-04-18T13:35:59.001Z</time></trkpt><trkpt lat="45.745858269742776" lon="10.528137784333476"><ele>915.0</ele><time>2026-04-18T13:36:00.001Z</time></trkpt><trkpt lat="45.745960250757555" lon="10.528199324344568"><ele>915.0</ele><time>2026-04-18T13:36:01.001Z</time></trkpt><trkpt lat="45.74605701358708" lon="10.5282552759849"><ele>915.0</ele><time>2026-04-18T13:36:02.001Z</time></trkpt><trkpt lat="45.74615075560995" lon="10.528312807644284"><ele>915.0</ele><time>2026-04-18T13:36:03.001Z</time></trkpt><trkpt lat="45.74623945689412" lon="10.52837812793142"><ele>898.25</ele><time>2026-04-18T13:36:04.001Z</time></trkpt><trkpt lat="45.74630774184668" lon="10.528474445082335"><ele>881.5</ele><time>2026-04-18T13:36:05.001Z</time></trkpt><trkpt lat="45.746316651243156" lon="10.528640355891438"><ele>864.75</ele><time>2026-04-18T13:36:07.001Z</time></trkpt><trkpt lat="45.74629245759536" lon="10.528869564087458"><ele>848.0</ele><time>2026-04-18T13:36:09.001Z</time></trkpt><trkpt lat="45.74625092983169" lon="10.529016477072885"><ele>848.0</ele><time>2026-04-18T13:36:10.001Z</time></trkpt><trkpt lat="45.7462174477367" lon="10.529153777105618"><ele>848.0</ele><time>2026-04-18T13:36:11.001Z</time></trkpt><trkpt lat="45.746174527298" lon="10.529312520509022"><ele>848.0</ele><time>2026-04-18T13:36:12.001Z</time></trkpt><trkpt lat="45.746152474495155" lon="10.529472827315802"><ele>848.0</ele><time>2026-04-18T13:36:13.001Z</time></trkpt><trkpt lat="45.74613319411722" lon="10.529608577974766"><ele>848.0</ele><time>2026-04-18T13:36:14.001Z</time></trkpt><trkpt lat="45.74612597177178" lon="10.529770780237909"><ele>848.0</ele><time>2026-04-18T13:36:15.001Z</time></trkpt><trkpt lat="45.74611938972269" lon="10.529949684081682"><ele>848.0</ele><time>2026-04-18T13:36:16.001Z</time></trkpt><trkpt lat="45.746119507067256" lon="10.53012449970331"><ele>848.0</ele><time>2026-04-18T13:36:17.001Z</time></trkpt><trkpt lat="45.74612566199838" lon="10.530291738300221"><ele>848.0</ele><time>2026-04-18T13:36:18.001Z</time></trkpt><trkpt lat="45.746152091755775" lon="10.530497226021161"><ele>848.0</ele><time>2026-04-18T13:36:19.001Z</time></trkpt><trkpt lat="45.74615418939282" lon="10.530623393870714"><ele>848.0</ele><time>2026-04-18T13:36:20.001Z</time></trkpt><trkpt lat="45.746150466198344" lon="10.530776440497078"><ele>848.0</ele><time>2026-04-18T13:36:21.001Z</time></trkpt><trkpt lat="45.746153216304" lon="10.530924427656283"><ele>848.0</ele><time>2026-04-18T13:36:22.001Z</time></trkpt><trkpt lat="45.74614869672933" lon="10.531043574991134"><ele>848.0</ele><time>2026-04-18T13:36:23.001Z</time></trkpt><trkpt lat="45.74612458660073" lon="10.531185431514583"><ele>849.8</ele><time>2026-04-18T13:36:24.001Z</time></trkpt><trkpt lat="45.74609850626466" lon="10.531346352787498"><ele>851.5999999999999</ele><time>2026-04-18T13:36:25.001Z</time></trkpt><trkpt lat="45.74605510970724" lon="10.531456495218725"><ele>853.4000000000001</ele><time>2026-04-18T13:36:26.001Z</time></trkpt><trkpt lat="45.74605265361393" lon="10.531596554655014"><ele>855.2</ele><time>2026-04-18T13:36:27.001Z</time></trkpt><trkpt lat="45.746034105800945" lon="10.531746922550047"><ele>857.0</ele><time>2026-04-18T13:36:28.001Z</time></trkpt><trkpt lat="45.74603904669061" lon="10.531879589074688"><ele>859.2</ele><time>2026-04-18T13:36:29.001Z</time></trkpt><trkpt lat="45.74603515878689" lon="10.532002439187622"><ele>861.4000000000001</ele><time>2026-04-18T13:36:30.001Z</time></trkpt><trkpt lat="45.746045711593084" lon="10.532102717642422"><ele>863.5999999999999</ele><time>2026-04-18T13:36:31.001Z</time></trkpt><trkpt lat="45.74606992089528" lon="10.532230306722933"><ele>865.8</ele><time>2026-04-18T13:36:32.001Z</time></trkpt><trkpt lat="45.74607670839287" lon="10.532378725243811"><ele>868.0</ele><time>2026-04-18T13:36:33.001Z</time></trkpt><trkpt lat="45.74612680822274" lon="10.532537434473799"><ele>868.0</ele><time>2026-04-18T13:36:34.001Z</time></trkpt><trkpt lat="45.74617431302114" lon="10.532675961010655"><ele>868.0</ele><time>2026-04-18T13:36:35.001Z</time></trkpt><trkpt lat="45.74621909245975" lon="10.532813728018917"><ele>868.0</ele><time>2026-04-18T13:36:36.001Z</time></trkpt><trkpt lat="45.74626715283256" lon="10.532952463800013"><ele>868.0</ele><time>2026-04-18T13:36:37.001Z</time></trkpt><trkpt lat="45.74630227965771" lon="10.53310470068618"><ele>868.0</ele><time>2026-04-18T13:36:38Z</time></trkpt><trkpt lat="45.74634016050402" lon="10.533241942497929"><ele>870.5999999999999</ele><time>2026-04-18T13:36:39Z</time></trkpt><trkpt lat="45.746374429578" lon="10.533391730799922"><ele>873.1999999999999</ele><time>2026-04-18T13:36:40Z</time></trkpt><trkpt lat="45.74640231435855" lon="10.533540028089595"><ele>875.8</ele><time>2026-04-18T13:36:41Z</time></trkpt><trkpt lat="45.74642870198259" lon="10.533683273865847"><ele>878.4</ele><time>2026-04-18T13:36:42Z</time></trkpt><trkpt lat="45.74645743433377" lon="10.533818702539666"><ele>881.0</ele><time>2026-04-18T13:36:43Z</time></trkpt><trkpt lat="45.74648238922582" lon="10.533934620800814"><ele>883.8</ele><time>2026-04-18T13:36:44Z</time></trkpt><trkpt lat="45.74650437680509" lon="10.534062565561007"><ele>886.5999999999999</ele><time>2026-04-18T13:36:45Z</time></trkpt><trkpt lat="45.74652737347144" lon="10.534180120100961"><ele>889.4</ele><time>2026-04-18T13:36:46Z</time></trkpt><trkpt lat="45.746553944792346" lon="10.534324239524231"><ele>892.2</ele><time>2026-04-18T13:36:47Z</time></trkpt><trkpt lat="45.746572870139154" lon="10.534461380437925"><ele>895.0</ele><time>2026-04-18T13:36:48Z</time></trkpt><trkpt lat="45.74658312790884" lon="10.534616485509385"><ele>895.8</ele><time>2026-04-18T13:36:49Z</time></trkpt><trkpt lat="45.74657545395671" lon="10.534758754033717"><ele>896.6</ele><time>2026-04-18T13:36:50Z</time></trkpt><trkpt lat="45.746547273240544" lon="10.534916111050702"><ele>897.4000000000001</ele><time>2026-04-18T13:36:51Z</time></trkpt><trkpt lat="45.74650264084843" lon="10.535058394026073"><ele>898.2</ele><time>2026-04-18T13:36:52Z</time></trkpt><trkpt lat="45.74645903547559" lon="10.535176364980309"><ele>899.0</ele><time>2026-04-18T13:36:53Z</time></trkpt><trkpt lat="45.7464102140959" lon="10.53528141244261"><ele>899.0</ele><time>2026-04-18T13:36:54Z</time></trkpt><trkpt lat="45.74636083797131" lon="10.535386812646994"><ele>899.0000000000001</ele><time>2026-04-18T13:36:55Z</time></trkpt><trkpt lat="45.74629087354255" lon="10.535513609654807"><ele>899.0000000000001</ele><time>2026-04-18T13:36:56Z</time></trkpt><trkpt lat="45.74623127100616" lon="10.535627759364086"><ele>899.0</ele><time>2026-04-18T13:36:57Z</time></trkpt><trkpt lat="45.74618128373967" lon="10.535760469550858"><ele>899.0</ele><time>2026-04-18T13:36:58Z</time></trkpt><trkpt lat="45.746162651844315" lon="10.535904676673129"><ele>899.4000000000001</ele><time>2026-04-18T13:36:59Z</time></trkpt><trkpt lat="45.746163886484446" lon="10.536034895251843"><ele>899.8000000000001</ele><time>2026-04-18T13:37:00Z</time></trkpt><trkpt lat="45.746157287984374" lon="10.536190154002323"><ele>900.1999999999999</ele><time>2026-04-18T13:37:01Z</time></trkpt><trkpt lat="45.74615375343494" lon="10.536343140839437"><ele>900.5999999999999</ele><time>2026-04-18T13:37:02Z</time></trkpt><trkpt lat="45.746168202890445" lon="10.536511495139436"><ele>901.0</ele><time>2026-04-18T13:37:03Z</time></trkpt><trkpt lat="45.74619127949717" lon="10.536658041253121"><ele>904.1999999999999</ele><time>2026-04-18T13:37:04Z</time></trkpt><trkpt lat="45.746252292566105" lon="10.536782533166292"><ele>907.3999999999999</ele><time>2026-04-18T13:37:05Z</time></trkpt><trkpt lat="45.746309792256724" lon="10.536907330523244"><ele>910.6</ele><time>2026-04-18T13:37:06Z</time></trkpt><trkpt lat="45.74637481351763" lon="10.53701950445112"><ele>913.8</ele><time>2026-04-18T13:37:07Z</time></trkpt><trkpt lat="45.74645026264789" lon="10.537107478859708"><ele>917.0</ele><time>2026-04-18T13:37:08Z</time></trkpt><trkpt lat="45.74653252885542" lon="10.53714200321752"><ele>920.5</ele><time>2026-04-18T13:37:09Z</time></trkpt><trkpt lat="45.74663691720701" lon="10.537224398838138"><ele>924.0</ele><time>2026-04-18T13:37:10Z</time></trkpt><trkpt lat="45.746751808054455" lon="10.537291744056402"><ele>927.5</ele><time>2026-04-18T13:37:11Z</time></trkpt><trkpt lat="45.74688870753231" lon="10.537359855617314"><ele>931.0</ele><time>2026-04-18T13:37:12Z</time></trkpt><trkpt lat="45.74700482627144" lon="10.53745100086366"><ele>931.0</ele><time>2026-04-18T13:37:13Z</time></trkpt><trkpt lat="45.747108025013794" lon="10.53749434147562"><ele>930.9999999999999</ele><time>2026-04-18T13:37:14Z</time></trkpt><trkpt lat="45.7472358429157" lon="10.537469863818105"><ele>930.9999999999999</ele><time>2026-04-18T13:37:15Z</time></trkpt><trkpt lat="45.74734550267125" lon="10.537455974933115"><ele>931.0</ele><time>2026-04-18T13:37:16Z</time></trkpt><trkpt lat="45.747439412176135" lon="10.53747431984831"><ele>931.0</ele><time>2026-04-18T13:37:17Z</time></trkpt><trkpt lat="45.74751868945807" lon="10.537568226745437"><ele>931.0</ele><time>2026-04-18T13:37:18Z</time></trkpt><trkpt lat="45.74757559713357" lon="10.537685517295078"><ele>930.9999999999999</ele><time>2026-04-18T13:37:19Z</time></trkpt><trkpt lat="45.74763764999211" lon="10.537834904024802"><ele>930.9999999999999</ele><time>2026-04-18T13:37:20Z</time></trkpt><trkpt lat="45.7476932207373" lon="10.537958290974851"><ele>931.0</ele><time>2026-04-18T13:37:21Z</time></trkpt><trkpt lat="45.747752079572614" lon="10.53808897867355"><ele>931.0</ele><time>2026-04-18T13:37:22Z</time></trkpt><trkpt lat="45.74781475294116" lon="10.538225922324443"><ele>933.1999999999999</ele><time>2026-04-18T13:37:23Z</time></trkpt><trkpt lat="45.74789820452281" lon="10.538351989603413"><ele>935.3999999999999</ele><time>2026-04-18T13:37:24Z</time></trkpt><trkpt lat="45.747968013763106" lon="10.53847515299904"><ele>937.6</ele><time>2026-04-18T13:37:25Z</time></trkpt><trkpt lat="45.748056676777516" lon="10.538580849276391"><ele>939.8</ele><time>2026-04-18T13:37:26Z</time></trkpt><trkpt lat="45.748135436885796" lon="10.538645556180088"><ele>942.0</ele><time>2026-04-18T13:37:27Z</time></trkpt><trkpt lat="45.74820936444822" lon="10.538666006115776"><ele>942.0</ele><time>2026-04-18T13:37:28Z</time></trkpt><trkpt lat="45.7483293034353" lon="10.538643074721117"><ele>942.0</ele><time>2026-04-18T13:37:29Z</time></trkpt><trkpt lat="45.74841400759259" lon="10.5385987449825"><ele>942.0</ele><time>2026-04-18T13:37:30Z</time></trkpt><trkpt lat="45.7484895922499" lon="10.538562589507773"><ele>942.0</ele><time>2026-04-18T13:37:31Z</time></trkpt><trkpt lat="45.74856126580912" lon="10.538533627914576"><ele>942.0</ele><time>2026-04-18T13:37:32Z</time></trkpt><trkpt lat="45.74864084428201" lon="10.538531412805431"><ele>942.0</ele><time>2026-04-18T13:37:33Z</time></trkpt><trkpt lat="45.74871267831154" lon="10.53860894743848"><ele>944.4000000000001</ele><time>2026-04-18T13:37:34Z</time></trkpt><trkpt lat="45.74878692859092" lon="10.538681178899598"><ele>946.8000000000001</ele><time>2026-04-18T13:37:35Z</time></trkpt><trkpt lat="45.74886187179648" lon="10.538757011627059"><ele>949.2</ele><time>2026-04-18T13:37:36Z</time></trkpt><trkpt lat="45.74893803706204" lon="10.538846593458988"><ele>951.6</ele><time>2026-04-18T13:37:37Z</time></trkpt><trkpt lat="45.74901131125375" lon="10.538918385436325"><ele>954.0</ele><time>2026-04-18T13:37:38Z</time></trkpt><trkpt lat="45.74903083707862" lon="10.539040108022522"><ele>954.0</ele><time>2026-04-18T13:37:39Z</time></trkpt><trkpt lat="45.749018623418486" lon="10.539159779203604"><ele>954.0000000000001</ele><time>2026-04-18T13:37:40Z</time></trkpt><trkpt lat="45.74898609722562" lon="10.539323691939067"><ele>954.0000000000001</ele><time>2026-04-18T13:37:41Z</time></trkpt><trkpt lat="45.74897598276792" lon="10.539460160975318"><ele>954.0</ele><time>2026-04-18T13:37:42Z</time></trkpt><trkpt lat="45.74898468285419" lon="10.539604673188647"><ele>954.0</ele><time>2026-04-18T13:37:43Z</time></trkpt><trkpt lat="45.74907326295489" lon="10.539755441896192"><ele>954.0</ele><time>2026-04-18T13:37:44Z</time></trkpt><trkpt lat="45.74914651021351" lon="10.539910863089748"><ele>954.0</ele><time>2026-04-18T13:37:45Z</time></trkpt><trkpt lat="45.749225598538715" lon="10.540044090528724"><ele>954.0</ele><time>2026-04-18T13:37:46Z</time></trkpt><trkpt lat="45.74931024253441" lon="10.540165780712178"><ele>954.0</ele><time>2026-04-18T13:37:47Z</time></trkpt><trkpt lat="45.74940031798488" lon="10.54028689583663"><ele>950.75</ele><time>2026-04-18T13:37:48Z</time></trkpt><trkpt lat="45.7495013072681" lon="10.540393270549279"><ele>947.5</ele><time>2026-04-18T13:37:49Z</time></trkpt><trkpt lat="45.74959399520542" lon="10.54048251091649"><ele>944.25</ele><time>2026-04-18T13:37:50Z</time></trkpt><trkpt lat="45.749675438389474" lon="10.540589772629325"><ele>941.0</ele><time>2026-04-18T13:37:51Z</time></trkpt><trkpt lat="45.74975883513566" lon="10.540682871019612"><ele>941.0</ele><time>2026-04-18T13:37:52Z</time></trkpt><trkpt lat="45.749838819248694" lon="10.540770853501291"><ele>940.9999999999999</ele><time>2026-04-18T13:37:53Z</time></trkpt><trkpt lat="45.74991540286907" lon="10.54086041585101"><ele>940.9999999999999</ele><time>2026-04-18T13:37:54Z</time></trkpt><trkpt lat="45.749988055864286" lon="10.540953840014744"><ele>941.0</ele><time>2026-04-18T13:37:55Z</time></trkpt><trkpt lat="45.750045134368335" lon="10.541055407119483"><ele>941.0</ele><time>2026-04-18T13:37:56Z</time></trkpt><trkpt lat="45.7500892514419" lon="10.54117051967025"><ele>935.5999999999999</ele><time>2026-04-18T13:37:57Z</time></trkpt><trkpt lat="45.75014109908037" lon="10.541293865056943"><ele>930.1999999999999</ele><time>2026-04-18T13:37:58Z</time></trkpt><trkpt lat="45.75018744650134" lon="10.541407245852675"><ele>924.8000000000001</ele><time>2026-04-18T13:37:59Z</time></trkpt><trkpt lat="45.75025465141444" lon="10.54150905452736"><ele>919.4000000000001</ele><time>2026-04-18T13:38:00Z</time></trkpt><trkpt lat="45.75031382180764" lon="10.541616282235283"><ele>914.0</ele><time>2026-04-18T13:38:01Z</time></trkpt><trkpt lat="45.750401269335654" lon="10.54166252609722"><ele>914.0</ele><time>2026-04-18T13:38:02Z</time></trkpt><trkpt lat="45.75049695413681" lon="10.541694002767079"><ele>914.0</ele><time>2026-04-18T13:38:03Z</time></trkpt><trkpt lat="45.750612975737944" lon="10.541665392549039"><ele>914.0</ele><time>2026-04-18T13:38:04.001Z</time></trkpt><trkpt lat="45.75072585029249" lon="10.541568379078656"><ele>914.0</ele><time>2026-04-18T13:38:05.001Z</time></trkpt><trkpt lat="45.750831917295635" lon="10.541509275848922"><ele>914.0</ele><time>2026-04-18T13:38:06.001Z</time></trkpt><trkpt lat="45.7509436698373" lon="10.54145425071096"><ele>914.0</ele><time>2026-04-18T13:38:07.001Z</time></trkpt><trkpt lat="45.75104552749915" lon="10.541407125511883"><ele>914.0</ele><time>2026-04-18T13:38:08.001Z</time></trkpt><trkpt lat="45.75115833955259" lon="10.541355651635808"><ele>914.0</ele><time>2026-04-18T13:38:09.001Z</time></trkpt><trkpt lat="45.751269354848674" lon="10.541321935184738"><ele>911.6</ele><time>2026-04-18T13:38:10.001Z</time></trkpt><trkpt lat="45.75137556572859" lon="10.541289518673015"><ele>909.2</ele><time>2026-04-18T13:38:11.001Z</time></trkpt><trkpt lat="45.751481906208205" lon="10.541273095329265"><ele>906.8000000000001</ele><time>2026-04-18T13:38:12.001Z</time></trkpt><trkpt lat="45.75156923789338" lon="10.541256490665596"><ele>904.4000000000001</ele><time>2026-04-18T13:38:13.001Z</time></trkpt><trkpt lat="45.75166934495501" lon="10.541239532928067"><ele>902.0</ele><time>2026-04-18T13:38:14.001Z</time></trkpt><trkpt lat="45.75176268528976" lon="10.541222873701393"><ele>903.8</ele><time>2026-04-18T13:38:15.001Z</time></trkpt><trkpt lat="45.75186310062325" lon="10.541197566811391"><ele>905.6</ele><time>2026-04-18T13:38:16.001Z</time></trkpt><trkpt lat="45.75195639632294" lon="10.541169578609761"><ele>907.3999999999999</ele><time>2026-04-18T13:38:17.001Z</time></trkpt><trkpt lat="45.75204800782398" lon="10.541113557002728"><ele>909.1999999999999</ele><time>2026-04-18T13:38:18.001Z</time></trkpt><trkpt lat="45.752139341052185" lon="10.541031119949263"><ele>911.0</ele><time>2026-04-18T13:38:19.001Z</time></trkpt><trkpt lat="45.7522294420457" lon="10.540948157556281"><ele>911.0</ele><time>2026-04-18T13:38:20.001Z</time></trkpt><trkpt lat="45.75233204635439" lon="10.540861458816225"><ele>910.9999999999999</ele><time>2026-04-18T13:38:21.001Z</time></trkpt><trkpt lat="45.752424153233" lon="10.540804661980813"><ele>910.9999999999999</ele><time>2026-04-18T13:38:22.001Z</time></trkpt><trkpt lat="45.75252190032898" lon="10.54084016888951"><ele>911.0</ele><time>2026-04-18T13:38:23.001Z</time></trkpt><trkpt lat="45.752617663990236" lon="10.540852762968617"><ele>911.0</ele><time>2026-04-18T13:38:24.001Z</time></trkpt><trkpt lat="45.75270290419058" lon="10.540847121873917"><ele>911.8333333333334</ele><time>2026-04-18T13:38:25.001Z</time></trkpt><trkpt lat="45.75277915066411" lon="10.540877879068793"><ele>912.6666666666667</ele><time>2026-04-18T13:38:26.001Z</time></trkpt><trkpt lat="45.75285459730546" lon="10.540934166971027"><ele>913.5</ele><time>2026-04-18T13:38:27.001Z</time></trkpt><trkpt lat="45.75291010089086" lon="10.541026850069743"><ele>914.3333333333333</ele><time>2026-04-18T13:38:28.001Z</time></trkpt><trkpt lat="45.75289762282285" lon="10.54116745181842"><ele>915.1666666666666</ele><time>2026-04-18T13:38:29.001Z</time></trkpt><trkpt lat="45.752913950478316" lon="10.541301908737497"><ele>916.0</ele><time>2026-04-18T13:38:30.001Z</time></trkpt><trkpt lat="45.75293211904422" lon="10.541445735711834"><ele>916.0</ele><time>2026-04-18T13:38:31.001Z</time></trkpt><trkpt lat="45.75295325183842" lon="10.541604162828355"><ele>916.0</ele><time>2026-04-18T13:38:32.001Z</time></trkpt><trkpt lat="45.75298917632888" lon="10.541787524584452"><ele>916.0</ele><time>2026-04-18T13:38:33.001Z</time></trkpt><trkpt lat="45.753047558547074" lon="10.541978098830388"><ele>916.0</ele><time>2026-04-18T13:38:34.001Z</time></trkpt><trkpt lat="45.75308608860357" lon="10.542163966961132"><ele>914.5</ele><time>2026-04-18T13:38:35.001Z</time></trkpt><trkpt lat="45.753128635832866" lon="10.542333749315649"><ele>913.0</ele><time>2026-04-18T13:38:36.001Z</time></trkpt><trkpt lat="45.75316701107737" lon="10.54250529371609"><ele>911.5</ele><time>2026-04-18T13:38:37.001Z</time></trkpt><trkpt lat="45.75318918216007" lon="10.542678974089498"><ele>910.0</ele><time>2026-04-18T13:38:38.001Z</time></trkpt><trkpt lat="45.75322199905789" lon="10.542824035424472"><ele>909.0</ele><time>2026-04-18T13:38:39.001Z</time></trkpt><trkpt lat="45.75325410415467" lon="10.54296565417998"><ele>908.0</ele><time>2026-04-18T13:38:40.001Z</time></trkpt><trkpt lat="45.75328625230014" lon="10.543107462942492"><ele>907.0</ele><time>2026-04-18T13:38:41.001Z</time></trkpt><trkpt lat="45.753316762046815" lon="10.54325447563844"><ele>906.0</ele><time>2026-04-18T13:38:42.001Z</time></trkpt><trkpt lat="45.753353126879276" lon="10.543387946818699"><ele>905.0</ele><time>2026-04-18T13:38:43.001Z</time></trkpt><trkpt lat="45.75335707813585" lon="10.543535263610709"><ele>905.0</ele><time>2026-04-18T13:38:44Z</time></trkpt><trkpt lat="45.75335860033353" lon="10.543675018233543"><ele>905.0</ele><time>2026-04-18T13:38:45Z</time></trkpt><trkpt lat="45.7533582254106" lon="10.543820764190055"><ele>905.0</ele><time>2026-04-18T13:38:46Z</time></trkpt><trkpt lat="45.75335057403581" lon="10.543965949833787"><ele>905.0</ele><time>2026-04-18T13:38:47Z</time></trkpt><trkpt lat="45.75336062183524" lon="10.544126251409432"><ele>905.0</ele><time>2026-04-18T13:38:48Z</time></trkpt><trkpt lat="45.75336137008856" lon="10.544283057632779"><ele>904.4</ele><time>2026-04-18T13:38:49Z</time></trkpt><trkpt lat="45.753361556454266" lon="10.54443152055547"><ele>903.8</ele><time>2026-04-18T13:38:50Z</time></trkpt><trkpt lat="45.75335306931255" lon="10.54459631449014"><ele>903.2</ele><time>2026-04-18T13:38:51Z</time></trkpt><trkpt lat="45.7533407814898" lon="10.544743970457144"><ele>902.6</ele><time>2026-04-18T13:38:52Z</time></trkpt><trkpt lat="45.75330360399917" lon="10.544902694568508"><ele>902.0</ele><time>2026-04-18T13:38:53Z</time></trkpt><trkpt lat="45.75328292528012" lon="10.545040370361823"><ele>901.8</ele><time>2026-04-18T13:38:54Z</time></trkpt><trkpt lat="45.75325514646829" lon="10.545192197267262"><ele>901.6</ele><time>2026-04-18T13:38:55Z</time></trkpt><trkpt lat="45.75323525375491" lon="10.545337910984912"><ele>901.3999999999999</ele><time>2026-04-18T13:38:56Z</time></trkpt><trkpt lat="45.75321493871278" lon="10.545489123716623"><ele>901.1999999999999</ele><time>2026-04-18T13:38:57Z</time></trkpt><trkpt lat="45.753189841963156" lon="10.545618911344176"><ele>901.0</ele><time>2026-04-18T13:38:58Z</time></trkpt><trkpt lat="45.75317013151308" lon="10.545751859826568"><ele>901.0</ele><time>2026-04-18T13:38:59Z</time></trkpt><trkpt lat="45.753149552737206" lon="10.545876728924881"><ele>900.9999999999999</ele><time>2026-04-18T13:39:00Z</time></trkpt><trkpt lat="45.75312678183112" lon="10.545993503127745"><ele>900.9999999999999</ele><time>2026-04-18T13:39:01Z</time></trkpt><trkpt lat="45.753090919039224" lon="10.546096462041337"><ele>901.0</ele><time>2026-04-18T13:39:02Z</time></trkpt><trkpt lat="45.75306135320825" lon="10.546213937927702"><ele>901.0</ele><time>2026-04-18T13:39:03Z</time></trkpt><trkpt lat="45.75311861254207" lon="10.546354831718114"><ele>900.8333333333333</ele><time>2026-04-18T13:39:04Z</time></trkpt><trkpt lat="45.753117554265984" lon="10.546476241015112"><ele>900.6666666666666</ele><time>2026-04-18T13:39:05Z</time></trkpt><trkpt lat="45.753126131804954" lon="10.546587992800246"><ele>900.5</ele><time>2026-04-18T13:39:06Z</time></trkpt><trkpt lat="45.753144481878344" lon="10.546714411618652"><ele>900.3333333333333</ele><time>2026-04-18T13:39:07Z</time></trkpt><trkpt lat="45.75316451325141" lon="10.546839410193277"><ele>900.1666666666666</ele><time>2026-04-18T13:39:08Z</time></trkpt><trkpt lat="45.75318355785096" lon="10.546959684816821"><ele>900.0</ele><time>2026-04-18T13:39:09Z</time></trkpt><trkpt lat="45.75320877093796" lon="10.547069118776562"><ele>899.3333333333334</ele><time>2026-04-18T13:39:10Z</time></trkpt><trkpt lat="45.75324377597302" lon="10.547167627612385"><ele>898.6666666666667</ele><time>2026-04-18T13:39:11Z</time></trkpt><trkpt lat="45.7532907552879" lon="10.54726586245932"><ele>898.0</ele><time>2026-04-18T13:39:12Z</time></trkpt><trkpt lat="45.75333288479604" lon="10.547355721507872"><ele>897.3333333333334</ele><time>2026-04-18T13:39:13Z</time></trkpt><trkpt lat="45.753378774947045" lon="10.54743782585596"><ele>896.6666666666667</ele><time>2026-04-18T13:39:14Z</time></trkpt><trkpt lat="45.75343512634635" lon="10.547504470466908"><ele>896.0</ele><time>2026-04-18T13:39:15Z</time></trkpt><trkpt lat="45.75353212501307" lon="10.5475274150732"><ele>896.6666666666667</ele><time>2026-04-18T13:39:16Z</time></trkpt><trkpt lat="45.7536001721467" lon="10.547599594186975"><ele>897.3333333333334</ele><time>2026-04-18T13:39:17Z</time></trkpt><trkpt lat="45.75367027197495" lon="10.547662443183977"><ele>898.0</ele><time>2026-04-18T13:39:18Z</time></trkpt><trkpt lat="45.753751969160305" lon="10.547719482513033"><ele>898.6666666666667</ele><time>2026-04-18T13:39:19Z</time></trkpt><trkpt lat="45.753820138914435" lon="10.547822400985023"><ele>899.3333333333334</ele><time>2026-04-18T13:39:20Z</time></trkpt><trkpt lat="45.753892387139224" lon="10.547892296673933"><ele>900.0</ele><time>2026-04-18T13:39:21Z</time></trkpt><trkpt lat="45.753949249010574" lon="10.547983436517265"><ele>900.0</ele><time>2026-04-18T13:39:22Z</time></trkpt><trkpt lat="45.75400548500745" lon="10.548071923081709"><ele>900.0</ele><time>2026-04-18T13:39:23Z</time></trkpt><trkpt lat="45.754057195675536" lon="10.548159231806684"><ele>900.0</ele><time>2026-04-18T13:39:24Z</time></trkpt><trkpt lat="45.75410334546607" lon="10.548248907558966"><ele>900.0</ele><time>2026-04-18T13:39:25Z</time></trkpt><trkpt lat="45.754146012803666" lon="10.548335741881523"><ele>900.0</ele><time>2026-04-18T13:39:26Z</time></trkpt><trkpt lat="45.75418721149611" lon="10.548430331414307"><ele>900.0</ele><time>2026-04-18T13:39:27Z</time></trkpt><trkpt lat="45.75422587696654" lon="10.548550534937101"><ele>900.0</ele><time>2026-04-18T13:39:28Z</time></trkpt><trkpt lat="45.75429051092133" lon="10.54864832630799"><ele>900.0</ele><time>2026-04-18T13:39:29Z</time></trkpt><trkpt lat="45.75436238330537" lon="10.548724443795178"><ele>900.0</ele><time>2026-04-18T13:39:32Z</time></trkpt><trkpt lat="45.754423664397045" lon="10.548800564547543"><ele>900.0</ele><time>2026-04-18T13:39:34Z</time></trkpt><trkpt lat="45.75446222936083" lon="10.548888700731167"><ele>900.0</ele><time>2026-04-18T13:39:36Z</time></trkpt><trkpt lat="45.75444222301175" lon="10.548691175953326"><ele>900.0</ele><time>2026-04-18T13:39:39Z</time></trkpt><trkpt lat="45.754346689192275" lon="10.5486811765376"><ele>900.0</ele><time>2026-04-18T13:39:55Z</time></trkpt><trkpt lat="45.7544153621012" lon="10.548740221936624"><ele>900.0</ele><time>2026-04-18T13:40:31.001Z</time></trkpt><trkpt lat="45.75438055151823" lon="10.548931593032941"><ele>900.0</ele><time>2026-04-18T13:41:01.366Z</time></trkpt><trkpt lat="45.75439358364099" lon="10.548665751757579"><ele>900.0</ele><time>2026-04-18T14:00:19.014Z</time></trkpt><trkpt lat="45.754468268344915" lon="10.548637116429989"><ele>900.0</ele><time>2026-04-18T14:01:24Z</time></trkpt><trkpt lat="45.75439904871583" lon="10.548623539646545"><ele>900.0</ele><time>2026-04-18T14:02:12.001Z</time></trkpt><trkpt lat="45.75426089296504" lon="10.548571774732688"><ele>900.0</ele><time>2026-04-18T14:02:29.001Z</time></trkpt><trkpt lat="45.754309265402775" lon="10.548944052656484"><ele>899.2</ele><time>2026-04-18T14:02:34Z</time></trkpt><trkpt lat="45.75426744571817" lon="10.549039652096113"><ele>898.4</ele><time>2026-04-18T14:02:35Z</time></trkpt><trkpt lat="45.754209241672456" lon="10.54919667714302"><ele>897.5999999999999</ele><time>2026-04-18T14:02:37Z</time></trkpt><trkpt lat="45.754141557103765" lon="10.549279260312796"><ele>896.8</ele><time>2026-04-18T14:02:38Z</time></trkpt><trkpt lat="45.75406799104114" lon="10.54939303717482"><ele>896.0</ele><time>2026-04-18T14:02:39Z</time></trkpt><trkpt lat="45.75400091862114" lon="10.5495474509689"><ele>893.1666666666667</ele><time>2026-04-18T14:02:41Z</time></trkpt><trkpt lat="45.75399240433586" lon="10.549642679243128"><ele>890.3333333333334</ele><time>2026-04-18T14:02:42Z</time></trkpt><trkpt lat="45.753967192604485" lon="10.549777265880532"><ele>887.5</ele><time>2026-04-18T14:02:44Z</time></trkpt><trkpt lat="45.75395433437284" lon="10.549879123211845"><ele>884.6666666666667</ele><time>2026-04-18T14:02:45Z</time></trkpt><trkpt lat="45.75391750863753" lon="10.549979161351299"><ele>881.8333333333334</ele><time>2026-04-18T14:02:50Z</time></trkpt><trkpt lat="45.753866546084254" lon="10.549886207833971"><ele>879.0</ele><time>2026-04-18T14:02:51Z</time></trkpt><trkpt lat="45.75376731643401" lon="10.549877938780044"><ele>879.0</ele><time>2026-04-18T14:02:53Z</time></trkpt><trkpt lat="45.75370101853654" lon="10.550024627687435"><ele>879.0000000000001</ele><time>2026-04-18T14:02:54Z</time></trkpt><trkpt lat="45.75362649194584" lon="10.549974143213598"><ele>879.0000000000001</ele><time>2026-04-18T14:02:55Z</time></trkpt><trkpt lat="45.753501018640826" lon="10.549993104717489"><ele>879.0</ele><time>2026-04-18T14:02:57Z</time></trkpt><trkpt lat="45.75340999908301" lon="10.549947922268437"><ele>879.0</ele><time>2026-04-18T14:02:58Z</time></trkpt><trkpt lat="45.753339585186886" lon="10.549903278096236"><ele>876.0</ele><time>2026-04-18T14:02:59Z</time></trkpt><trkpt lat="45.7532472485137" lon="10.549913999195102"><ele>873.0000000000001</ele><time>2026-04-18T14:03:00Z</time></trkpt><trkpt lat="45.75315267269991" lon="10.549891170308587"><ele>870.0000000000001</ele><time>2026-04-18T14:03:01Z</time></trkpt><trkpt lat="45.75307376540246" lon="10.54983525291041"><ele>867.0</ele><time>2026-04-18T14:03:02Z</time></trkpt><trkpt lat="45.75297004704185" lon="10.549743828833847"><ele>864.0</ele><time>2026-04-18T14:03:04Z</time></trkpt><trkpt lat="45.75289145464531" lon="10.549650050158684"><ele>864.1666666666666</ele><time>2026-04-18T14:03:06Z</time></trkpt><trkpt lat="45.7528038985336" lon="10.549487971230127"><ele>864.3333333333333</ele><time>2026-04-18T14:03:08Z</time></trkpt><trkpt lat="45.7527440077873" lon="10.549424716302386"><ele>864.5</ele><time>2026-04-18T14:03:09Z</time></trkpt><trkpt lat="45.75266823057805" lon="10.549401616257937"><ele>864.6666666666666</ele><time>2026-04-18T14:03:10Z</time></trkpt><trkpt lat="45.75260904823782" lon="10.549339860999646"><ele>864.8333333333333</ele><time>2026-04-18T14:03:11Z</time></trkpt><trkpt lat="45.7525410694933" lon="10.549361800565304"><ele>865.0</ele><time>2026-04-18T14:03:12Z</time></trkpt><trkpt lat="45.752434675406526" lon="10.549458259851153"><ele>865.0</ele><time>2026-04-18T14:03:14Z</time></trkpt><trkpt lat="45.75236648820043" lon="10.549502137806622"><ele>865.0</ele><time>2026-04-18T14:03:15Z</time></trkpt><trkpt lat="45.752286889296556" lon="10.549549501088379"><ele>865.0</ele><time>2026-04-18T14:03:16Z</time></trkpt><trkpt lat="45.752195375255255" lon="10.549587407409602"><ele>865.0</ele><time>2026-04-18T14:03:17Z</time></trkpt><trkpt lat="45.75210094343691" lon="10.549630949159555"><ele>865.0</ele><time>2026-04-18T14:03:18Z</time></trkpt><trkpt lat="45.751994200383905" lon="10.549684189450678"><ele>862.0</ele><time>2026-04-18T14:03:19Z</time></trkpt><trkpt lat="45.751933954020195" lon="10.549742761553276"><ele>859.0</ele><time>2026-04-18T14:03:20Z</time></trkpt><trkpt lat="45.75181030616583" lon="10.549847995946292"><ele>856.0</ele><time>2026-04-18T14:03:22Z</time></trkpt><trkpt lat="45.75175365948396" lon="10.54993465733378"><ele>853.0</ele><time>2026-04-18T14:03:23Z</time></trkpt><trkpt lat="45.75168248085705" lon="10.5500713655343"><ele>850.0</ele><time>2026-04-18T14:03:25Z</time></trkpt><trkpt lat="45.751630340996215" lon="10.550139507884122"><ele>848.3333333333333</ele><time>2026-04-18T14:03:26Z</time></trkpt><trkpt lat="45.75158998271308" lon="10.550211060641853"><ele>846.6666666666666</ele><time>2026-04-18T14:03:27Z</time></trkpt><trkpt lat="45.75152037798671" lon="10.55029303166003"><ele>845.0</ele><time>2026-04-18T14:03:28Z</time></trkpt><trkpt lat="45.751451191958076" lon="10.550347821296793"><ele>843.3333333333333</ele><time>2026-04-18T14:03:29Z</time></trkpt><trkpt lat="45.751384367818034" lon="10.550346019097194"><ele>841.6666666666666</ele><time>2026-04-18T14:03:30Z</time></trkpt><trkpt lat="45.75131785372639" lon="10.55035370555024"><ele>840.0</ele><time>2026-04-18T14:03:31Z</time></trkpt><trkpt lat="45.751225012132984" lon="10.550394288312223"><ele>837.8333333333334</ele><time>2026-04-18T14:03:33Z</time></trkpt><trkpt lat="45.7511258847162" lon="10.550437618990134"><ele>835.6666666666667</ele><time>2026-04-18T14:03:35Z</time></trkpt><trkpt lat="45.75104310984639" lon="10.550483690169974"><ele>833.5</ele><time>2026-04-18T14:03:38Z</time></trkpt><trkpt lat="45.75097800069518" lon="10.550512141529104"><ele>831.3333333333334</ele><time>2026-04-18T14:03:40Z</time></trkpt><trkpt lat="45.75091681034261" lon="10.55053639964528"><ele>829.1666666666667</ele><time>2026-04-18T14:03:46Z</time></trkpt><trkpt lat="45.750885357707624" lon="10.55068925106753"><ele>827.0</ele><time>2026-04-18T14:03:55.001Z</time></trkpt><trkpt lat="45.75077150799061" lon="10.550821944281344"><ele>825.0000000000001</ele><time>2026-04-18T14:03:57.001Z</time></trkpt><trkpt lat="45.75070738607042" lon="10.550903822291273"><ele>823.0</ele><time>2026-04-18T14:03:58.001Z</time></trkpt><trkpt lat="45.75063149675514" lon="10.550994039082607"><ele>821.0</ele><time>2026-04-18T14:03:59.001Z</time></trkpt><trkpt lat="45.750569368184365" lon="10.551096338435617"><ele>819.0</ele><time>2026-04-18T14:04:00.001Z</time></trkpt><trkpt lat="45.7505226233226" lon="10.551194007209393"><ele>817.0000000000001</ele><time>2026-04-18T14:04:01.001Z</time></trkpt><trkpt lat="45.75047741600518" lon="10.551276546049882"><ele>815.0</ele><time>2026-04-18T14:04:02.001Z</time></trkpt><trkpt lat="45.7503888787879" lon="10.551369337079308"><ele>812.8</ele><time>2026-04-18T14:04:04.001Z</time></trkpt><trkpt lat="45.7503375700791" lon="10.551433303921783"><ele>810.6</ele><time>2026-04-18T14:04:05.001Z</time></trkpt><trkpt lat="45.750263042108294" lon="10.551533167633659"><ele>808.4000000000001</ele><time>2026-04-18T14:04:07.001Z</time></trkpt><trkpt lat="45.75020970669269" lon="10.551599834270826"><ele>806.2</ele><time>2026-04-18T14:04:08.001Z</time></trkpt><trkpt lat="45.750178742427565" lon="10.551682454256749"><ele>804.0</ele><time>2026-04-18T14:04:09.001Z</time></trkpt><trkpt lat="45.750078881809664" lon="10.551848022677289"><ele>801.8333333333334</ele><time>2026-04-18T14:04:11.001Z</time></trkpt><trkpt lat="45.75003832462905" lon="10.551927502337334"><ele>799.6666666666667</ele><time>2026-04-18T14:04:12.001Z</time></trkpt><trkpt lat="45.7499973146297" lon="10.552008602221248"><ele>797.5</ele><time>2026-04-18T14:04:13.001Z</time></trkpt><trkpt lat="45.749960569639484" lon="10.552081998145782"><ele>795.3333333333334</ele><time>2026-04-18T14:04:14.001Z</time></trkpt><trkpt lat="45.749907987795076" lon="10.552200126412746"><ele>793.1666666666667</ele><time>2026-04-18T14:04:15.001Z</time></trkpt><trkpt lat="45.74987443125378" lon="10.552307508936206"><ele>791.0</ele><time>2026-04-18T14:04:16.001Z</time></trkpt><trkpt lat="45.74981761849791" lon="10.552387158121064"><ele>789.0000000000001</ele><time>2026-04-18T14:04:17.001Z</time></trkpt><trkpt lat="45.74977129628988" lon="10.552466022334324"><ele>787.0</ele><time>2026-04-18T14:04:18.001Z</time></trkpt><trkpt lat="45.74970025493436" lon="10.552549156054258"><ele>785.0</ele><time>2026-04-18T14:04:20.001Z</time></trkpt><trkpt lat="45.749602641950176" lon="10.55255536392269"><ele>783.0</ele><time>2026-04-18T14:04:22.001Z</time></trkpt><trkpt lat="45.74954877786971" lon="10.552503569377713"><ele>781.0000000000001</ele><time>2026-04-18T14:04:23.001Z</time></trkpt><trkpt lat="45.749513382293465" lon="10.552398165761318"><ele>779.0</ele><time>2026-04-18T14:04:24.001Z</time></trkpt><trkpt lat="45.749440043648136" lon="10.552328546623245"><ele>776.0</ele><time>2026-04-18T14:04:25.001Z</time></trkpt><trkpt lat="45.74933757834599" lon="10.552169927705977"><ele>773.0</ele><time>2026-04-18T14:04:27.001Z</time></trkpt><trkpt lat="45.74929160005701" lon="10.552002132598627"><ele>770.0</ele><time>2026-04-18T14:04:28.001Z</time></trkpt><trkpt lat="45.74921868390372" lon="10.551943800163997"><ele>767.0</ele><time>2026-04-18T14:04:29.001Z</time></trkpt><trkpt lat="45.749113644903524" lon="10.551960127255374"><ele>766.2</ele><time>2026-04-18T14:04:31.001Z</time></trkpt><trkpt lat="45.749094898816836" lon="10.55212619324946"><ele>765.4000000000001</ele><time>2026-04-18T14:04:33.001Z</time></trkpt><trkpt lat="45.749100964540546" lon="10.552303254199208"><ele>764.5999999999999</ele><time>2026-04-18T14:04:35.001Z</time></trkpt><trkpt lat="45.74912778852255" lon="10.552448130292387"><ele>763.8</ele><time>2026-04-18T14:04:36Z</time></trkpt><trkpt lat="45.7491626956916" lon="10.552553623500652"><ele>763.0</ele><time>2026-04-18T14:04:37Z</time></trkpt><trkpt lat="45.74918579969018" lon="10.55265146219919"><ele>763.0</ele><time>2026-04-18T14:04:38Z</time></trkpt><trkpt lat="45.749206342486524" lon="10.552756646378901"><ele>763.0</ele><time>2026-04-18T14:04:39Z</time></trkpt><trkpt lat="45.749225418156975" lon="10.552844008969664"><ele>763.0</ele><time>2026-04-18T14:04:40Z</time></trkpt><trkpt lat="45.74925729544913" lon="10.552932641100828"><ele>763.0</ele><time>2026-04-18T14:04:41Z</time></trkpt><trkpt lat="45.74931802000476" lon="10.553046906511003"><ele>763.0</ele><time>2026-04-18T14:04:43Z</time></trkpt><trkpt lat="45.74935796475427" lon="10.553148817497066"><ele>763.0</ele><time>2026-04-18T14:04:45Z</time></trkpt><trkpt lat="45.74941089457269" lon="10.553231725730644"><ele>763.6666666666667</ele><time>2026-04-18T14:04:47Z</time></trkpt><trkpt lat="45.749496918585976" lon="10.553284364041541"><ele>764.3333333333334</ele><time>2026-04-18T14:04:49Z</time></trkpt><trkpt lat="45.74956813635602" lon="10.55332595978988"><ele>765.0</ele><time>2026-04-18T14:04:51Z</time></trkpt><trkpt lat="45.74960310830411" lon="10.553445741602117"><ele>765.6666666666666</ele><time>2026-04-18T14:04:53Z</time></trkpt><trkpt lat="45.749544564100546" lon="10.553488752967437"><ele>766.3333333333333</ele><time>2026-04-18T14:04:54Z</time></trkpt><trkpt lat="45.74944659646058" lon="10.55353876265433"><ele>767.0</ele><time>2026-04-18T14:04:56Z</time></trkpt><trkpt lat="45.74936679207405" lon="10.553543073531497"><ele>763.2</ele><time>2026-04-18T14:04:58Z</time></trkpt><trkpt lat="45.7492584231154" lon="10.553548434282577"><ele>759.4000000000001</ele><time>2026-04-18T14:05:06Z</time></trkpt><trkpt lat="45.7491378728644" lon="10.553606868052114"><ele>755.5999999999999</ele><time>2026-04-18T14:05:08Z</time></trkpt><trkpt lat="45.7490814744559" lon="10.553654019426713"><ele>751.8</ele><time>2026-04-18T14:05:09Z</time></trkpt><trkpt lat="45.74902780693345" lon="10.553830704844534"><ele>748.0</ele><time>2026-04-18T14:05:11Z</time></trkpt><trkpt lat="45.74902096664703" lon="10.553937378266424"><ele>748.2</ele><time>2026-04-18T14:05:12Z</time></trkpt><trkpt lat="45.749030211666934" lon="10.554058979000988"><ele>748.4</ele><time>2026-04-18T14:05:13Z</time></trkpt><trkpt lat="45.749034064442924" lon="10.55418485615838"><ele>748.6</ele><time>2026-04-18T14:05:14Z</time></trkpt><trkpt lat="45.74902759714707" lon="10.554309636912539"><ele>748.8000000000001</ele><time>2026-04-18T14:05:15Z</time></trkpt><trkpt lat="45.749037303840346" lon="10.554486693258081"><ele>749.0</ele><time>2026-04-18T14:05:17Z</time></trkpt><trkpt lat="45.74904010368594" lon="10.554651896113027"><ele>749.0</ele><time>2026-04-18T14:05:19Z</time></trkpt><trkpt lat="45.749059171163566" lon="10.554800322025441"><ele>749.0</ele><time>2026-04-18T14:05:22Z</time></trkpt><trkpt lat="45.74900965996967" lon="10.554964267630695"><ele>749.0</ele><time>2026-04-18T14:05:24Z</time></trkpt><trkpt lat="45.74892971001507" lon="10.555069093346498"><ele>749.0</ele><time>2026-04-18T14:05:26Z</time></trkpt><trkpt lat="45.748937944425926" lon="10.555251342844413"><ele>748.5</ele><time>2026-04-18T14:05:28Z</time></trkpt><trkpt lat="45.74895082276368" lon="10.555395012709429"><ele>748.0</ele><time>2026-04-18T14:05:30Z</time></trkpt><trkpt lat="45.74896194746328" lon="10.55552379678876"><ele>747.5</ele><time>2026-04-18T14:05:32Z</time></trkpt><trkpt lat="45.74896135877528" lon="10.555645652163042"><ele>747.0</ele><time>2026-04-18T14:05:34Z</time></trkpt><trkpt lat="45.748963614127476" lon="10.555783932047577"><ele>746.5</ele><time>2026-04-18T14:05:36Z</time></trkpt><trkpt lat="45.748934929463005" lon="10.55586563832505"><ele>746.0</ele><time>2026-04-18T14:05:38Z</time></trkpt><trkpt lat="45.74886437310165" lon="10.55594171141776"><ele>746.0</ele><time>2026-04-18T14:05:40Z</time></trkpt><trkpt lat="45.74891591589348" lon="10.556068474226501"><ele>746.0</ele><time>2026-04-18T14:05:42Z</time></trkpt><trkpt lat="45.748953425039026" lon="10.556238479282607"><ele>746.0</ele><time>2026-04-18T14:05:44Z</time></trkpt><trkpt lat="45.748910586338106" lon="10.556328654928167"><ele>746.0</ele><time>2026-04-18T14:05:45Z</time></trkpt><trkpt lat="45.74892022644116" lon="10.556421225175955"><ele>746.0</ele><time>2026-04-18T14:05:46Z</time></trkpt><trkpt lat="45.74893930480762" lon="10.55651472589738"><ele>746.0</ele><time>2026-04-18T14:05:47Z</time></trkpt><trkpt lat="45.74894663248514" lon="10.556632024141447"><ele>744.1666666666666</ele><time>2026-04-18T14:05:48Z</time></trkpt><trkpt lat="45.74896671849801" lon="10.55679247833521"><ele>742.3333333333333</ele><time>2026-04-18T14:05:49Z</time></trkpt><trkpt lat="45.748981705530596" lon="10.556912775889154"><ele>740.5</ele><time>2026-04-18T14:05:50Z</time></trkpt><trkpt lat="45.74899569019299" lon="10.55701654441863"><ele>738.6666666666666</ele><time>2026-04-18T14:05:51Z</time></trkpt><trkpt lat="45.74901255833177" lon="10.557134232002658"><ele>736.8333333333334</ele><time>2026-04-18T14:05:52Z</time></trkpt><trkpt lat="45.74902947020667" lon="10.557244732078287"><ele>735.0</ele><time>2026-04-18T14:05:53Z</time></trkpt><trkpt lat="45.74904627432034" lon="10.557344754525733"><ele>733.0</ele><time>2026-04-18T14:05:54Z</time></trkpt><trkpt lat="45.74907652154907" lon="10.55751203185958"><ele>731.0</ele><time>2026-04-18T14:05:56Z</time></trkpt><trkpt lat="45.749111185020034" lon="10.557649711571884"><ele>729.0</ele><time>2026-04-18T14:05:58Z</time></trkpt><trkpt lat="45.74917276197096" lon="10.557806200380535"><ele>727.0</ele><time>2026-04-18T14:06:00Z</time></trkpt><trkpt lat="45.74919155165311" lon="10.557903624381797"><ele>725.0</ele><time>2026-04-18T14:06:01Z</time></trkpt><trkpt lat="45.74920962613232" lon="10.557995055916189"><ele>723.8333333333333</ele><time>2026-04-18T14:06:02Z</time></trkpt><trkpt lat="45.74922348225294" lon="10.558083899471582"><ele>722.6666666666666</ele><time>2026-04-18T14:06:03Z</time></trkpt><trkpt lat="45.74925600646315" lon="10.5581825033511"><ele>721.5</ele><time>2026-04-18T14:06:04.001Z</time></trkpt><trkpt lat="45.749287803603906" lon="10.558289639084235"><ele>720.3333333333334</ele><time>2026-04-18T14:06:05.001Z</time></trkpt><trkpt lat="45.74933131225496" lon="10.558394207267925"><ele>719.1666666666667</ele><time>2026-04-18T14:06:06.001Z</time></trkpt><trkpt lat="45.74937524039367" lon="10.55848215600108"><ele>718.0</ele><time>2026-04-18T14:06:07.001Z</time></trkpt><trkpt lat="45.74943716108671" lon="10.55858436187729"><ele>720.0</ele><time>2026-04-18T14:06:09.001Z</time></trkpt><trkpt lat="45.74948584559662" lon="10.55864271625639"><ele>722.0</ele><time>2026-04-18T14:06:11.001Z</time></trkpt><trkpt lat="45.74959604640936" lon="10.558749868770734"><ele>724.0</ele><time>2026-04-18T14:06:12.001Z</time></trkpt><trkpt lat="45.749654548081296" lon="10.558835448350417"><ele>726.0</ele><time>2026-04-18T14:06:13.001Z</time></trkpt><trkpt lat="45.74971598081335" lon="10.558930790091223"><ele>728.0</ele><time>2026-04-18T14:06:14.001Z</time></trkpt><trkpt lat="45.749760624161" lon="10.55899453709441"><ele>730.0</ele><time>2026-04-18T14:06:15.001Z</time></trkpt><trkpt lat="45.74927902099014" lon="10.559616525656143"><ele>725.8333333333334</ele><time>2026-04-18T14:06:17.001Z</time></trkpt><trkpt lat="45.74926098256477" lon="10.559706559162798"><ele>721.6666666666667</ele><time>2026-04-18T14:06:18.001Z</time></trkpt><trkpt lat="45.749246757580345" lon="10.559804746511794"><ele>717.5</ele><time>2026-04-18T14:06:19.001Z</time></trkpt><trkpt lat="45.74924454403903" lon="10.55994275451173"><ele>713.3333333333334</ele><time>2026-04-18T14:06:21.001Z</time></trkpt><trkpt lat="45.74922247871419" lon="10.560044124291156"><ele>709.1666666666666</ele><time>2026-04-18T14:06:23.001Z</time></trkpt><trkpt lat="45.749168879600866" lon="10.560099644073597"><ele>705.0</ele><time>2026-04-18T14:06:25.001Z</time></trkpt><trkpt lat="45.7491857241936" lon="10.560211570216474"><ele>705.0</ele><time>2026-04-18T14:06:28.001Z</time></trkpt><trkpt lat="45.74920969756219" lon="10.560303922601115"><ele>705.0</ele><time>2026-04-18T14:06:30.001Z</time></trkpt><trkpt lat="45.74919112671695" lon="10.56040606759842"><ele>705.0</ele><time>2026-04-18T14:06:32.001Z</time></trkpt><trkpt lat="45.74921871058378" lon="10.56052766281793"><ele>705.0</ele><time>2026-04-18T14:06:34.001Z</time></trkpt><trkpt lat="45.749227708179816" lon="10.560672862156464"><ele>705.0</ele><time>2026-04-18T14:06:36.001Z</time></trkpt><trkpt lat="45.74922988686967" lon="10.560770361624165"><ele>705.0</ele><time>2026-04-18T14:06:37.001Z</time></trkpt><trkpt lat="45.74922806839906" lon="10.5608810657359"><ele>704.6666666666666</ele><time>2026-04-18T14:06:39.001Z</time></trkpt><trkpt lat="45.74926080386402" lon="10.560974074549433"><ele>704.3333333333334</ele><time>2026-04-18T14:06:41.001Z</time></trkpt><trkpt lat="45.74930483706169" lon="10.56105466378528"><ele>704.0</ele><time>2026-04-18T14:06:43Z</time></trkpt><trkpt lat="45.74936469335863" lon="10.561160275298153"><ele>703.6666666666667</ele><time>2026-04-18T14:06:45Z</time></trkpt><trkpt lat="45.74940661228947" lon="10.56125919515727"><ele>703.3333333333334</ele><time>2026-04-18T14:06:47Z</time></trkpt><trkpt lat="45.74940658517944" lon="10.561370051549154"><ele>703.0</ele><time>2026-04-18T14:06:49Z</time></trkpt><trkpt lat="45.74944730219611" lon="10.5614912111911"><ele>705.8333333333334</ele><time>2026-04-18T14:06:51Z</time></trkpt><trkpt lat="45.74947627219991" lon="10.561592864396333"><ele>708.6666666666667</ele><time>2026-04-18T14:06:53Z</time></trkpt><trkpt lat="45.74947947241343" lon="10.561708875749416"><ele>711.5</ele><time>2026-04-18T14:06:55Z</time></trkpt><trkpt lat="45.749494622395346" lon="10.561832497765582"><ele>714.3333333333334</ele><time>2026-04-18T14:06:58Z</time></trkpt><trkpt lat="45.749496574773566" lon="10.56196140166289"><ele>717.1666666666666</ele><time>2026-04-18T14:07:01Z</time></trkpt><trkpt lat="45.749486617066964" lon="10.561847786142222"><ele>720.0</ele><time>2026-04-18T14:07:23Z</time></trkpt><trkpt lat="45.74946379114136" lon="10.561758293404049"><ele>720.0</ele><time>2026-04-18T14:07:25Z</time></trkpt><trkpt lat="45.749450667104156" lon="10.561667561959819"><ele>720.0</ele><time>2026-04-18T14:07:27Z</time></trkpt><trkpt lat="45.749547353117435" lon="10.56164500643212"><ele>720.0</ele><time>2026-04-18T14:07:30Z</time></trkpt><trkpt lat="45.749603887773475" lon="10.561697332047771"><ele>720.0</ele><time>2026-04-18T14:07:33Z</time></trkpt><trkpt lat="45.7496179501692" lon="10.561787741603005"><ele>720.0</ele><time>2026-04-18T14:07:35Z</time></trkpt><trkpt lat="45.74964649572795" lon="10.56189409181754"><ele>720.0</ele><time>2026-04-18T14:07:39Z</time></trkpt><trkpt lat="45.74970966380824" lon="10.562023537490438"><ele>719.1666666666666</ele><time>2026-04-18T14:07:41Z</time></trkpt><trkpt lat="45.74968112432739" lon="10.56213604298604"><ele>718.3333333333334</ele><time>2026-04-18T14:07:44Z</time></trkpt><trkpt lat="45.74966683724912" lon="10.562260025174183"><ele>717.5</ele><time>2026-04-18T14:07:46Z</time></trkpt><trkpt lat="45.74967462425525" lon="10.562391057390458"><ele>716.6666666666667</ele><time>2026-04-18T14:07:48Z</time></trkpt><trkpt lat="45.74966720516491" lon="10.562500464612782"><ele>715.8333333333334</ele><time>2026-04-18T14:07:50Z</time></trkpt><trkpt lat="45.74967619303863" lon="10.56259205800094"><ele>715.0</ele><time>2026-04-18T14:07:52Z</time></trkpt><trkpt lat="45.74972021198313" lon="10.562713594564537"><ele>715.0</ele><time>2026-04-18T14:07:54Z</time></trkpt><trkpt lat="45.74969837272041" lon="10.562800228253037"><ele>715.0</ele><time>2026-04-18T14:07:55Z</time></trkpt><trkpt lat="45.74971267286049" lon="10.562898923302518"><ele>715.0</ele><time>2026-04-18T14:07:56Z</time></trkpt><trkpt lat="45.749638539222005" lon="10.56309558495926"><ele>715.0</ele><time>2026-04-18T14:07:58Z</time></trkpt><trkpt lat="45.749516322396936" lon="10.563186194075657"><ele>715.0</ele><time>2026-04-18T14:07:59Z</time></trkpt><trkpt lat="45.74945494323812" lon="10.563259664588"><ele>714.5</ele><time>2026-04-18T14:08:01Z</time></trkpt><trkpt lat="45.74937677045192" lon="10.56326242001357"><ele>714.0</ele><time>2026-04-18T14:08:03Z</time></trkpt><trkpt lat="45.74938261882076" lon="10.5634005448098"><ele>713.5</ele><time>2026-04-18T14:08:05Z</time></trkpt><trkpt lat="45.749407760825974" lon="10.563489945434952"><ele>713.0</ele><time>2026-04-18T14:08:08Z</time></trkpt><trkpt lat="45.74940445823274" lon="10.56359772518139"><ele>712.5</ele><time>2026-04-18T14:08:11.001Z</time></trkpt><trkpt lat="45.749405012470554" lon="10.563723899294946"><ele>712.0</ele><time>2026-04-18T14:08:20.001Z</time></trkpt><trkpt lat="45.74938238470948" lon="10.563832321442332"><ele>710.2</ele><time>2026-04-18T14:08:22.001Z</time></trkpt><trkpt lat="45.74935592530461" lon="10.563968711581728"><ele>708.4000000000001</ele><time>2026-04-18T14:08:24.001Z</time></trkpt><trkpt lat="45.749291704203834" lon="10.564121502766026"><ele>706.5999999999999</ele><time>2026-04-18T14:08:26.001Z</time></trkpt><trkpt lat="45.74924840903553" lon="10.564238236700715"><ele>704.8</ele><time>2026-04-18T14:08:28.001Z</time></trkpt><trkpt lat="45.74931011134524" lon="10.564302593017889"><ele>703.0</ele><time>2026-04-18T14:08:30.001Z</time></trkpt><trkpt lat="45.74930737092089" lon="10.564424935595461"><ele>703.0</ele><time>2026-04-18T14:08:32.001Z</time></trkpt><trkpt lat="45.74930938398187" lon="10.564518491800648"><ele>703.0</ele><time>2026-04-18T14:08:34.001Z</time></trkpt><trkpt lat="45.74924561872457" lon="10.56461875856104"><ele>703.0</ele><time>2026-04-18T14:08:37.001Z</time></trkpt><trkpt lat="45.74917324004915" lon="10.564708114059773"><ele>703.0</ele><time>2026-04-18T14:08:38.001Z</time></trkpt><trkpt lat="45.749126131472515" lon="10.56483705184404"><ele>703.0</ele><time>2026-04-18T14:08:40.001Z</time></trkpt><trkpt lat="45.749095040618826" lon="10.56502485861081"><ele>702.2</ele><time>2026-04-18T14:08:42.001Z</time></trkpt><trkpt lat="45.74907439390522" lon="10.565207716180662"><ele>701.4</ele><time>2026-04-18T14:08:44.001Z</time></trkpt><trkpt lat="45.74907437058874" lon="10.565300641245386"><ele>700.6</ele><time>2026-04-18T14:08:45.001Z</time></trkpt><trkpt lat="45.74905242013095" lon="10.565392400893337"><ele>699.8000000000001</ele><time>2026-04-18T14:08:46.001Z</time></trkpt><trkpt lat="45.749041834896225" lon="10.565544783551541"><ele>699.0</ele><time>2026-04-18T14:08:48Z</time></trkpt><trkpt lat="45.74901833257261" lon="10.56568906295156"><ele>697.5</ele><time>2026-04-18T14:08:50Z</time></trkpt><trkpt lat="45.74897990423124" lon="10.5658395795663"><ele>696.0</ele><time>2026-04-18T14:08:52Z</time></trkpt><trkpt lat="45.74893274814249" lon="10.566000891018293"><ele>694.5</ele><time>2026-04-18T14:08:54Z</time></trkpt><trkpt lat="45.74890194043082" lon="10.566139135161215"><ele>693.0</ele><time>2026-04-18T14:08:58Z</time></trkpt><trkpt lat="45.74886174424985" lon="10.566319356509355"><ele>692.3333333333334</ele><time>2026-04-18T14:08:59Z</time></trkpt><trkpt lat="45.74883276590975" lon="10.566448387475662"><ele>691.6666666666666</ele><time>2026-04-18T14:09:00Z</time></trkpt><trkpt lat="45.74880405890732" lon="10.566566052046415"><ele>691.0</ele><time>2026-04-18T14:09:01Z</time></trkpt><trkpt lat="45.748750602325856" lon="10.566637036767656"><ele>690.3333333333333</ele><time>2026-04-18T14:09:02Z</time></trkpt><trkpt lat="45.748677420164626" lon="10.566733156965041"><ele>689.6666666666666</ele><time>2026-04-18T14:09:04Z</time></trkpt><trkpt lat="45.74865417417034" lon="10.56683710349606"><ele>689.0</ele><time>2026-04-18T14:09:05Z</time></trkpt><trkpt lat="45.74862722575855" lon="10.566923732307696"><ele>688.2</ele><time>2026-04-18T14:09:06Z</time></trkpt><trkpt lat="45.74861036695254" lon="10.5670765612636"><ele>687.4000000000001</ele><time>2026-04-18T14:09:08Z</time></trkpt><trkpt lat="45.74853425917628" lon="10.567172257328835"><ele>686.6</ele><time>2026-04-18T14:09:10Z</time></trkpt><trkpt lat="45.74851451033309" lon="10.567311864760176"><ele>685.8</ele><time>2026-04-18T14:09:12Z</time></trkpt><trkpt lat="45.748539754743945" lon="10.567495925358081"><ele>685.0</ele><time>2026-04-18T14:09:14Z</time></trkpt><trkpt lat="45.74852620036338" lon="10.56763562113403"><ele>691.4</ele><time>2026-04-18T14:09:16Z</time></trkpt><trkpt lat="45.748455665034825" lon="10.56780621261138"><ele>697.8</ele><time>2026-04-18T14:09:18Z</time></trkpt><trkpt lat="45.74842886196892" lon="10.567905698976658"><ele>704.2</ele><time>2026-04-18T14:09:19Z</time></trkpt><trkpt lat="45.74840414607801" lon="10.568013272886372"><ele>710.6</ele><time>2026-04-18T14:09:20Z</time></trkpt><trkpt lat="45.74838042549077" lon="10.568155755847469"><ele>717.0</ele><time>2026-04-18T14:09:22Z</time></trkpt><trkpt lat="45.74834587033207" lon="10.568271472348904"><ele>717.0</ele><time>2026-04-18T14:09:24Z</time></trkpt><trkpt lat="45.74824640350995" lon="10.568370213799346"><ele>717.0</ele><time>2026-04-18T14:09:26Z</time></trkpt><trkpt lat="45.74818996820624" lon="10.56842828488401"><ele>717.0</ele><time>2026-04-18T14:09:27Z</time></trkpt><trkpt lat="45.748184810995355" lon="10.568528372288188"><ele>717.0</ele><time>2026-04-18T14:09:28Z</time></trkpt><trkpt lat="45.74820576615987" lon="10.568622899106307"><ele>717.0</ele><time>2026-04-18T14:09:29Z</time></trkpt><trkpt lat="45.748208780571154" lon="10.568724000487032"><ele>717.0</ele><time>2026-04-18T14:09:30Z</time></trkpt><trkpt lat="45.74822678415829" lon="10.56882818369736"><ele>716.5</ele><time>2026-04-18T14:09:31Z</time></trkpt><trkpt lat="45.74826843575476" lon="10.56890141218415"><ele>716.0</ele><time>2026-04-18T14:09:32Z</time></trkpt><trkpt lat="45.74833144419031" lon="10.568974290109898"><ele>715.5</ele><time>2026-04-18T14:09:33Z</time></trkpt><trkpt lat="45.7483730787217" lon="10.56910899209851"><ele>715.0</ele><time>2026-04-18T14:09:35Z</time></trkpt><trkpt lat="45.74838920714616" lon="10.569290980212003"><ele>714.5</ele><time>2026-04-18T14:09:37Z</time></trkpt><trkpt lat="45.748401290629964" lon="10.569382383002955"><ele>714.0</ele><time>2026-04-18T14:09:38Z</time></trkpt><trkpt lat="45.74837617573063" lon="10.569526503535156"><ele>713.0</ele><time>2026-04-18T14:09:40Z</time></trkpt><trkpt lat="45.7483971101894" lon="10.569641677665892"><ele>712.0</ele><time>2026-04-18T14:09:41Z</time></trkpt><trkpt lat="45.74836598146382" lon="10.569793149176508"><ele>711.0</ele><time>2026-04-18T14:09:43Z</time></trkpt><trkpt lat="45.748311735269574" lon="10.569930122172533"><ele>710.0</ele><time>2026-04-18T14:09:45Z</time></trkpt><trkpt lat="45.74825906232807" lon="10.56998826999097"><ele>709.0</ele><time>2026-04-18T14:09:46Z</time></trkpt><trkpt lat="45.74819161523597" lon="10.57008548518893"><ele>709.0</ele><time>2026-04-18T14:09:47Z</time></trkpt><trkpt lat="45.74815897246971" lon="10.570220977560284"><ele>709.0</ele><time>2026-04-18T14:09:48Z</time></trkpt><trkpt lat="45.748131729205475" lon="10.570340399157597"><ele>709.0</ele><time>2026-04-18T14:09:50Z</time></trkpt><trkpt lat="45.74815809328624" lon="10.570471670305635"><ele>709.0</ele><time>2026-04-18T14:09:52Z</time></trkpt><trkpt lat="45.74812594699376" lon="10.570588219324836"><ele>709.0</ele><time>2026-04-18T14:09:54Z</time></trkpt><trkpt lat="45.7481049613591" lon="10.57067802769872"><ele>709.0</ele><time>2026-04-18T14:09:55Z</time></trkpt><trkpt lat="45.748110446016895" lon="10.570780817974082"><ele>706.3333333333334</ele><time>2026-04-18T14:09:57Z</time></trkpt><trkpt lat="45.748163209087295" lon="10.570835973071508"><ele>703.6666666666667</ele><time>2026-04-18T14:09:58Z</time></trkpt><trkpt lat="45.748165888479775" lon="10.57093388249298"><ele>701.0</ele><time>2026-04-18T14:10:00Z</time></trkpt><trkpt lat="45.74809035275654" lon="10.570951550525642"><ele>698.3333333333334</ele><time>2026-04-18T14:10:02Z</time></trkpt><trkpt lat="45.74802063730511" lon="10.571028186920056"><ele>695.6666666666666</ele><time>2026-04-18T14:10:04Z</time></trkpt><trkpt lat="45.74799358398215" lon="10.571130974483726"><ele>693.0</ele><time>2026-04-18T14:10:06Z</time></trkpt><trkpt lat="45.74793663298992" lon="10.571259389222185"><ele>690.0</ele><time>2026-04-18T14:10:08Z</time></trkpt><trkpt lat="45.7478865491066" lon="10.571384892343978"><ele>687.0</ele><time>2026-04-18T14:10:10Z</time></trkpt><trkpt lat="45.74784082414519" lon="10.57147307005127"><ele>684.0</ele><time>2026-04-18T14:10:12Z</time></trkpt><trkpt lat="45.74776404850029" lon="10.571577549791787"><ele>681.0</ele><time>2026-04-18T14:10:14Z</time></trkpt><trkpt lat="45.747701116585226" lon="10.571652758027332"><ele>678.0</ele><time>2026-04-18T14:10:15Z</time></trkpt><trkpt lat="45.74764983237786" lon="10.571734328272637"><ele>675.0</ele><time>2026-04-18T14:10:16Z</time></trkpt><trkpt lat="45.74759213645354" lon="10.571843708658381"><ele>684.0</ele><time>2026-04-18T14:10:18.001Z</time></trkpt><trkpt lat="45.747522577439206" lon="10.571891329019726"><ele>693.0</ele><time>2026-04-18T14:10:20.001Z</time></trkpt><trkpt lat="45.747533586366785" lon="10.57204624621787"><ele>702.0</ele><time>2026-04-18T14:10:22.001Z</time></trkpt><trkpt lat="45.747537810017306" lon="10.57222570032076"><ele>711.0</ele><time>2026-04-18T14:10:24.001Z</time></trkpt><trkpt lat="45.747540047503016" lon="10.572321167460801"><ele>720.0</ele><time>2026-04-18T14:10:25.001Z</time></trkpt><trkpt lat="45.7475337207774" lon="10.572479400384458"><ele>720.0</ele><time>2026-04-18T14:10:27.001Z</time></trkpt><trkpt lat="45.74752972788348" lon="10.572580587595235"><ele>720.0</ele><time>2026-04-18T14:10:28.001Z</time></trkpt><trkpt lat="45.747534081268654" lon="10.57268598953876"><ele>720.0</ele><time>2026-04-18T14:10:29.001Z</time></trkpt><trkpt lat="45.747471583984286" lon="10.57276420865147"><ele>720.0</ele><time>2026-04-18T14:10:31.001Z</time></trkpt><trkpt lat="45.747349211616694" lon="10.57285898790159"><ele>720.0</ele><time>2026-04-18T14:10:33.001Z</time></trkpt><trkpt lat="45.74728264981191" lon="10.57288940502234"><ele>720.0</ele><time>2026-04-18T14:10:34.001Z</time></trkpt><trkpt lat="45.74722567078056" lon="10.572928926139426"><ele>715.8333333333334</ele><time>2026-04-18T14:10:35.001Z</time></trkpt><trkpt lat="45.74717066648991" lon="10.57299274954615"><ele>711.6666666666666</ele><time>2026-04-18T14:10:36.001Z</time></trkpt><trkpt lat="45.74712178683783" lon="10.573062485398617"><ele>707.5</ele><time>2026-04-18T14:10:37.001Z</time></trkpt><trkpt lat="45.74706313451848" lon="10.573199687173943"><ele>703.3333333333333</ele><time>2026-04-18T14:10:39.001Z</time></trkpt><trkpt lat="45.747068492527475" lon="10.573316718871615"><ele>699.1666666666666</ele><time>2026-04-18T14:10:42.001Z</time></trkpt><trkpt lat="45.74700796895432" lon="10.573343916306374"><ele>695.0</ele><time>2026-04-18T14:10:44.001Z</time></trkpt><trkpt lat="45.746926259791096" lon="10.573426763382452"><ele>695.0</ele><time>2026-04-18T14:10:47.001Z</time></trkpt><trkpt lat="45.746900631392705" lon="10.573549065361412"><ele>695.0</ele><time>2026-04-18T14:10:49.001Z</time></trkpt><trkpt lat="45.74687390714057" lon="10.573673317841509"><ele>695.0</ele><time>2026-04-18T14:10:51.001Z</time></trkpt><trkpt lat="45.74677090958574" lon="10.573695307365396"><ele>695.0</ele><time>2026-04-18T14:10:53.001Z</time></trkpt><trkpt lat="45.7467020460569" lon="10.573714128119878"><ele>695.0</ele><time>2026-04-18T14:10:54Z</time></trkpt><trkpt lat="45.74662851731485" lon="10.573725563895833"><ele>695.0</ele><time>2026-04-18T14:10:55Z</time></trkpt><trkpt lat="45.74654496333157" lon="10.573810895083435"><ele>702.8333333333333</ele><time>2026-04-18T14:10:57Z</time></trkpt><trkpt lat="45.746464943406814" lon="10.573833939127846"><ele>710.6666666666666</ele><time>2026-04-18T14:10:59Z</time></trkpt><trkpt lat="45.74639022355731" lon="10.573827073570788"><ele>718.5</ele><time>2026-04-18T14:11:02Z</time></trkpt><trkpt lat="45.74627557638703" lon="10.573897957670898"><ele>726.3333333333334</ele><time>2026-04-18T14:11:04Z</time></trkpt><trkpt lat="45.746201452713535" lon="10.573999251012335"><ele>734.1666666666667</ele><time>2026-04-18T14:11:05Z</time></trkpt><trkpt lat="45.74616779884834" lon="10.574079298573578"><ele>742.0</ele><time>2026-04-18T14:11:06Z</time></trkpt><trkpt lat="45.74622089798196" lon="10.57417646583353"><ele>742.0</ele><time>2026-04-18T14:11:08Z</time></trkpt><trkpt lat="45.74625750514497" lon="10.574278530191371"><ele>742.0</ele><time>2026-04-18T14:11:10Z</time></trkpt><trkpt lat="45.74636068954477" lon="10.574365498196043"><ele>742.0</ele><time>2026-04-18T14:11:12Z</time></trkpt><trkpt lat="45.74648077339574" lon="10.574468429854736"><ele>742.0</ele><time>2026-04-18T14:11:14Z</time></trkpt><trkpt lat="45.74652924931656" lon="10.574548793934408"><ele>742.0</ele><time>2026-04-18T14:11:16Z</time></trkpt><trkpt lat="45.74659960769313" lon="10.57463658706826"><ele>746.2</ele><time>2026-04-18T14:11:18Z</time></trkpt><trkpt lat="45.746700019075014" lon="10.57472836260977"><ele>750.4000000000001</ele><time>2026-04-18T14:11:20Z</time></trkpt><trkpt lat="45.74677458063199" lon="10.574854246428114"><ele>754.5999999999999</ele><time>2026-04-18T14:11:22Z</time></trkpt><trkpt lat="45.74676248996243" lon="10.574993086594677"><ele>758.8</ele><time>2026-04-18T14:11:24Z</time></trkpt><trkpt lat="45.74675893964371" lon="10.575088614571314"><ele>763.0</ele><time>2026-04-18T14:11:25Z</time></trkpt><trkpt lat="45.74686602261405" lon="10.575082220552881"><ele>747.75</ele><time>2026-04-18T14:11:27Z</time></trkpt><trkpt lat="45.74697582430164" lon="10.575055519700651"><ele>732.5</ele><time>2026-04-18T14:11:29Z</time></trkpt><trkpt lat="45.74708889221922" lon="10.57509337728321"><ele>717.25</ele><time>2026-04-18T14:11:31Z</time></trkpt><trkpt lat="45.74719620598353" lon="10.575220432837886"><ele>702.0</ele><time>2026-04-18T14:11:33Z</time></trkpt><trkpt lat="45.74725675903112" lon="10.575333061762889"><ele>704.6</ele><time>2026-04-18T14:11:35Z</time></trkpt><trkpt lat="45.74716557629498" lon="10.575427279352015"><ele>707.2</ele><time>2026-04-18T14:11:37Z</time></trkpt><trkpt lat="45.74711036237261" lon="10.575489881952041"><ele>709.8</ele><time>2026-04-18T14:11:38Z</time></trkpt><trkpt lat="45.74709099360515" lon="10.575592722118602"><ele>712.4</ele><time>2026-04-18T14:11:39Z</time></trkpt><trkpt lat="45.747106535883155" lon="10.57572371283951"><ele>715.0</ele><time>2026-04-18T14:11:41Z</time></trkpt><trkpt lat="45.74706569814268" lon="10.575860803626703"><ele>715.0</ele><time>2026-04-18T14:11:43Z</time></trkpt><trkpt lat="45.74704435148741" lon="10.575949049017249"><ele>715.0</ele><time>2026-04-18T14:11:44Z</time></trkpt><trkpt lat="45.747045819721144" lon="10.576068863212486"><ele>715.0</ele><time>2026-04-18T14:11:45Z</time></trkpt><trkpt lat="45.747008335921365" lon="10.576207883942123"><ele>715.0</ele><time>2026-04-18T14:11:47Z</time></trkpt><trkpt lat="45.746954886548814" lon="10.576324593024651"><ele>715.0</ele><time>2026-04-18T14:11:49Z</time></trkpt><trkpt lat="45.74690140562408" lon="10.576375820308552"><ele>715.0</ele><time>2026-04-18T14:11:50Z</time></trkpt><trkpt lat="45.74684432265518" lon="10.576440308618222"><ele>725.3333333333334</ele><time>2026-04-18T14:11:51Z</time></trkpt><trkpt lat="45.746798822766074" lon="10.576510372224895"><ele>735.6666666666667</ele><time>2026-04-18T14:11:52Z</time></trkpt><trkpt lat="45.746769053208894" lon="10.57661417270851"><ele>746.0</ele><time>2026-04-18T14:11:53Z</time></trkpt><trkpt lat="45.74674283675303" lon="10.576721430948766"><ele>756.3333333333334</ele><time>2026-04-18T14:11:54Z</time></trkpt><trkpt lat="45.746712073790086" lon="10.576848679545112"><ele>766.6666666666666</ele><time>2026-04-18T14:11:55Z</time></trkpt><trkpt lat="45.74668631006738" lon="10.576975980100247"><ele>777.0</ele><time>2026-04-18T14:11:56Z</time></trkpt><trkpt lat="45.746673088799234" lon="10.57721693998811"><ele>777.5</ele><time>2026-04-18T14:11:58Z</time></trkpt><trkpt lat="45.74671292525539" lon="10.577335090060588"><ele>778.0</ele><time>2026-04-18T14:11:59Z</time></trkpt><trkpt lat="45.746706918446904" lon="10.577455378371496"><ele>778.5</ele><time>2026-04-18T14:12:00Z</time></trkpt><trkpt lat="45.74673799190436" lon="10.577548798825696"><ele>779.0</ele><time>2026-04-18T14:12:01Z</time></trkpt><trkpt lat="45.746759487304146" lon="10.577652145041416"><ele>779.5</ele><time>2026-04-18T14:12:02Z</time></trkpt><trkpt lat="45.74687616850729" lon="10.577715730601911"><ele>780.0</ele><time>2026-04-18T14:12:03Z</time></trkpt><trkpt lat="45.74694138373596" lon="10.577729136370841"><ele>781.1666666666666</ele><time>2026-04-18T14:12:04Z</time></trkpt><trkpt lat="45.74690264120646" lon="10.577840349594334"><ele>782.3333333333333</ele><time>2026-04-18T14:12:06Z</time></trkpt><trkpt lat="45.74684244893923" lon="10.577912797952594"><ele>783.5</ele><time>2026-04-18T14:12:08Z</time></trkpt><trkpt lat="45.74676974042084" lon="10.578018684807796"><ele>784.6666666666666</ele><time>2026-04-18T14:12:10Z</time></trkpt><trkpt lat="45.74674513232785" lon="10.57810966410318"><ele>785.8333333333333</ele><time>2026-04-18T14:12:11Z</time></trkpt><trkpt lat="45.7467483068042" lon="10.578254657512966"><ele>787.0</ele><time>2026-04-18T14:12:13Z</time></trkpt><trkpt lat="45.74674935785066" lon="10.578389931555048"><ele>787.0</ele><time>2026-04-18T14:12:15Z</time></trkpt><trkpt lat="45.74681482960105" lon="10.578530117453315"><ele>787.0</ele><time>2026-04-18T14:12:17Z</time></trkpt><trkpt lat="45.746873900093235" lon="10.578656675015806"><ele>787.0</ele><time>2026-04-18T14:12:19Z</time></trkpt><trkpt lat="45.74688970327283" lon="10.578757958512384"><ele>787.0</ele><time>2026-04-18T14:12:22Z</time></trkpt><trkpt lat="45.74690191106458" lon="10.578861445416806"><ele>787.0</ele><time>2026-04-18T14:12:24.001Z</time></trkpt><trkpt lat="45.746888344673" lon="10.579002803091754"><ele>784.8333333333333</ele><time>2026-04-18T14:12:26.001Z</time></trkpt><trkpt lat="45.746833654387565" lon="10.579074649811606"><ele>782.6666666666666</ele><time>2026-04-18T14:12:28.001Z</time></trkpt><trkpt lat="45.74674695914626" lon="10.579064864204684"><ele>780.5</ele><time>2026-04-18T14:12:30.001Z</time></trkpt><trkpt lat="45.74668206079747" lon="10.579079098167275"><ele>778.3333333333333</ele><time>2026-04-18T14:12:31.001Z</time></trkpt><trkpt lat="45.74656666648468" lon="10.579104432354379"><ele>776.1666666666666</ele><time>2026-04-18T14:12:33.001Z</time></trkpt><trkpt lat="45.74650379936918" lon="10.579158513946172"><ele>774.0</ele><time>2026-04-18T14:12:34.001Z</time></trkpt><trkpt lat="45.74644336036371" lon="10.579192586681645"><ele>774.0</ele><time>2026-04-18T14:12:35.001Z</time></trkpt><trkpt lat="45.746357795578795" lon="10.579181447107793"><ele>774.0</ele><time>2026-04-18T14:12:37.001Z</time></trkpt><trkpt lat="45.74628035133637" lon="10.579201301961282"><ele>774.0</ele><time>2026-04-18T14:12:40.001Z</time></trkpt><trkpt lat="45.74619232311444" lon="10.579147780717314"><ele>774.0</ele><time>2026-04-18T14:12:45.001Z</time></trkpt><trkpt lat="45.74611353544132" lon="10.579019585237237"><ele>774.0</ele><time>2026-04-18T14:12:48.001Z</time></trkpt><trkpt lat="45.74604906188566" lon="10.579044770316576"><ele>774.0</ele><time>2026-04-18T14:12:50.001Z</time></trkpt><trkpt lat="45.745959970066146" lon="10.578985420411051"><ele>779.75</ele><time>2026-04-18T14:12:53.001Z</time></trkpt><trkpt lat="45.74578999127621" lon="10.57895638680112"><ele>785.5</ele><time>2026-04-18T14:12:55.001Z</time></trkpt><trkpt lat="45.74572102339802" lon="10.578883443662544"><ele>791.25</ele><time>2026-04-18T14:12:56.001Z</time></trkpt><trkpt lat="45.74560200021562" lon="10.57883968488787"><ele>797.0</ele><time>2026-04-18T14:12:57.001Z</time></trkpt><trkpt lat="45.74541893043035" lon="10.578980463774634"><ele>797.0</ele><time>2026-04-18T14:12:58.001Z</time></trkpt><trkpt lat="45.74541505023969" lon="10.579093652802555"><ele>797.0</ele><time>2026-04-18T14:12:59.001Z</time></trkpt><trkpt lat="45.74538179490043" lon="10.579322041261685"><ele>797.0</ele><time>2026-04-18T14:13:01Z</time></trkpt><trkpt lat="45.74538277173982" lon="10.579443771879058"><ele>797.0</ele><time>2026-04-18T14:13:02Z</time></trkpt><trkpt lat="45.74542646836253" lon="10.579609447798138"><ele>794.6</ele><time>2026-04-18T14:13:03Z</time></trkpt><trkpt lat="45.745470354988" lon="10.579746355231588"><ele>792.2</ele><time>2026-04-18T14:13:04Z</time></trkpt><trkpt lat="45.74550484216025" lon="10.579877101090789"><ele>789.8</ele><time>2026-04-18T14:13:05Z</time></trkpt><trkpt lat="45.74553734687028" lon="10.580015556409746"><ele>787.4</ele><time>2026-04-18T14:13:06Z</time></trkpt><trkpt lat="45.7455800039663" lon="10.580131964362584"><ele>785.0</ele><time>2026-04-18T14:13:08Z</time></trkpt><trkpt lat="45.74558278209959" lon="10.580253659199204"><ele>787.2</ele><time>2026-04-18T14:13:09Z</time></trkpt><trkpt lat="45.74561980417222" lon="10.580379636913149"><ele>789.4</ele><time>2026-04-18T14:13:10Z</time></trkpt><trkpt lat="45.745682876964246" lon="10.580432396842749"><ele>791.5999999999999</ele><time>2026-04-18T14:13:11Z</time></trkpt><trkpt lat="45.74575052200688" lon="10.580599128864739"><ele>793.8</ele><time>2026-04-18T14:13:13Z</time></trkpt><trkpt lat="45.745795066665266" lon="10.580714770286638"><ele>796.0</ele><time>2026-04-18T14:13:15Z</time></trkpt><trkpt lat="45.74580296394754" lon="10.580893793977566"><ele>796.0</ele><time>2026-04-18T14:13:17Z</time></trkpt><trkpt lat="45.7458611294972" lon="10.581065962173062"><ele>796.0</ele><time>2026-04-18T14:13:19Z</time></trkpt><trkpt lat="45.74596304686029" lon="10.581181321402024"><ele>796.0</ele><time>2026-04-18T14:13:21Z</time></trkpt><trkpt lat="45.74598156795772" lon="10.58134839104468"><ele>796.0</ele><time>2026-04-18T14:13:23Z</time></trkpt><trkpt lat="45.74597828507898" lon="10.581444164180356"><ele>796.0</ele><time>2026-04-18T14:13:24Z</time></trkpt><trkpt lat="45.745973704908955" lon="10.581548017783836"><ele>796.8</ele><time>2026-04-18T14:13:25Z</time></trkpt><trkpt lat="45.745998788231454" lon="10.581722524125542"><ele>797.5999999999999</ele><time>2026-04-18T14:13:27Z</time></trkpt><trkpt lat="45.74594957474063" lon="10.581859596445895"><ele>798.4</ele><time>2026-04-18T14:13:29Z</time></trkpt><trkpt lat="45.74589654356913" lon="10.581915286361806"><ele>799.2</ele><time>2026-04-18T14:13:30Z</time></trkpt><trkpt lat="45.74576362980262" lon="10.581979833071774"><ele>800.0</ele><time>2026-04-18T14:13:32Z</time></trkpt><trkpt lat="45.745695806153336" lon="10.582001665929809"><ele>798.2</ele><time>2026-04-18T14:13:33Z</time></trkpt><trkpt lat="45.74559244939856" lon="10.582033418315659"><ele>796.4</ele><time>2026-04-18T14:13:35Z</time></trkpt><trkpt lat="45.74546964707616" lon="10.582091831399582"><ele>794.5999999999999</ele><time>2026-04-18T14:13:37Z</time></trkpt><trkpt lat="45.74546145551697" lon="10.582238292063588"><ele>792.8</ele><time>2026-04-18T14:13:39Z</time></trkpt><trkpt lat="45.74548215575532" lon="10.582363298136789"><ele>791.0</ele><time>2026-04-18T14:13:40Z</time></trkpt><trkpt lat="45.74548090159867" lon="10.582498181122581"><ele>791.0</ele><time>2026-04-18T14:13:41Z</time></trkpt><trkpt lat="45.74550651247581" lon="10.582687999587968"><ele>791.0</ele><time>2026-04-18T14:13:43Z</time></trkpt><trkpt lat="45.745479532887586" lon="10.582855087693364"><ele>791.0</ele><time>2026-04-18T14:13:45Z</time></trkpt><trkpt lat="45.74551546343607" lon="10.582972928280547"><ele>791.0</ele><time>2026-04-18T14:13:46Z</time></trkpt><trkpt lat="45.7455510080969" lon="10.583083747398327"><ele>791.0</ele><time>2026-04-18T14:13:47Z</time></trkpt><trkpt lat="45.7456233619062" lon="10.583139169950618"><ele>791.8</ele><time>2026-04-18T14:13:48Z</time></trkpt><trkpt lat="45.74570046685779" lon="10.583222323693633"><ele>792.5999999999999</ele><time>2026-04-18T14:13:50Z</time></trkpt><trkpt lat="45.7457111107353" lon="10.58338176085818"><ele>793.4</ele><time>2026-04-18T14:13:52Z</time></trkpt><trkpt lat="45.745751647361175" lon="10.583582364372212"><ele>794.2</ele><time>2026-04-18T14:13:54Z</time></trkpt><trkpt lat="45.745753737143495" lon="10.58369182686453"><ele>795.0</ele><time>2026-04-18T14:13:55Z</time></trkpt><trkpt lat="45.745754121403785" lon="10.583794526928504"><ele>793.3333333333334</ele><time>2026-04-18T14:13:56Z</time></trkpt><trkpt lat="45.745712082326456" lon="10.583930036938705"><ele>791.6666666666667</ele><time>2026-04-18T14:13:58Z</time></trkpt><trkpt lat="45.745635952449724" lon="10.584046066596965"><ele>790.0</ele><time>2026-04-18T14:14:00Z</time></trkpt><trkpt lat="45.74555604647923" lon="10.584109671553085"><ele>788.3333333333334</ele><time>2026-04-18T14:14:01Z</time></trkpt><trkpt lat="45.74549672651422" lon="10.584154689908486"><ele>786.6666666666667</ele><time>2026-04-18T14:14:02Z</time></trkpt><trkpt lat="45.74543845435015" lon="10.584190961772665"><ele>785.0</ele><time>2026-04-18T14:14:03Z</time></trkpt><trkpt lat="45.74536218881909" lon="10.584347125827211"><ele>785.0000000000001</ele><time>2026-04-18T14:14:05Z</time></trkpt><trkpt lat="45.74530702262367" lon="10.584404061122223"><ele>785.0</ele><time>2026-04-18T14:14:06Z</time></trkpt><trkpt lat="45.74523276013718" lon="10.584439387738742"><ele>785.0</ele><time>2026-04-18T14:14:07Z</time></trkpt><trkpt lat="45.745176033355214" lon="10.584502411766966"><ele>785.0</ele><time>2026-04-18T14:14:08Z</time></trkpt><trkpt lat="45.745085599552" lon="10.584672727860918"><ele>785.0000000000001</ele><time>2026-04-18T14:14:10Z</time></trkpt><trkpt lat="45.74502951142794" lon="10.584745409677694"><ele>785.0</ele><time>2026-04-18T14:14:11Z</time></trkpt><trkpt lat="45.74495449942833" lon="10.584868280053337"><ele>787.8</ele><time>2026-04-18T14:14:12Z</time></trkpt><trkpt lat="45.744928190899344" lon="10.585012942668966"><ele>790.6</ele><time>2026-04-18T14:14:13Z</time></trkpt><trkpt lat="45.74493882350215" lon="10.585174907431925"><ele>793.4000000000001</ele><time>2026-04-18T14:14:15Z</time></trkpt><trkpt lat="45.744906049356445" lon="10.585263753505606"><ele>796.2</ele><time>2026-04-18T14:14:16Z</time></trkpt><trkpt lat="45.7448273212833" lon="10.58534380914106"><ele>799.0</ele><time>2026-04-18T14:14:17Z</time></trkpt><trkpt lat="45.74476636507554" lon="10.58543665818777"><ele>795.6666666666666</ele><time>2026-04-18T14:14:18Z</time></trkpt><trkpt lat="45.74470314836462" lon="10.585490866386904"><ele>792.3333333333333</ele><time>2026-04-18T14:14:19Z</time></trkpt><trkpt lat="45.74463139576923" lon="10.585547295213685"><ele>789.0</ele><time>2026-04-18T14:14:20Z</time></trkpt><trkpt lat="45.74457353937266" lon="10.585583232380944"><ele>785.6666666666667</ele><time>2026-04-18T14:14:21Z</time></trkpt><trkpt lat="45.74451742759141" lon="10.585627171974428"><ele>782.3333333333334</ele><time>2026-04-18T14:14:22Z</time></trkpt><trkpt lat="45.74437967575201" lon="10.585672289446213"><ele>779.0</ele><time>2026-04-18T14:14:24Z</time></trkpt><trkpt lat="45.74430752040687" lon="10.585643838220717"><ele>779.0</ele><time>2026-04-18T14:14:25Z</time></trkpt><trkpt lat="45.74424388291934" lon="10.585559356862232"><ele>779.0</ele><time>2026-04-18T14:14:26Z</time></trkpt><trkpt lat="45.744161211879444" lon="10.585508189964571"><ele>779.0</ele><time>2026-04-18T14:14:27.001Z</time></trkpt><trkpt lat="45.74409151451417" lon="10.58541810946245"><ele>779.0</ele><time>2026-04-18T14:14:28.001Z</time></trkpt><trkpt lat="45.744009563568554" lon="10.58532785519353"><ele>779.0</ele><time>2026-04-18T14:14:29.001Z</time></trkpt><trkpt lat="45.743956191282315" lon="10.585180319828483"><ele>784.1666666666667</ele><time>2026-04-18T14:14:30.001Z</time></trkpt><trkpt lat="45.743889658978716" lon="10.585087155773065"><ele>789.3333333333334</ele><time>2026-04-18T14:14:31.001Z</time></trkpt><trkpt lat="45.743838117066446" lon="10.584985389815937"><ele>794.5</ele><time>2026-04-18T14:14:32.001Z</time></trkpt><trkpt lat="45.74378630486691" lon="10.58490684037507"><ele>799.6666666666667</ele><time>2026-04-18T14:14:33.001Z</time></trkpt><trkpt lat="45.74373016606781" lon="10.584824841925633"><ele>804.8333333333334</ele><time>2026-04-18T14:14:34.001Z</time></trkpt><trkpt lat="45.743688426229596" lon="10.584720235651124"><ele>810.0</ele><time>2026-04-18T14:14:35.001Z</time></trkpt><trkpt lat="45.74365576737341" lon="10.58461479254737"><ele>811.0</ele><time>2026-04-18T14:14:36.001Z</time></trkpt><trkpt lat="45.743628350686585" lon="10.584473045111698"><ele>812.0</ele><time>2026-04-18T14:14:38.001Z</time></trkpt><trkpt lat="45.743573981092794" lon="10.58441986076638"><ele>813.0</ele><time>2026-04-18T14:14:39.001Z</time></trkpt><trkpt lat="45.74344855684699" lon="10.584374945858372"><ele>814.0</ele><time>2026-04-18T14:14:41.001Z</time></trkpt><trkpt lat="45.74334858603508" lon="10.58436282262871"><ele>815.0</ele><time>2026-04-18T14:14:42.001Z</time></trkpt><trkpt lat="45.74326619698886" lon="10.584342591289591"><ele>815.0000000000001</ele><time>2026-04-18T14:14:43.001Z</time></trkpt><trkpt lat="45.74319285162803" lon="10.584311089733324"><ele>815.0</ele><time>2026-04-18T14:14:44.001Z</time></trkpt><trkpt lat="45.743112200654075" lon="10.584263264150241"><ele>815.0</ele><time>2026-04-18T14:14:45.001Z</time></trkpt><trkpt lat="45.74302800448814" lon="10.58421279400753"><ele>815.0</ele><time>2026-04-18T14:14:46.001Z</time></trkpt><trkpt lat="45.74295783435849" lon="10.584143082579109"><ele>815.0000000000001</ele><time>2026-04-18T14:14:47.001Z</time></trkpt><trkpt lat="45.742879368774176" lon="10.584064778199371"><ele>815.0</ele><time>2026-04-18T14:14:48.001Z</time></trkpt><trkpt lat="45.742803503596136" lon="10.583993740252154"><ele>815.0000000000001</ele><time>2026-04-18T14:14:49.001Z</time></trkpt><trkpt lat="45.74272831819333" lon="10.583926839143984"><ele>815.0</ele><time>2026-04-18T14:14:50.001Z</time></trkpt><trkpt lat="45.74265919830028" lon="10.58385900446761"><ele>815.0</ele><time>2026-04-18T14:14:51.001Z</time></trkpt><trkpt lat="45.74259312124554" lon="10.5837876538826"><ele>815.0</ele><time>2026-04-18T14:14:52.001Z</time></trkpt><trkpt lat="45.74253012565182" lon="10.58370133158101"><ele>815.0000000000001</ele><time>2026-04-18T14:14:53.001Z</time></trkpt><trkpt lat="45.74248190707013" lon="10.583596587350762"><ele>815.0</ele><time>2026-04-18T14:14:54.001Z</time></trkpt><trkpt lat="45.742424399604985" lon="10.583488179087297"><ele>813.8</ele><time>2026-04-18T14:14:55.001Z</time></trkpt><trkpt lat="45.742364244892286" lon="10.58339378099911"><ele>812.6</ele><time>2026-04-18T14:14:56.001Z</time></trkpt><trkpt lat="45.74228163544813" lon="10.583308336206086"><ele>811.4000000000001</ele><time>2026-04-18T14:14:57.001Z</time></trkpt><trkpt lat="45.742229967074486" lon="10.58319128297562"><ele>810.2</ele><time>2026-04-18T14:14:58.001Z</time></trkpt><trkpt lat="45.74215629665305" lon="10.583103929852316"><ele>809.0</ele><time>2026-04-18T14:14:59.001Z</time></trkpt><trkpt lat="45.74207981169488" lon="10.583009970669112"><ele>809.0</ele><time>2026-04-18T14:15:00.001Z</time></trkpt><trkpt lat="45.74200541171565" lon="10.582926031153178"><ele>809.0</ele><time>2026-04-18T14:15:01.001Z</time></trkpt><trkpt lat="45.74193106384637" lon="10.582852501301986"><ele>809.0</ele><time>2026-04-18T14:15:02.001Z</time></trkpt><trkpt lat="45.74186134017932" lon="10.582782899383279"><ele>809.0</ele><time>2026-04-18T14:15:03.001Z</time></trkpt><trkpt lat="45.741787266901554" lon="10.582698588866362"><ele>809.0</ele><time>2026-04-18T14:15:04.001Z</time></trkpt><trkpt lat="45.74170456797814" lon="10.582624545523009"><ele>808.2</ele><time>2026-04-18T14:15:05.001Z</time></trkpt><trkpt lat="45.74161271866396" lon="10.58258559100496"><ele>807.4000000000001</ele><time>2026-04-18T14:15:06Z</time></trkpt><trkpt lat="45.741522983681286" lon="10.582512188369563"><ele>806.6</ele><time>2026-04-18T14:15:07Z</time></trkpt><trkpt lat="45.74143554739261" lon="10.58242798011136"><ele>805.8</ele><time>2026-04-18T14:15:08Z</time></trkpt><trkpt lat="45.741357179864565" lon="10.58234403523639"><ele>805.0</ele><time>2026-04-18T14:15:09Z</time></trkpt><trkpt lat="45.741275977884555" lon="10.582271847472645"><ele>804.9999999999999</ele><time>2026-04-18T14:15:10Z</time></trkpt><trkpt lat="45.741202649885196" lon="10.58219070489673"><ele>805.0</ele><time>2026-04-18T14:15:11Z</time></trkpt><trkpt lat="45.7411249622428" lon="10.582149945293466"><ele>805.0</ele><time>2026-04-18T14:15:12Z</time></trkpt><trkpt lat="45.7410332141346" lon="10.582146478725244"><ele>805.0</ele><time>2026-04-18T14:15:13Z</time></trkpt><trkpt lat="45.74094775914787" lon="10.582138603898692"><ele>804.9999999999999</ele><time>2026-04-18T14:15:14Z</time></trkpt><trkpt lat="45.740861955251916" lon="10.582124184562604"><ele>805.0</ele><time>2026-04-18T14:15:15Z</time></trkpt><trkpt lat="45.74077374065163" lon="10.582092619700827"><ele>806.8333333333333</ele><time>2026-04-18T14:15:16Z</time></trkpt><trkpt lat="45.74070102984552" lon="10.582044705032745"><ele>808.6666666666666</ele><time>2026-04-18T14:15:17Z</time></trkpt><trkpt lat="45.74062730648294" lon="10.581999902825537"><ele>810.5</ele><time>2026-04-18T14:15:18Z</time></trkpt><trkpt lat="45.74056790570395" lon="10.581925889125003"><ele>812.3333333333333</ele><time>2026-04-18T14:15:19Z</time></trkpt><trkpt lat="45.740485951727855" lon="10.58189814883582"><ele>814.1666666666666</ele><time>2026-04-18T14:15:20Z</time></trkpt><trkpt lat="45.74042550503983" lon="10.581846381604983"><ele>816.0</ele><time>2026-04-18T14:15:21Z</time></trkpt><trkpt lat="45.74037464753584" lon="10.581774477002908"><ele>816.0</ele><time>2026-04-18T14:15:22Z</time></trkpt><trkpt lat="45.740315441601204" lon="10.581702145885881"><ele>816.0</ele><time>2026-04-18T14:15:23Z</time></trkpt><trkpt lat="45.74030663621261" lon="10.581555628919297"><ele>816.0</ele><time>2026-04-18T14:15:25Z</time></trkpt><trkpt lat="45.74027728241473" lon="10.58147118406578"><ele>816.0</ele><time>2026-04-18T14:15:27Z</time></trkpt><trkpt lat="45.740248818029734" lon="10.581374438684643"><ele>816.0</ele><time>2026-04-18T14:15:28Z</time></trkpt><trkpt lat="45.74017280425812" lon="10.58121808639385"><ele>816.5</ele><time>2026-04-18T14:15:29Z</time></trkpt><trkpt lat="45.74011503437364" lon="10.581167473191378"><ele>817.0</ele><time>2026-04-18T14:15:31Z</time></trkpt><trkpt lat="45.7400576317966" lon="10.581129345512382"><ele>817.5</ele><time>2026-04-18T14:15:32Z</time></trkpt><trkpt lat="45.739965793423416" lon="10.581155014336366"><ele>818.0</ele><time>2026-04-18T14:15:33Z</time></trkpt><trkpt lat="45.73989467528003" lon="10.581287907903919"><ele>818.5</ele><time>2026-04-18T14:15:34Z</time></trkpt><trkpt lat="45.73980854883992" lon="10.581325342568555"><ele>819.0</ele><time>2026-04-18T14:15:35Z</time></trkpt><trkpt lat="45.73973974765305" lon="10.581359914710537"><ele>819.0</ele><time>2026-04-18T14:15:36Z</time></trkpt><trkpt lat="45.7396326075941" lon="10.581324150340318"><ele>819.0</ele><time>2026-04-18T14:15:38Z</time></trkpt><trkpt lat="45.73954673491386" lon="10.581244528227076"><ele>819.0</ele><time>2026-04-18T14:15:40Z</time></trkpt><trkpt lat="45.73941639726523" lon="10.581132120962417"><ele>819.0</ele><time>2026-04-18T14:15:42Z</time></trkpt><trkpt lat="45.73931971951038" lon="10.581001354822503"><ele>816.4000000000001</ele><time>2026-04-18T14:15:43Z</time></trkpt><trkpt lat="45.73922485053534" lon="10.580900008126925"><ele>813.8</ele><time>2026-04-18T14:15:44Z</time></trkpt><trkpt lat="45.73912763837313" lon="10.58080164107872"><ele>811.2</ele><time>2026-04-18T14:15:45Z</time></trkpt><trkpt lat="45.73904739041217" lon="10.580724049475263"><ele>808.5999999999999</ele><time>2026-04-18T14:15:46Z</time></trkpt><trkpt lat="45.738962996555976" lon="10.580656643463492"><ele>806.0</ele><time>2026-04-18T14:15:47Z</time></trkpt><trkpt lat="45.73888917246676" lon="10.58056839448644"><ele>806.0000000000001</ele><time>2026-04-18T14:15:48Z</time></trkpt><trkpt lat="45.73882097534064" lon="10.580502147543902"><ele>806.0</ele><time>2026-04-18T14:15:49Z</time></trkpt><trkpt lat="45.738751874929065" lon="10.58042424289903"><ele>806.0</ele><time>2026-04-18T14:15:50Z</time></trkpt><trkpt lat="45.738676858469404" lon="10.580376706878452"><ele>806.0</ele><time>2026-04-18T14:15:51Z</time></trkpt><trkpt lat="45.73861205953889" lon="10.580301064643324"><ele>806.0000000000001</ele><time>2026-04-18T14:15:52Z</time></trkpt><trkpt lat="45.738543709457595" lon="10.580260693716081"><ele>806.0</ele><time>2026-04-18T14:15:53Z</time></trkpt><trkpt lat="45.738492594557655" lon="10.58016818066245"><ele>806.4</ele><time>2026-04-18T14:15:54Z</time></trkpt><trkpt lat="45.73844904551289" lon="10.580068845842936"><ele>806.8</ele><time>2026-04-18T14:15:55Z</time></trkpt><trkpt lat="45.73839427322644" lon="10.579931130232108"><ele>807.1999999999999</ele><time>2026-04-18T14:15:56Z</time></trkpt><trkpt lat="45.738357579042294" lon="10.579780686157127"><ele>807.5999999999999</ele><time>2026-04-18T14:15:57Z</time></trkpt><trkpt lat="45.73830991063758" lon="10.579605983600521"><ele>808.0</ele><time>2026-04-18T14:15:58Z</time></trkpt><trkpt lat="45.73828921570815" lon="10.579442270898257"><ele>808.0</ele><time>2026-04-18T14:15:59Z</time></trkpt><trkpt lat="45.738253326966245" lon="10.5792874018451"><ele>808.0</ele><time>2026-04-18T14:16:00Z</time></trkpt><trkpt lat="45.73823586511753" lon="10.579133492049511"><ele>808.0</ele><time>2026-04-18T14:16:01Z</time></trkpt><trkpt lat="45.73815814745434" lon="10.579015285154002"><ele>808.0</ele><time>2026-04-18T14:16:02Z</time></trkpt><trkpt lat="45.73810315778179" lon="10.578900345792285"><ele>808.0</ele><time>2026-04-18T14:16:03Z</time></trkpt><trkpt lat="45.7380356641368" lon="10.578792105337877"><ele>807.9999999999999</ele><time>2026-04-18T14:16:04Z</time></trkpt><trkpt lat="45.737980004499335" lon="10.57869579368713"><ele>808.0</ele><time>2026-04-18T14:16:05Z</time></trkpt><trkpt lat="45.73792967477693" lon="10.578611073265558"><ele>808.0</ele><time>2026-04-18T14:16:06Z</time></trkpt><trkpt lat="45.737888000115646" lon="10.578516061825136"><ele>808.0</ele><time>2026-04-18T14:16:07Z</time></trkpt><trkpt lat="45.737838590359786" lon="10.578442725874655"><ele>807.9999999999999</ele><time>2026-04-18T14:16:08Z</time></trkpt><trkpt lat="45.7377797887815" lon="10.578389849612993"><ele>808.0</ele><time>2026-04-18T14:16:09Z</time></trkpt><trkpt lat="45.73770827631423" lon="10.578360432903352"><ele>809.8</ele><time>2026-04-18T14:16:10Z</time></trkpt><trkpt lat="45.737603926543" lon="10.57845760938136"><ele>811.5999999999999</ele><time>2026-04-18T14:16:11Z</time></trkpt><trkpt lat="45.737529451451756" lon="10.578572106249915"><ele>813.4000000000001</ele><time>2026-04-18T14:16:12Z</time></trkpt><trkpt lat="45.73748291449154" lon="10.578669484373503"><ele>815.2</ele><time>2026-04-18T14:16:13Z</time></trkpt><trkpt lat="45.73742328365243" lon="10.578780811602908"><ele>817.0</ele><time>2026-04-18T14:16:14Z</time></trkpt><trkpt lat="45.73736431962355" lon="10.578871244542501"><ele>810.4000000000001</ele><time>2026-04-18T14:16:15Z</time></trkpt><trkpt lat="45.73732518065838" lon="10.579009125973334"><ele>803.8000000000001</ele><time>2026-04-18T14:16:16Z</time></trkpt><trkpt lat="45.73729492673274" lon="10.579113652872472"><ele>797.2</ele><time>2026-04-18T14:16:17Z</time></trkpt><trkpt lat="45.73726143060608" lon="10.579223796692366"><ele>790.6</ele><time>2026-04-18T14:16:18Z</time></trkpt><trkpt lat="45.73720631506342" lon="10.579352552085751"><ele>784.0</ele><time>2026-04-18T14:16:19Z</time></trkpt><trkpt lat="45.73705282659184" lon="10.579445823318387"><ele>784.0</ele><time>2026-04-18T14:16:20Z</time></trkpt><trkpt lat="45.736945340292294" lon="10.579425328499848"><ele>784.0</ele><time>2026-04-18T14:16:21Z</time></trkpt><trkpt lat="45.73686414558363" lon="10.579429237613041"><ele>784.0</ele><time>2026-04-18T14:16:22Z</time></trkpt><trkpt lat="45.736764993671684" lon="10.579448978748776"><ele>784.0</ele><time>2026-04-18T14:16:24Z</time></trkpt><trkpt lat="45.73669825932248" lon="10.579464009125262"><ele>784.0</ele><time>2026-04-18T14:16:25Z</time></trkpt><trkpt lat="45.736552202219116" lon="10.579505125657255"><ele>786.5</ele><time>2026-04-18T14:16:27Z</time></trkpt><trkpt lat="45.736433937277255" lon="10.579486799806855"><ele>789.0</ele><time>2026-04-18T14:16:28Z</time></trkpt><trkpt lat="45.73636043599909" lon="10.579475178781093"><ele>791.5</ele><time>2026-04-18T14:16:29Z</time></trkpt><trkpt lat="45.73623952048683" lon="10.579456061160533"><ele>794.0</ele><time>2026-04-18T14:16:31Z</time></trkpt><trkpt lat="45.736113008002846" lon="10.578871173232228"><ele>794.0</ele><time>2026-04-18T14:16:33Z</time></trkpt><trkpt lat="45.73601382318149" lon="10.578817387605534"><ele>794.0</ele><time>2026-04-18T14:16:34Z</time></trkpt><trkpt lat="45.735925178319896" lon="10.578757006475131"><ele>794.0</ele><time>2026-04-18T14:16:35.001Z</time></trkpt><trkpt lat="45.73582846852505" lon="10.578667434373905"><ele>794.0</ele><time>2026-04-18T14:16:36.001Z</time></trkpt><trkpt lat="45.73573830367452" lon="10.578590453286898"><ele>794.0</ele><time>2026-04-18T14:16:37.001Z</time></trkpt><trkpt lat="45.735648628828535" lon="10.578562526725866"><ele>800.4000000000001</ele><time>2026-04-18T14:16:38.001Z</time></trkpt><trkpt lat="45.73554952134598" lon="10.578513545551642"><ele>806.8</ele><time>2026-04-18T14:16:39.001Z</time></trkpt><trkpt lat="45.73544663760551" lon="10.578476410731565"><ele>813.2</ele><time>2026-04-18T14:16:40.001Z</time></trkpt><trkpt lat="45.73534569438843" lon="10.578448692354673"><ele>819.5999999999999</ele><time>2026-04-18T14:16:41.001Z</time></trkpt><trkpt lat="45.73525953852706" lon="10.578377809303907"><ele>826.0</ele><time>2026-04-18T14:16:42.001Z</time></trkpt><trkpt lat="45.735180254667746" lon="10.578297726312869"><ele>826.0</ele><time>2026-04-18T14:16:43.001Z</time></trkpt><trkpt lat="45.735117366320814" lon="10.578218798579803"><ele>826.0</ele><time>2026-04-18T14:16:44.001Z</time></trkpt><trkpt lat="45.7350510467234" lon="10.578082692733233"><ele>826.0</ele><time>2026-04-18T14:16:45.001Z</time></trkpt><trkpt lat="45.73497323008406" lon="10.577989604702053"><ele>826.0</ele><time>2026-04-18T14:16:46.001Z</time></trkpt><trkpt lat="45.734919919072205" lon="10.57785133766547"><ele>826.0</ele><time>2026-04-18T14:16:47.001Z</time></trkpt><trkpt lat="45.73490891713093" lon="10.577700039029233"><ele>833.5999999999999</ele><time>2026-04-18T14:16:48.001Z</time></trkpt><trkpt lat="45.73487501846232" lon="10.577581086688737"><ele>841.2</ele><time>2026-04-18T14:16:49.001Z</time></trkpt><trkpt lat="45.73481908507598" lon="10.577466668930747"><ele>848.8000000000001</ele><time>2026-04-18T14:16:50.001Z</time></trkpt><trkpt lat="45.73473999447153" lon="10.577356738486776"><ele>856.4000000000001</ele><time>2026-04-18T14:16:51.001Z</time></trkpt><trkpt lat="45.73467732337908" lon="10.57726157288859"><ele>864.0</ele><time>2026-04-18T14:16:52.001Z</time></trkpt><trkpt lat="45.734615757317435" lon="10.57716407030438"><ele>864.0</ele><time>2026-04-18T14:16:53.001Z</time></trkpt><trkpt lat="45.73456140663533" lon="10.5770893026177"><ele>864.0</ele><time>2026-04-18T14:16:54.001Z</time></trkpt><trkpt lat="45.734529933826494" lon="10.576987762860432"><ele>864.0</ele><time>2026-04-18T14:16:55.001Z</time></trkpt><trkpt lat="45.73449249152825" lon="10.576860544464973"><ele>864.0</ele><time>2026-04-18T14:16:56.001Z</time></trkpt><trkpt lat="45.734440689300065" lon="10.576730734041618"><ele>864.0</ele><time>2026-04-18T14:16:57.001Z</time></trkpt><trkpt lat="45.73439191143746" lon="10.576651461669039"><ele>864.0</ele><time>2026-04-18T14:16:58.001Z</time></trkpt><trkpt lat="45.734357918959454" lon="10.576526509909513"><ele>864.3333333333334</ele><time>2026-04-18T14:16:59.001Z</time></trkpt><trkpt lat="45.73432694696007" lon="10.576436657380198"><ele>864.6666666666667</ele><time>2026-04-18T14:17:00.001Z</time></trkpt><trkpt lat="45.73429816563047" lon="10.576344224956111"><ele>865.0</ele><time>2026-04-18T14:17:01.001Z</time></trkpt><trkpt lat="45.734273928643624" lon="10.57623801096078"><ele>865.3333333333334</ele><time>2026-04-18T14:17:02.001Z</time></trkpt><trkpt lat="45.734279342913474" lon="10.576125606223139"><ele>865.6666666666667</ele><time>2026-04-18T14:17:04.001Z</time></trkpt><trkpt lat="45.73427794578536" lon="10.575991723596465"><ele>866.0</ele><time>2026-04-18T14:17:06.001Z</time></trkpt><trkpt lat="45.734275113178164" lon="10.575886414791217"><ele>873.5999999999999</ele><time>2026-04-18T14:17:08.001Z</time></trkpt><trkpt lat="45.73420061544559" lon="10.575940664369003"><ele>881.1999999999999</ele><time>2026-04-18T14:17:10.001Z</time></trkpt><trkpt lat="45.73409670582995" lon="10.575944095277103"><ele>888.8000000000001</ele><time>2026-04-18T14:17:12Z</time></trkpt><trkpt lat="45.734038290391354" lon="10.575994683199223"><ele>896.4000000000001</ele><time>2026-04-18T14:17:14Z</time></trkpt><trkpt lat="45.73395760730232" lon="10.576057652834725"><ele>904.0</ele><time>2026-04-18T14:17:16Z</time></trkpt><trkpt lat="45.7338581665167" lon="10.575982373998961"><ele>903.9999999999999</ele><time>2026-04-18T14:17:18Z</time></trkpt><trkpt lat="45.73376848805092" lon="10.575961706065163"><ele>904.0</ele><time>2026-04-18T14:17:20Z</time></trkpt><trkpt lat="45.73368481238106" lon="10.575905629275661"><ele>904.0</ele><time>2026-04-18T14:17:22Z</time></trkpt><trkpt lat="45.73363271238132" lon="10.575845981635402"><ele>904.0</ele><time>2026-04-18T14:17:24Z</time></trkpt><trkpt lat="45.73356919436577" lon="10.57583676337134"><ele>903.9999999999999</ele><time>2026-04-18T14:19:03.001Z</time></trkpt><trkpt lat="45.73352516947578" lon="10.575734748740025"><ele>904.0</ele><time>2026-04-18T14:19:05.001Z</time></trkpt><trkpt lat="45.73348798185607" lon="10.575661280295622"><ele>903.6666666666666</ele><time>2026-04-18T14:19:06.001Z</time></trkpt><trkpt lat="45.73343300790924" lon="10.575714694483036"><ele>903.3333333333333</ele><time>2026-04-18T14:19:08.001Z</time></trkpt><trkpt lat="45.73335963117641" lon="10.57563079461472"><ele>903.0</ele><time>2026-04-18T14:19:10.001Z</time></trkpt><trkpt lat="45.7332853254103" lon="10.575565476039484"><ele>902.6666666666667</ele><time>2026-04-18T14:19:12.001Z</time></trkpt><trkpt lat="45.73323437856339" lon="10.575480042870984"><ele>902.3333333333334</ele><time>2026-04-18T14:19:14.001Z</time></trkpt><trkpt lat="45.733302136484554" lon="10.575390319241041"><ele>902.0</ele><time>2026-04-18T14:19:16.001Z</time></trkpt><trkpt lat="45.73337918255086" lon="10.57535276056583"><ele>908.1666666666667</ele><time>2026-04-18T14:19:18Z</time></trkpt><trkpt lat="45.73335032987422" lon="10.575227734068378"><ele>914.3333333333334</ele><time>2026-04-18T14:19:22Z</time></trkpt><trkpt lat="45.73328372504005" lon="10.575209080433957"><ele>920.5</ele><time>2026-04-18T14:19:25Z</time></trkpt><trkpt lat="45.73320468144402" lon="10.575204713459483"><ele>926.6666666666667</ele><time>2026-04-18T14:19:28Z</time></trkpt><trkpt lat="45.7331213313355" lon="10.575146750243531"><ele>932.8333333333334</ele><time>2026-04-18T14:19:30Z</time></trkpt><trkpt lat="45.733069631542875" lon="10.575067456345398"><ele>939.0</ele><time>2026-04-18T14:19:32Z</time></trkpt><trkpt lat="45.733025891782425" lon="10.57499529118488"><ele>939.0</ele><time>2026-04-18T14:19:34Z</time></trkpt><trkpt lat="45.73309937133778" lon="10.574934894349628"><ele>939.0</ele><time>2026-04-18T14:19:38Z</time></trkpt><trkpt lat="45.73301550762735" lon="10.574900557035951"><ele>939.0</ele><time>2026-04-18T14:19:41Z</time></trkpt><trkpt lat="45.73297852602643" lon="10.574774246605257"><ele>939.0</ele><time>2026-04-18T14:19:44Z</time></trkpt><trkpt lat="45.73297274201645" lon="10.57466296642634"><ele>939.0</ele><time>2026-04-18T14:20:09Z</time></trkpt><trkpt lat="45.7330236653838" lon="10.57459931746811"><ele>939.0</ele><time>2026-04-18T14:20:57.001Z</time></trkpt><trkpt lat="45.73307544106413" lon="10.57467594059771"><ele>939.0</ele><time>2026-04-18T14:21:09.001Z</time></trkpt><trkpt lat="45.73301019973696" lon="10.574609491815679"><ele>939.0</ele><time>2026-04-18T14:21:17.001Z</time></trkpt><trkpt lat="45.732976019445154" lon="10.574530444468607"><ele>939.0</ele><time>2026-04-18T14:21:19.001Z</time></trkpt><trkpt lat="45.732919505061304" lon="10.574470169308029"><ele>939.0</ele><time>2026-04-18T14:21:20.001Z</time></trkpt><trkpt lat="45.732856885716025" lon="10.574445734991158"><ele>939.0</ele><time>2026-04-18T14:21:21.001Z</time></trkpt><trkpt lat="45.73281846163741" lon="10.574322602591137"><ele>939.0</ele><time>2026-04-18T14:21:25Z</time></trkpt><trkpt lat="45.73278472633314" lon="10.574199168263458"><ele>943.3333333333334</ele><time>2026-04-18T14:21:26Z</time></trkpt><trkpt lat="45.73271397542058" lon="10.574094728938322"><ele>947.6666666666667</ele><time>2026-04-18T14:21:28Z</time></trkpt><trkpt lat="45.73269769131456" lon="10.573994001277832"><ele>952.0</ele><time>2026-04-18T14:21:32Z</time></trkpt><trkpt lat="45.73263747144941" lon="10.573876673104014"><ele>956.3333333333334</ele><time>2026-04-18T14:21:35Z</time></trkpt><trkpt lat="45.73262582967146" lon="10.573784562543409"><ele>960.6666666666667</ele><time>2026-04-18T14:21:38Z</time></trkpt><trkpt lat="45.73255900004808" lon="10.57376480580035"><ele>965.0</ele><time>2026-04-18T14:21:40Z</time></trkpt><trkpt lat="45.73251833677368" lon="10.573688306882739"><ele>971.3333333333334</ele><time>2026-04-18T14:21:42Z</time></trkpt><trkpt lat="45.732511979730454" lon="10.573570916751999"><ele>977.6666666666667</ele><time>2026-04-18T14:21:44Z</time></trkpt><trkpt lat="45.73245998040332" lon="10.573519774362106"><ele>984.0</ele><time>2026-04-18T14:22:41Z</time></trkpt><trkpt lat="45.73242541094347" lon="10.573429720868274"><ele>990.3333333333333</ele><time>2026-04-18T14:23:27.001Z</time></trkpt><trkpt lat="45.732343156439896" lon="10.573437400888043"><ele>996.6666666666666</ele><time>2026-04-18T14:23:30Z</time></trkpt><trkpt lat="45.732271305677315" lon="10.573327991835477"><ele>1003.0</ele><time>2026-04-18T14:23:33Z</time></trkpt><trkpt lat="45.73219202449099" lon="10.573206878781669"><ele>1003.0</ele><time>2026-04-18T14:23:35Z</time></trkpt><trkpt lat="45.7321376813745" lon="10.573150790271917"><ele>1002.9999999999999</ele><time>2026-04-18T14:23:36Z</time></trkpt><trkpt lat="45.73210116766451" lon="10.573077300913978"><ele>1003.0</ele><time>2026-04-18T14:23:37Z</time></trkpt><trkpt lat="45.73217528571518" lon="10.573069811086322"><ele>1003.0</ele><time>2026-04-18T14:24:06Z</time></trkpt><trkpt lat="45.73210337482862" lon="10.572992365816091"><ele>1002.9999999999999</ele><time>2026-04-18T14:24:15Z</time></trkpt><trkpt lat="45.73206452137223" lon="10.572920199185479"><ele>1003.0</ele><time>2026-04-18T14:24:19Z</time></trkpt><trkpt lat="45.73203453164864" lon="10.572829202798014"><ele>1003.0</ele><time>2026-04-18T14:24:22Z</time></trkpt><trkpt lat="45.731973380461135" lon="10.572732521588389"><ele>1011.0</ele><time>2026-04-18T14:25:29.001Z</time></trkpt><trkpt lat="45.731906774974995" lon="10.572673391309937"><ele>1018.9999999999999</ele><time>2026-04-18T14:25:32.001Z</time></trkpt><trkpt lat="45.731907680159644" lon="10.572583120606417"><ele>1027.0</ele><time>2026-04-18T14:25:33.001Z</time></trkpt><trkpt lat="45.73197613768178" lon="10.572562927622794"><ele>1035.0</ele><time>2026-04-18T14:25:36Z</time></trkpt><trkpt lat="45.73191173390058" lon="10.57258719730653"><ele>1043.0</ele><time>2026-04-18T14:25:44Z</time></trkpt><trkpt lat="45.731944998446885" lon="10.572484671711138"><ele>1051.0</ele><time>2026-04-18T14:25:59Z</time></trkpt><trkpt lat="45.732011761997434" lon="10.572486059517843"><ele>1059.0</ele><time>2026-04-18T14:26:03Z</time></trkpt><trkpt lat="45.7320822411756" lon="10.572483636018893"><ele>1059.0</ele><time>2026-04-18T14:26:10Z</time></trkpt><trkpt lat="45.73204545614421" lon="10.572392640708916"><ele>1059.0</ele><time>2026-04-18T14:27:25.001Z</time></trkpt><trkpt lat="45.73210859518688" lon="10.572389058195466"><ele>1059.0</ele><time>2026-04-18T14:28:22Z</time></trkpt><trkpt lat="45.732075504124126" lon="10.572268219376008"><ele>1059.0</ele><time>2026-04-18T14:28:30Z</time></trkpt><trkpt lat="45.73199484978708" lon="10.572248479071785"><ele>1059.0</ele><time>2026-04-18T14:30:44Z</time></trkpt><trkpt lat="45.73197791035537" lon="10.572160723556319"><ele>1059.0</ele><time>2026-04-18T14:30:49Z</time></trkpt><trkpt lat="45.73191304737736" lon="10.572127532062112"><ele>1059.0</ele><time>2026-04-18T14:30:52Z</time></trkpt><trkpt lat="45.73193150768518" lon="10.572019594850246"><ele>1065.0</ele><time>2026-04-18T14:30:59Z</time></trkpt><trkpt lat="45.73196439252262" lon="10.57191093282973"><ele>1071.0</ele><time>2026-04-18T14:31:01Z</time></trkpt><trkpt lat="45.731994831871866" lon="10.571814665049759"><ele>1077.0</ele><time>2026-04-18T14:31:04Z</time></trkpt><trkpt lat="45.73196264451259" lon="10.571711154145806"><ele>1083.0</ele><time>2026-04-18T14:31:08Z</time></trkpt><trkpt lat="45.73195004530423" lon="10.571606370296903"><ele>1089.0</ele><time>2026-04-18T14:31:40.001Z</time></trkpt><trkpt lat="45.73190257721235" lon="10.571520463853199"><ele>1095.0</ele><time>2026-04-18T14:31:53.001Z</time></trkpt><trkpt lat="45.73190936615182" lon="10.571617898007421"><ele>1095.0</ele><time>2026-04-18T14:32:09Z</time></trkpt><trkpt lat="45.731816383868896" lon="10.571624749587397"><ele>1095.0</ele><time>2026-04-18T14:32:31Z</time></trkpt><trkpt lat="45.73188654905389" lon="10.571510482016258"><ele>1095.0</ele><time>2026-04-18T14:33:27.001Z</time></trkpt><trkpt lat="45.73193064904763" lon="10.571441461164556"><ele>1095.0</ele><time>2026-04-18T14:33:33.001Z</time></trkpt><trkpt lat="45.73200818827812" lon="10.57140909253303"><ele>1095.0</ele><time>2026-04-18T14:33:36.001Z</time></trkpt><trkpt lat="45.73204162858381" lon="10.5714983414477"><ele>1095.0</ele><time>2026-04-18T14:33:53.001Z</time></trkpt><trkpt lat="45.73197273101748" lon="10.571457515653876"><ele>1095.0</ele><time>2026-04-18T14:34:05Z</time></trkpt><trkpt lat="45.731985458179864" lon="10.571338540476432"><ele>1095.0</ele><time>2026-04-18T14:34:58Z</time></trkpt><trkpt lat="45.73188002691214" lon="10.571354372346379"><ele>1095.0</ele><time>2026-04-18T14:35:01Z</time></trkpt><trkpt lat="45.73181513428009" lon="10.571384731558712"><ele>1095.0</ele><time>2026-04-18T14:35:02Z</time></trkpt><trkpt lat="45.73181336028552" lon="10.571257284294854"><ele>1095.0</ele><time>2026-04-18T14:35:05Z</time></trkpt><trkpt lat="45.731874441480926" lon="10.57119039707376"><ele>1095.0</ele><time>2026-04-18T14:35:08Z</time></trkpt><trkpt lat="45.73189336175725" lon="10.571104137738546"><ele>1095.3333333333333</ele><time>2026-04-18T14:35:10Z</time></trkpt><trkpt lat="45.731903278156125" lon="10.571003731418868"><ele>1095.6666666666667</ele><time>2026-04-18T14:35:12Z</time></trkpt><trkpt lat="45.73183747873618" lon="10.57096853600498"><ele>1096.0</ele><time>2026-04-18T14:35:18Z</time></trkpt><trkpt lat="45.73188590216098" lon="10.570824772242853"><ele>1096.3333333333335</ele><time>2026-04-18T14:35:19Z</time></trkpt><trkpt lat="45.73189723905232" lon="10.570735246814715"><ele>1096.6666666666667</ele><time>2026-04-18T14:35:21Z</time></trkpt><trkpt lat="45.73192142262544" lon="10.57083248936615"><ele>1097.0</ele><time>2026-04-18T14:35:38.001Z</time></trkpt><trkpt lat="45.73203108676589" lon="10.570763822532314"><ele>1097.0</ele><time>2026-04-18T14:36:00.001Z</time></trkpt><trkpt lat="45.73207861114253" lon="10.570702532768017"><ele>1097.0</ele><time>2026-04-18T14:36:08Z</time></trkpt><trkpt lat="45.731948857651396" lon="10.570668568332929"><ele>1097.0</ele><time>2026-04-18T14:36:14Z</time></trkpt><trkpt lat="45.731871800758015" lon="10.570699560850814"><ele>1097.0</ele><time>2026-04-18T14:36:16Z</time></trkpt><trkpt lat="45.731839463571234" lon="10.570591991997201"><ele>1097.0</ele><time>2026-04-18T14:36:20Z</time></trkpt><trkpt lat="45.73180498897128" lon="10.570668996352667"><ele>1097.0</ele><time>2026-04-18T14:36:31Z</time></trkpt><trkpt lat="45.73173244408343" lon="10.5707221464359"><ele>1097.0</ele><time>2026-04-18T14:36:42Z</time></trkpt><trkpt lat="45.731694237732185" lon="10.570592937545895"><ele>1097.0</ele><time>2026-04-18T14:36:56Z</time></trkpt><trkpt lat="45.73174359870665" lon="10.570523409351457"><ele>1097.0</ele><time>2026-04-18T14:37:02Z</time></trkpt><trkpt lat="45.73174869761938" lon="10.570620315315377"><ele>1097.0</ele><time>2026-04-18T14:37:15Z</time></trkpt><trkpt lat="45.73168832894457" lon="10.570665144131873"><ele>1097.0</ele><time>2026-04-18T14:37:22Z</time></trkpt><trkpt lat="45.73170778796346" lon="10.570575494193532"><ele>1097.0</ele><time>2026-04-18T14:37:28Z</time></trkpt><trkpt lat="45.73178666762519" lon="10.570582679883875"><ele>1097.0</ele><time>2026-04-18T14:37:37.001Z</time></trkpt><trkpt lat="45.73172022903477" lon="10.570524997494177"><ele>1097.0</ele><time>2026-04-18T14:37:43.001Z</time></trkpt><trkpt lat="45.731786787284726" lon="10.570503948382898"><ele>1097.0</ele><time>2026-04-18T14:37:46.001Z</time></trkpt><trkpt lat="45.731674041407615" lon="10.57048872079129"><ele>1097.0</ele><time>2026-04-18T14:37:57.001Z</time></trkpt><trkpt lat="45.73176785275357" lon="10.570443292252413"><ele>1097.0</ele><time>2026-04-18T14:38:46Z</time></trkpt><trkpt lat="45.73171634562525" lon="10.570343377721962"><ele>1097.0</ele><time>2026-04-18T14:39:02Z</time></trkpt><trkpt lat="45.73174068015593" lon="10.57024425812192"><ele>1097.0</ele><time>2026-04-18T14:39:06Z</time></trkpt><trkpt lat="45.73168082947733" lon="10.570198497189246"><ele>1102.5714285714287</ele><time>2026-04-18T14:39:08Z</time></trkpt><trkpt lat="45.73162774541704" lon="10.57013458268499"><ele>1108.1428571428573</ele><time>2026-04-18T14:39:11Z</time></trkpt><trkpt lat="45.73155840661953" lon="10.57013163401824"><ele>1113.7142857142858</ele><time>2026-04-18T14:39:15Z</time></trkpt><trkpt lat="45.73163499976513" lon="10.570133604724663"><ele>1119.2857142857142</ele><time>2026-04-18T14:39:18Z</time></trkpt><trkpt lat="45.73162917399431" lon="10.57002883798813"><ele>1124.8571428571427</ele><time>2026-04-18T14:39:19Z</time></trkpt><trkpt lat="45.73159069928257" lon="10.56991641455335"><ele>1130.4285714285713</ele><time>2026-04-18T14:39:22Z</time></trkpt><trkpt lat="45.73162686306128" lon="10.569828726962076"><ele>1136.0</ele><time>2026-04-18T14:39:25Z</time></trkpt><trkpt lat="45.73165700611212" lon="10.569748757361891"><ele>1136.0</ele><time>2026-04-18T14:39:28Z</time></trkpt><trkpt lat="45.73162156198623" lon="10.569827308643184"><ele>1136.0</ele><time>2026-04-18T14:39:34Z</time></trkpt><trkpt lat="45.73167910924169" lon="10.569770858782402"><ele>1136.0</ele><time>2026-04-18T14:39:44.001Z</time></trkpt><trkpt lat="45.73170661327794" lon="10.569648431276795"><ele>1136.0</ele><time>2026-04-18T14:39:55.001Z</time></trkpt><trkpt lat="45.73167308365654" lon="10.569545182640807"><ele>1136.0</ele><time>2026-04-18T14:40:02.001Z</time></trkpt><trkpt lat="45.73173640320899" lon="10.569557861681782"><ele>1136.0</ele><time>2026-04-18T14:40:06.001Z</time></trkpt><trkpt lat="45.73169806030931" lon="10.56948544874681"><ele>1136.0</ele><time>2026-04-18T14:40:43Z</time></trkpt><trkpt lat="45.731679250755974" lon="10.569385552246128"><ele>1142.1666666666667</ele><time>2026-04-18T14:40:45Z</time></trkpt><trkpt lat="45.73161702809519" lon="10.569320726423172"><ele>1148.3333333333335</ele><time>2026-04-18T14:40:47Z</time></trkpt><trkpt lat="45.73159797030108" lon="10.569223976807399"><ele>1154.5</ele><time>2026-04-18T14:40:48Z</time></trkpt><trkpt lat="45.73165232554724" lon="10.569289353693545"><ele>1160.6666666666667</ele><time>2026-04-18T14:40:50Z</time></trkpt><trkpt lat="45.73167858658258" lon="10.569205944824722"><ele>1166.8333333333333</ele><time>2026-04-18T14:41:01Z</time></trkpt><trkpt lat="45.73165899697657" lon="10.56908282675644"><ele>1173.0</ele><time>2026-04-18T14:41:05Z</time></trkpt><trkpt lat="45.73170188382165" lon="10.569211491826028"><ele>1173.0</ele><time>2026-04-18T14:41:08Z</time></trkpt><trkpt lat="45.731762719869145" lon="10.569169733278441"><ele>1173.0</ele><time>2026-04-18T14:41:11Z</time></trkpt><trkpt lat="45.73182480878737" lon="10.569207827274298"><ele>1173.0</ele><time>2026-04-18T14:41:13Z</time></trkpt><trkpt lat="45.73192462499914" lon="10.569227266558192"><ele>1173.0</ele><time>2026-04-18T14:41:16Z</time></trkpt><trkpt lat="45.73204355264519" lon="10.569219801273613"><ele>1173.0</ele><time>2026-04-18T14:41:18Z</time></trkpt><trkpt lat="45.73211684923868" lon="10.569214522878799"><ele>1173.0</ele><time>2026-04-18T14:41:20Z</time></trkpt><trkpt lat="45.732178331919116" lon="10.569120122091158"><ele>1174.5</ele><time>2026-04-18T14:41:22Z</time></trkpt><trkpt lat="45.732250210718114" lon="10.569037502300377"><ele>1176.0</ele><time>2026-04-18T14:41:24Z</time></trkpt><trkpt lat="45.73205455184209" lon="10.56894679206832"><ele>1177.5</ele><time>2026-04-18T14:41:26Z</time></trkpt><trkpt lat="45.73198067053413" lon="10.56889124518923"><ele>1179.0</ele><time>2026-04-18T14:41:29Z</time></trkpt><trkpt lat="45.73190645753901" lon="10.568837472673051"><ele>1178.0</ele><time>2026-04-18T14:41:32Z</time></trkpt><trkpt lat="45.731858317859746" lon="10.568752281395536"><ele>1177.0</ele><time>2026-04-18T14:41:34Z</time></trkpt><trkpt lat="45.731910292414604" lon="10.568646848532378"><ele>1176.0</ele><time>2026-04-18T14:41:38Z</time></trkpt><trkpt lat="45.7319798420331" lon="10.568540580482962"><ele>1175.0</ele><time>2026-04-18T14:41:48.001Z</time></trkpt><trkpt lat="45.731936347896756" lon="10.568460260262043"><ele>1174.0</ele><time>2026-04-18T14:41:51.001Z</time></trkpt><trkpt lat="45.731875024373274" lon="10.568425582406926"><ele>1173.0</ele><time>2026-04-18T14:41:54.001Z</time></trkpt><trkpt lat="45.731849024903006" lon="10.568316855067646"><ele>1179.6</ele><time>2026-04-18T14:41:56.001Z</time></trkpt><trkpt lat="45.73183044970052" lon="10.568184688070831"><ele>1186.1999999999998</ele><time>2026-04-18T14:41:58.001Z</time></trkpt><trkpt lat="45.73182844782087" lon="10.568291326264427"><ele>1192.8</ele><time>2026-04-18T14:42:00.001Z</time></trkpt><trkpt lat="45.73192111631881" lon="10.568328515432265"><ele>1199.3999999999999</ele><time>2026-04-18T14:42:03.001Z</time></trkpt><trkpt lat="45.731910136797765" lon="10.568149254170137"><ele>1206.0</ele><time>2026-04-18T14:42:08.001Z</time></trkpt><trkpt lat="45.73187026761559" lon="10.56800610226331"><ele>1206.0</ele><time>2026-04-18T14:42:11.001Z</time></trkpt><trkpt lat="45.73181105720682" lon="10.567957925148733"><ele>1206.0</ele><time>2026-04-18T14:42:13.001Z</time></trkpt><trkpt lat="45.731693455200855" lon="10.567943472541545"><ele>1206.0</ele><time>2026-04-18T14:42:15.001Z</time></trkpt><trkpt lat="45.73160948857401" lon="10.567904078271738"><ele>1206.0</ele><time>2026-04-18T14:42:17.001Z</time></trkpt><trkpt lat="45.73150236144527" lon="10.567891776371503"><ele>1206.0</ele><time>2026-04-18T14:42:20.001Z</time></trkpt><trkpt lat="45.73173455657978" lon="10.56781604352226"><ele>1211.6666666666667</ele><time>2026-04-18T14:42:32Z</time></trkpt><trkpt lat="45.731840885349534" lon="10.567796574079658"><ele>1217.3333333333333</ele><time>2026-04-18T14:42:33Z</time></trkpt><trkpt lat="45.731890403835735" lon="10.567681855967015"><ele>1223.0</ele><time>2026-04-18T14:42:34Z</time></trkpt><trkpt lat="45.731846486614664" lon="10.567609108277132"><ele>1228.6666666666665</ele><time>2026-04-18T14:42:36Z</time></trkpt><trkpt lat="45.7317523797937" lon="10.56758985202934"><ele>1234.3333333333333</ele><time>2026-04-18T14:42:40Z</time></trkpt><trkpt lat="45.73168932595938" lon="10.567561618828014"><ele>1240.0</ele><time>2026-04-18T14:42:42Z</time></trkpt><trkpt lat="45.731595663871985" lon="10.56749681124557"><ele>1240.0</ele><time>2026-04-18T14:42:44Z</time></trkpt><trkpt lat="45.731543218626214" lon="10.567433471367904"><ele>1240.0</ele><time>2026-04-18T14:42:46Z</time></trkpt><trkpt lat="45.73146562900209" lon="10.567379753227646"><ele>1240.0</ele><time>2026-04-18T14:42:48Z</time></trkpt><trkpt lat="45.73137860948647" lon="10.567396556245482"><ele>1240.0</ele><time>2026-04-18T14:42:50Z</time></trkpt><trkpt lat="45.73137571206869" lon="10.567488124089163"><ele>1240.0</ele><time>2026-04-18T14:42:54Z</time></trkpt><trkpt lat="45.731447000901966" lon="10.567307945982115"><ele>1240.0</ele><time>2026-04-18T14:42:55Z</time></trkpt><trkpt lat="45.7315198548179" lon="10.567298815931952"><ele>1240.0</ele><time>2026-04-18T14:43:14Z</time></trkpt><trkpt lat="45.731502187172424" lon="10.567393143648138"><ele>1240.0</ele><time>2026-04-18T14:43:54Z</time></trkpt><trkpt lat="45.73158618028243" lon="10.56741222705123"><ele>1240.0</ele><time>2026-04-18T14:43:59.001Z</time></trkpt><trkpt lat="45.731534727930025" lon="10.567338294335334"><ele>1240.0</ele><time>2026-04-18T14:44:11.001Z</time></trkpt><trkpt lat="45.73151746433771" lon="10.567237388830467"><ele>1240.0</ele><time>2026-04-18T14:44:13.001Z</time></trkpt><trkpt lat="45.731572496069205" lon="10.567289997682304"><ele>1240.0</ele><time>2026-04-18T14:44:17.001Z</time></trkpt><trkpt lat="45.73149946776631" lon="10.567281925300577"><ele>1240.0</ele><time>2026-04-18T14:44:26.001Z</time></trkpt><trkpt lat="45.731428085528265" lon="10.5672588896087"><ele>1240.0</ele><time>2026-04-18T14:44:28.001Z</time></trkpt><trkpt lat="45.731469891029576" lon="10.567179588454408"><ele>1240.0</ele><time>2026-04-18T14:44:57Z</time></trkpt><trkpt lat="45.731407771911435" lon="10.567142279790927"><ele>1240.0</ele><time>2026-04-18T14:45:00Z</time></trkpt><trkpt lat="45.731334711169254" lon="10.567079770262353"><ele>1240.0</ele><time>2026-04-18T14:45:02Z</time></trkpt><trkpt lat="45.73124693903295" lon="10.566999277794553"><ele>1240.0</ele><time>2026-04-18T14:45:05Z</time></trkpt><trkpt lat="45.73111484631531" lon="10.566819638980435"><ele>1248.6</ele><time>2026-04-18T14:45:12Z</time></trkpt><trkpt lat="45.73102274283242" lon="10.566872221971597"><ele>1257.2</ele><time>2026-04-18T14:45:41Z</time></trkpt><trkpt lat="45.73094768760603" lon="10.56677853240447"><ele>1265.8000000000002</ele><time>2026-04-18T14:45:43Z</time></trkpt><trkpt lat="45.73086570787817" lon="10.566642139137882"><ele>1274.4</ele><time>2026-04-18T14:45:44Z</time></trkpt><trkpt lat="45.73089136758535" lon="10.566502512310052"><ele>1283.0</ele><time>2026-04-18T14:45:45Z</time></trkpt><trkpt lat="45.7308670000319" lon="10.566598732545023"><ele>1283.0</ele><time>2026-04-18T14:46:08.001Z</time></trkpt><trkpt lat="45.73094851266651" lon="10.566526052721281"><ele>1283.0</ele><time>2026-04-18T14:46:13.001Z</time></trkpt><trkpt lat="45.731038776283015" lon="10.566624781519069"><ele>1283.0</ele><time>2026-04-18T14:46:23.001Z</time></trkpt><trkpt lat="45.73113958901282" lon="10.566567795501355"><ele>1283.0</ele><time>2026-04-18T14:46:27.001Z</time></trkpt><trkpt lat="45.731070604627234" lon="10.566516252519627"><ele>1283.0</ele><time>2026-04-18T14:46:40Z</time></trkpt><trkpt lat="45.7309776593407" lon="10.566558799598646"><ele>1283.0</ele><time>2026-04-18T14:46:44Z</time></trkpt><trkpt lat="45.73092379140556" lon="10.566434185003128"><ele>1283.0</ele><time>2026-04-18T14:47:00Z</time></trkpt><trkpt lat="45.73085479723952" lon="10.566381201156004"><ele>1283.0</ele><time>2026-04-18T14:47:04Z</time></trkpt><trkpt lat="45.73090889359169" lon="10.566295038238573"><ele>1283.0</ele><time>2026-04-18T14:47:09Z</time></trkpt><trkpt lat="45.730836399559124" lon="10.56627661114087"><ele>1283.0</ele><time>2026-04-18T14:47:15Z</time></trkpt><trkpt lat="45.73079956811936" lon="10.566174236752943"><ele>1283.0</ele><time>2026-04-18T14:47:17Z</time></trkpt><trkpt lat="45.730784976360326" lon="10.566066486362763"><ele>1288.6000000000001</ele><time>2026-04-18T14:47:53Z</time></trkpt><trkpt lat="45.73087131834809" lon="10.56603770043307"><ele>1294.2</ele><time>2026-04-18T14:47:56Z</time></trkpt><trkpt lat="45.73091829150251" lon="10.56592394036323"><ele>1299.8</ele><time>2026-04-18T14:47:59Z</time></trkpt><trkpt lat="45.73087393009882" lon="10.565853516358782"><ele>1305.4</ele><time>2026-04-18T14:48:01Z</time></trkpt><trkpt lat="45.73080926363668" lon="10.565671127829168"><ele>1311.0</ele><time>2026-04-18T14:48:05Z</time></trkpt><trkpt lat="45.73086882130202" lon="10.56560043693278"><ele>1311.0</ele><time>2026-04-18T14:48:08.001Z</time></trkpt><trkpt lat="45.73097478510791" lon="10.56555762884573"><ele>1311.0</ele><time>2026-04-18T14:48:10.001Z</time></trkpt><trkpt lat="45.73103954780095" lon="10.565542521087151"><ele>1311.0</ele><time>2026-04-18T14:48:12.001Z</time></trkpt><trkpt lat="45.73113770340419" lon="10.565601684982903"><ele>1311.0</ele><time>2026-04-18T14:48:14.001Z</time></trkpt><trkpt lat="45.731219137949914" lon="10.565608642821815"><ele>1311.0</ele><time>2026-04-18T14:48:16.001Z</time></trkpt><trkpt lat="45.73130032826837" lon="10.565576877215337"><ele>1311.0</ele><time>2026-04-18T14:48:18.001Z</time></trkpt><trkpt lat="45.73136189686178" lon="10.565535329747517"><ele>1311.8333333333333</ele><time>2026-04-18T14:48:20.001Z</time></trkpt><trkpt lat="45.73132915987496" lon="10.56544351580621"><ele>1312.6666666666667</ele><time>2026-04-18T14:48:24.001Z</time></trkpt><trkpt lat="45.73127749189995" lon="10.565363790733223"><ele>1313.5</ele><time>2026-04-18T14:48:27.001Z</time></trkpt><trkpt lat="45.73119172589159" lon="10.56530858149195"><ele>1314.3333333333335</ele><time>2026-04-18T14:48:29.001Z</time></trkpt><trkpt lat="45.73111247189622" lon="10.565241931845602"><ele>1315.1666666666667</ele><time>2026-04-18T14:48:31.001Z</time></trkpt><trkpt lat="45.731076672709555" lon="10.56516653190445"><ele>1316.0</ele><time>2026-04-18T14:48:33.001Z</time></trkpt><trkpt lat="45.73103177052779" lon="10.565075374401804"><ele>1321.0</ele><time>2026-04-18T14:48:35.001Z</time></trkpt><trkpt lat="45.73098078572648" lon="10.564980572344922"><ele>1326.0</ele><time>2026-04-18T14:48:36.001Z</time></trkpt><trkpt lat="45.73094052473493" lon="10.564897085805878"><ele>1331.0</ele><time>2026-04-18T14:48:37.001Z</time></trkpt><trkpt lat="45.73085030310956" lon="10.564851960989342"><ele>1336.0</ele><time>2026-04-18T14:48:39.001Z</time></trkpt><trkpt lat="45.73074285344873" lon="10.564900074464946"><ele>1341.0</ele><time>2026-04-18T14:48:41.001Z</time></trkpt><trkpt lat="45.730670931379926" lon="10.565000415381407"><ele>1341.0</ele><time>2026-04-18T14:48:43Z</time></trkpt><trkpt lat="45.73058119937644" lon="10.564998116375948"><ele>1341.0</ele><time>2026-04-18T14:48:45Z</time></trkpt><trkpt lat="45.73052275752307" lon="10.564917801934588"><ele>1341.0</ele><time>2026-04-18T14:48:47Z</time></trkpt><trkpt lat="45.73045195789516" lon="10.564902540357687"><ele>1341.0</ele><time>2026-04-18T14:48:49Z</time></trkpt><trkpt lat="45.73035680422857" lon="10.564904899475193"><ele>1341.0</ele><time>2026-04-18T14:48:51Z</time></trkpt><trkpt lat="45.73027364045681" lon="10.564881944154177"><ele>1341.0</ele><time>2026-04-18T14:48:53Z</time></trkpt><trkpt lat="45.73015275537642" lon="10.564931770924233"><ele>1343.3333333333333</ele><time>2026-04-18T14:48:55Z</time></trkpt><trkpt lat="45.730070993266004" lon="10.56488489064622"><ele>1345.6666666666667</ele><time>2026-04-18T14:48:58Z</time></trkpt><trkpt lat="45.73002739077225" lon="10.564818141919353"><ele>1348.0</ele><time>2026-04-18T14:49:10Z</time></trkpt><trkpt lat="45.729950227472145" lon="10.564755711518888"><ele>1350.3333333333335</ele><time>2026-04-18T14:49:13Z</time></trkpt><trkpt lat="45.72990585770047" lon="10.56465611764874"><ele>1352.6666666666667</ele><time>2026-04-18T14:49:16Z</time></trkpt><trkpt lat="45.72983849674281" lon="10.564614056923428"><ele>1355.0</ele><time>2026-04-18T14:49:20Z</time></trkpt><trkpt lat="45.729885101782486" lon="10.564552798512109"><ele>1354.8333333333335</ele><time>2026-04-18T14:51:52Z</time></trkpt><trkpt lat="45.72992549741987" lon="10.564477259124295"><ele>1354.6666666666667</ele><time>2026-04-18T14:51:54Z</time></trkpt><trkpt lat="45.72996925367466" lon="10.564339281712444"><ele>1354.5</ele><time>2026-04-18T14:51:56Z</time></trkpt><trkpt lat="45.72999038785588" lon="10.564241429003198"><ele>1354.3333333333333</ele><time>2026-04-18T14:51:57Z</time></trkpt><trkpt lat="45.729967735863575" lon="10.564136881006329"><ele>1354.1666666666665</ele><time>2026-04-18T14:51:58Z</time></trkpt><trkpt lat="45.729987067610075" lon="10.563974642850738"><ele>1354.0</ele><time>2026-04-18T14:52:00Z</time></trkpt><trkpt lat="45.73000617108224" lon="10.563812826772397"><ele>1353.6666666666665</ele><time>2026-04-18T14:52:02Z</time></trkpt><trkpt lat="45.73001783446604" lon="10.563654030565916"><ele>1353.3333333333333</ele><time>2026-04-18T14:52:04Z</time></trkpt><trkpt lat="45.73005080678005" lon="10.563505825540176"><ele>1353.0</ele><time>2026-04-18T14:52:06Z</time></trkpt><trkpt lat="45.73006183072991" lon="10.563411379975838"><ele>1352.6666666666667</ele><time>2026-04-18T14:52:07Z</time></trkpt><trkpt lat="45.73010107538319" lon="10.563323650479315"><ele>1352.3333333333335</ele><time>2026-04-18T14:52:08Z</time></trkpt><trkpt lat="45.7301389673663" lon="10.563225595973027"><ele>1352.0</ele><time>2026-04-18T14:52:09Z</time></trkpt><trkpt lat="45.73018281742734" lon="10.563127882202853"><ele>1352.0</ele><time>2026-04-18T14:52:10Z</time></trkpt><trkpt lat="45.73022115897938" lon="10.56305069291934"><ele>1352.0</ele><time>2026-04-18T14:52:11Z</time></trkpt><trkpt lat="45.73029073433242" lon="10.56291490899357"><ele>1352.0</ele><time>2026-04-18T14:52:13Z</time></trkpt><trkpt lat="45.730332918949244" lon="10.562833992419131"><ele>1352.0</ele><time>2026-04-18T14:52:14Z</time></trkpt><trkpt lat="45.73036777567381" lon="10.562740683851152"><ele>1352.0</ele><time>2026-04-18T14:52:15.001Z</time></trkpt><trkpt lat="45.73045244346451" lon="10.56259910770769"><ele>1357.8</ele><time>2026-04-18T14:52:17.001Z</time></trkpt><trkpt lat="45.73050081054502" lon="10.562517182937961"><ele>1363.6</ele><time>2026-04-18T14:52:18.001Z</time></trkpt><trkpt lat="45.73058005430748" lon="10.562405548428089"><ele>1369.3999999999999</ele><time>2026-04-18T14:52:20.001Z</time></trkpt><trkpt lat="45.73064014163708" lon="10.56232143794352"><ele>1375.1999999999998</ele><time>2026-04-18T14:52:22.001Z</time></trkpt><trkpt lat="45.73069589919156" lon="10.562213389574131"><ele>1381.0</ele><time>2026-04-18T14:52:24.001Z</time></trkpt><trkpt lat="45.73074991569055" lon="10.56206748051372"><ele>1376.1999999999998</ele><time>2026-04-18T14:52:26.001Z</time></trkpt><trkpt lat="45.730778577821035" lon="10.56196064096694"><ele>1371.3999999999999</ele><time>2026-04-18T14:52:27.001Z</time></trkpt><trkpt lat="45.730816127681294" lon="10.561794479281508"><ele>1366.6</ele><time>2026-04-18T14:52:29.001Z</time></trkpt><trkpt lat="45.73090317672997" lon="10.561671496783308"><ele>1361.8</ele><time>2026-04-18T14:52:31.001Z</time></trkpt><trkpt lat="45.73095832617866" lon="10.56160557420188"><ele>1357.0</ele><time>2026-04-18T14:52:32.001Z</time></trkpt><trkpt lat="45.73101055790195" lon="10.561544030176162"><ele>1365.1999999999998</ele><time>2026-04-18T14:52:33.001Z</time></trkpt><trkpt lat="45.73108754111433" lon="10.561422132859438"><ele>1373.4</ele><time>2026-04-18T14:52:35.001Z</time></trkpt><trkpt lat="45.73114955326916" lon="10.561287889005454"><ele>1381.6</ele><time>2026-04-18T14:52:37.001Z</time></trkpt><trkpt lat="45.73117498843231" lon="10.561165523200094"><ele>1389.8000000000002</ele><time>2026-04-18T14:52:38.001Z</time></trkpt><trkpt lat="45.73122183794924" lon="10.561004210859025"><ele>1398.0</ele><time>2026-04-18T14:52:40.001Z</time></trkpt><trkpt lat="45.73125650091256" lon="10.560812307424147"><ele>1398.0</ele><time>2026-04-18T14:52:42.001Z</time></trkpt><trkpt lat="45.73127722738111" lon="10.56062567189726"><ele>1398.0</ele><time>2026-04-18T14:52:44.001Z</time></trkpt><trkpt lat="45.73127996903389" lon="10.560535113734701"><ele>1398.0</ele><time>2026-04-18T14:52:45.001Z</time></trkpt><trkpt lat="45.73129637742651" lon="10.560410591083368"><ele>1398.0</ele><time>2026-04-18T14:52:46.001Z</time></trkpt><trkpt lat="45.731322642214096" lon="10.560320826319344"><ele>1398.0</ele><time>2026-04-18T14:52:47.001Z</time></trkpt><trkpt lat="45.73134386520034" lon="10.560199016061874"><ele>1398.0</ele><time>2026-04-18T14:52:48.001Z</time></trkpt><trkpt lat="45.73135230049056" lon="10.560100806073871"><ele>1395.6666666666667</ele><time>2026-04-18T14:52:49.001Z</time></trkpt><trkpt lat="45.731368159384374" lon="10.560004191242397"><ele>1393.3333333333333</ele><time>2026-04-18T14:52:50.001Z</time></trkpt><trkpt lat="45.731378244930696" lon="10.559903129861809"><ele>1391.0</ele><time>2026-04-18T14:52:51.001Z</time></trkpt><trkpt lat="45.7313921848481" lon="10.559779289527643"><ele>1388.6666666666665</ele><time>2026-04-18T14:52:52.001Z</time></trkpt><trkpt lat="45.73140190977667" lon="10.559648060652089"><ele>1386.3333333333333</ele><time>2026-04-18T14:52:53.001Z</time></trkpt><trkpt lat="45.73141661327339" lon="10.559544753706659"><ele>1384.0</ele><time>2026-04-18T14:52:54Z</time></trkpt><trkpt lat="45.731489818399474" lon="10.559421803966588"><ele>1384.8000000000002</ele><time>2026-04-18T14:52:56Z</time></trkpt><trkpt lat="45.73157148909705" lon="10.559314833463366"><ele>1385.6000000000001</ele><time>2026-04-18T14:52:58Z</time></trkpt><trkpt lat="45.73166311788589" lon="10.559312294809683"><ele>1386.4</ele><time>2026-04-18T14:52:59Z</time></trkpt><trkpt lat="45.73175892303307" lon="10.559266348609903"><ele>1387.2</ele><time>2026-04-18T14:53:00Z</time></trkpt><trkpt lat="45.73186617595548" lon="10.559216404734764"><ele>1388.0</ele><time>2026-04-18T14:53:01Z</time></trkpt><trkpt lat="45.73196566314098" lon="10.55916411523776"><ele>1388.0</ele><time>2026-04-18T14:53:02Z</time></trkpt><trkpt lat="45.73205965961783" lon="10.559102810789303"><ele>1388.0</ele><time>2026-04-18T14:53:03Z</time></trkpt><trkpt lat="45.73214676441197" lon="10.559041776833379"><ele>1388.0</ele><time>2026-04-18T14:53:04Z</time></trkpt><trkpt lat="45.73221698545849" lon="10.558976189833242"><ele>1388.0</ele><time>2026-04-18T14:53:05Z</time></trkpt><trkpt lat="45.73227698887753" lon="10.558922520011237"><ele>1388.0</ele><time>2026-04-18T14:53:06Z</time></trkpt><trkpt lat="45.732362620417135" lon="10.55885748536102"><ele>1388.0</ele><time>2026-04-18T14:53:08Z</time></trkpt><trkpt lat="45.7324563761462" lon="10.558791589196046"><ele>1388.0</ele><time>2026-04-18T14:53:10Z</time></trkpt><trkpt lat="45.73256485813045" lon="10.55878998158393"><ele>1388.0</ele><time>2026-04-18T14:53:12Z</time></trkpt><trkpt lat="45.73263606940947" lon="10.558801240685987"><ele>1388.0</ele><time>2026-04-18T14:53:13Z</time></trkpt><trkpt lat="45.732751549963716" lon="10.558869232839989"><ele>1388.0</ele><time>2026-04-18T14:53:15Z</time></trkpt><trkpt lat="45.73283004951941" lon="10.558942087785505"><ele>1387.6666666666667</ele><time>2026-04-18T14:53:16Z</time></trkpt><trkpt lat="45.73288953941998" lon="10.55897876569591"><ele>1387.3333333333335</ele><time>2026-04-18T14:53:17Z</time></trkpt><trkpt lat="45.732939662612566" lon="10.55905172358245"><ele>1387.0</ele><time>2026-04-18T14:53:18Z</time></trkpt><trkpt lat="45.733016292559775" lon="10.559131626222932"><ele>1386.6666666666667</ele><time>2026-04-18T14:53:19Z</time></trkpt><trkpt lat="45.73308499584665" lon="10.559213847452176"><ele>1386.3333333333333</ele><time>2026-04-18T14:53:20Z</time></trkpt><trkpt lat="45.73313704962329" lon="10.559303076488346"><ele>1386.0</ele><time>2026-04-18T14:53:21Z</time></trkpt><trkpt lat="45.73317894717112" lon="10.559417464868222"><ele>1386.0</ele><time>2026-04-18T14:53:22Z</time></trkpt><trkpt lat="45.733232877715935" lon="10.559479485195126"><ele>1386.0</ele><time>2026-04-18T14:53:23Z</time></trkpt><trkpt lat="45.73328262041381" lon="10.559536689503977"><ele>1386.0</ele><time>2026-04-18T14:53:24Z</time></trkpt><trkpt lat="45.73337600270569" lon="10.559536212271297"><ele>1386.0</ele><time>2026-04-18T14:53:26Z</time></trkpt><trkpt lat="45.73344778638972" lon="10.559397054678417"><ele>1386.0</ele><time>2026-04-18T14:53:28Z</time></trkpt><trkpt lat="45.73349809387596" lon="10.559284986835342"><ele>1386.0</ele><time>2026-04-18T14:53:29Z</time></trkpt><trkpt lat="45.73355309542713" lon="10.559215807377347"><ele>1386.0</ele><time>2026-04-18T14:53:30Z</time></trkpt><trkpt lat="45.73356823225251" lon="10.559116630623503"><ele>1386.0</ele><time>2026-04-18T14:53:31Z</time></trkpt><trkpt lat="45.733598045158324" lon="10.558978568238604"><ele>1386.0</ele><time>2026-04-18T14:53:33Z</time></trkpt><trkpt lat="45.73354691760079" lon="10.558870564387032"><ele>1386.0</ele><time>2026-04-18T14:53:34Z</time></trkpt><trkpt lat="45.73356619222874" lon="10.558724773915625"><ele>1386.0</ele><time>2026-04-18T14:53:36Z</time></trkpt><trkpt lat="45.73358490310908" lon="10.55862770897704"><ele>1386.0</ele><time>2026-04-18T14:53:37Z</time></trkpt><trkpt lat="45.733611684744304" lon="10.558520394820212"><ele>1387.3333333333333</ele><time>2026-04-18T14:53:38Z</time></trkpt><trkpt lat="45.73364373756724" lon="10.558408378853063"><ele>1388.6666666666667</ele><time>2026-04-18T14:53:39Z</time></trkpt><trkpt lat="45.73367421159543" lon="10.55831438181323"><ele>1390.0</ele><time>2026-04-18T14:53:40Z</time></trkpt><trkpt lat="45.73371240061248" lon="10.558208185594733"><ele>1391.3333333333335</ele><time>2026-04-18T14:53:41Z</time></trkpt><trkpt lat="45.73375176101331" lon="10.558104450913216"><ele>1392.6666666666667</ele><time>2026-04-18T14:53:42Z</time></trkpt><trkpt lat="45.733771625401396" lon="10.558008264974905"><ele>1394.0</ele><time>2026-04-18T14:53:43Z</time></trkpt><trkpt lat="45.733831916190425" lon="10.5579101826685"><ele>1391.4</ele><time>2026-04-18T14:53:45Z</time></trkpt><trkpt lat="45.73390542809717" lon="10.55775362405628"><ele>1388.8000000000002</ele><time>2026-04-18T14:53:47Z</time></trkpt><trkpt lat="45.73393521525838" lon="10.557656561368146"><ele>1386.1999999999998</ele><time>2026-04-18T14:53:48Z</time></trkpt><trkpt lat="45.73398665092207" lon="10.557571699803812"><ele>1383.6</ele><time>2026-04-18T14:53:49Z</time></trkpt><trkpt lat="45.73403135448308" lon="10.557481115512891"><ele>1381.0</ele><time>2026-04-18T14:53:50Z</time></trkpt><trkpt lat="45.73408766795415" lon="10.557366905218382"><ele>1381.0</ele><time>2026-04-18T14:53:51Z</time></trkpt><trkpt lat="45.73413657946956" lon="10.55725907700983"><ele>1381.0</ele><time>2026-04-18T14:53:52Z</time></trkpt><trkpt lat="45.73419228797734" lon="10.557186230403696"><ele>1381.0</ele><time>2026-04-18T14:53:53Z</time></trkpt><trkpt lat="45.73423806576284" lon="10.557111300943136"><ele>1381.0</ele><time>2026-04-18T14:53:54Z</time></trkpt><trkpt lat="45.7342786125522" lon="10.557029178842711"><ele>1381.0</ele><time>2026-04-18T14:53:55Z</time></trkpt><trkpt lat="45.73433539379005" lon="10.556979128031104"><ele>1381.0</ele><time>2026-04-18T14:53:56Z</time></trkpt><trkpt lat="45.73443907494264" lon="10.556896936484922"><ele>1380.8</ele><time>2026-04-18T14:53:58Z</time></trkpt><trkpt lat="45.734537168391" lon="10.556803207279666"><ele>1380.6</ele><time>2026-04-18T14:54:00Z</time></trkpt><trkpt lat="45.73449951339862" lon="10.556656859153493"><ele>1380.4</ele><time>2026-04-18T14:54:01Z</time></trkpt><trkpt lat="45.734529887884115" lon="10.556558357795547"><ele>1380.2</ele><time>2026-04-18T14:54:02Z</time></trkpt><trkpt lat="45.734563213933306" lon="10.556464558019089"><ele>1380.0</ele><time>2026-04-18T14:54:03Z</time></trkpt><trkpt lat="45.73460048429905" lon="10.556361441514143"><ele>1380.0</ele><time>2026-04-18T14:54:04Z</time></trkpt><trkpt lat="45.73463736914335" lon="10.55626260540613"><ele>1380.0</ele><time>2026-04-18T14:54:05Z</time></trkpt><trkpt lat="45.73467774373027" lon="10.556154418214449"><ele>1380.0</ele><time>2026-04-18T14:54:06Z</time></trkpt><trkpt lat="45.73471614969144" lon="10.556049717996864"><ele>1380.0</ele><time>2026-04-18T14:54:07Z</time></trkpt><trkpt lat="45.734753839542535" lon="10.555943452349968"><ele>1380.0</ele><time>2026-04-18T14:54:08Z</time></trkpt><trkpt lat="45.734807129906564" lon="10.555792801740477"><ele>1380.0</ele><time>2026-04-18T14:54:10Z</time></trkpt><trkpt lat="45.734860862427084" lon="10.55559565204762"><ele>1377.5</ele><time>2026-04-18T14:54:12Z</time></trkpt><trkpt lat="45.73489573222249" lon="10.55550108982039"><ele>1375.0</ele><time>2026-04-18T14:54:13Z</time></trkpt><trkpt lat="45.73493191573949" lon="10.555420857764373"><ele>1372.5</ele><time>2026-04-18T14:54:14Z</time></trkpt><trkpt lat="45.73495145654597" lon="10.555282944200505"><ele>1370.0</ele><time>2026-04-18T14:54:15Z</time></trkpt><trkpt lat="45.73497954680422" lon="10.555154968524315"><ele>1367.5</ele><time>2026-04-18T14:54:16Z</time></trkpt><trkpt lat="45.735025751574405" lon="10.555046092112628"><ele>1365.0</ele><time>2026-04-18T14:54:17Z</time></trkpt><trkpt lat="45.73506994470058" lon="10.554922065488928"><ele>1361.8</ele><time>2026-04-18T14:54:18Z</time></trkpt><trkpt lat="45.735120795663626" lon="10.554783806011779"><ele>1358.6</ele><time>2026-04-18T14:54:19Z</time></trkpt><trkpt lat="45.735153662248685" lon="10.554654365809384"><ele>1355.4</ele><time>2026-04-18T14:54:20Z</time></trkpt><trkpt lat="45.73521320403653" lon="10.554553718715662"><ele>1352.2</ele><time>2026-04-18T14:54:21Z</time></trkpt><trkpt lat="45.73526444073022" lon="10.554448549208574"><ele>1349.0</ele><time>2026-04-18T14:54:22Z</time></trkpt><trkpt lat="45.73531707476279" lon="10.55435297991462"><ele>1345.0</ele><time>2026-04-18T14:54:23.001Z</time></trkpt><trkpt lat="45.73537021777719" lon="10.554233185835297"><ele>1341.0</ele><time>2026-04-18T14:54:24.001Z</time></trkpt><trkpt lat="45.73542883464597" lon="10.554127416985683"><ele>1337.0</ele><time>2026-04-18T14:54:25.001Z</time></trkpt><trkpt lat="45.73548364871173" lon="10.554017971471142"><ele>1333.0</ele><time>2026-04-18T14:54:26.001Z</time></trkpt><trkpt lat="45.735532566545366" lon="10.553919249847757"><ele>1329.0</ele><time>2026-04-18T14:54:27.001Z</time></trkpt><trkpt lat="45.735578607255825" lon="10.553807031719925"><ele>1329.5</ele><time>2026-04-18T14:54:28.001Z</time></trkpt><trkpt lat="45.73559901055207" lon="10.553683370889491"><ele>1330.0</ele><time>2026-04-18T14:54:29.001Z</time></trkpt><trkpt lat="45.73561428514645" lon="10.55356294096742"><ele>1330.5</ele><time>2026-04-18T14:54:30.001Z</time></trkpt><trkpt lat="45.73564018058933" lon="10.55345268433118"><ele>1331.0</ele><time>2026-04-18T14:54:31.001Z</time></trkpt><trkpt lat="45.73566945128502" lon="10.553355888279626"><ele>1331.5</ele><time>2026-04-18T14:54:32.001Z</time></trkpt><trkpt lat="45.73568187406771" lon="10.553248426999055"><ele>1332.0</ele><time>2026-04-18T14:54:33.001Z</time></trkpt><trkpt lat="45.735722584049135" lon="10.553163895289979"><ele>1332.0</ele><time>2026-04-18T14:54:34.001Z</time></trkpt><trkpt lat="45.7357848594676" lon="10.553108616567636"><ele>1332.0</ele><time>2026-04-18T14:54:35.001Z</time></trkpt><trkpt lat="45.73584962335349" lon="10.553028752130404"><ele>1332.0</ele><time>2026-04-18T14:54:37.001Z</time></trkpt><trkpt lat="45.735931060253826" lon="10.552999055104397"><ele>1332.0</ele><time>2026-04-18T14:54:38.001Z</time></trkpt><trkpt lat="45.735982493653175" lon="10.55293809276384"><ele>1332.0</ele><time>2026-04-18T14:54:42.001Z</time></trkpt><trkpt lat="45.73602221604991" lon="10.55278845487714"><ele>1332.0</ele><time>2026-04-18T14:54:44.001Z</time></trkpt><trkpt lat="45.73605388429859" lon="10.552703326237385"><ele>1331.6666666666667</ele><time>2026-04-18T14:54:45.001Z</time></trkpt><trkpt lat="45.73612743643017" lon="10.55256935204814"><ele>1331.3333333333333</ele><time>2026-04-18T14:54:47.001Z</time></trkpt><trkpt lat="45.736175072196374" lon="10.552495206348311"><ele>1331.0</ele><time>2026-04-18T14:54:48.001Z</time></trkpt><trkpt lat="45.73622944426077" lon="10.552436418855619"><ele>1330.6666666666665</ele><time>2026-04-18T14:54:49.001Z</time></trkpt><trkpt lat="45.736283756752826" lon="10.55238788244945"><ele>1330.3333333333333</ele><time>2026-04-18T14:54:50.001Z</time></trkpt><trkpt lat="45.73632495410996" lon="10.552319034109267"><ele>1330.0</ele><time>2026-04-18T14:54:51.001Z</time></trkpt><trkpt lat="45.73636928711419" lon="10.55224064100585"><ele>1330.0</ele><time>2026-04-18T14:54:52.001Z</time></trkpt><trkpt lat="45.73640910804761" lon="10.552160904530423"><ele>1330.0</ele><time>2026-04-18T14:54:53.001Z</time></trkpt><trkpt lat="45.736445200898544" lon="10.552083154206159"><ele>1330.0</ele><time>2026-04-18T14:54:54.001Z</time></trkpt><trkpt lat="45.7365454123489" lon="10.551967236315992"><ele>1330.0</ele><time>2026-04-18T14:54:56.001Z</time></trkpt><trkpt lat="45.73660870963416" lon="10.55194556786323"><ele>1330.0</ele><time>2026-04-18T14:54:57.001Z</time></trkpt><trkpt lat="45.73667241428987" lon="10.551883232236241"><ele>1330.0</ele><time>2026-04-18T14:54:58.001Z</time></trkpt><trkpt lat="45.73674074502244" lon="10.551861257438057"><ele>1330.1666666666665</ele><time>2026-04-18T14:54:59.001Z</time></trkpt><trkpt lat="45.73680627709094" lon="10.55183233775271"><ele>1330.3333333333333</ele><time>2026-04-18T14:55:00Z</time></trkpt><trkpt lat="45.736839951660066" lon="10.551682823994678"><ele>1330.5</ele><time>2026-04-18T14:55:02Z</time></trkpt><trkpt lat="45.73682772508069" lon="10.551557644278994"><ele>1330.6666666666667</ele><time>2026-04-18T14:55:03Z</time></trkpt><trkpt lat="45.736806903514626" lon="10.551438386701369"><ele>1330.8333333333335</ele><time>2026-04-18T14:55:04Z</time></trkpt><trkpt lat="45.73679108337105" lon="10.551314746902186"><ele>1331.0</ele><time>2026-04-18T14:55:05Z</time></trkpt><trkpt lat="45.73677272952771" lon="10.551192721037676"><ele>1331.0</ele><time>2026-04-18T14:55:06Z</time></trkpt><trkpt lat="45.736767882551995" lon="10.551072946249558"><ele>1331.0</ele><time>2026-04-18T14:55:07Z</time></trkpt><trkpt lat="45.736797120409946" lon="10.550970505134135"><ele>1331.0</ele><time>2026-04-18T14:55:08Z</time></trkpt><trkpt lat="45.73681254615315" lon="10.550858969390855"><ele>1331.0</ele><time>2026-04-18T14:55:09Z</time></trkpt><trkpt lat="45.736830970337444" lon="10.55075675211582"><ele>1331.0</ele><time>2026-04-18T14:55:10Z</time></trkpt><trkpt lat="45.73685936126151" lon="10.550587853893795"><ele>1331.0</ele><time>2026-04-18T14:55:12Z</time></trkpt><trkpt lat="45.736851583253085" lon="10.550485563045571"><ele>1331.0</ele><time>2026-04-18T14:55:13Z</time></trkpt><trkpt lat="45.73680758337072" lon="10.55029611796109"><ele>1331.0</ele><time>2026-04-18T14:55:15Z</time></trkpt><trkpt lat="45.736770774868155" lon="10.55019117094306"><ele>1331.0</ele><time>2026-04-18T14:55:16Z</time></trkpt><trkpt lat="45.73674929352861" lon="10.550088790467745"><ele>1331.0</ele><time>2026-04-18T14:55:17Z</time></trkpt><trkpt lat="45.736728548366486" lon="10.549958904860764"><ele>1331.0</ele><time>2026-04-18T14:55:18Z</time></trkpt><trkpt lat="45.73671733715615" lon="10.549833754244213"><ele>1331.0</ele><time>2026-04-18T14:55:19Z</time></trkpt><trkpt lat="45.736709056128355" lon="10.54973282549994"><ele>1331.0</ele><time>2026-04-18T14:55:20Z</time></trkpt><trkpt lat="45.73668541211203" lon="10.549612616986204"><ele>1331.0</ele><time>2026-04-18T14:55:21Z</time></trkpt><trkpt lat="45.736657577109185" lon="10.549499230736927"><ele>1331.0</ele><time>2026-04-18T14:55:22Z</time></trkpt><trkpt lat="45.736624733403815" lon="10.549377923943005"><ele>1331.0</ele><time>2026-04-18T14:55:23Z</time></trkpt><trkpt lat="45.73659604793091" lon="10.549254814128277"><ele>1331.0</ele><time>2026-04-18T14:55:24Z</time></trkpt><trkpt lat="45.73656854127249" lon="10.549147368155925"><ele>1332.1999999999998</ele><time>2026-04-18T14:55:25Z</time></trkpt><trkpt lat="45.73654009844789" lon="10.549048750422575"><ele>1333.3999999999999</ele><time>2026-04-18T14:55:26Z</time></trkpt><trkpt lat="45.73650756275781" lon="10.548954603280118"><ele>1334.6</ele><time>2026-04-18T14:55:27Z</time></trkpt><trkpt lat="45.736439260796345" lon="10.548909137696288"><ele>1335.8</ele><time>2026-04-18T14:55:28Z</time></trkpt><trkpt lat="45.736318544902645" lon="10.548793547252627"><ele>1337.0</ele><time>2026-04-18T14:55:30Z</time></trkpt><trkpt lat="45.7362906380124" lon="10.548661341025028"><ele>1338.3999999999999</ele><time>2026-04-18T14:55:32Z</time></trkpt><trkpt lat="45.736269757376704" lon="10.548515570633686"><ele>1339.8</ele><time>2026-04-18T14:55:34Z</time></trkpt><trkpt lat="45.73624190139736" lon="10.548412055949724"><ele>1341.2</ele><time>2026-04-18T14:55:36Z</time></trkpt><trkpt lat="45.73621112501793" lon="10.548284671468622"><ele>1342.6</ele><time>2026-04-18T14:55:38Z</time></trkpt><trkpt lat="45.73615427387012" lon="10.548222863311778"><ele>1344.0</ele><time>2026-04-18T14:55:41Z</time></trkpt><trkpt lat="45.73596045949157" lon="10.548648755356187"><ele>1339.5</ele><time>2026-04-18T14:55:45Z</time></trkpt><trkpt lat="45.73589675261205" lon="10.548685118165263"><ele>1335.0</ele><time>2026-04-18T14:55:46Z</time></trkpt><trkpt lat="45.73581989547628" lon="10.548714392775977"><ele>1330.5</ele><time>2026-04-18T14:55:48Z</time></trkpt><trkpt lat="45.73575629728877" lon="10.548739494153711"><ele>1326.0</ele><time>2026-04-18T14:55:49Z</time></trkpt><trkpt lat="45.73568980137047" lon="10.548885006753995"><ele>1321.5</ele><time>2026-04-18T14:55:51Z</time></trkpt><trkpt lat="45.73565358423608" lon="10.548965415328402"><ele>1317.0</ele><time>2026-04-18T14:55:52Z</time></trkpt><trkpt lat="45.73561624610511" lon="10.549047047315351"><ele>1315.6666666666667</ele><time>2026-04-18T14:55:53Z</time></trkpt><trkpt lat="45.735583122009466" lon="10.54912570243005"><ele>1314.3333333333333</ele><time>2026-04-18T14:55:54Z</time></trkpt><trkpt lat="45.735566838020695" lon="10.549223999503683"><ele>1313.0</ele><time>2026-04-18T14:55:55Z</time></trkpt><trkpt lat="45.73556367506317" lon="10.549325810978912"><ele>1311.6666666666665</ele><time>2026-04-18T14:55:56Z</time></trkpt><trkpt lat="45.73557414261681" lon="10.549424095501982"><ele>1310.3333333333333</ele><time>2026-04-18T14:55:57Z</time></trkpt><trkpt lat="45.73558567798751" lon="10.549530294436964"><ele>1309.0</ele><time>2026-04-18T14:55:58Z</time></trkpt><trkpt lat="45.73559279054033" lon="10.549693486891888"><ele>1307.6666666666665</ele><time>2026-04-18T14:56:00Z</time></trkpt><trkpt lat="45.73561517720295" lon="10.549857176914909"><ele>1306.3333333333333</ele><time>2026-04-18T14:56:02Z</time></trkpt><trkpt lat="45.735623695200644" lon="10.549952273589485"><ele>1305.0</ele><time>2026-04-18T14:56:03Z</time></trkpt><trkpt lat="45.73561951340579" lon="10.550044573963964"><ele>1303.6666666666667</ele><time>2026-04-18T14:56:04Z</time></trkpt><trkpt lat="45.73560881613009" lon="10.550143183263376"><ele>1302.3333333333335</ele><time>2026-04-18T14:56:05Z</time></trkpt><trkpt lat="45.735597692022985" lon="10.550233472019919"><ele>1301.0</ele><time>2026-04-18T14:56:06Z</time></trkpt><trkpt lat="45.73558378444101" lon="10.550342936466759"><ele>1300.6666666666667</ele><time>2026-04-18T14:56:07Z</time></trkpt><trkpt lat="45.735570767859095" lon="10.550431730112741"><ele>1300.3333333333335</ele><time>2026-04-18T14:56:08Z</time></trkpt><trkpt lat="45.73555142348623" lon="10.550534757523968"><ele>1300.0</ele><time>2026-04-18T14:56:09Z</time></trkpt><trkpt lat="45.73549954272338" lon="10.550676368701652"><ele>1299.6666666666667</ele><time>2026-04-18T14:56:11Z</time></trkpt><trkpt lat="45.73545939657838" lon="10.550757268571765"><ele>1299.3333333333333</ele><time>2026-04-18T14:56:13Z</time></trkpt><trkpt lat="45.735414289634164" lon="10.550645622793757"><ele>1299.0</ele><time>2026-04-18T14:56:17Z</time></trkpt><trkpt lat="45.735377970400165" lon="10.550558482703222"><ele>1299.0</ele><time>2026-04-18T14:56:19Z</time></trkpt><trkpt lat="45.735326852150116" lon="10.550429201846542"><ele>1299.0</ele><time>2026-04-18T14:56:22Z</time></trkpt><trkpt lat="45.735287604785434" lon="10.550328912350517"><ele>1299.0</ele><time>2026-04-18T14:56:25Z</time></trkpt><trkpt lat="45.73522462499967" lon="10.550196364007359"><ele>1299.0</ele><time>2026-04-18T14:56:28.001Z</time></trkpt><trkpt lat="45.735179483622616" lon="10.550123227379576"><ele>1299.0</ele><time>2026-04-18T14:56:29.001Z</time></trkpt><trkpt lat="45.73513124886791" lon="10.550036743062671"><ele>1299.0</ele><time>2026-04-18T14:56:30.001Z</time></trkpt><trkpt lat="45.7350897785558" lon="10.549934691940663"><ele>1295.5</ele><time>2026-04-18T14:56:31.001Z</time></trkpt><trkpt lat="45.735067172147765" lon="10.5498333267365"><ele>1292.0</ele><time>2026-04-18T14:56:32.001Z</time></trkpt><trkpt lat="45.735027405130595" lon="10.549711972191888"><ele>1288.5</ele><time>2026-04-18T14:56:33.001Z</time></trkpt><trkpt lat="45.73498638707547" lon="10.549597845566435"><ele>1285.0</ele><time>2026-04-18T14:56:34.001Z</time></trkpt><trkpt lat="45.73494939169438" lon="10.549483338789925"><ele>1281.5</ele><time>2026-04-18T14:56:35.001Z</time></trkpt><trkpt lat="45.73492608030421" lon="10.549376683343613"><ele>1278.0</ele><time>2026-04-18T14:56:36.001Z</time></trkpt><trkpt lat="45.734910645007815" lon="10.549279979733715"><ele>1278.0</ele><time>2026-04-18T14:56:37.001Z</time></trkpt><trkpt lat="45.73492696770662" lon="10.549165392899669"><ele>1278.0</ele><time>2026-04-18T14:56:38.001Z</time></trkpt><trkpt lat="45.734912691023204" lon="10.549057935914098"><ele>1278.0</ele><time>2026-04-18T14:56:39.001Z</time></trkpt><trkpt lat="45.734909136685125" lon="10.548946814219894"><ele>1278.0</ele><time>2026-04-18T14:56:40.001Z</time></trkpt><trkpt lat="45.7348857272053" lon="10.548845232717644"><ele>1278.0</ele><time>2026-04-18T14:56:41.001Z</time></trkpt><trkpt lat="45.734846092609494" lon="10.548738335066187"><ele>1278.0</ele><time>2026-04-18T14:56:42.001Z</time></trkpt><trkpt lat="45.73480184205858" lon="10.548650716831697"><ele>1279.8333333333333</ele><time>2026-04-18T14:56:43.001Z</time></trkpt><trkpt lat="45.734749332872106" lon="10.548554095213081"><ele>1281.6666666666667</ele><time>2026-04-18T14:56:44.001Z</time></trkpt><trkpt lat="45.734692259336995" lon="10.548461550882719"><ele>1283.5</ele><time>2026-04-18T14:56:45.001Z</time></trkpt><trkpt lat="45.734629622033005" lon="10.548391062903752"><ele>1285.3333333333335</ele><time>2026-04-18T14:56:46.001Z</time></trkpt><trkpt lat="45.734538082405614" lon="10.548366497224585"><ele>1287.1666666666667</ele><time>2026-04-18T14:56:47.001Z</time></trkpt><trkpt lat="45.734461702517464" lon="10.548354548529518"><ele>1289.0</ele><time>2026-04-18T14:56:48.001Z</time></trkpt><trkpt lat="45.73437512937408" lon="10.548364986914025"><ele>1284.6666666666667</ele><time>2026-04-18T14:56:49.001Z</time></trkpt><trkpt lat="45.73429391079657" lon="10.548390370601428"><ele>1280.3333333333335</ele><time>2026-04-18T14:56:50.001Z</time></trkpt><trkpt lat="45.73421603938146" lon="10.548391815358936"><ele>1276.0</ele><time>2026-04-18T14:56:51.001Z</time></trkpt><trkpt lat="45.734152157199844" lon="10.548386479982511"><ele>1271.6666666666667</ele><time>2026-04-18T14:56:52.001Z</time></trkpt><trkpt lat="45.73410156272768" lon="10.5483212285945"><ele>1267.3333333333333</ele><time>2026-04-18T14:56:53.001Z</time></trkpt><trkpt lat="45.734056665200825" lon="10.548227539479939"><ele>1263.0</ele><time>2026-04-18T14:56:54.001Z</time></trkpt><trkpt lat="45.734018655635225" lon="10.548106151616148"><ele>1263.0</ele><time>2026-04-18T14:56:55.001Z</time></trkpt><trkpt lat="45.733995065483484" lon="10.54797479771598"><ele>1263.0</ele><time>2026-04-18T14:56:56.001Z</time></trkpt><trkpt lat="45.73397083954154" lon="10.547842460007521"><ele>1263.0</ele><time>2026-04-18T14:56:57.001Z</time></trkpt><trkpt lat="45.73394034758702" lon="10.547728669774381"><ele>1263.0</ele><time>2026-04-18T14:56:58.001Z</time></trkpt><trkpt lat="45.7338920898422" lon="10.547626228712195"><ele>1263.0</ele><time>2026-04-18T14:56:59.001Z</time></trkpt><trkpt lat="45.7338321654904" lon="10.54752524158847"><ele>1264.3333333333333</ele><time>2026-04-18T14:57:00.001Z</time></trkpt><trkpt lat="45.73377879793458" lon="10.54743554748365"><ele>1265.6666666666667</ele><time>2026-04-18T14:57:01.001Z</time></trkpt><trkpt lat="45.7337704444549" lon="10.547342904909002"><ele>1267.0</ele><time>2026-04-18T14:57:02.001Z</time></trkpt><trkpt lat="45.733785341665794" lon="10.54723369409246"><ele>1268.3333333333335</ele><time>2026-04-18T14:57:03.001Z</time></trkpt><trkpt lat="45.7337969644923" lon="10.54711311833954"><ele>1269.6666666666667</ele><time>2026-04-18T14:57:04.001Z</time></trkpt><trkpt lat="45.733789065405134" lon="10.546974112199885"><ele>1271.0</ele><time>2026-04-18T14:57:05.001Z</time></trkpt><trkpt lat="45.73380843326228" lon="10.546841066182125"><ele>1271.1666666666667</ele><time>2026-04-18T14:57:06Z</time></trkpt><trkpt lat="45.733820658173705" lon="10.546725889210734"><ele>1271.3333333333335</ele><time>2026-04-18T14:57:07Z</time></trkpt><trkpt lat="45.73383970526807" lon="10.546600760260036"><ele>1271.5</ele><time>2026-04-18T14:57:08Z</time></trkpt><trkpt lat="45.73386041965952" lon="10.546479876761415"><ele>1271.6666666666667</ele><time>2026-04-18T14:57:09Z</time></trkpt><trkpt lat="45.733881115565886" lon="10.546368757331532"><ele>1271.8333333333333</ele><time>2026-04-18T14:57:10Z</time></trkpt><trkpt lat="45.73390262418593" lon="10.546252051058316"><ele>1272.0</ele><time>2026-04-18T14:57:11Z</time></trkpt><trkpt lat="45.73391162549363" lon="10.546123027734136"><ele>1271.6</ele><time>2026-04-18T14:57:12Z</time></trkpt><trkpt lat="45.733940196839946" lon="10.545999256564135"><ele>1271.2</ele><time>2026-04-18T14:57:13Z</time></trkpt><trkpt lat="45.733958479317224" lon="10.545891982954377"><ele>1270.8</ele><time>2026-04-18T14:57:14Z</time></trkpt><trkpt lat="45.73395566696445" lon="10.545790118032725"><ele>1270.4</ele><time>2026-04-18T14:57:15Z</time></trkpt><trkpt lat="45.73386841472212" lon="10.5456537364627"><ele>1270.0</ele><time>2026-04-18T14:57:18Z</time></trkpt><trkpt lat="45.73372259168275" lon="10.545637952188624"><ele>1270.0</ele><time>2026-04-18T14:57:20Z</time></trkpt><trkpt lat="45.73365670871596" lon="10.545573343576805"><ele>1270.0</ele><time>2026-04-18T14:57:21Z</time></trkpt><trkpt lat="45.73355680264913" lon="10.545550710349449"><ele>1270.0</ele><time>2026-04-18T14:57:22Z</time></trkpt><trkpt lat="45.733483951505335" lon="10.545539002088592"><ele>1270.0</ele><time>2026-04-18T14:57:23Z</time></trkpt><trkpt lat="45.733414278015395" lon="10.545706706499109"><ele>1270.0</ele><time>2026-04-18T14:57:24Z</time></trkpt><trkpt lat="45.73332429586856" lon="10.545761539941294"><ele>1268.6666666666665</ele><time>2026-04-18T14:57:25Z</time></trkpt><trkpt lat="45.733245139868664" lon="10.545780789297279"><ele>1267.3333333333333</ele><time>2026-04-18T14:57:26Z</time></trkpt><trkpt lat="45.733164372074874" lon="10.545788760049815"><ele>1266.0</ele><time>2026-04-18T14:57:27Z</time></trkpt><trkpt lat="45.733085254112275" lon="10.545807698214082"><ele>1264.6666666666667</ele><time>2026-04-18T14:57:28Z</time></trkpt><trkpt lat="45.73300030610709" lon="10.54582186800373"><ele>1263.3333333333335</ele><time>2026-04-18T14:57:29Z</time></trkpt><trkpt lat="45.73291048717425" lon="10.545852230264046"><ele>1262.0</ele><time>2026-04-18T14:57:30Z</time></trkpt><trkpt lat="45.73281306261307" lon="10.545862645746082"><ele>1262.2</ele><time>2026-04-18T14:57:32Z</time></trkpt><trkpt lat="45.73267431587061" lon="10.545869281604881"><ele>1262.4</ele><time>2026-04-18T14:57:34Z</time></trkpt><trkpt lat="45.732579169646606" lon="10.54585990777545"><ele>1262.6</ele><time>2026-04-18T14:57:35Z</time></trkpt><trkpt lat="45.73248654602411" lon="10.545821139770108"><ele>1262.8</ele><time>2026-04-18T14:57:36Z</time></trkpt><trkpt lat="45.7324023594953" lon="10.545760296125465"><ele>1263.0</ele><time>2026-04-18T14:57:37Z</time></trkpt><trkpt lat="45.73231436795406" lon="10.545673712824874"><ele>1263.0</ele><time>2026-04-18T14:57:38Z</time></trkpt><trkpt lat="45.73225229399609" lon="10.545585739076634"><ele>1263.0</ele><time>2026-04-18T14:57:39Z</time></trkpt><trkpt lat="45.7321937901767" lon="10.545458621478284"><ele>1263.0</ele><time>2026-04-18T14:57:40Z</time></trkpt><trkpt lat="45.7321243774642" lon="10.545350881281244"><ele>1263.0</ele><time>2026-04-18T14:57:41Z</time></trkpt><trkpt lat="45.73207545111559" lon="10.545232552029356"><ele>1263.0</ele><time>2026-04-18T14:57:42Z</time></trkpt><trkpt lat="45.7320138750104" lon="10.5451560412231"><ele>1261.8333333333333</ele><time>2026-04-18T14:57:43Z</time></trkpt><trkpt lat="45.7319275448236" lon="10.54511679414174"><ele>1260.6666666666667</ele><time>2026-04-18T14:57:44Z</time></trkpt><trkpt lat="45.73185742572045" lon="10.545092729541519"><ele>1259.5</ele><time>2026-04-18T14:57:45Z</time></trkpt><trkpt lat="45.73178446521864" lon="10.545052046219583"><ele>1258.3333333333335</ele><time>2026-04-18T14:57:46Z</time></trkpt><trkpt lat="45.73171246157228" lon="10.545002410735696"><ele>1257.1666666666667</ele><time>2026-04-18T14:57:47Z</time></trkpt><trkpt lat="45.73166338182227" lon="10.544915701777814"><ele>1256.0</ele><time>2026-04-18T14:57:48Z</time></trkpt><trkpt lat="45.73160792436087" lon="10.544858406977829"><ele>1256.0</ele><time>2026-04-18T14:57:49Z</time></trkpt><trkpt lat="45.73155823091253" lon="10.544798917721499"><ele>1256.0</ele><time>2026-04-18T14:57:50Z</time></trkpt><trkpt lat="45.731497508645106" lon="10.544762914205949"><ele>1256.0</ele><time>2026-04-18T14:57:51Z</time></trkpt><trkpt lat="45.73140308789088" lon="10.544679328712691"><ele>1256.0</ele><time>2026-04-18T14:57:53Z</time></trkpt><trkpt lat="45.731284069321696" lon="10.54456750117155"><ele>1256.0</ele><time>2026-04-18T14:57:55Z</time></trkpt><trkpt lat="45.73121154689565" lon="10.544505710175148"><ele>1255.2</ele><time>2026-04-18T14:57:56Z</time></trkpt><trkpt lat="45.73109473810524" lon="10.54443676241559"><ele>1254.3999999999999</ele><time>2026-04-18T14:57:57Z</time></trkpt><trkpt lat="45.7310144715664" lon="10.54432705518837"><ele>1253.6</ele><time>2026-04-18T14:57:58Z</time></trkpt><trkpt lat="45.730955384630484" lon="10.544237403893336"><ele>1252.8</ele><time>2026-04-18T14:57:59Z</time></trkpt><trkpt lat="45.730884659417285" lon="10.544149383201251"><ele>1252.0</ele><time>2026-04-18T14:58:01Z</time></trkpt><trkpt lat="45.73079719000357" lon="10.544046888443136"><ele>1252.0</ele><time>2026-04-18T14:58:03Z</time></trkpt><trkpt lat="45.73074405920435" lon="10.543980182371417"><ele>1252.0</ele><time>2026-04-18T14:58:04Z</time></trkpt><trkpt lat="45.730690337244944" lon="10.543913591924557"><ele>1252.0</ele><time>2026-04-18T14:58:05Z</time></trkpt><trkpt lat="45.730632707118765" lon="10.543843326105431"><ele>1252.0</ele><time>2026-04-18T14:58:06Z</time></trkpt><trkpt lat="45.73053257505518" lon="10.54376335452028"><ele>1252.0</ele><time>2026-04-18T14:58:08Z</time></trkpt><trkpt lat="45.73046395101585" lon="10.543702886369916"><ele>1252.0</ele><time>2026-04-18T14:58:09Z</time></trkpt><trkpt lat="45.73038292063442" lon="10.543697192227746"><ele>1264.0</ele><time>2026-04-18T14:58:11Z</time></trkpt><trkpt lat="45.73054119322004" lon="10.54295482706922"><ele>1264.6000000000001</ele><time>2026-04-18T14:58:14Z</time></trkpt><trkpt lat="45.73059933554211" lon="10.54282968359907"><ele>1265.2</ele><time>2026-04-18T14:58:16Z</time></trkpt><trkpt lat="45.73062993738264" lon="10.542653545752051"><ele>1265.8000000000002</ele><time>2026-04-18T14:58:18Z</time></trkpt><trkpt lat="45.730615581125804" lon="10.542517307736032"><ele>1266.4</ele><time>2026-04-18T14:58:19Z</time></trkpt><trkpt lat="45.73058674852359" lon="10.542412724329383"><ele>1267.0</ele><time>2026-04-18T14:58:20Z</time></trkpt><trkpt lat="45.730563190423204" lon="10.542305596033195"><ele>1267.0</ele><time>2026-04-18T14:58:21Z</time></trkpt><trkpt lat="45.73057375688713" lon="10.54221475479145"><ele>1267.0</ele><time>2026-04-18T14:58:22Z</time></trkpt><trkpt lat="45.730578340551986" lon="10.542111732876887"><ele>1267.0</ele><time>2026-04-18T14:58:23Z</time></trkpt><trkpt lat="45.730590625206375" lon="10.541998163194432"><ele>1267.0</ele><time>2026-04-18T14:58:24Z</time></trkpt><trkpt lat="45.730618904658755" lon="10.54188336781275"><ele>1267.0</ele><time>2026-04-18T14:58:25Z</time></trkpt><trkpt lat="45.73063718773327" lon="10.541768709221175"><ele>1267.0</ele><time>2026-04-18T14:58:26Z</time></trkpt><trkpt lat="45.73062853985178" lon="10.541628309424453"><ele>1266.3333333333333</ele><time>2026-04-18T14:58:27Z</time></trkpt><trkpt lat="45.730628752747386" lon="10.541507745753464"><ele>1265.6666666666665</ele><time>2026-04-18T14:58:28Z</time></trkpt><trkpt lat="45.73063793574817" lon="10.541387777956587"><ele>1265.0</ele><time>2026-04-18T14:58:29Z</time></trkpt><trkpt lat="45.73062946227283" lon="10.54127379282617"><ele>1264.3333333333333</ele><time>2026-04-18T14:58:30Z</time></trkpt><trkpt lat="45.73061735793299" lon="10.541161325804298"><ele>1263.6666666666667</ele><time>2026-04-18T14:58:31Z</time></trkpt><trkpt lat="45.7306038544719" lon="10.541039886908866"><ele>1263.0</ele><time>2026-04-18T14:58:32Z</time></trkpt><trkpt lat="45.73060521595229" lon="10.540930964761392"><ele>1262.4</ele><time>2026-04-18T14:58:33.001Z</time></trkpt><trkpt lat="45.73059389299194" lon="10.540759333560455"><ele>1261.8</ele><time>2026-04-18T14:58:35.001Z</time></trkpt><trkpt lat="45.730567405319405" lon="10.540590505154189"><ele>1261.2</ele><time>2026-04-18T14:58:37.001Z</time></trkpt><trkpt lat="45.73057191629526" lon="10.540493461927527"><ele>1260.6</ele><time>2026-04-18T14:58:38.001Z</time></trkpt><trkpt lat="45.73065120922203" lon="10.540336564380985"><ele>1260.0</ele><time>2026-04-18T14:58:40.001Z</time></trkpt><trkpt lat="45.73071826405243" lon="10.540257028258853"><ele>1257.5</ele><time>2026-04-18T14:58:41.001Z</time></trkpt><trkpt lat="45.7307615518016" lon="10.540179657394935"><ele>1255.0</ele><time>2026-04-18T14:58:42.001Z</time></trkpt><trkpt lat="45.73080144319915" lon="10.540074617540757"><ele>1252.5</ele><time>2026-04-18T14:58:43.001Z</time></trkpt><trkpt lat="45.73082998641866" lon="10.539950986406504"><ele>1250.0</ele><time>2026-04-18T14:58:44.001Z</time></trkpt><trkpt lat="45.73086544076438" lon="10.539871223335512"><ele>1247.5</ele><time>2026-04-18T14:58:45.001Z</time></trkpt><trkpt lat="45.73090129013262" lon="10.539691790397706"><ele>1245.0</ele><time>2026-04-18T14:58:47.001Z</time></trkpt><trkpt lat="45.73093202249647" lon="10.539566576176862"><ele>1245.0</ele><time>2026-04-18T14:58:48.001Z</time></trkpt><trkpt lat="45.73096084346734" lon="10.539457923785656"><ele>1245.0</ele><time>2026-04-18T14:58:49.001Z</time></trkpt><trkpt lat="45.730994786273136" lon="10.53930401025318"><ele>1245.0</ele><time>2026-04-18T14:58:51.001Z</time></trkpt><trkpt lat="45.73106385239834" lon="10.539197557295232"><ele>1245.0</ele><time>2026-04-18T14:58:53.001Z</time></trkpt><trkpt lat="45.73112284382842" lon="10.53914137610125"><ele>1245.0</ele><time>2026-04-18T14:58:54.001Z</time></trkpt><trkpt lat="45.73118628927357" lon="10.53907712566366"><ele>1245.0</ele><time>2026-04-18T14:58:55.001Z</time></trkpt><trkpt lat="45.73125324358977" lon="10.539028767678383"><ele>1245.0</ele><time>2026-04-18T14:58:56.001Z</time></trkpt><trkpt lat="45.73131572965542" lon="10.538965205153819"><ele>1245.0</ele><time>2026-04-18T14:58:57.001Z</time></trkpt><trkpt lat="45.73138616766085" lon="10.538900476988701"><ele>1245.0</ele><time>2026-04-18T14:58:58.001Z</time></trkpt><trkpt lat="45.7314424629296" lon="10.538850205607664"><ele>1245.0</ele><time>2026-04-18T14:58:59.001Z</time></trkpt><trkpt lat="45.73152725082496" lon="10.538767648097926"><ele>1245.0</ele><time>2026-04-18T14:59:01.001Z</time></trkpt><trkpt lat="45.731594577838536" lon="10.538764585940946"><ele>1245.0</ele><time>2026-04-18T14:59:02.001Z</time></trkpt><trkpt lat="45.73171418861154" lon="10.538738693802523"><ele>1238.0</ele><time>2026-04-18T14:59:04.001Z</time></trkpt><trkpt lat="45.731853468590536" lon="10.538695375692566"><ele>1231.0</ele><time>2026-04-18T14:59:06.001Z</time></trkpt><trkpt lat="45.73193025391325" lon="10.53870470426035"><ele>1224.0</ele><time>2026-04-18T14:59:07.001Z</time></trkpt><trkpt lat="45.731996161692095" lon="10.538682306997938"><ele>1217.0</ele><time>2026-04-18T14:59:08.001Z</time></trkpt><trkpt lat="45.73206887623138" lon="10.538701225173279"><ele>1210.0</ele><time>2026-04-18T14:59:09.001Z</time></trkpt><trkpt lat="45.73214835373119" lon="10.538636290600518"><ele>1210.0</ele><time>2026-04-18T14:59:10.001Z</time></trkpt><trkpt lat="45.732234866910936" lon="10.538632932415315"><ele>1210.0</ele><time>2026-04-18T14:59:11.001Z</time></trkpt><trkpt lat="45.7323348483412" lon="10.538607249224434"><ele>1210.0</ele><time>2026-04-18T14:59:12Z</time></trkpt><trkpt lat="45.732421516988914" lon="10.538615477186227"><ele>1210.0</ele><time>2026-04-18T14:59:13Z</time></trkpt><trkpt lat="45.732499725867285" lon="10.538578764763887"><ele>1210.0</ele><time>2026-04-18T14:59:14Z</time></trkpt><trkpt lat="45.7325944842863" lon="10.538587458402194"><ele>1210.0</ele><time>2026-04-18T14:59:15Z</time></trkpt><trkpt lat="45.732673804321244" lon="10.538556415696577"><ele>1210.0</ele><time>2026-04-18T14:59:16Z</time></trkpt><trkpt lat="45.73274368372812" lon="10.53852984013119"><ele>1210.0</ele><time>2026-04-18T14:59:17Z</time></trkpt><trkpt lat="45.73282925531387" lon="10.53848245065956"><ele>1210.0</ele><time>2026-04-18T14:59:18Z</time></trkpt><trkpt lat="45.7328950877189" lon="10.538458561504875"><ele>1210.0</ele><time>2026-04-18T14:59:19Z</time></trkpt><trkpt lat="45.73293202902317" lon="10.538316552925243"><ele>1210.0</ele><time>2026-04-18T14:59:21Z</time></trkpt><trkpt lat="45.733011409275576" lon="10.538245833039918"><ele>1216.0</ele><time>2026-04-18T14:59:23Z</time></trkpt><trkpt lat="45.73307797592571" lon="10.538139788022603"><ele>1222.0</ele><time>2026-04-18T14:59:25Z</time></trkpt><trkpt lat="45.73309724719428" lon="10.53804799987219"><ele>1228.0</ele><time>2026-04-18T14:59:26Z</time></trkpt><trkpt lat="45.733122564611115" lon="10.537956867613625"><ele>1234.0</ele><time>2026-04-18T14:59:27Z</time></trkpt><trkpt lat="45.73312835994566" lon="10.537848918304688"><ele>1240.0</ele><time>2026-04-18T14:59:28Z</time></trkpt><trkpt lat="45.73310750583233" lon="10.537738784096142"><ele>1246.0</ele><time>2026-04-18T14:59:30Z</time></trkpt><trkpt lat="45.73311984142476" lon="10.53757851500468"><ele>1246.0</ele><time>2026-04-18T14:59:32Z</time></trkpt><trkpt lat="45.73311196540489" lon="10.53747437057469"><ele>1246.0</ele><time>2026-04-18T14:59:33Z</time></trkpt><trkpt lat="45.733099637903294" lon="10.537364722853658"><ele>1246.0</ele><time>2026-04-18T14:59:34Z</time></trkpt><trkpt lat="45.73310646134588" lon="10.537274552062279"><ele>1246.0</ele><time>2026-04-18T14:59:35Z</time></trkpt><trkpt lat="45.73312130405403" lon="10.537182396933101"><ele>1246.0</ele><time>2026-04-18T14:59:36Z</time></trkpt><trkpt lat="45.733118551975544" lon="10.537067666166013"><ele>1246.0</ele><time>2026-04-18T14:59:37Z</time></trkpt><trkpt lat="45.733116165649456" lon="10.53694975475122"><ele>1246.0</ele><time>2026-04-18T14:59:38Z</time></trkpt><trkpt lat="45.733091278167464" lon="10.536826154380474"><ele>1247.8</ele><time>2026-04-18T14:59:39Z</time></trkpt><trkpt lat="45.73306159577077" lon="10.536690265511536"><ele>1249.6</ele><time>2026-04-18T14:59:40Z</time></trkpt><trkpt lat="45.73302093262518" lon="10.536545846878136"><ele>1251.4</ele><time>2026-04-18T14:59:41Z</time></trkpt><trkpt lat="45.73298191679587" lon="10.53642732905644"><ele>1253.2</ele><time>2026-04-18T14:59:42Z</time></trkpt><trkpt lat="45.73293684949859" lon="10.536323108833395"><ele>1255.0</ele><time>2026-04-18T14:59:43Z</time></trkpt><trkpt lat="45.732878918966996" lon="10.536200343315274"><ele>1257.2</ele><time>2026-04-18T14:59:44Z</time></trkpt><trkpt lat="45.73282261727981" lon="10.53606776230115"><ele>1259.4</ele><time>2026-04-18T14:59:45Z</time></trkpt><trkpt lat="45.73277354611627" lon="10.53592886975397"><ele>1261.6</ele><time>2026-04-18T14:59:46Z</time></trkpt><trkpt lat="45.732733395008935" lon="10.535790803014766"><ele>1263.8</ele><time>2026-04-18T14:59:47Z</time></trkpt><trkpt lat="45.73269668394303" lon="10.535671948332581"><ele>1266.0</ele><time>2026-04-18T14:59:48Z</time></trkpt><trkpt lat="45.73267232123221" lon="10.53556842553202"><ele>1257.6</ele><time>2026-04-18T14:59:49Z</time></trkpt><trkpt lat="45.73267767803285" lon="10.535365893928404"><ele>1249.1999999999998</ele><time>2026-04-18T14:59:51Z</time></trkpt><trkpt lat="45.7326719109493" lon="10.53524877049883"><ele>1240.8000000000002</ele><time>2026-04-18T14:59:52Z</time></trkpt><trkpt lat="45.732649102347" lon="10.535135809923041"><ele>1232.4</ele><time>2026-04-18T14:59:53Z</time></trkpt><trkpt lat="45.73261379074674" lon="10.535032982210852"><ele>1224.0</ele><time>2026-04-18T14:59:54Z</time></trkpt><trkpt lat="45.732568560207845" lon="10.534960026951227"><ele>1224.0</ele><time>2026-04-18T14:59:55Z</time></trkpt><trkpt lat="45.73249877642384" lon="10.534921607614928"><ele>1224.0</ele><time>2026-04-18T14:59:56Z</time></trkpt><trkpt lat="45.73243652338881" lon="10.534880482838531"><ele>1224.0</ele><time>2026-04-18T14:59:57Z</time></trkpt><trkpt lat="45.73238095938162" lon="10.534830470419294"><ele>1224.0</ele><time>2026-04-18T14:59:58Z</time></trkpt><trkpt lat="45.73233459694732" lon="10.534750805272028"><ele>1224.0</ele><time>2026-04-18T14:59:59Z</time></trkpt><trkpt lat="45.73232858467925" lon="10.5345914970838"><ele>1224.0</ele><time>2026-04-18T15:00:01Z</time></trkpt><trkpt lat="45.73233031578791" lon="10.534471590221479"><ele>1226.2857142857142</ele><time>2026-04-18T15:00:02Z</time></trkpt><trkpt lat="45.732325027966" lon="10.534377845910424"><ele>1228.5714285714287</ele><time>2026-04-18T15:00:03Z</time></trkpt><trkpt lat="45.73231341003995" lon="10.534282082913696"><ele>1230.857142857143</ele><time>2026-04-18T15:00:04Z</time></trkpt><trkpt lat="45.732316140961565" lon="10.53418871946757"><ele>1233.142857142857</ele><time>2026-04-18T15:00:05Z</time></trkpt><trkpt lat="45.7323392226901" lon="10.534103614862486"><ele>1235.4285714285713</ele><time>2026-04-18T15:00:06Z</time></trkpt><trkpt lat="45.73237591855184" lon="10.534019900063612"><ele>1237.7142857142858</ele><time>2026-04-18T15:00:07Z</time></trkpt><trkpt lat="45.73240839216221" lon="10.533935206167149"><ele>1240.0</ele><time>2026-04-18T15:00:08Z</time></trkpt><trkpt lat="45.73242216644577" lon="10.533832640789132"><ele>1238.8</ele><time>2026-04-18T15:00:09Z</time></trkpt><trkpt lat="45.732419100584075" lon="10.533700923731784"><ele>1237.6</ele><time>2026-04-18T15:00:10Z</time></trkpt><trkpt lat="45.73240422556089" lon="10.533606191562818"><ele>1236.4</ele><time>2026-04-18T15:00:11Z</time></trkpt><trkpt lat="45.73234978345339" lon="10.53345016613946"><ele>1235.2</ele><time>2026-04-18T15:00:13Z</time></trkpt><trkpt lat="45.73232895832856" lon="10.533361007299167"><ele>1234.0</ele><time>2026-04-18T15:00:14Z</time></trkpt><trkpt lat="45.73235555835232" lon="10.53318034551054"><ele>1234.0</ele><time>2026-04-18T15:00:16Z</time></trkpt><trkpt lat="45.73239100756683" lon="10.533085092233101"><ele>1234.0</ele><time>2026-04-18T15:00:17Z</time></trkpt><trkpt lat="45.73242609111627" lon="10.53299789843193"><ele>1234.0</ele><time>2026-04-18T15:00:18Z</time></trkpt><trkpt lat="45.73247881218594" lon="10.53291092539482"><ele>1234.0</ele><time>2026-04-18T15:00:19Z</time></trkpt><trkpt lat="45.73253311815517" lon="10.532828375090666"><ele>1234.0</ele><time>2026-04-18T15:00:20Z</time></trkpt><trkpt lat="45.73257985814168" lon="10.532746515508226"><ele>1234.0</ele><time>2026-04-18T15:00:21Z</time></trkpt><trkpt lat="45.732622343290686" lon="10.53265835662923"><ele>1232.857142857143</ele><time>2026-04-18T15:00:22Z</time></trkpt><trkpt lat="45.732659305488035" lon="10.532569227946421"><ele>1231.7142857142856</ele><time>2026-04-18T15:00:23Z</time></trkpt><trkpt lat="45.73268045442122" lon="10.532480775814685"><ele>1230.5714285714284</ele><time>2026-04-18T15:00:24Z</time></trkpt><trkpt lat="45.732718359693756" lon="10.532382164861488"><ele>1229.4285714285716</ele><time>2026-04-18T15:00:25Z</time></trkpt><trkpt lat="45.73275507937531" lon="10.532290605075477"><ele>1228.2857142857142</ele><time>2026-04-18T15:00:26Z</time></trkpt><trkpt lat="45.73278682406189" lon="10.532190810693718"><ele>1227.142857142857</ele><time>2026-04-18T15:00:27Z</time></trkpt><trkpt lat="45.73281363661677" lon="10.532092143056206"><ele>1226.0</ele><time>2026-04-18T15:00:28Z</time></trkpt><trkpt lat="45.73282948018828" lon="10.531993079595338"><ele>1226.0</ele><time>2026-04-18T15:00:29Z</time></trkpt><trkpt lat="45.73283885721133" lon="10.531887063466536"><ele>1226.0</ele><time>2026-04-18T15:00:30Z</time></trkpt><trkpt lat="45.732855841007975" lon="10.531795302365964"><ele>1226.0</ele><time>2026-04-18T15:00:31Z</time></trkpt><trkpt lat="45.73288734544212" lon="10.531694998948428"><ele>1226.0</ele><time>2026-04-18T15:00:32Z</time></trkpt><trkpt lat="45.73292333795083" lon="10.531608261641063"><ele>1226.0</ele><time>2026-04-18T15:00:33Z</time></trkpt><trkpt lat="45.73297516881989" lon="10.531541761515793"><ele>1226.0</ele><time>2026-04-18T15:00:34Z</time></trkpt><trkpt lat="45.7330302725881" lon="10.53146267507332"><ele>1226.0</ele><time>2026-04-18T15:00:35Z</time></trkpt><trkpt lat="45.73313758348593" lon="10.531333251127373"><ele>1226.0</ele><time>2026-04-18T15:00:37Z</time></trkpt><trkpt lat="45.73319004090925" lon="10.531269724178781"><ele>1226.0</ele><time>2026-04-18T15:00:38.001Z</time></trkpt><trkpt lat="45.733233789641105" lon="10.53119137470808"><ele>1226.0</ele><time>2026-04-18T15:00:39.001Z</time></trkpt><trkpt lat="45.73331224486676" lon="10.531075926039243"><ele>1226.0</ele><time>2026-04-18T15:00:41.001Z</time></trkpt><trkpt lat="45.73336809627688" lon="10.530967979334534"><ele>1226.0</ele><time>2026-04-18T15:00:43.001Z</time></trkpt><trkpt lat="45.73342188876596" lon="10.530887583293012"><ele>1226.0</ele><time>2026-04-18T15:00:46.001Z</time></trkpt><trkpt lat="45.733452698900386" lon="10.530797563569454"><ele>1223.3333333333335</ele><time>2026-04-18T15:00:48.001Z</time></trkpt><trkpt lat="45.73345913039333" lon="10.530702627078396"><ele>1220.6666666666667</ele><time>2026-04-18T15:00:50.001Z</time></trkpt><trkpt lat="45.73347395341596" lon="10.530600712873733"><ele>1218.0</ele><time>2026-04-18T15:00:52.001Z</time></trkpt><trkpt lat="45.73349080949724" lon="10.530465826115897"><ele>1215.3333333333333</ele><time>2026-04-18T15:00:54.001Z</time></trkpt><trkpt lat="45.73345784888199" lon="10.53036004894881"><ele>1212.6666666666665</ele><time>2026-04-18T15:00:56.001Z</time></trkpt><trkpt lat="45.733399545327046" lon="10.530318932195758"><ele>1210.0</ele><time>2026-04-18T15:00:57.001Z</time></trkpt><trkpt lat="45.73332558684741" lon="10.530320022891932"><ele>1210.0</ele><time>2026-04-18T15:00:58.001Z</time></trkpt><trkpt lat="45.73325750868065" lon="10.530283235010776"><ele>1210.0</ele><time>2026-04-18T15:00:59.001Z</time></trkpt><trkpt lat="45.73316669026829" lon="10.530228857014151"><ele>1210.0</ele><time>2026-04-18T15:01:00.001Z</time></trkpt><trkpt lat="45.73307722322601" lon="10.530170264496443"><ele>1210.0</ele><time>2026-04-18T15:01:01.001Z</time></trkpt><trkpt lat="45.73298861844738" lon="10.530150587129347"><ele>1210.0</ele><time>2026-04-18T15:01:02.001Z</time></trkpt><trkpt lat="45.732911151972" lon="10.530127677596504"><ele>1210.0</ele><time>2026-04-18T15:01:03.001Z</time></trkpt><trkpt lat="45.73282379252504" lon="10.530102094163947"><ele>1210.0</ele><time>2026-04-18T15:01:04.001Z</time></trkpt><trkpt lat="45.732756710004956" lon="10.530077123211962"><ele>1210.0</ele><time>2026-04-18T15:01:05.001Z</time></trkpt><trkpt lat="45.73268385114301" lon="10.530044574497236"><ele>1210.0</ele><time>2026-04-18T15:01:06.001Z</time></trkpt><trkpt lat="45.73261104240603" lon="10.530003503972098"><ele>1210.0</ele><time>2026-04-18T15:01:07.001Z</time></trkpt><trkpt lat="45.73254265123423" lon="10.529958576045631"><ele>1210.0</ele><time>2026-04-18T15:01:08.001Z</time></trkpt><trkpt lat="45.732478690117276" lon="10.529922452599227"><ele>1210.0</ele><time>2026-04-18T15:01:09.001Z</time></trkpt><trkpt lat="45.73241388789609" lon="10.529919410108176"><ele>1210.0</ele><time>2026-04-18T15:01:10.001Z</time></trkpt><trkpt lat="45.732347835268826" lon="10.52993553515943"><ele>1208.3333333333333</ele><time>2026-04-18T15:01:11.001Z</time></trkpt><trkpt lat="45.73227753549723" lon="10.529942671517746"><ele>1206.6666666666665</ele><time>2026-04-18T15:01:12.001Z</time></trkpt><trkpt lat="45.73218639443753" lon="10.529851882991023"><ele>1205.0</ele><time>2026-04-18T15:01:14.001Z</time></trkpt><trkpt lat="45.732160481746334" lon="10.529766831603563"><ele>1203.3333333333333</ele><time>2026-04-18T15:01:15.001Z</time></trkpt><trkpt lat="45.73214278620467" lon="10.529664862880988"><ele>1201.6666666666667</ele><time>2026-04-18T15:01:16.001Z</time></trkpt><trkpt lat="45.73210290389387" lon="10.52954253447699"><ele>1200.0</ele><time>2026-04-18T15:01:17.001Z</time></trkpt><trkpt lat="45.732047173132216" lon="10.529418620192711"><ele>1201.0</ele><time>2026-04-18T15:01:18Z</time></trkpt><trkpt lat="45.73199596239916" lon="10.52930716771807"><ele>1202.0</ele><time>2026-04-18T15:01:19Z</time></trkpt><trkpt lat="45.73192918777737" lon="10.529210450438665"><ele>1203.0</ele><time>2026-04-18T15:01:20Z</time></trkpt><trkpt lat="45.731851863236244" lon="10.529136542183464"><ele>1204.0</ele><time>2026-04-18T15:01:21Z</time></trkpt><trkpt lat="45.731749555277815" lon="10.529109934263413"><ele>1205.0</ele><time>2026-04-18T15:01:22Z</time></trkpt><trkpt lat="45.73165604587893" lon="10.529094256062683"><ele>1205.0</ele><time>2026-04-18T15:01:23Z</time></trkpt><trkpt lat="45.731580532079896" lon="10.52905337171706"><ele>1205.0</ele><time>2026-04-18T15:01:24Z</time></trkpt><trkpt lat="45.73150921038066" lon="10.529015721264212"><ele>1205.0</ele><time>2026-04-18T15:01:25Z</time></trkpt><trkpt lat="45.731429024619814" lon="10.529014064349646"><ele>1205.0</ele><time>2026-04-18T15:01:26Z</time></trkpt><trkpt lat="45.731301446712976" lon="10.529032040959054"><ele>1205.0</ele><time>2026-04-18T15:01:28Z</time></trkpt><trkpt lat="45.73118125179336" lon="10.529026594568107"><ele>1205.0</ele><time>2026-04-18T15:01:30Z</time></trkpt><trkpt lat="45.73111066671331" lon="10.529005396785683"><ele>1205.0</ele><time>2026-04-18T15:01:31Z</time></trkpt><trkpt lat="45.7310613304918" lon="10.528931695709485"><ele>1205.0</ele><time>2026-04-18T15:01:32Z</time></trkpt><trkpt lat="45.7310139946255" lon="10.52884587788314"><ele>1205.0</ele><time>2026-04-18T15:01:33Z</time></trkpt><trkpt lat="45.73095706958101" lon="10.528763529130346"><ele>1205.0</ele><time>2026-04-18T15:01:34Z</time></trkpt><trkpt lat="45.73088695860172" lon="10.528670149243943"><ele>1205.0</ele><time>2026-04-18T15:01:35Z</time></trkpt><trkpt lat="45.730819386051174" lon="10.528575661269105"><ele>1203.8333333333335</ele><time>2026-04-18T15:01:36Z</time></trkpt><trkpt lat="45.73076743312277" lon="10.528471609476773"><ele>1202.6666666666667</ele><time>2026-04-18T15:01:37Z</time></trkpt><trkpt lat="45.730707234046136" lon="10.52837828835589"><ele>1201.5</ele><time>2026-04-18T15:01:38Z</time></trkpt><trkpt lat="45.730678076043745" lon="10.528264758788627"><ele>1200.3333333333333</ele><time>2026-04-18T15:01:39Z</time></trkpt><trkpt lat="45.73064928307809" lon="10.52816124016478"><ele>1199.1666666666665</ele><time>2026-04-18T15:01:40Z</time></trkpt><trkpt lat="45.73061960711088" lon="10.528051577694889"><ele>1198.0</ele><time>2026-04-18T15:01:41Z</time></trkpt><trkpt lat="45.73060317139428" lon="10.527943367040482"><ele>1200.5</ele><time>2026-04-18T15:01:42Z</time></trkpt><trkpt lat="45.730569472975446" lon="10.527835898667577"><ele>1203.0</ele><time>2026-04-18T15:01:43Z</time></trkpt><trkpt lat="45.730533557107655" lon="10.52772190368976"><ele>1205.5</ele><time>2026-04-18T15:01:44Z</time></trkpt><trkpt lat="45.73048317988533" lon="10.527612321389176"><ele>1208.0</ele><time>2026-04-18T15:01:45Z</time></trkpt><trkpt lat="45.73043482650186" lon="10.527512234352216"><ele>1210.5</ele><time>2026-04-18T15:01:46Z</time></trkpt><trkpt lat="45.73038187492283" lon="10.527413364781065"><ele>1213.0</ele><time>2026-04-18T15:01:47Z</time></trkpt><trkpt lat="45.730313760984394" lon="10.527331384564604"><ele>1213.0</ele><time>2026-04-18T15:01:48Z</time></trkpt><trkpt lat="45.7302493671661" lon="10.527246812682339"><ele>1213.0</ele><time>2026-04-18T15:01:49Z</time></trkpt><trkpt lat="45.73019374127863" lon="10.527169335635394"><ele>1213.0</ele><time>2026-04-18T15:01:50Z</time></trkpt><trkpt lat="45.73013133896079" lon="10.527088925605783"><ele>1213.0</ele><time>2026-04-18T15:01:51Z</time></trkpt><trkpt lat="45.73005869670658" lon="10.527031813069309"><ele>1213.0</ele><time>2026-04-18T15:01:52Z</time></trkpt><trkpt lat="45.72999935553244" lon="10.526967821986453"><ele>1213.0</ele><time>2026-04-18T15:01:53Z</time></trkpt><trkpt lat="45.72993758317223" lon="10.526898949201758"><ele>1208.0</ele><time>2026-04-18T15:01:54Z</time></trkpt><trkpt lat="45.729879017713245" lon="10.526841801735767"><ele>1203.0</ele><time>2026-04-18T15:01:55Z</time></trkpt><trkpt lat="45.729816851238525" lon="10.526785463226224"><ele>1198.0</ele><time>2026-04-18T15:01:56Z</time></trkpt><trkpt lat="45.729766735046994" lon="10.52671362740054"><ele>1193.0</ele><time>2026-04-18T15:01:57Z</time></trkpt><trkpt lat="45.72969916006305" lon="10.526637709356814"><ele>1188.0</ele><time>2026-04-18T15:01:58Z</time></trkpt><trkpt lat="45.72962593247011" lon="10.526553752012537"><ele>1183.0</ele><time>2026-04-18T15:01:59Z</time></trkpt><trkpt lat="45.72956656033767" lon="10.526473236645382"><ele>1183.0</ele><time>2026-04-18T15:02:00Z</time></trkpt><trkpt lat="45.72954845018001" lon="10.526383547631907"><ele>1183.0</ele><time>2026-04-18T15:02:01Z</time></trkpt><trkpt lat="45.729543223812065" lon="10.52629213934983"><ele>1183.0</ele><time>2026-04-18T15:02:02Z</time></trkpt><trkpt lat="45.729533310625726" lon="10.526189575262622"><ele>1183.0</ele><time>2026-04-18T15:02:03Z</time></trkpt><trkpt lat="45.72951475189526" lon="10.526066241362072"><ele>1183.0</ele><time>2026-04-18T15:02:05Z</time></trkpt><trkpt lat="45.72942467142978" lon="10.526034995987487"><ele>1183.0</ele><time>2026-04-18T15:02:07Z</time></trkpt><trkpt lat="45.7293037072632" lon="10.52606277813766"><ele>1183.6</ele><time>2026-04-18T15:02:09Z</time></trkpt><trkpt lat="45.7292001216577" lon="10.526068869149208"><ele>1184.1999999999998</ele><time>2026-04-18T15:02:10Z</time></trkpt><trkpt lat="45.7291104274959" lon="10.526032727160121"><ele>1184.8</ele><time>2026-04-18T15:02:11Z</time></trkpt><trkpt lat="45.72903005965833" lon="10.526008870275207"><ele>1185.3999999999999</ele><time>2026-04-18T15:02:12Z</time></trkpt><trkpt lat="45.728938930883906" lon="10.525988845030602"><ele>1186.0</ele><time>2026-04-18T15:02:13Z</time></trkpt><trkpt lat="45.72886337570746" lon="10.525949397871875"><ele>1186.0</ele><time>2026-04-18T15:02:14Z</time></trkpt><trkpt lat="45.728778042120794" lon="10.525902681850322"><ele>1186.0</ele><time>2026-04-18T15:02:15Z</time></trkpt><trkpt lat="45.72869600284755" lon="10.525886820758828"><ele>1186.0</ele><time>2026-04-18T15:02:16Z</time></trkpt><trkpt lat="45.728588324188756" lon="10.525912667298845"><ele>1186.0</ele><time>2026-04-18T15:02:17Z</time></trkpt><trkpt lat="45.72850804579519" lon="10.525972634740176"><ele>1186.0</ele><time>2026-04-18T15:02:18Z</time></trkpt><trkpt lat="45.728432771990086" lon="10.525997542828428"><ele>1186.6</ele><time>2026-04-18T15:02:19Z</time></trkpt><trkpt lat="45.72829806934577" lon="10.52602863688911"><ele>1187.1999999999998</ele><time>2026-04-18T15:02:21Z</time></trkpt><trkpt lat="45.72818962851896" lon="10.526027777153066"><ele>1187.8000000000002</ele><time>2026-04-18T15:02:22Z</time></trkpt><trkpt lat="45.72809459810451" lon="10.52601466359893"><ele>1188.4</ele><time>2026-04-18T15:02:23Z</time></trkpt><trkpt lat="45.72802469885853" lon="10.525973671017407"><ele>1189.0</ele><time>2026-04-18T15:02:24Z</time></trkpt><trkpt lat="45.72792869582494" lon="10.525918126989895"><ele>1189.0</ele><time>2026-04-18T15:02:25Z</time></trkpt><trkpt lat="45.72785313097823" lon="10.525861277213346"><ele>1189.0</ele><time>2026-04-18T15:02:26Z</time></trkpt><trkpt lat="45.72779328026279" lon="10.525811096717042"><ele>1189.0</ele><time>2026-04-18T15:02:27Z</time></trkpt><trkpt lat="45.72772487539143" lon="10.525821678671567"><ele>1189.0</ele><time>2026-04-18T15:02:28Z</time></trkpt><trkpt lat="45.727654660221624" lon="10.525830172680642"><ele>1189.0</ele><time>2026-04-18T15:02:29Z</time></trkpt><trkpt lat="45.72757886870216" lon="10.525875203806486"><ele>1189.0</ele><time>2026-04-18T15:02:30Z</time></trkpt><trkpt lat="45.72750154538905" lon="10.525881291434743"><ele>1190.0</ele><time>2026-04-18T15:02:31Z</time></trkpt><trkpt lat="45.72738253260776" lon="10.525842224600718"><ele>1191.0</ele><time>2026-04-18T15:02:33Z</time></trkpt><trkpt lat="45.72727165187938" lon="10.525809517525584"><ele>1192.0</ele><time>2026-04-18T15:02:35Z</time></trkpt><trkpt lat="45.727199304657894" lon="10.525849211020095"><ele>1193.0</ele><time>2026-04-18T15:02:36Z</time></trkpt><trkpt lat="45.72713392821463" lon="10.525952673506412"><ele>1194.0</ele><time>2026-04-18T15:02:37Z</time></trkpt><trkpt lat="45.72710965348504" lon="10.526113187363798"><ele>1193.6000000000001</ele><time>2026-04-18T15:02:38Z</time></trkpt><trkpt lat="45.727072038723904" lon="10.526229147496572"><ele>1193.2</ele><time>2026-04-18T15:02:39Z</time></trkpt><trkpt lat="45.72700792700307" lon="10.526304151164883"><ele>1192.8000000000002</ele><time>2026-04-18T15:02:40Z</time></trkpt><trkpt lat="45.726888213781855" lon="10.526324705793202"><ele>1192.4</ele><time>2026-04-18T15:02:42Z</time></trkpt><trkpt lat="45.72682993095454" lon="10.52640078398884"><ele>1192.0</ele><time>2026-04-18T15:02:43Z</time></trkpt><trkpt lat="45.726793893840046" lon="10.526519360438774"><ele>1192.0</ele><time>2026-04-18T15:02:44.001Z</time></trkpt><trkpt lat="45.72677714796531" lon="10.526643781268103"><ele>1192.0</ele><time>2026-04-18T15:02:45.001Z</time></trkpt><trkpt lat="45.72673459292958" lon="10.526747699077102"><ele>1192.0</ele><time>2026-04-18T15:02:46.001Z</time></trkpt><trkpt lat="45.72668402483013" lon="10.526852093739336"><ele>1192.0</ele><time>2026-04-18T15:02:47.001Z</time></trkpt><trkpt lat="45.72660239249821" lon="10.526938902020973"><ele>1192.0</ele><time>2026-04-18T15:02:48.001Z</time></trkpt><trkpt lat="45.72655505761888" lon="10.527021737054454"><ele>1192.0</ele><time>2026-04-18T15:02:49.001Z</time></trkpt><trkpt lat="45.7265144004511" lon="10.52709174039956"><ele>1188.1666666666665</ele><time>2026-04-18T15:02:50.001Z</time></trkpt><trkpt lat="45.72647169656133" lon="10.527160796793282"><ele>1184.3333333333333</ele><time>2026-04-18T15:02:51.001Z</time></trkpt><trkpt lat="45.72641234562589" lon="10.527225497401172"><ele>1180.5</ele><time>2026-04-18T15:02:52.001Z</time></trkpt><trkpt lat="45.726361494458715" lon="10.52738895813354"><ele>1176.6666666666667</ele><time>2026-04-18T15:02:54.001Z</time></trkpt><trkpt lat="45.72635957473284" lon="10.527511517160338"><ele>1172.8333333333335</ele><time>2026-04-18T15:02:55.001Z</time></trkpt><trkpt lat="45.726312964557444" lon="10.527638181429905"><ele>1169.0</ele><time>2026-04-18T15:02:56.001Z</time></trkpt><trkpt lat="45.7262749262837" lon="10.527785205000095"><ele>1171.6666666666667</ele><time>2026-04-18T15:02:57.001Z</time></trkpt><trkpt lat="45.72623866317102" lon="10.527905872351095"><ele>1174.3333333333335</ele><time>2026-04-18T15:02:58.001Z</time></trkpt><trkpt lat="45.72619096387115" lon="10.528001471342813"><ele>1177.0</ele><time>2026-04-18T15:02:59.001Z</time></trkpt><trkpt lat="45.72611271826427" lon="10.528043482102955"><ele>1179.6666666666667</ele><time>2026-04-18T15:03:00.001Z</time></trkpt><trkpt lat="45.72603389219583" lon="10.528090665321345"><ele>1182.3333333333333</ele><time>2026-04-18T15:03:01.001Z</time></trkpt><trkpt lat="45.72597098239028" lon="10.528124539447857"><ele>1185.0</ele><time>2026-04-18T15:03:02.001Z</time></trkpt><trkpt lat="45.7259017850616" lon="10.528137027726011"><ele>1185.0</ele><time>2026-04-18T15:03:03.001Z</time></trkpt><trkpt lat="45.72582844686317" lon="10.528133634409663"><ele>1185.0</ele><time>2026-04-18T15:03:04.001Z</time></trkpt><trkpt lat="45.725760221421616" lon="10.52812270468225"><ele>1185.0</ele><time>2026-04-18T15:03:05.001Z</time></trkpt><trkpt lat="45.725658049756994" lon="10.52819764689313"><ele>1185.0</ele><time>2026-04-18T15:03:07.001Z</time></trkpt><trkpt lat="45.72560723984047" lon="10.52828657644732"><ele>1185.0</ele><time>2026-04-18T15:03:08.001Z</time></trkpt><trkpt lat="45.72556688531653" lon="10.528379535436917"><ele>1185.0</ele><time>2026-04-18T15:03:09.001Z</time></trkpt><trkpt lat="45.72553475889502" lon="10.528496498107971"><ele>1185.0</ele><time>2026-04-18T15:03:10.001Z</time></trkpt><trkpt lat="45.72546866213186" lon="10.528556964612237"><ele>1185.0</ele><time>2026-04-18T15:03:11.001Z</time></trkpt><trkpt lat="45.72540272019966" lon="10.52859932846285"><ele>1185.0</ele><time>2026-04-18T15:03:12.001Z</time></trkpt><trkpt lat="45.72533009771166" lon="10.528607296570861"><ele>1185.0</ele><time>2026-04-18T15:03:13.001Z</time></trkpt><trkpt lat="45.72525154424347" lon="10.528584469158453"><ele>1185.0</ele><time>2026-04-18T15:03:14.001Z</time></trkpt><trkpt lat="45.72518098058921" lon="10.528534362522086"><ele>1185.0</ele><time>2026-04-18T15:03:15.001Z</time></trkpt><trkpt lat="45.72511516794272" lon="10.528481530655446"><ele>1188.8333333333333</ele><time>2026-04-18T15:03:16.001Z</time></trkpt><trkpt lat="45.72504559005812" lon="10.52838934025158"><ele>1192.6666666666667</ele><time>2026-04-18T15:03:17.001Z</time></trkpt><trkpt lat="45.72497682450728" lon="10.528349233814552"><ele>1196.5</ele><time>2026-04-18T15:03:18.001Z</time></trkpt><trkpt lat="45.7248807517477" lon="10.528339980634929"><ele>1200.3333333333335</ele><time>2026-04-18T15:03:19.001Z</time></trkpt><trkpt lat="45.724784710321266" lon="10.528317515890857"><ele>1204.1666666666667</ele><time>2026-04-18T15:03:20.001Z</time></trkpt><trkpt lat="45.724710040580405" lon="10.52826605893295"><ele>1208.0</ele><time>2026-04-18T15:03:21.001Z</time></trkpt><trkpt lat="45.72466018269937" lon="10.528194734802913"><ele>1208.0</ele><time>2026-04-18T15:03:22.001Z</time></trkpt><trkpt lat="45.724596453603276" lon="10.528181661292372"><ele>1208.0</ele><time>2026-04-18T15:03:23.001Z</time></trkpt><trkpt lat="45.7245150186265" lon="10.528322069421877"><ele>1208.0</ele><time>2026-04-18T15:03:25Z</time></trkpt><trkpt lat="45.72444896466563" lon="10.528466219731138"><ele>1208.0</ele><time>2026-04-18T15:03:26Z</time></trkpt><trkpt lat="45.72437602496543" lon="10.528539671536324"><ele>1208.0</ele><time>2026-04-18T15:03:27Z</time></trkpt><trkpt lat="45.724309541937096" lon="10.528596684995515"><ele>1208.8333333333335</ele><time>2026-04-18T15:03:28Z</time></trkpt><trkpt lat="45.72424670956178" lon="10.52858702266159"><ele>1209.6666666666667</ele><time>2026-04-18T15:03:29Z</time></trkpt><trkpt lat="45.72414754856196" lon="10.52858592239957"><ele>1210.5</ele><time>2026-04-18T15:03:30Z</time></trkpt><trkpt lat="45.724051901867185" lon="10.528556916246977"><ele>1211.3333333333333</ele><time>2026-04-18T15:03:31Z</time></trkpt><trkpt lat="45.72395815568088" lon="10.528565940614534"><ele>1212.1666666666665</ele><time>2026-04-18T15:03:32Z</time></trkpt><trkpt lat="45.72386911718871" lon="10.528574256829366"><ele>1213.0</ele><time>2026-04-18T15:03:33Z</time></trkpt><trkpt lat="45.72378687019852" lon="10.528547475447946"><ele>1213.0</ele><time>2026-04-18T15:03:34Z</time></trkpt><trkpt lat="45.723715451518885" lon="10.528466095859752"><ele>1213.0</ele><time>2026-04-18T15:03:35Z</time></trkpt><trkpt lat="45.72363706913861" lon="10.528386356625932"><ele>1213.0</ele><time>2026-04-18T15:03:36Z</time></trkpt><trkpt lat="45.723471989617494" lon="10.528363385818308"><ele>1213.0</ele><time>2026-04-18T15:03:38Z</time></trkpt><trkpt lat="45.72337124888614" lon="10.528362982569021"><ele>1212.6666666666665</ele><time>2026-04-18T15:03:39Z</time></trkpt><trkpt lat="45.723283099689716" lon="10.528400281219843"><ele>1212.3333333333333</ele><time>2026-04-18T15:03:40Z</time></trkpt><trkpt lat="45.72320443566296" lon="10.528480577835683"><ele>1212.0</ele><time>2026-04-18T15:03:41Z</time></trkpt><trkpt lat="45.72314749036703" lon="10.528567434501191"><ele>1211.6666666666667</ele><time>2026-04-18T15:03:42Z</time></trkpt><trkpt lat="45.723094990826084" lon="10.52862516252392"><ele>1211.3333333333335</ele><time>2026-04-18T15:03:43Z</time></trkpt><trkpt lat="45.72300213153388" lon="10.528671973799094"><ele>1211.0</ele><time>2026-04-18T15:03:44Z</time></trkpt><trkpt lat="45.722917036222675" lon="10.52867571096966"><ele>1211.0</ele><time>2026-04-18T15:03:45Z</time></trkpt><trkpt lat="45.72282765198154" lon="10.528724339781611"><ele>1211.0</ele><time>2026-04-18T15:03:46Z</time></trkpt><trkpt lat="45.72274759036398" lon="10.528788603602463"><ele>1211.0</ele><time>2026-04-18T15:03:47Z</time></trkpt><trkpt lat="45.722663384364395" lon="10.528857008970046"><ele>1211.0</ele><time>2026-04-18T15:03:48Z</time></trkpt><trkpt lat="45.72259037424601" lon="10.528915579663154"><ele>1211.0</ele><time>2026-04-18T15:03:49Z</time></trkpt><trkpt lat="45.7225016248545" lon="10.528984383616653"><ele>1203.8333333333335</ele><time>2026-04-18T15:03:50Z</time></trkpt><trkpt lat="45.722432234899905" lon="10.528979386996836"><ele>1196.6666666666667</ele><time>2026-04-18T15:03:51Z</time></trkpt><trkpt lat="45.72236254667603" lon="10.52896769732346"><ele>1189.5</ele><time>2026-04-18T15:03:52Z</time></trkpt><trkpt lat="45.722301098138" lon="10.528926369610135"><ele>1182.3333333333333</ele><time>2026-04-18T15:03:53Z</time></trkpt><trkpt lat="45.722230109314154" lon="10.52886355193422"><ele>1175.1666666666665</ele><time>2026-04-18T15:03:54Z</time></trkpt><trkpt lat="45.7221576535012" lon="10.528804901217525"><ele>1168.0</ele><time>2026-04-18T15:03:55Z</time></trkpt><trkpt lat="45.72207994998234" lon="10.528777241984448"><ele>1168.0</ele><time>2026-04-18T15:03:56Z</time></trkpt><trkpt lat="45.72200709824225" lon="10.528796670025434"><ele>1168.0</ele><time>2026-04-18T15:03:57Z</time></trkpt><trkpt lat="45.72191534063931" lon="10.52882851686772"><ele>1168.0</ele><time>2026-04-18T15:03:58Z</time></trkpt><trkpt lat="45.72183145828586" lon="10.52882936855575"><ele>1168.0</ele><time>2026-04-18T15:03:59Z</time></trkpt><trkpt lat="45.72175145324097" lon="10.528797398075218"><ele>1168.0</ele><time>2026-04-18T15:04:00Z</time></trkpt><trkpt lat="45.72165954018952" lon="10.528774189954884"><ele>1168.0</ele><time>2026-04-18T15:04:01Z</time></trkpt><trkpt lat="45.72157009848296" lon="10.528726362070174"><ele>1175.6666666666665</ele><time>2026-04-18T15:04:02Z</time></trkpt><trkpt lat="45.72146287320533" lon="10.528693207286004"><ele>1183.3333333333333</ele><time>2026-04-18T15:04:03Z</time></trkpt><trkpt lat="45.721381150664634" lon="10.528630236228866"><ele>1191.0</ele><time>2026-04-18T15:04:04Z</time></trkpt><trkpt lat="45.721302307726326" lon="10.528573508818987"><ele>1198.6666666666667</ele><time>2026-04-18T15:04:05Z</time></trkpt><trkpt lat="45.72122835466549" lon="10.52851844661257"><ele>1206.3333333333335</ele><time>2026-04-18T15:04:06Z</time></trkpt><trkpt lat="45.721181589406854" lon="10.528435273183275"><ele>1214.0</ele><time>2026-04-18T15:04:07Z</time></trkpt><trkpt lat="45.721104401288706" lon="10.528266261610325"><ele>1209.5714285714284</ele><time>2026-04-18T15:04:09Z</time></trkpt><trkpt lat="45.72106121611009" lon="10.528199819020628"><ele>1205.142857142857</ele><time>2026-04-18T15:04:10Z</time></trkpt><trkpt lat="45.720999226704215" lon="10.52813495780933"><ele>1200.7142857142858</ele><time>2026-04-18T15:04:11Z</time></trkpt><trkpt lat="45.7209378942462" lon="10.52809516759906"><ele>1196.2857142857142</ele><time>2026-04-18T15:04:12Z</time></trkpt><trkpt lat="45.72087469974468" lon="10.528084358232864"><ele>1191.857142857143</ele><time>2026-04-18T15:04:13Z</time></trkpt><trkpt lat="45.72081217859743" lon="10.528122449149945"><ele>1187.4285714285713</ele><time>2026-04-18T15:04:14Z</time></trkpt><trkpt lat="45.720745789701276" lon="10.528168253408008"><ele>1183.0</ele><time>2026-04-18T15:04:15Z</time></trkpt><trkpt lat="45.720676829730095" lon="10.52829577676882"><ele>1183.0</ele><time>2026-04-18T15:04:16Z</time></trkpt><trkpt lat="45.72059483955488" lon="10.528354589576107"><ele>1183.0</ele><time>2026-04-18T15:04:17Z</time></trkpt><trkpt lat="45.720529623099814" lon="10.528426362123014"><ele>1183.0</ele><time>2026-04-18T15:04:18Z</time></trkpt><trkpt lat="45.72045284545691" lon="10.528474026954845"><ele>1183.0</ele><time>2026-04-18T15:04:19Z</time></trkpt><trkpt lat="45.72037896279429" lon="10.528542625155554"><ele>1183.0</ele><time>2026-04-18T15:04:20Z</time></trkpt><trkpt lat="45.72032077342441" lon="10.52859361766586"><ele>1183.0</ele><time>2026-04-18T15:04:21Z</time></trkpt><trkpt lat="45.720265397313725" lon="10.528691379506705"><ele>1178.3333333333333</ele><time>2026-04-18T15:04:22Z</time></trkpt><trkpt lat="45.720214541104596" lon="10.528764028052409"><ele>1173.6666666666665</ele><time>2026-04-18T15:04:23Z</time></trkpt><trkpt lat="45.720166199093285" lon="10.52884216164879"><ele>1169.0</ele><time>2026-04-18T15:04:24Z</time></trkpt><trkpt lat="45.720116750333176" lon="10.528925188562285"><ele>1164.3333333333333</ele><time>2026-04-18T15:04:25Z</time></trkpt><trkpt lat="45.720057369994905" lon="10.529001334461904"><ele>1159.6666666666667</ele><time>2026-04-18T15:04:26Z</time></trkpt><trkpt lat="45.71998730278383" lon="10.529058649675527"><ele>1155.0</ele><time>2026-04-18T15:04:27Z</time></trkpt><trkpt lat="45.719908407758275" lon="10.529101801546279"><ele>1155.0</ele><time>2026-04-18T15:04:28Z</time></trkpt><trkpt lat="45.71983351956843" lon="10.529169716635819"><ele>1155.0</ele><time>2026-04-18T15:04:29Z</time></trkpt><trkpt lat="45.71976761854528" lon="10.529222696999588"><ele>1155.0</ele><time>2026-04-18T15:04:30Z</time></trkpt><trkpt lat="45.7197010398173" lon="10.529265711199285"><ele>1155.0</ele><time>2026-04-18T15:04:31Z</time></trkpt><trkpt lat="45.719636875112414" lon="10.529336706926026"><ele>1155.0</ele><time>2026-04-18T15:04:32Z</time></trkpt><trkpt lat="45.71957723957897" lon="10.529377957635914"><ele>1155.0</ele><time>2026-04-18T15:04:33Z</time></trkpt><trkpt lat="45.71950355047988" lon="10.52938188985016"><ele>1155.0</ele><time>2026-04-18T15:04:34Z</time></trkpt><trkpt lat="45.71943493199773" lon="10.529404660004232"><ele>1155.0</ele><time>2026-04-18T15:04:35Z</time></trkpt><trkpt lat="45.71937102217269" lon="10.529457191792266"><ele>1155.0</ele><time>2026-04-18T15:04:36Z</time></trkpt><trkpt lat="45.7193040821632" lon="10.529548711444328"><ele>1155.0</ele><time>2026-04-18T15:04:37Z</time></trkpt><trkpt lat="45.71923945323586" lon="10.529619972650634"><ele>1155.0</ele><time>2026-04-18T15:04:38Z</time></trkpt><trkpt lat="45.719176929116955" lon="10.529685001048138"><ele>1155.0</ele><time>2026-04-18T15:04:39Z</time></trkpt><trkpt lat="45.719111840433776" lon="10.529763227510317"><ele>1154.4</ele><time>2026-04-18T15:04:40Z</time></trkpt><trkpt lat="45.71905052203055" lon="10.529827630466752"><ele>1153.8</ele><time>2026-04-18T15:04:41Z</time></trkpt><trkpt lat="45.71898898088505" lon="10.529929456547237"><ele>1153.2</ele><time>2026-04-18T15:04:42Z</time></trkpt><trkpt lat="45.71892427226859" lon="10.530008291617692"><ele>1152.6</ele><time>2026-04-18T15:04:43Z</time></trkpt><trkpt lat="45.718848208922275" lon="10.530114190670112"><ele>1152.0</ele><time>2026-04-18T15:04:44Z</time></trkpt><trkpt lat="45.71881315491883" lon="10.53025827452651"><ele>1145.0</ele><time>2026-04-18T15:04:45Z</time></trkpt><trkpt lat="45.718785380839826" lon="10.530456355539242"><ele>1138.0</ele><time>2026-04-18T15:04:47Z</time></trkpt><trkpt lat="45.718765432154534" lon="10.530572697434534"><ele>1131.0</ele><time>2026-04-18T15:04:48Z</time></trkpt><trkpt lat="45.71872135430823" lon="10.530669409918078"><ele>1124.0</ele><time>2026-04-18T15:04:49.001Z</time></trkpt><trkpt lat="45.71867388409455" lon="10.530755002794018"><ele>1117.0</ele><time>2026-04-18T15:04:50.001Z</time></trkpt><trkpt lat="45.718595636080906" lon="10.530860250556502"><ele>1122.8</ele><time>2026-04-18T15:04:51.001Z</time></trkpt><trkpt lat="45.718543074236074" lon="10.53097989330237"><ele>1128.6</ele><time>2026-04-18T15:04:52.001Z</time></trkpt><trkpt lat="45.718472868995455" lon="10.531070726881184"><ele>1134.3999999999999</ele><time>2026-04-18T15:04:53.001Z</time></trkpt><trkpt lat="45.71840601576986" lon="10.53117780234022"><ele>1140.2</ele><time>2026-04-18T15:04:54.001Z</time></trkpt><trkpt lat="45.71835888092343" lon="10.531296545812697"><ele>1146.0</ele><time>2026-04-18T15:04:55.001Z</time></trkpt><trkpt lat="45.71831318142936" lon="10.531409968851396"><ele>1146.0</ele><time>2026-04-18T15:04:56.001Z</time></trkpt><trkpt lat="45.71826742404938" lon="10.531541356248946"><ele>1146.0</ele><time>2026-04-18T15:04:57.001Z</time></trkpt><trkpt lat="45.71822799044417" lon="10.53165831340186"><ele>1146.0</ele><time>2026-04-18T15:04:58.001Z</time></trkpt><trkpt lat="45.71815575607039" lon="10.531784354871325"><ele>1146.0</ele><time>2026-04-18T15:04:59.001Z</time></trkpt><trkpt lat="45.71810798110788" lon="10.531881375333722"><ele>1146.0</ele><time>2026-04-18T15:05:00.001Z</time></trkpt><trkpt lat="45.71801233063659" lon="10.531988071437315"><ele>1147.0</ele><time>2026-04-18T15:05:02.001Z</time></trkpt><trkpt lat="45.71794592063626" lon="10.53207511283118"><ele>1148.0</ele><time>2026-04-18T15:05:03.001Z</time></trkpt><trkpt lat="45.717899454470626" lon="10.53216664725303"><ele>1149.0</ele><time>2026-04-18T15:05:04.001Z</time></trkpt><trkpt lat="45.71782778158574" lon="10.532255797908025"><ele>1150.0</ele><time>2026-04-18T15:05:05.001Z</time></trkpt><trkpt lat="45.717747513268904" lon="10.532418161312682"><ele>1151.0</ele><time>2026-04-18T15:05:07.001Z</time></trkpt><trkpt lat="45.71769749494579" lon="10.532576863792263"><ele>1151.0</ele><time>2026-04-18T15:05:09.001Z</time></trkpt><trkpt lat="45.71768242087461" lon="10.532737537266955"><ele>1151.0</ele><time>2026-04-18T15:05:11.001Z</time></trkpt><trkpt lat="45.71761053492114" lon="10.532812466334342"><ele>1151.0</ele><time>2026-04-18T15:05:13.001Z</time></trkpt><trkpt lat="45.71750213031442" lon="10.532802392372169"><ele>1151.0</ele><time>2026-04-18T15:05:15.001Z</time></trkpt><trkpt lat="45.717443587791635" lon="10.532769223388428"><ele>1151.0</ele><time>2026-04-18T15:05:16.001Z</time></trkpt><trkpt lat="45.71738368776356" lon="10.532735068610855"><ele>1151.0</ele><time>2026-04-18T15:05:17.001Z</time></trkpt><trkpt lat="45.71730507179723" lon="10.532709708687623"><ele>1151.0</ele><time>2026-04-18T15:05:18.001Z</time></trkpt><trkpt lat="45.717222621156104" lon="10.532652189107724"><ele>1151.0</ele><time>2026-04-18T15:05:19.001Z</time></trkpt><trkpt lat="45.71713646334347" lon="10.532609486088742"><ele>1151.0</ele><time>2026-04-18T15:05:20.001Z</time></trkpt><trkpt lat="45.717063547247115" lon="10.532547170482582"><ele>1151.0</ele><time>2026-04-18T15:05:21.001Z</time></trkpt><trkpt lat="45.71698204751128" lon="10.532502934949564"><ele>1151.0</ele><time>2026-04-18T15:05:22.001Z</time></trkpt><trkpt lat="45.7169275509836" lon="10.532444747928434"><ele>1151.0</ele><time>2026-04-18T15:05:23.001Z</time></trkpt><trkpt lat="45.71687297567465" lon="10.532265817104282"><ele>1151.0</ele><time>2026-04-18T15:05:25.001Z</time></trkpt><trkpt lat="45.71687535419527" lon="10.532154724387865"><ele>1151.0</ele><time>2026-04-18T15:05:26.001Z</time></trkpt><trkpt lat="45.716867963035355" lon="10.532035446944795"><ele>1151.0</ele><time>2026-04-18T15:05:27.001Z</time></trkpt><trkpt lat="45.71682213998775" lon="10.531912391433721"><ele>1151.0</ele><time>2026-04-18T15:05:29.001Z</time></trkpt><trkpt lat="45.71670545399828" lon="10.531952635656808"><ele>1151.0</ele><time>2026-04-18T15:05:31Z</time></trkpt><trkpt lat="45.71662264707808" lon="10.531971283737997"><ele>1151.0</ele><time>2026-04-18T15:05:32Z</time></trkpt><trkpt lat="45.71655985283822" lon="10.531930059542251"><ele>1151.0</ele><time>2026-04-18T15:05:33Z</time></trkpt><trkpt lat="45.71650607776935" lon="10.53185383000904"><ele>1151.0</ele><time>2026-04-18T15:05:34Z</time></trkpt><trkpt lat="45.71645660887137" lon="10.531760365052202"><ele>1151.0</ele><time>2026-04-18T15:05:35Z</time></trkpt><trkpt lat="45.716436668523144" lon="10.531637889175851"><ele>1151.0</ele><time>2026-04-18T15:05:36Z</time></trkpt><trkpt lat="45.71640623507351" lon="10.531518864768842"><ele>1151.0</ele><time>2026-04-18T15:05:37Z</time></trkpt><trkpt lat="45.716345437232505" lon="10.531433042193937"><ele>1151.0</ele><time>2026-04-18T15:05:38Z</time></trkpt><trkpt lat="45.71628226292711" lon="10.53136029296449"><ele>1151.0</ele><time>2026-04-18T15:05:39Z</time></trkpt><trkpt lat="45.71618654748158" lon="10.531276170200833"><ele>1151.0</ele><time>2026-04-18T15:05:40Z</time></trkpt><trkpt lat="45.71613126852609" lon="10.531218204220776"><ele>1151.0</ele><time>2026-04-18T15:05:41Z</time></trkpt><trkpt lat="45.71609744039676" lon="10.531119767985219"><ele>1151.0</ele><time>2026-04-18T15:05:42Z</time></trkpt><trkpt lat="45.71606797223051" lon="10.53101912519604"><ele>1151.0</ele><time>2026-04-18T15:05:43Z</time></trkpt><trkpt lat="45.71604415220598" lon="10.530913236915822"><ele>1150.5</ele><time>2026-04-18T15:05:44Z</time></trkpt><trkpt lat="45.71600938726385" lon="10.530786808839306"><ele>1150.0</ele><time>2026-04-18T15:05:45Z</time></trkpt><trkpt lat="45.716015948605296" lon="10.530682069645897"><ele>1149.5</ele><time>2026-04-18T15:05:46Z</time></trkpt><trkpt lat="45.71606083356009" lon="10.53058908864134"><ele>1149.0</ele><time>2026-04-18T15:05:48Z</time></trkpt><trkpt lat="45.71609697945515" lon="10.53050875573224"><ele>1148.5</ele><time>2026-04-18T15:05:50Z</time></trkpt><trkpt lat="45.71613375108269" lon="10.530382938925559"><ele>1148.0</ele><time>2026-04-18T15:05:52Z</time></trkpt><trkpt lat="45.71619117166779" lon="10.530301674524402"><ele>1146.8</ele><time>2026-04-18T15:05:54Z</time></trkpt><trkpt lat="45.716210818902134" lon="10.530186684474968"><ele>1145.6</ele><time>2026-04-18T15:05:56Z</time></trkpt><trkpt lat="45.71626185456729" lon="10.530069344197846"><ele>1144.4</ele><time>2026-04-18T15:05:58Z</time></trkpt><trkpt lat="45.71625540270568" lon="10.529915594411436"><ele>1143.2</ele><time>2026-04-18T15:06:02Z</time></trkpt><trkpt lat="45.716271181882796" lon="10.52978663651697"><ele>1142.0</ele><time>2026-04-18T15:06:04Z</time></trkpt><trkpt lat="45.716297942985086" lon="10.52968962076266"><ele>1142.0</ele><time>2026-04-18T15:06:06Z</time></trkpt><trkpt lat="45.716367553701986" lon="10.529653514889512"><ele>1142.0</ele><time>2026-04-18T15:06:08Z</time></trkpt><trkpt lat="45.716404167554096" lon="10.529572539562192"><ele>1142.0</ele><time>2026-04-18T15:06:12Z</time></trkpt><trkpt lat="45.716447341113415" lon="10.529477933093952"><ele>1142.0</ele><time>2026-04-18T15:06:16Z</time></trkpt><trkpt lat="45.71647890163161" lon="10.529374054518561"><ele>1142.0</ele><time>2026-04-18T15:06:20Z</time></trkpt><trkpt lat="45.716430949624076" lon="10.529265027534864"><ele>1142.0</ele><time>2026-04-18T15:06:23Z</time></trkpt><trkpt lat="45.71638581529737" lon="10.529162237022335"><ele>1138.6666666666667</ele><time>2026-04-18T15:06:26Z</time></trkpt><trkpt lat="45.71638090308002" lon="10.529064433841636"><ele>1135.3333333333335</ele><time>2026-04-18T15:06:28Z</time></trkpt><trkpt lat="45.716388789933276" lon="10.528919042806"><ele>1132.0</ele><time>2026-04-18T15:06:30Z</time></trkpt><trkpt lat="45.71640291690094" lon="10.528820387907933"><ele>1128.6666666666667</ele><time>2026-04-18T15:06:32Z</time></trkpt><trkpt lat="45.71642341816522" lon="10.52870059752171"><ele>1125.3333333333333</ele><time>2026-04-18T15:06:34Z</time></trkpt><trkpt lat="45.71639404302769" lon="10.528590457339025"><ele>1122.0</ele><time>2026-04-18T15:06:36Z</time></trkpt><trkpt lat="45.71643105068626" lon="10.528512793428254"><ele>1118.6666666666667</ele><time>2026-04-18T15:06:38Z</time></trkpt><trkpt lat="45.716444111983265" lon="10.528404576918174"><ele>1115.3333333333333</ele><time>2026-04-18T15:06:41Z</time></trkpt><trkpt lat="45.7164538264411" lon="10.528280224850462"><ele>1112.0</ele><time>2026-04-18T15:06:43Z</time></trkpt><trkpt lat="45.7164319342969" lon="10.528180529972957"><ele>1108.6666666666665</ele><time>2026-04-18T15:06:45Z</time></trkpt><trkpt lat="45.71650444146231" lon="10.528142712500655"><ele>1105.3333333333333</ele><time>2026-04-18T15:06:47Z</time></trkpt><trkpt lat="45.71655006016337" lon="10.528218481855657"><ele>1102.0</ele><time>2026-04-18T15:06:48Z</time></trkpt><trkpt lat="45.71654731635725" lon="10.528348744446912"><ele>1102.0</ele><time>2026-04-18T15:06:50Z</time></trkpt><trkpt lat="45.71661511171469" lon="10.528369831395398"><ele>1102.0</ele><time>2026-04-18T15:06:53.001Z</time></trkpt><trkpt lat="45.71665930060003" lon="10.52827179730906"><ele>1102.0</ele><time>2026-04-18T15:06:55.001Z</time></trkpt><trkpt lat="45.71668008027453" lon="10.52816760432605"><ele>1102.0</ele><time>2026-04-18T15:06:56.001Z</time></trkpt><trkpt lat="45.716706741887556" lon="10.52807889756104"><ele>1102.0</ele><time>2026-04-18T15:06:57.001Z</time></trkpt><trkpt lat="45.7167139539687" lon="10.527988477156471"><ele>1102.0</ele><time>2026-04-18T15:06:58.001Z</time></trkpt><trkpt lat="45.716785616620854" lon="10.527828200705917"><ele>1100.0</ele><time>2026-04-18T15:07:00.001Z</time></trkpt><trkpt lat="45.71682730681986" lon="10.527710426274721"><ele>1098.0</ele><time>2026-04-18T15:07:02.001Z</time></trkpt><trkpt lat="45.716894832797436" lon="10.527617597796832"><ele>1096.0</ele><time>2026-04-18T15:07:04.001Z</time></trkpt><trkpt lat="45.716926394074825" lon="10.527469844790133"><ele>1094.0</ele><time>2026-04-18T15:07:06.001Z</time></trkpt><trkpt lat="45.71694390669513" lon="10.527379695604395"><ele>1092.0</ele><time>2026-04-18T15:07:07.001Z</time></trkpt><trkpt lat="45.71691171731608" lon="10.527245552797455"><ele>1088.5</ele><time>2026-04-18T15:07:09.001Z</time></trkpt><trkpt lat="45.716904766554066" lon="10.527151628318387"><ele>1085.0</ele><time>2026-04-18T15:07:11.001Z</time></trkpt><trkpt lat="45.71694390678079" lon="10.527240277387305"><ele>1081.5</ele><time>2026-04-18T15:07:13.001Z</time></trkpt><trkpt lat="45.71699514805588" lon="10.527310723591096"><ele>1078.0</ele><time>2026-04-18T15:07:15.001Z</time></trkpt><trkpt lat="45.71706054684667" lon="10.527354792806745"><ele>1074.5</ele><time>2026-04-18T15:07:17.001Z</time></trkpt><trkpt lat="45.71715146773673" lon="10.527312615436287"><ele>1071.0</ele><time>2026-04-18T15:07:21.001Z</time></trkpt><trkpt lat="45.71716624799564" lon="10.52720747891733"><ele>1071.0</ele><time>2026-04-18T15:07:23.001Z</time></trkpt><trkpt lat="45.71720284382809" lon="10.52711233451247"><ele>1071.0</ele><time>2026-04-18T15:07:25.001Z</time></trkpt><trkpt lat="45.71721666950822" lon="10.527018259736195"><ele>1071.0</ele><time>2026-04-18T15:07:27.001Z</time></trkpt><trkpt lat="45.717253295304076" lon="10.52691417710797"><ele>1071.0</ele><time>2026-04-18T15:07:29.001Z</time></trkpt><trkpt lat="45.71724827760834" lon="10.526810409760262"><ele>1071.0</ele><time>2026-04-18T15:07:34.001Z</time></trkpt><trkpt lat="45.717293106312006" lon="10.526743145106717"><ele>1071.0</ele><time>2026-04-18T15:07:35.001Z</time></trkpt><trkpt lat="45.71732710277293" lon="10.526654095016182"><ele>1071.0</ele><time>2026-04-18T15:07:37Z</time></trkpt><trkpt lat="45.71731728906944" lon="10.526556579712866"><ele>1066.8</ele><time>2026-04-18T15:07:39Z</time></trkpt><trkpt lat="45.717361769805436" lon="10.526404268984171"><ele>1062.6</ele><time>2026-04-18T15:07:41Z</time></trkpt><trkpt lat="45.717384516866844" lon="10.526237600688061"><ele>1058.4</ele><time>2026-04-18T15:07:43Z</time></trkpt><trkpt lat="45.71735677443227" lon="10.526109450928937"><ele>1054.2</ele><time>2026-04-18T15:07:45Z</time></trkpt><trkpt lat="45.71734155920326" lon="10.525980068454118"><ele>1050.0</ele><time>2026-04-18T15:07:47Z</time></trkpt><trkpt lat="45.71735308699503" lon="10.525874015811326"><ele>1048.4</ele><time>2026-04-18T15:07:48Z</time></trkpt><trkpt lat="45.717323684243894" lon="10.525714754589426"><ele>1046.8</ele><time>2026-04-18T15:07:50Z</time></trkpt><trkpt lat="45.71727426195012" lon="10.525573670952598"><ele>1045.2</ele><time>2026-04-18T15:07:52Z</time></trkpt><trkpt lat="45.71726062731047" lon="10.525437679335141"><ele>1043.6</ele><time>2026-04-18T15:07:54Z</time></trkpt><trkpt lat="45.717223660056035" lon="10.525290067983036"><ele>1042.0</ele><time>2026-04-18T15:07:56Z</time></trkpt><trkpt lat="45.71716182679205" lon="10.525215075531325"><ele>1039.8333333333333</ele><time>2026-04-18T15:07:57Z</time></trkpt><trkpt lat="45.71713382971816" lon="10.525026264161335"><ele>1037.6666666666665</ele><time>2026-04-18T15:07:59Z</time></trkpt><trkpt lat="45.717130717734086" lon="10.524929093492895"><ele>1035.5</ele><time>2026-04-18T15:08:00Z</time></trkpt><trkpt lat="45.71714634060122" lon="10.524834208641694"><ele>1033.3333333333333</ele><time>2026-04-18T15:08:01Z</time></trkpt><trkpt lat="45.7172094612202" lon="10.524727992067405"><ele>1031.1666666666667</ele><time>2026-04-18T15:08:02Z</time></trkpt><trkpt lat="45.71723220147747" lon="10.524628840097552"><ele>1029.0</ele><time>2026-04-18T15:08:03Z</time></trkpt><trkpt lat="45.717258001274935" lon="10.524510320944174"><ele>1026.0</ele><time>2026-04-18T15:08:05Z</time></trkpt><trkpt lat="45.71723942620547" lon="10.52438367927308"><ele>1023.0000000000001</ele><time>2026-04-18T15:08:07Z</time></trkpt><trkpt lat="45.71722060151703" lon="10.524292425078356"><ele>1020.0000000000001</ele><time>2026-04-18T15:08:09Z</time></trkpt><trkpt lat="45.717245838416794" lon="10.524138996999511"><ele>1017.0</ele><time>2026-04-18T15:08:11Z</time></trkpt><trkpt lat="45.71718847901536" lon="10.52397571014654"><ele>1014.0</ele><time>2026-04-18T15:08:13Z</time></trkpt><trkpt lat="45.71716238031105" lon="10.52383883848569"><ele>1014.0</ele><time>2026-04-18T15:08:15Z</time></trkpt><trkpt lat="45.717184940928654" lon="10.523744948734716"><ele>1014.0</ele><time>2026-04-18T15:08:16Z</time></trkpt><trkpt lat="45.71715722761831" lon="10.52360754893586"><ele>1014.0</ele><time>2026-04-18T15:08:18Z</time></trkpt><trkpt lat="45.71711073486673" lon="10.5235161690777"><ele>1014.0</ele><time>2026-04-18T15:08:20Z</time></trkpt><trkpt lat="45.71704076491071" lon="10.523442589981437"><ele>1014.0</ele><time>2026-04-18T15:09:00.001Z</time></trkpt><trkpt lat="45.717064283617155" lon="10.523353107528425"><ele>1014.0</ele><time>2026-04-18T15:09:01.001Z</time></trkpt><trkpt lat="45.71710808460333" lon="10.523263215151772"><ele>1011.5</ele><time>2026-04-18T15:09:03.001Z</time></trkpt><trkpt lat="45.71716018802426" lon="10.52320273976125"><ele>1009.0</ele><time>2026-04-18T15:09:05.001Z</time></trkpt><trkpt lat="45.71723675183685" lon="10.523082002445811"><ele>1006.5</ele><time>2026-04-18T15:09:07.001Z</time></trkpt><trkpt lat="45.71724892083256" lon="10.522963489906916"><ele>1004.0</ele><time>2026-04-18T15:09:11.001Z</time></trkpt><trkpt lat="45.71720292056667" lon="10.52289398774099"><ele>1001.5</ele><time>2026-04-18T15:09:12.001Z</time></trkpt><trkpt lat="45.71717351298385" lon="10.522794346360516"><ele>999.0</ele><time>2026-04-18T15:09:13.001Z</time></trkpt><trkpt lat="45.71719194714995" lon="10.522681950033995"><ele>998.0</ele><time>2026-04-18T15:09:15.001Z</time></trkpt><trkpt lat="45.717212178906955" lon="10.522544346052026"><ele>997.0</ele><time>2026-04-18T15:09:17.001Z</time></trkpt><trkpt lat="45.71727446909338" lon="10.522445736851845"><ele>996.0</ele><time>2026-04-18T15:09:19.001Z</time></trkpt><trkpt lat="45.717339795658845" lon="10.522461699547868"><ele>995.0</ele><time>2026-04-18T15:09:21.001Z</time></trkpt><trkpt lat="45.717400121059" lon="10.522516204894021"><ele>994.0</ele><time>2026-04-18T15:09:22.001Z</time></trkpt><trkpt lat="45.71743482323261" lon="10.522593707878041"><ele>993.0</ele><time>2026-04-18T15:09:23.001Z</time></trkpt><trkpt lat="45.71751015265188" lon="10.52270652960424"><ele>993.0</ele><time>2026-04-18T15:09:25.001Z</time></trkpt><trkpt lat="45.71756043349492" lon="10.522821722271388"><ele>993.0</ele><time>2026-04-18T15:09:27.001Z</time></trkpt><trkpt lat="45.71762517762792" lon="10.522813280447204"><ele>993.0</ele><time>2026-04-18T15:09:29.001Z</time></trkpt><trkpt lat="45.71765940518352" lon="10.52272186595517"><ele>993.0</ele><time>2026-04-18T15:09:30.001Z</time></trkpt><trkpt lat="45.71770245901625" lon="10.522633940544226"><ele>993.0</ele><time>2026-04-18T15:09:32.001Z</time></trkpt><trkpt lat="45.71771948456722" lon="10.522513958980236"><ele>993.0</ele><time>2026-04-18T15:09:34.001Z</time></trkpt><trkpt lat="45.717768601334065" lon="10.522366810717337"><ele>987.2857142857142</ele><time>2026-04-18T15:09:36.001Z</time></trkpt><trkpt lat="45.71782693382648" lon="10.52223783588945"><ele>981.5714285714287</ele><time>2026-04-18T15:09:38.001Z</time></trkpt><trkpt lat="45.71780101864186" lon="10.522149733363449"><ele>975.8571428571429</ele><time>2026-04-18T15:09:40.001Z</time></trkpt><trkpt lat="45.71783151527915" lon="10.52204909130649"><ele>970.1428571428571</ele><time>2026-04-18T15:09:49Z</time></trkpt><trkpt lat="45.717870595260614" lon="10.521965671039117"><ele>964.4285714285713</ele><time>2026-04-18T15:09:50Z</time></trkpt><trkpt lat="45.717898610717896" lon="10.52188419837547"><ele>958.7142857142858</ele><time>2026-04-18T15:09:51Z</time></trkpt><trkpt lat="45.71793109494319" lon="10.521803409124463"><ele>953.0</ele><time>2026-04-18T15:09:52Z</time></trkpt><trkpt lat="45.71798211143737" lon="10.521695575209193"><ele>951.6666666666667</ele><time>2026-04-18T15:09:54Z</time></trkpt><trkpt lat="45.718023920152305" lon="10.521621101613764"><ele>950.3333333333334</ele><time>2026-04-18T15:09:56Z</time></trkpt><trkpt lat="45.718077485682834" lon="10.521502475274044"><ele>949.0</ele><time>2026-04-18T15:09:58Z</time></trkpt><trkpt lat="45.71804145481334" lon="10.521359117064693"><ele>947.6666666666667</ele><time>2026-04-18T15:10:00Z</time></trkpt><trkpt lat="45.7180381898696" lon="10.521259420514493"><ele>946.3333333333334</ele><time>2026-04-18T15:10:02Z</time></trkpt><trkpt lat="45.7180576750084" lon="10.521126692528588"><ele>945.0</ele><time>2026-04-18T15:10:05Z</time></trkpt><trkpt lat="45.71812124560944" lon="10.521056526039965"><ele>944.0</ele><time>2026-04-18T15:10:09Z</time></trkpt><trkpt lat="45.71823355410185" lon="10.521020519612401"><ele>943.0</ele><time>2026-04-18T15:10:11Z</time></trkpt><trkpt lat="45.718307174123716" lon="10.521107073191848"><ele>942.0</ele><time>2026-04-18T15:10:14Z</time></trkpt><trkpt lat="45.718399209228664" lon="10.52117171796517"><ele>941.0</ele><time>2026-04-18T15:10:16Z</time></trkpt><trkpt lat="45.7184679290745" lon="10.52108580709995"><ele>940.0</ele><time>2026-04-18T15:10:19Z</time></trkpt><trkpt lat="45.718471469612716" lon="10.52095139553058"><ele>939.9999999999999</ele><time>2026-04-18T15:10:21Z</time></trkpt><trkpt lat="45.718504561009055" lon="10.520832007927643"><ele>940.0</ele><time>2026-04-18T15:10:23Z</time></trkpt><trkpt lat="45.71856995550003" lon="10.520712982969929"><ele>940.0</ele><time>2026-04-18T15:10:25Z</time></trkpt><trkpt lat="45.71863920553544" lon="10.520654744838383"><ele>940.0</ele><time>2026-04-18T15:10:27Z</time></trkpt><trkpt lat="45.71868848329682" lon="10.520562648608713"><ele>939.9999999999999</ele><time>2026-04-18T15:10:29Z</time></trkpt><trkpt lat="45.718713255387556" lon="10.520452862375478"><ele>940.0</ele><time>2026-04-18T15:10:31Z</time></trkpt><trkpt lat="45.718853861186055" lon="10.520371365333595"><ele>936.3333333333333</ele><time>2026-04-18T15:10:33Z</time></trkpt><trkpt lat="45.71891617659745" lon="10.520305855392376"><ele>932.6666666666666</ele><time>2026-04-18T15:10:35Z</time></trkpt><trkpt lat="45.718979784016106" lon="10.520249274576127"><ele>929.0</ele><time>2026-04-18T15:10:37Z</time></trkpt><trkpt lat="45.71905115645445" lon="10.520214127206943"><ele>925.3333333333333</ele><time>2026-04-18T15:10:38Z</time></trkpt><trkpt lat="45.719064530168254" lon="10.520101668840688"><ele>921.6666666666666</ele><time>2026-04-18T15:10:40Z</time></trkpt><trkpt lat="45.71900427669277" lon="10.51994540433187"><ele>918.0</ele><time>2026-04-18T15:10:42Z</time></trkpt><trkpt lat="45.7189873908253" lon="10.51984589133319"><ele>918.0</ele><time>2026-04-18T15:10:43Z</time></trkpt><trkpt lat="45.71897654855323" lon="10.519756252916347"><ele>918.0</ele><time>2026-04-18T15:10:44Z</time></trkpt><trkpt lat="45.71893191227679" lon="10.51969246054374"><ele>918.0</ele><time>2026-04-18T15:10:45Z</time></trkpt><trkpt lat="45.71889118041713" lon="10.519602080860134"><ele>918.0</ele><time>2026-04-18T15:10:47Z</time></trkpt><trkpt lat="45.71883771846181" lon="10.519525162387348"><ele>918.0</ele><time>2026-04-18T15:10:50Z</time></trkpt><trkpt lat="45.718799044632256" lon="10.519443077403789"><ele>918.0</ele><time>2026-04-18T15:10:53Z</time></trkpt><trkpt lat="45.71875175986977" lon="10.51937960139301"><ele>918.0</ele><time>2026-04-18T15:10:56Z</time></trkpt><trkpt lat="45.71868807318497" lon="10.51930584188034"><ele>915.5</ele><time>2026-04-18T15:10:58Z</time></trkpt><trkpt lat="45.71864690042145" lon="10.519198961619399"><ele>913.0</ele><time>2026-04-18T15:11:00Z</time></trkpt><trkpt lat="45.71857715147635" lon="10.51920080442748"><ele>910.5</ele><time>2026-04-18T15:11:04.001Z</time></trkpt><trkpt lat="45.71848906102047" lon="10.519194722684725"><ele>908.0</ele><time>2026-04-18T15:11:08.001Z</time></trkpt><trkpt lat="45.71842415521009" lon="10.519210181418755"><ele>905.5</ele><time>2026-04-18T15:11:09.001Z</time></trkpt><trkpt lat="45.71834933208312" lon="10.519179882408132"><ele>903.0</ele><time>2026-04-18T15:11:13.001Z</time></trkpt><trkpt lat="45.71824012958051" lon="10.51917910316818"><ele>903.0</ele><time>2026-04-18T15:11:14.001Z</time></trkpt><trkpt lat="45.718159368158766" lon="10.519128715606444"><ele>903.0</ele><time>2026-04-18T15:11:17.001Z</time></trkpt><trkpt lat="45.71810797745079" lon="10.519065248864045"><ele>903.0</ele><time>2026-04-18T15:11:18.001Z</time></trkpt><trkpt lat="45.7181447527738" lon="10.51897236108602"><ele>903.0</ele><time>2026-04-18T15:11:20.001Z</time></trkpt><trkpt lat="45.7181891604345" lon="10.51885435097219"><ele>903.0</ele><time>2026-04-18T15:11:22.001Z</time></trkpt><trkpt lat="45.7183225710377" lon="10.51879033841813"><ele>903.0</ele><time>2026-04-18T15:11:36.001Z</time></trkpt><trkpt lat="45.718222680004686" lon="10.518744012766394"><ele>903.0</ele><time>2026-04-18T15:11:43.001Z</time></trkpt><trkpt lat="45.718191291827715" lon="10.518664810043827"><ele>903.0</ele><time>2026-04-18T15:11:45.001Z</time></trkpt><trkpt lat="45.718204982162476" lon="10.518528629641064"><ele>903.0</ele><time>2026-04-18T15:11:49Z</time></trkpt><trkpt lat="45.71827854454379" lon="10.518448550822335"><ele>903.0</ele><time>2026-04-18T15:11:51Z</time></trkpt><trkpt lat="45.718335827433435" lon="10.518316405738831"><ele>897.1666666666666</ele><time>2026-04-18T15:11:54Z</time></trkpt><trkpt lat="45.71843988502095" lon="10.518282088184012"><ele>891.3333333333333</ele><time>2026-04-18T15:11:57Z</time></trkpt><trkpt lat="45.71850197007444" lon="10.518208730442208"><ele>885.5</ele><time>2026-04-18T15:11:59Z</time></trkpt><trkpt lat="45.71857148963498" lon="10.518197027528743"><ele>879.6666666666666</ele><time>2026-04-18T15:12:01Z</time></trkpt><trkpt lat="45.71865391084701" lon="10.518190878657704"><ele>873.8333333333333</ele><time>2026-04-18T15:12:03Z</time></trkpt><trkpt lat="45.718709651120086" lon="10.51808655833433"><ele>868.0</ele><time>2026-04-18T15:12:05Z</time></trkpt><trkpt lat="45.71878524485028" lon="10.518077600883826"><ele>865.9999999999999</ele><time>2026-04-18T15:12:07Z</time></trkpt><trkpt lat="45.71885974683203" lon="10.518096596374338"><ele>864.0</ele><time>2026-04-18T15:12:09Z</time></trkpt><trkpt lat="45.71894143321184" lon="10.518140755627156"><ele>862.0</ele><time>2026-04-18T15:12:11Z</time></trkpt><trkpt lat="45.71901386787591" lon="10.518222097263395"><ele>860.0</ele><time>2026-04-18T15:12:13Z</time></trkpt><trkpt lat="45.71907837901758" lon="10.518271589624902"><ele>857.9999999999999</ele><time>2026-04-18T15:12:14Z</time></trkpt><trkpt lat="45.71915906944202" lon="10.518352367261635"><ele>856.0</ele><time>2026-04-18T15:12:17Z</time></trkpt><trkpt lat="45.71923157998775" lon="10.518378842468753"><ele>856.0</ele><time>2026-04-18T15:12:19Z</time></trkpt><trkpt lat="45.71932436179426" lon="10.51840412921221"><ele>855.9999999999999</ele><time>2026-04-18T15:12:21Z</time></trkpt><trkpt lat="45.719463581780374" lon="10.518420484493912"><ele>855.9999999999999</ele><time>2026-04-18T15:12:23Z</time></trkpt><trkpt lat="45.719530128605264" lon="10.518442715580745"><ele>856.0</ele><time>2026-04-18T15:12:25Z</time></trkpt><trkpt lat="45.71961809914779" lon="10.518445855848029"><ele>856.0</ele><time>2026-04-18T15:12:27Z</time></trkpt><trkpt lat="45.71969853626491" lon="10.518467820721417"><ele>853.9999999999999</ele><time>2026-04-18T15:12:30Z</time></trkpt><trkpt lat="45.71976658232697" lon="10.518514986791015"><ele>852.0</ele><time>2026-04-18T15:12:34Z</time></trkpt><trkpt lat="45.719844324140915" lon="10.518507232670968"><ele>850.0</ele><time>2026-04-18T15:12:37Z</time></trkpt><trkpt lat="45.719907879244886" lon="10.518478989174024"><ele>848.0</ele><time>2026-04-18T15:12:39Z</time></trkpt><trkpt lat="45.72001353055791" lon="10.518452988323274"><ele>845.9999999999999</ele><time>2026-04-18T15:12:42Z</time></trkpt><trkpt lat="45.72007570088885" lon="10.518401228785791"><ele>844.0</ele><time>2026-04-18T15:12:45Z</time></trkpt><trkpt lat="45.72009741611237" lon="10.518279753383865"><ele>843.9999999999999</ele><time>2026-04-18T15:12:48Z</time></trkpt><trkpt lat="45.72010849630011" lon="10.518188016186764"><ele>844.0</ele><time>2026-04-18T15:12:50Z</time></trkpt><trkpt lat="45.720007817655194" lon="10.518141063701066"><ele>844.0</ele><time>2026-04-18T15:12:52Z</time></trkpt><trkpt lat="45.719942551202166" lon="10.518188670914087"><ele>844.0</ele><time>2026-04-18T15:13:07.001Z</time></trkpt><trkpt lat="45.71987322846335" lon="10.51814018725372"><ele>843.9999999999999</ele><time>2026-04-18T15:13:15.001Z</time></trkpt><trkpt lat="45.71978826891537" lon="10.518134277211448"><ele>844.0</ele><time>2026-04-18T15:13:17.001Z</time></trkpt><trkpt lat="45.719702501035734" lon="10.518086471791564"><ele>843.9999999999999</ele><time>2026-04-18T15:13:19.001Z</time></trkpt><trkpt lat="45.7196332379383" lon="10.51798889499986"><ele>844.0</ele><time>2026-04-18T15:13:20.001Z</time></trkpt><trkpt lat="45.719600382526565" lon="10.517897544235385"><ele>844.0</ele><time>2026-04-18T15:13:23.001Z</time></trkpt><trkpt lat="45.719598712500016" lon="10.517793104537864"><ele>844.0</ele><time>2026-04-18T15:13:27.001Z</time></trkpt><trkpt lat="45.719605083134226" lon="10.51768927406724"><ele>843.9999999999999</ele><time>2026-04-18T15:13:32.001Z</time></trkpt><trkpt lat="45.71958846687456" lon="10.51760209613148"><ele>844.0</ele><time>2026-04-18T15:13:35.001Z</time></trkpt><trkpt lat="45.7195907051861" lon="10.517470826243505"><ele>839.8000000000001</ele><time>2026-04-18T15:13:37.001Z</time></trkpt><trkpt lat="45.719608210659274" lon="10.517326278016421"><ele>835.6</ele><time>2026-04-18T15:13:39.001Z</time></trkpt><trkpt lat="45.71967421141975" lon="10.517260985095929"><ele>831.4</ele><time>2026-04-18T15:13:41.001Z</time></trkpt><trkpt lat="45.719766024617265" lon="10.51718206009178"><ele>827.2</ele><time>2026-04-18T15:13:44.001Z</time></trkpt><trkpt lat="45.71985899761019" lon="10.51714864234216"><ele>823.0</ele><time>2026-04-18T15:13:46.001Z</time></trkpt><trkpt lat="45.719930745478564" lon="10.51711668099529"><ele>823.0</ele><time>2026-04-18T15:13:48.001Z</time></trkpt><trkpt lat="45.72001363785628" lon="10.517159260069905"><ele>823.0</ele><time>2026-04-18T15:13:50.001Z</time></trkpt><trkpt lat="45.720193107255255" lon="10.517220806808732"><ele>823.0</ele><time>2026-04-18T15:13:56Z</time></trkpt><trkpt lat="45.72030292383811" lon="10.517228895826513"><ele>823.0</ele><time>2026-04-18T15:13:58Z</time></trkpt><trkpt lat="45.72036775205336" lon="10.517227259153886"><ele>823.0</ele><time>2026-04-18T15:13:59Z</time></trkpt><trkpt lat="45.72044596296284" lon="10.517195097933604"><ele>824.4285714285714</ele><time>2026-04-18T15:14:01Z</time></trkpt><trkpt lat="45.72050958285416" lon="10.517146546674415"><ele>825.8571428571429</ele><time>2026-04-18T15:14:03Z</time></trkpt><trkpt lat="45.72057937523282" lon="10.517130093025346"><ele>827.2857142857142</ele><time>2026-04-18T15:14:05Z</time></trkpt><trkpt lat="45.720645131460465" lon="10.517128828517569"><ele>828.7142857142858</ele><time>2026-04-18T15:14:08Z</time></trkpt><trkpt lat="45.72071905315265" lon="10.51716341339928"><ele>830.1428571428571</ele><time>2026-04-18T15:14:12Z</time></trkpt><trkpt lat="45.720760270286256" lon="10.517236653910063"><ele>831.5714285714286</ele><time>2026-04-18T15:14:14Z</time></trkpt><trkpt lat="45.7208361880869" lon="10.517225013145843"><ele>833.0</ele><time>2026-04-18T15:14:17Z</time></trkpt><trkpt lat="45.72089864920596" lon="10.517212541283982"><ele>833.0000000000001</ele><time>2026-04-18T15:14:20Z</time></trkpt><trkpt lat="45.721007123531336" lon="10.517145583358513"><ele>833.0</ele><time>2026-04-18T15:14:22Z</time></trkpt><trkpt lat="45.72104204718389" lon="10.517063944023196"><ele>833.0</ele><time>2026-04-18T15:14:23Z</time></trkpt><trkpt lat="45.721078567514574" lon="10.51696760335482"><ele>833.0</ele><time>2026-04-18T15:14:25Z</time></trkpt><trkpt lat="45.721136483976395" lon="10.516872965787393"><ele>833.0000000000001</ele><time>2026-04-18T15:14:27Z</time></trkpt><trkpt lat="45.721221869730115" lon="10.516843826008078"><ele>833.0</ele><time>2026-04-18T15:14:29Z</time></trkpt><trkpt lat="45.72124413648485" lon="10.516721451821354"><ele>831.3333333333334</ele><time>2026-04-18T15:14:32Z</time></trkpt><trkpt lat="45.7211741371102" lon="10.516738906337375"><ele>829.6666666666667</ele><time>2026-04-18T15:16:05Z</time></trkpt><trkpt lat="45.721094013310434" lon="10.51670303378108"><ele>828.0</ele><time>2026-04-18T15:16:07Z</time></trkpt><trkpt lat="45.72102434551936" lon="10.516684003638554"><ele>826.3333333333333</ele><time>2026-04-18T15:16:08Z</time></trkpt><trkpt lat="45.72096448103057" lon="10.516638111082354"><ele>824.6666666666666</ele><time>2026-04-18T15:16:09Z</time></trkpt><trkpt lat="45.72089495673106" lon="10.516533859373153"><ele>823.0</ele><time>2026-04-18T15:16:10Z</time></trkpt><trkpt lat="45.72083727112122" lon="10.516458837205077"><ele>821.8333333333333</ele><time>2026-04-18T15:16:11Z</time></trkpt><trkpt lat="45.72079993399522" lon="10.516330556043728"><ele>820.6666666666666</ele><time>2026-04-18T15:16:13Z</time></trkpt><trkpt lat="45.72074825405145" lon="10.516255013622665"><ele>819.5</ele><time>2026-04-18T15:16:14Z</time></trkpt><trkpt lat="45.72071093192894" lon="10.516178333535496"><ele>818.3333333333333</ele><time>2026-04-18T15:16:15Z</time></trkpt><trkpt lat="45.72063925655797" lon="10.516084240269457"><ele>817.1666666666666</ele><time>2026-04-18T15:16:17Z</time></trkpt><trkpt lat="45.720580363724416" lon="10.516116913373162"><ele>816.0</ele><time>2026-04-18T15:16:18Z</time></trkpt><trkpt lat="45.720533277501886" lon="10.516178069004129"><ele>813.8333333333334</ele><time>2026-04-18T15:16:19Z</time></trkpt><trkpt lat="45.720469234704126" lon="10.516295778082975"><ele>811.6666666666667</ele><time>2026-04-18T15:16:21Z</time></trkpt><trkpt lat="45.72039250585358" lon="10.51633781246721"><ele>809.5</ele><time>2026-04-18T15:16:22Z</time></trkpt><trkpt lat="45.72032094765367" lon="10.516329668033784"><ele>807.3333333333334</ele><time>2026-04-18T15:16:23Z</time></trkpt><trkpt lat="45.72024501469922" lon="10.516314997527113"><ele>805.1666666666667</ele><time>2026-04-18T15:16:24Z</time></trkpt><trkpt lat="45.72017475841064" lon="10.516285708933776"><ele>803.0</ele><time>2026-04-18T15:16:25Z</time></trkpt><trkpt lat="45.72011111330511" lon="10.516226014318116"><ele>802.8333333333334</ele><time>2026-04-18T15:16:26Z</time></trkpt><trkpt lat="45.72004883420631" lon="10.516176276920898"><ele>802.6666666666667</ele><time>2026-04-18T15:16:27Z</time></trkpt><trkpt lat="45.7199784079602" lon="10.516118181018603"><ele>802.5</ele><time>2026-04-18T15:16:28Z</time></trkpt><trkpt lat="45.71990965419748" lon="10.51608180848704"><ele>802.3333333333333</ele><time>2026-04-18T15:16:29Z</time></trkpt><trkpt lat="45.719820900848084" lon="10.51605584476277"><ele>802.1666666666666</ele><time>2026-04-18T15:16:30Z</time></trkpt><trkpt lat="45.719754771025315" lon="10.516020950762133"><ele>802.0</ele><time>2026-04-18T15:16:31Z</time></trkpt><trkpt lat="45.71968598966048" lon="10.515979494608183"><ele>801.9999999999999</ele><time>2026-04-18T15:16:32Z</time></trkpt><trkpt lat="45.71962517969249" lon="10.515946621686837"><ele>802.0</ele><time>2026-04-18T15:16:33Z</time></trkpt><trkpt lat="45.7195764460737" lon="10.51587280304765"><ele>802.0</ele><time>2026-04-18T15:16:34Z</time></trkpt><trkpt lat="45.71953887960687" lon="10.515762712316548"><ele>802.0</ele><time>2026-04-18T15:16:35Z</time></trkpt><trkpt lat="45.71949178717107" lon="10.515648650470608"><ele>801.9999999999999</ele><time>2026-04-18T15:16:37Z</time></trkpt><trkpt lat="45.71944671361379" lon="10.515737778817305"><ele>802.0</ele><time>2026-04-18T15:16:40Z</time></trkpt><trkpt lat="45.719513111783954" lon="10.515848112834405"><ele>801.9999999999999</ele><time>2026-04-18T15:16:42Z</time></trkpt><trkpt lat="45.71953300056771" lon="10.515975920448772"><ele>802.0</ele><time>2026-04-18T15:16:44Z</time></trkpt><trkpt lat="45.719462752857744" lon="10.515997246870754"><ele>802.0</ele><time>2026-04-18T15:16:46Z</time></trkpt><trkpt lat="45.71941671133707" lon="10.515909629658017"><ele>802.0</ele><time>2026-04-18T15:16:47Z</time></trkpt><trkpt lat="45.7193561395613" lon="10.515792479530711"><ele>801.9999999999999</ele><time>2026-04-18T15:16:48Z</time></trkpt><trkpt lat="45.71929167768556" lon="10.5156741716765"><ele>802.0</ele><time>2026-04-18T15:16:49Z</time></trkpt><trkpt lat="45.71923409187067" lon="10.51549406955223"><ele>797.8333333333333</ele><time>2026-04-18T15:16:50Z</time></trkpt><trkpt lat="45.7191874285991" lon="10.515387800774866"><ele>793.6666666666666</ele><time>2026-04-18T15:16:51Z</time></trkpt><trkpt lat="45.719137174759055" lon="10.515295400906615"><ele>789.5</ele><time>2026-04-18T15:16:52Z</time></trkpt><trkpt lat="45.719115344258356" lon="10.51519095299293"><ele>785.3333333333333</ele><time>2026-04-18T15:16:53Z</time></trkpt><trkpt lat="45.71909595061203" lon="10.515087034912712"><ele>781.1666666666666</ele><time>2026-04-18T15:16:54Z</time></trkpt><trkpt lat="45.71907883567945" lon="10.514999734256937"><ele>777.0</ele><time>2026-04-18T15:16:55Z</time></trkpt><trkpt lat="45.71913442678423" lon="10.514921909983013"><ele>777.0</ele><time>2026-04-18T15:16:56Z</time></trkpt><trkpt lat="45.71914474385766" lon="10.514832441758385"><ele>777.0</ele><time>2026-04-18T15:16:57Z</time></trkpt><trkpt lat="45.71911151332464" lon="10.514684623076834"><ele>777.0</ele><time>2026-04-18T15:16:59Z</time></trkpt><trkpt lat="45.71907638401943" lon="10.514587512981434"><ele>777.0</ele><time>2026-04-18T15:17:00Z</time></trkpt><trkpt lat="45.71904030580298" lon="10.514481559140279"><ele>777.0</ele><time>2026-04-18T15:17:01Z</time></trkpt><trkpt lat="45.71895514692242" lon="10.51438769430762"><ele>777.0</ele><time>2026-04-18T15:17:02Z</time></trkpt><trkpt lat="45.718891557423106" lon="10.51429851698375"><ele>777.6666666666666</ele><time>2026-04-18T15:17:03Z</time></trkpt><trkpt lat="45.71884324419242" lon="10.5142050330139"><ele>778.3333333333333</ele><time>2026-04-18T15:17:04Z</time></trkpt><trkpt lat="45.71879777058097" lon="10.514120427527935"><ele>779.0</ele><time>2026-04-18T15:17:05Z</time></trkpt><trkpt lat="45.71875640109403" lon="10.514033416618426"><ele>779.6666666666666</ele><time>2026-04-18T15:17:06Z</time></trkpt><trkpt lat="45.718719243834485" lon="10.513950337549849"><ele>780.3333333333333</ele><time>2026-04-18T15:17:07Z</time></trkpt><trkpt lat="45.7186885049743" lon="10.51384986379989"><ele>781.0</ele><time>2026-04-18T15:17:08Z</time></trkpt><trkpt lat="45.718642225758266" lon="10.513764451112998"><ele>782.1999999999999</ele><time>2026-04-18T15:17:09Z</time></trkpt><trkpt lat="45.718604266134165" lon="10.513682502693946"><ele>783.4</ele><time>2026-04-18T15:17:10Z</time></trkpt><trkpt lat="45.718540366420385" lon="10.513531488544963"><ele>784.6</ele><time>2026-04-18T15:17:12Z</time></trkpt><trkpt lat="45.71849538053032" lon="10.513408364670953"><ele>785.8</ele><time>2026-04-18T15:17:14Z</time></trkpt><trkpt lat="45.71843925668253" lon="10.513331987859477"><ele>787.0</ele><time>2026-04-18T15:17:15Z</time></trkpt><trkpt lat="45.71837055799111" lon="10.51320998634822"><ele>780.2</ele><time>2026-04-18T15:17:17Z</time></trkpt><trkpt lat="45.71832670549579" lon="10.513043221876162"><ele>773.4000000000001</ele><time>2026-04-18T15:17:19.001Z</time></trkpt><trkpt lat="45.71828332916418" lon="10.512967904422455"><ele>766.5999999999999</ele><time>2026-04-18T15:17:20.001Z</time></trkpt><trkpt lat="45.71822386862151" lon="10.512912034032167"><ele>759.8</ele><time>2026-04-18T15:17:21.001Z</time></trkpt><trkpt lat="45.71815626047747" lon="10.51278687097724"><ele>753.0</ele><time>2026-04-18T15:17:23.001Z</time></trkpt><trkpt lat="45.71816818064361" lon="10.51260205961862"><ele>752.2</ele><time>2026-04-18T15:17:25.001Z</time></trkpt><trkpt lat="45.71813988116302" lon="10.512467075529482"><ele>751.4</ele><time>2026-04-18T15:17:27.001Z</time></trkpt><trkpt lat="45.7180353024046" lon="10.51248624059816"><ele>750.6</ele><time>2026-04-18T15:17:29.001Z</time></trkpt><trkpt lat="45.717907724024926" lon="10.512416441025263"><ele>749.8000000000001</ele><time>2026-04-18T15:17:31.001Z</time></trkpt><trkpt lat="45.71784980113829" lon="10.512369526214746"><ele>749.0</ele><time>2026-04-18T15:17:32.001Z</time></trkpt><trkpt lat="45.71777148353711" lon="10.512274059724199"><ele>749.0</ele><time>2026-04-18T15:17:34.001Z</time></trkpt><trkpt lat="45.717747739121776" lon="10.512183812505345"><ele>749.0</ele><time>2026-04-18T15:17:35.001Z</time></trkpt><trkpt lat="45.717691701879716" lon="10.51209574008319"><ele>749.0</ele><time>2026-04-18T15:17:38.001Z</time></trkpt><trkpt lat="45.71759969259516" lon="10.512161697963311"><ele>749.0</ele><time>2026-04-18T15:17:40.001Z</time></trkpt><trkpt lat="45.717527521925234" lon="10.512213907714978"><ele>749.0</ele><time>2026-04-18T15:17:42.001Z</time></trkpt><trkpt lat="45.7174502399475" lon="10.512133672801513"><ele>749.0</ele><time>2026-04-18T15:17:44.001Z</time></trkpt><trkpt lat="45.717396768579505" lon="10.512083002782852"><ele>742.8000000000001</ele><time>2026-04-18T15:17:45.001Z</time></trkpt><trkpt lat="45.71740140666205" lon="10.511952998892358"><ele>736.6</ele><time>2026-04-18T15:17:46.001Z</time></trkpt><trkpt lat="45.71741106681437" lon="10.511859862149398"><ele>730.4</ele><time>2026-04-18T15:17:47.001Z</time></trkpt><trkpt lat="45.717449911424616" lon="10.511696468845583"><ele>724.2</ele><time>2026-04-18T15:17:49.001Z</time></trkpt><trkpt lat="45.717499912267236" lon="10.511562887419444"><ele>718.0</ele><time>2026-04-18T15:17:51.001Z</time></trkpt><trkpt lat="45.717469306982515" lon="10.51145996115057"><ele>718.0</ele><time>2026-04-18T15:17:54.001Z</time></trkpt><trkpt lat="45.71741086151648" lon="10.511500382419305"><ele>718.0</ele><time>2026-04-18T15:17:55.001Z</time></trkpt><trkpt lat="45.717330230407484" lon="10.511524551718045"><ele>718.0</ele><time>2026-04-18T15:17:57.001Z</time></trkpt><trkpt lat="45.71720883540808" lon="10.51148612697753"><ele>718.0</ele><time>2026-04-18T15:17:59.001Z</time></trkpt><trkpt lat="45.71710526610978" lon="10.511484811386968"><ele>718.0</ele><time>2026-04-18T15:18:01.001Z</time></trkpt><trkpt lat="45.717040657884446" lon="10.511499484112901"><ele>718.0</ele><time>2026-04-18T15:18:03.001Z</time></trkpt><trkpt lat="45.71693659720877" lon="10.511582355709946"><ele>714.1666666666667</ele><time>2026-04-18T15:18:05.001Z</time></trkpt><trkpt lat="45.716878516034335" lon="10.511704513630985"><ele>710.3333333333334</ele><time>2026-04-18T15:18:07Z</time></trkpt><trkpt lat="45.716807130204955" lon="10.511783227735245"><ele>706.5</ele><time>2026-04-18T15:18:10Z</time></trkpt><trkpt lat="45.71673848566772" lon="10.511768081411335"><ele>702.6666666666666</ele><time>2026-04-18T15:18:11Z</time></trkpt><trkpt lat="45.71666719030034" lon="10.511753100397796"><ele>698.8333333333333</ele><time>2026-04-18T15:18:12Z</time></trkpt><trkpt lat="45.71659767305446" lon="10.511758808679565"><ele>695.0</ele><time>2026-04-18T15:18:13Z</time></trkpt><trkpt lat="45.71651175604834" lon="10.511729106883346"><ele>695.0</ele><time>2026-04-18T15:18:15Z</time></trkpt><trkpt lat="45.716459735998555" lon="10.511654489661936"><ele>695.0</ele><time>2026-04-18T15:18:16Z</time></trkpt><trkpt lat="45.71642036902588" lon="10.511580326124484"><ele>695.0</ele><time>2026-04-18T15:18:17Z</time></trkpt><trkpt lat="45.716311099908836" lon="10.511478073839978"><ele>695.0</ele><time>2026-04-18T15:18:19Z</time></trkpt><trkpt lat="45.71623663253385" lon="10.51142533727382"><ele>695.0</ele><time>2026-04-18T15:18:21Z</time></trkpt><trkpt lat="45.71620732763036" lon="10.511343362897826"><ele>695.0</ele><time>2026-04-18T15:18:22Z</time></trkpt><trkpt lat="45.71614761031739" lon="10.511223215393175"><ele>689.8</ele><time>2026-04-18T15:18:24Z</time></trkpt><trkpt lat="45.71606186050509" lon="10.511098112815352"><ele>684.6</ele><time>2026-04-18T15:18:26Z</time></trkpt><trkpt lat="45.7159855512715" lon="10.511032027134856"><ele>679.4000000000001</ele><time>2026-04-18T15:18:27Z</time></trkpt><trkpt lat="45.715910015576064" lon="10.511021890468065"><ele>674.2</ele><time>2026-04-18T15:18:28Z</time></trkpt><trkpt lat="45.715845022720075" lon="10.51098936581927"><ele>669.0</ele><time>2026-04-18T15:18:29Z</time></trkpt><trkpt lat="45.71571962073622" lon="10.510939551935563"><ele>669.0</ele><time>2026-04-18T15:18:31Z</time></trkpt><trkpt lat="45.715634440516865" lon="10.510838011115181"><ele>669.0</ele><time>2026-04-18T15:18:33Z</time></trkpt><trkpt lat="45.71558678877672" lon="10.510771763960742"><ele>669.0</ele><time>2026-04-18T15:18:34Z</time></trkpt><trkpt lat="45.71552622216348" lon="10.510713068574553"><ele>669.0</ele><time>2026-04-18T15:18:35Z</time></trkpt><trkpt lat="45.71547219767559" lon="10.510566516911501"><ele>669.0</ele><time>2026-04-18T15:18:37Z</time></trkpt><trkpt lat="45.715414969311766" lon="10.510475011969412"><ele>669.0</ele><time>2026-04-18T15:18:39Z</time></trkpt><trkpt lat="45.71533145846717" lon="10.510458209143717"><ele>669.0</ele><time>2026-04-18T15:18:40Z</time></trkpt><trkpt lat="45.71524464542922" lon="10.510456154396119"><ele>669.0</ele><time>2026-04-18T15:18:41Z</time></trkpt><trkpt lat="45.71518708824226" lon="10.510419255712169"><ele>669.0</ele><time>2026-04-18T15:18:42Z</time></trkpt><trkpt lat="45.715131482170804" lon="10.510365102241888"><ele>669.0</ele><time>2026-04-18T15:18:43Z</time></trkpt><trkpt lat="45.71507024765295" lon="10.51033248979531"><ele>669.0</ele><time>2026-04-18T15:18:44Z</time></trkpt><trkpt lat="45.7149640033438" lon="10.510251927288895"><ele>668.3333333333334</ele><time>2026-04-18T15:18:46Z</time></trkpt><trkpt lat="45.714857098327315" lon="10.510285563112646"><ele>667.6666666666666</ele><time>2026-04-18T15:18:48Z</time></trkpt><trkpt lat="45.71476332698831" lon="10.510226441232376"><ele>667.0</ele><time>2026-04-18T15:18:50Z</time></trkpt><trkpt lat="45.71469828694354" lon="10.510216163978964"><ele>666.3333333333333</ele><time>2026-04-18T15:18:51Z</time></trkpt><trkpt lat="45.71461645731521" lon="10.510186797791226"><ele>665.6666666666666</ele><time>2026-04-18T15:18:52Z</time></trkpt><trkpt lat="45.71455444708468" lon="10.51012179623128"><ele>665.0</ele><time>2026-04-18T15:18:53Z</time></trkpt><trkpt lat="45.71448065990166" lon="10.510026403749167"><ele>665.0</ele><time>2026-04-18T15:18:54Z</time></trkpt><trkpt lat="45.71441154109753" lon="10.509976273504499"><ele>665.0</ele><time>2026-04-18T15:18:55Z</time></trkpt><trkpt lat="45.71434727169417" lon="10.509944208455176"><ele>665.0</ele><time>2026-04-18T15:18:56Z</time></trkpt><trkpt lat="45.7142379049144" lon="10.509818078744033"><ele>665.0</ele><time>2026-04-18T15:18:58Z</time></trkpt><trkpt lat="45.71417351534616" lon="10.50972571836189"><ele>665.0</ele><time>2026-04-18T15:18:59Z</time></trkpt><trkpt lat="45.71410467312908" lon="10.509621147378558"><ele>668.0</ele><time>2026-04-18T15:19:00Z</time></trkpt><trkpt lat="45.714057204666496" lon="10.509547180240753"><ele>671.0</ele><time>2026-04-18T15:19:01Z</time></trkpt><trkpt lat="45.71395358488942" lon="10.509569607465515"><ele>674.0</ele><time>2026-04-18T15:19:03Z</time></trkpt><trkpt lat="45.71384086799751" lon="10.50955189614629"><ele>677.0</ele><time>2026-04-18T15:19:05Z</time></trkpt><trkpt lat="45.71374101965295" lon="10.509554982933098"><ele>680.0</ele><time>2026-04-18T15:19:06Z</time></trkpt><trkpt lat="45.71363959188725" lon="10.509540389633417"><ele>677.1666666666666</ele><time>2026-04-18T15:19:07Z</time></trkpt><trkpt lat="45.713538650768285" lon="10.50952959730211"><ele>674.3333333333333</ele><time>2026-04-18T15:19:08Z</time></trkpt><trkpt lat="45.71343665800484" lon="10.509532889418097"><ele>671.5</ele><time>2026-04-18T15:19:09Z</time></trkpt><trkpt lat="45.71335799835567" lon="10.50945217032054"><ele>668.6666666666666</ele><time>2026-04-18T15:19:10Z</time></trkpt><trkpt lat="45.71329168217608" lon="10.509434895792648"><ele>665.8333333333334</ele><time>2026-04-18T15:19:11Z</time></trkpt><trkpt lat="45.713225140831845" lon="10.509480836966564"><ele>663.0</ele><time>2026-04-18T15:19:12Z</time></trkpt><trkpt lat="45.71316042525186" lon="10.509537895124872"><ele>663.0</ele><time>2026-04-18T15:19:13Z</time></trkpt><trkpt lat="45.71309254427729" lon="10.509578531895237"><ele>663.0</ele><time>2026-04-18T15:19:14Z</time></trkpt><trkpt lat="45.71301931049334" lon="10.509590155337506"><ele>663.0</ele><time>2026-04-18T15:19:15Z</time></trkpt><trkpt lat="45.71296001650392" lon="10.509542138511804"><ele>663.0</ele><time>2026-04-18T15:19:16Z</time></trkpt><trkpt lat="45.71292520545688" lon="10.509457957470564"><ele>663.0</ele><time>2026-04-18T15:19:17Z</time></trkpt><trkpt lat="45.712905637881754" lon="10.50932544306027"><ele>663.0</ele><time>2026-04-18T15:19:18Z</time></trkpt><trkpt lat="45.71289047938134" lon="10.509216219191696"><ele>663.0</ele><time>2026-04-18T15:19:19.001Z</time></trkpt><trkpt lat="45.7128621340731" lon="10.509118478457642"><ele>663.0</ele><time>2026-04-18T15:19:20.001Z</time></trkpt><trkpt lat="45.71274959557949" lon="10.509066432203458"><ele>663.0</ele><time>2026-04-18T15:19:22.001Z</time></trkpt><trkpt lat="45.71262872219311" lon="10.5091760479117"><ele>663.0</ele><time>2026-04-18T15:19:24.001Z</time></trkpt><trkpt lat="45.71256908257035" lon="10.509212505529472"><ele>663.0</ele><time>2026-04-18T15:19:25.001Z</time></trkpt><trkpt lat="45.712497172642436" lon="10.509266384646036"><ele>662.8</ele><time>2026-04-18T15:19:26.001Z</time></trkpt><trkpt lat="45.712427400885815" lon="10.509269399356494"><ele>662.5999999999999</ele><time>2026-04-18T15:19:27.001Z</time></trkpt><trkpt lat="45.71236106924096" lon="10.50926181144222"><ele>662.4000000000001</ele><time>2026-04-18T15:19:28.001Z</time></trkpt><trkpt lat="45.71226351204135" lon="10.50924929381573"><ele>662.2</ele><time>2026-04-18T15:19:29.001Z</time></trkpt><trkpt lat="45.71215386843451" lon="10.509246317090343"><ele>662.0</ele><time>2026-04-18T15:19:30.001Z</time></trkpt><trkpt lat="45.712028874432406" lon="10.50926938024434"><ele>662.0</ele><time>2026-04-18T15:19:31.001Z</time></trkpt><trkpt lat="45.711925978376534" lon="10.509265609279208"><ele>662.0</ele><time>2026-04-18T15:19:32.001Z</time></trkpt><trkpt lat="45.711832931594245" lon="10.509248028914241"><ele>662.0</ele><time>2026-04-18T15:19:33.001Z</time></trkpt><trkpt lat="45.71176711711148" lon="10.509222589228887"><ele>662.0</ele><time>2026-04-18T15:19:34.001Z</time></trkpt><trkpt lat="45.71171955549863" lon="10.509033638940336"><ele>662.0</ele><time>2026-04-18T15:19:36.001Z</time></trkpt><trkpt lat="45.71170879663799" lon="10.508920412177359"><ele>659.6666666666666</ele><time>2026-04-18T15:19:37.001Z</time></trkpt><trkpt lat="45.71169734367282" lon="10.508815676109217"><ele>657.3333333333333</ele><time>2026-04-18T15:19:38.001Z</time></trkpt><trkpt lat="45.71162760610281" lon="10.508753838952352"><ele>655.0</ele><time>2026-04-18T15:19:40.001Z</time></trkpt><trkpt lat="45.71155687579281" lon="10.508778682375416"><ele>652.6666666666666</ele><time>2026-04-18T15:19:41.001Z</time></trkpt><trkpt lat="45.71147231607281" lon="10.508746667907872"><ele>650.3333333333334</ele><time>2026-04-18T15:19:43.001Z</time></trkpt><trkpt lat="45.71143572749453" lon="10.508616534193076"><ele>648.0</ele><time>2026-04-18T15:19:45.001Z</time></trkpt><trkpt lat="45.71138549209442" lon="10.508558638842544"><ele>656.2</ele><time>2026-04-18T15:19:46.001Z</time></trkpt><trkpt lat="45.71132079002418" lon="10.50849323971337"><ele>664.4</ele><time>2026-04-18T15:19:47.001Z</time></trkpt><trkpt lat="45.71125491388953" lon="10.508453701805964"><ele>672.6</ele><time>2026-04-18T15:19:48.001Z</time></trkpt><trkpt lat="45.71122314980233" lon="10.508361427647014"><ele>680.8000000000001</ele><time>2026-04-18T15:19:49.001Z</time></trkpt><trkpt lat="45.71116153037935" lon="10.508211478966185"><ele>689.0</ele><time>2026-04-18T15:19:51.001Z</time></trkpt><trkpt lat="45.71107799541517" lon="10.50810790164975"><ele>688.1666666666666</ele><time>2026-04-18T15:19:53.001Z</time></trkpt><trkpt lat="45.7110146994126" lon="10.508033054196206"><ele>687.3333333333333</ele><time>2026-04-18T15:19:55.001Z</time></trkpt><trkpt lat="45.710954146333215" lon="10.508075693410383"><ele>686.5</ele><time>2026-04-18T15:19:57.001Z</time></trkpt><trkpt lat="45.71100896577412" lon="10.508222405757284"><ele>685.6666666666666</ele><time>2026-04-18T15:19:59.001Z</time></trkpt><trkpt lat="45.711024811074736" lon="10.508351948619783"><ele>684.8333333333334</ele><time>2026-04-18T15:20:00.001Z</time></trkpt><trkpt lat="45.71100241498871" lon="10.508437537448248"><ele>684.0</ele><time>2026-04-18T15:20:01.001Z</time></trkpt><trkpt lat="45.71096467140948" lon="10.508517745498002"><ele>684.0</ele><time>2026-04-18T15:20:02.001Z</time></trkpt><trkpt lat="45.710920698598585" lon="10.508605688673743"><ele>684.0</ele><time>2026-04-18T15:20:03.001Z</time></trkpt><trkpt lat="45.71083581711001" lon="10.508679522662888"><ele>684.0</ele><time>2026-04-18T15:20:04.001Z</time></trkpt><trkpt lat="45.71077418173349" lon="10.50874522498146"><ele>684.0</ele><time>2026-04-18T15:20:05.001Z</time></trkpt><trkpt lat="45.71069599024321" lon="10.508738356522562"><ele>684.0</ele><time>2026-04-18T15:20:06.001Z</time></trkpt><trkpt lat="45.71063263395545" lon="10.508752292255945"><ele>684.0</ele><time>2026-04-18T15:20:07.001Z</time></trkpt><trkpt lat="45.71057174269701" lon="10.508786201945199"><ele>682.5</ele><time>2026-04-18T15:20:08.001Z</time></trkpt><trkpt lat="45.710507253276695" lon="10.508839533274053"><ele>681.0</ele><time>2026-04-18T15:20:09.001Z</time></trkpt><trkpt lat="45.7104502523707" lon="10.50891633845302"><ele>679.5</ele><time>2026-04-18T15:20:10.001Z</time></trkpt><trkpt lat="45.71038691633406" lon="10.508990692895491"><ele>678.0</ele><time>2026-04-18T15:20:11.001Z</time></trkpt><trkpt lat="45.71030615413666" lon="10.509067263531128"><ele>676.5</ele><time>2026-04-18T15:20:12Z</time></trkpt><trkpt lat="45.710228428586674" lon="10.509073619799404"><ele>675.0</ele><time>2026-04-18T15:20:13Z</time></trkpt><trkpt lat="45.7101335189413" lon="10.509083294313234"><ele>675.0</ele><time>2026-04-18T15:20:14Z</time></trkpt><trkpt lat="45.710054702958296" lon="10.509116778639484"><ele>675.0</ele><time>2026-04-18T15:20:15Z</time></trkpt><trkpt lat="45.70997998057942" lon="10.509189585004552"><ele>675.0</ele><time>2026-04-18T15:20:16Z</time></trkpt><trkpt lat="45.709899036382744" lon="10.509314338796965"><ele>675.0</ele><time>2026-04-18T15:20:17Z</time></trkpt><trkpt lat="45.709837046151165" lon="10.509339915281851"><ele>675.0</ele><time>2026-04-18T15:20:18Z</time></trkpt><trkpt lat="45.709770705533074" lon="10.509350168417912"><ele>675.0</ele><time>2026-04-18T15:20:19Z</time></trkpt><trkpt lat="45.70966856671965" lon="10.509289064339388"><ele>675.0</ele><time>2026-04-18T15:20:21Z</time></trkpt><trkpt lat="45.70962145077312" lon="10.509178295979737"><ele>675.0</ele><time>2026-04-18T15:20:22Z</time></trkpt><trkpt lat="45.70954355733527" lon="10.509089048899387"><ele>675.0</ele><time>2026-04-18T15:20:23Z</time></trkpt><trkpt lat="45.70945702360303" lon="10.508984136626754"><ele>675.0</ele><time>2026-04-18T15:20:24Z</time></trkpt><trkpt lat="45.70940499615754" lon="10.508862342745998"><ele>675.0</ele><time>2026-04-18T15:20:25Z</time></trkpt><trkpt lat="45.70937118145667" lon="10.508777439635047"><ele>672.5</ele><time>2026-04-18T15:20:26Z</time></trkpt><trkpt lat="45.709280785359894" lon="10.508687882152046"><ele>670.0</ele><time>2026-04-18T15:20:28Z</time></trkpt><trkpt lat="45.70921318669207" lon="10.50854135641611"><ele>667.5</ele><time>2026-04-18T15:20:30Z</time></trkpt><trkpt lat="45.70914370913476" lon="10.508410522557451"><ele>665.0</ele><time>2026-04-18T15:20:32Z</time></trkpt><trkpt lat="45.709013344561875" lon="10.50836907288779"><ele>665.0</ele><time>2026-04-18T15:20:34Z</time></trkpt><trkpt lat="45.7089429414641" lon="10.508359269930024"><ele>665.0</ele><time>2026-04-18T15:20:35Z</time></trkpt><trkpt lat="45.70887152031174" lon="10.508369866181493"><ele>665.0</ele><time>2026-04-18T15:20:36Z</time></trkpt><trkpt lat="45.70883184454538" lon="10.508236998025103"><ele>665.0</ele><time>2026-04-18T15:20:38Z</time></trkpt><trkpt lat="45.708787612146054" lon="10.508127948216531"><ele>665.0</ele><time>2026-04-18T15:20:39Z</time></trkpt><trkpt lat="45.70875349257622" lon="10.50804312586268"><ele>665.0</ele><time>2026-04-18T15:20:40Z</time></trkpt><trkpt lat="45.7086948376739" lon="10.507971539751415"><ele>666.6666666666666</ele><time>2026-04-18T15:20:41Z</time></trkpt><trkpt lat="45.708627990743864" lon="10.507897728604108"><ele>668.3333333333333</ele><time>2026-04-18T15:20:42Z</time></trkpt><trkpt lat="45.708554245578696" lon="10.507833290419526"><ele>670.0</ele><time>2026-04-18T15:20:43Z</time></trkpt><trkpt lat="45.70846687510514" lon="10.50780027722041"><ele>671.6666666666666</ele><time>2026-04-18T15:20:45Z</time></trkpt><trkpt lat="45.70839708834048" lon="10.507828212186103"><ele>673.3333333333334</ele><time>2026-04-18T15:20:46Z</time></trkpt><trkpt lat="45.70831437455711" lon="10.507889787978199"><ele>675.0</ele><time>2026-04-18T15:20:47Z</time></trkpt><trkpt lat="45.70825302138797" lon="10.507995719350017"><ele>668.1666666666666</ele><time>2026-04-18T15:20:48Z</time></trkpt><trkpt lat="45.70819285264312" lon="10.508047615550725"><ele>661.3333333333334</ele><time>2026-04-18T15:20:49Z</time></trkpt><trkpt lat="45.708111644230634" lon="10.508098840948259"><ele>654.5</ele><time>2026-04-18T15:20:50Z</time></trkpt><trkpt lat="45.70803066628224" lon="10.50811721958039"><ele>647.6666666666667</ele><time>2026-04-18T15:20:51Z</time></trkpt><trkpt lat="45.70794980178057" lon="10.508196193282055"><ele>640.8333333333334</ele><time>2026-04-18T15:20:52Z</time></trkpt><trkpt lat="45.70790457688744" lon="10.508289493789963"><ele>634.0</ele><time>2026-04-18T15:20:53Z</time></trkpt><trkpt lat="45.7078260297381" lon="10.508394910390715"><ele>631.4</ele><time>2026-04-18T15:20:55Z</time></trkpt><trkpt lat="45.707697554630734" lon="10.508429169907327"><ele>628.8</ele><time>2026-04-18T15:20:57Z</time></trkpt><trkpt lat="45.707633214994964" lon="10.50838335469913"><ele>626.2</ele><time>2026-04-18T15:20:58Z</time></trkpt><trkpt lat="45.70756359912064" lon="10.508344907403178"><ele>623.6</ele><time>2026-04-18T15:20:59Z</time></trkpt><trkpt lat="45.70747162558319" lon="10.50833389870229"><ele>621.0</ele><time>2026-04-18T15:21:00Z</time></trkpt><trkpt lat="45.707389517910414" lon="10.508320387246256"><ele>621.0</ele><time>2026-04-18T15:21:01Z</time></trkpt><trkpt lat="45.707301819637614" lon="10.50832499925602"><ele>621.0</ele><time>2026-04-18T15:21:02Z</time></trkpt><trkpt lat="45.70721208370658" lon="10.508305400874503"><ele>621.0</ele><time>2026-04-18T15:21:03Z</time></trkpt><trkpt lat="45.707120558202355" lon="10.508291563972987"><ele>621.0</ele><time>2026-04-18T15:21:04Z</time></trkpt><trkpt lat="45.707025907858615" lon="10.508259536363843"><ele>621.0</ele><time>2026-04-18T15:21:05Z</time></trkpt><trkpt lat="45.70693459637592" lon="10.508220159624418"><ele>619.2</ele><time>2026-04-18T15:21:06Z</time></trkpt><trkpt lat="45.70683997403423" lon="10.508190572994181"><ele>617.4000000000001</ele><time>2026-04-18T15:21:07Z</time></trkpt><trkpt lat="45.70673262180571" lon="10.508179330144223"><ele>615.6</ele><time>2026-04-18T15:21:08Z</time></trkpt><trkpt lat="45.706624934711655" lon="10.50822143890327"><ele>613.8000000000001</ele><time>2026-04-18T15:21:09Z</time></trkpt><trkpt lat="45.70654075370097" lon="10.508241935519614"><ele>612.0</ele><time>2026-04-18T15:21:10Z</time></trkpt><trkpt lat="45.70645724900191" lon="10.508244238629361"><ele>612.0</ele><time>2026-04-18T15:21:11Z</time></trkpt><trkpt lat="45.70638662765628" lon="10.508255521354199"><ele>612.0</ele><time>2026-04-18T15:21:12Z</time></trkpt><trkpt lat="45.70631970766353" lon="10.508233894186679"><ele>612.0</ele><time>2026-04-18T15:21:13Z</time></trkpt><trkpt lat="45.706255367127056" lon="10.508216978856701"><ele>612.0</ele><time>2026-04-18T15:21:14Z</time></trkpt><trkpt lat="45.70618800429203" lon="10.50819657914343"><ele>612.0</ele><time>2026-04-18T15:21:15Z</time></trkpt><trkpt lat="45.70612655385961" lon="10.50817612666675"><ele>612.0</ele><time>2026-04-18T15:21:16Z</time></trkpt><trkpt lat="45.7060332366998" lon="10.508138678270527"><ele>612.0</ele><time>2026-04-18T15:21:18Z</time></trkpt><trkpt lat="45.70596381048453" lon="10.508125304672312"><ele>611.0</ele><time>2026-04-18T15:23:16Z</time></trkpt><trkpt lat="45.70591576260751" lon="10.50805156073124"><ele>610.0</ele><time>2026-04-18T15:23:19Z</time></trkpt><trkpt lat="45.7058291543354" lon="10.507981597127046"><ele>609.0</ele><time>2026-04-18T15:23:21Z</time></trkpt><trkpt lat="45.70578035999457" lon="10.507909984767604"><ele>608.0</ele><time>2026-04-18T15:23:23Z</time></trkpt><trkpt lat="45.70572826658005" lon="10.507802191870844"><ele>607.0</ele><time>2026-04-18T15:23:26Z</time></trkpt><trkpt lat="45.70568630042371" lon="10.507666433631911"><ele>606.0</ele><time>2026-04-18T15:23:28Z</time></trkpt><trkpt lat="45.70561746371783" lon="10.5076578903813"><ele>606.0</ele><time>2026-04-18T15:23:29Z</time></trkpt><trkpt lat="45.705548388289124" lon="10.507632798709725"><ele>606.0</ele><time>2026-04-18T15:23:31Z</time></trkpt><trkpt lat="45.7055547254901" lon="10.507789583256237"><ele>606.0</ele><time>2026-04-18T15:23:32Z</time></trkpt><trkpt lat="45.70553509643669" lon="10.507879445878967"><ele>606.0</ele><time>2026-04-18T15:23:33.001Z</time></trkpt><trkpt lat="45.70551891933157" lon="10.50778865553204"><ele>606.0</ele><time>2026-04-18T15:23:38.001Z</time></trkpt><trkpt lat="45.7054469827908" lon="10.507743397462653"><ele>606.0</ele><time>2026-04-18T15:23:39.001Z</time></trkpt><trkpt lat="45.70535509582168" lon="10.507723973021406"><ele>606.0</ele><time>2026-04-18T15:23:41.001Z</time></trkpt><trkpt lat="45.705307806351996" lon="10.5076409551583"><ele>606.0</ele><time>2026-04-18T15:23:43.001Z</time></trkpt><trkpt lat="45.70531897959264" lon="10.507544316364061"><ele>606.0</ele><time>2026-04-18T15:23:44.001Z</time></trkpt><trkpt lat="45.70530542703375" lon="10.507423684024538"><ele>606.0</ele><time>2026-04-18T15:23:46.001Z</time></trkpt><trkpt lat="45.705321119752476" lon="10.507264312989673"><ele>606.0</ele><time>2026-04-18T15:23:48.001Z</time></trkpt><trkpt lat="45.70540783800494" lon="10.507198014776108"><ele>606.0</ele><time>2026-04-18T15:23:49.001Z</time></trkpt><trkpt lat="45.70554191438668" lon="10.50718919698306"><ele>606.0</ele><time>2026-04-18T15:23:50.001Z</time></trkpt><trkpt lat="45.705609354622986" lon="10.507100224107367"><ele>606.0</ele><time>2026-04-18T15:23:52.001Z</time></trkpt><trkpt lat="45.705686206794994" lon="10.507098762398083"><ele>606.0</ele><time>2026-04-18T15:23:55.001Z</time></trkpt><trkpt lat="45.705724664244386" lon="10.506930640415314"><ele>606.0</ele><time>2026-04-18T15:23:58.001Z</time></trkpt><trkpt lat="45.705735087221164" lon="10.506830175525458"><ele>606.0</ele><time>2026-04-18T15:23:59.001Z</time></trkpt><trkpt lat="45.70575160619211" lon="10.506712156400347"><ele>606.0</ele><time>2026-04-18T15:24:00.001Z</time></trkpt><trkpt lat="45.70575659647195" lon="10.506585453976038"><ele>605.5714285714286</ele><time>2026-04-18T15:24:01.001Z</time></trkpt><trkpt lat="45.7057612003941" lon="10.506486792493057"><ele>605.1428571428571</ele><time>2026-04-18T15:24:02.001Z</time></trkpt><trkpt lat="45.70577191973678" lon="10.50638658700702"><ele>604.7142857142858</ele><time>2026-04-18T15:24:03.001Z</time></trkpt><trkpt lat="45.70579410666247" lon="10.506299440568531"><ele>604.2857142857142</ele><time>2026-04-18T15:24:04.001Z</time></trkpt><trkpt lat="45.705813393886636" lon="10.506198834653338"><ele>603.8571428571428</ele><time>2026-04-18T15:24:05.001Z</time></trkpt><trkpt lat="45.70583858906902" lon="10.50608868181314"><ele>603.4285714285714</ele><time>2026-04-18T15:24:06.001Z</time></trkpt><trkpt lat="45.70588353345452" lon="10.506002039966969"><ele>603.0</ele><time>2026-04-18T15:24:07.001Z</time></trkpt><trkpt lat="45.7059051987318" lon="10.505908464338578"><ele>603.1666666666666</ele><time>2026-04-18T15:24:08.001Z</time></trkpt><trkpt lat="45.70593688479133" lon="10.505815554068938"><ele>603.3333333333334</ele><time>2026-04-18T15:24:09.001Z</time></trkpt><trkpt lat="45.705970282539056" lon="10.505719214720967"><ele>603.5</ele><time>2026-04-18T15:24:10.001Z</time></trkpt><trkpt lat="45.70601361105741" lon="10.505540610330227"><ele>603.6666666666667</ele><time>2026-04-18T15:24:12.001Z</time></trkpt><trkpt lat="45.7060577371934" lon="10.505455040849005"><ele>603.8333333333334</ele><time>2026-04-18T15:24:13.001Z</time></trkpt><trkpt lat="45.70610303146471" lon="10.50536644360871"><ele>604.0</ele><time>2026-04-18T15:24:14.001Z</time></trkpt><trkpt lat="45.706139563047984" lon="10.505272831308085"><ele>604.0</ele><time>2026-04-18T15:24:15.001Z</time></trkpt><trkpt lat="45.7061675888019" lon="10.505173827138652"><ele>604.0</ele><time>2026-04-18T15:24:16.001Z</time></trkpt><trkpt lat="45.70622641025836" lon="10.50509120523756"><ele>604.0</ele><time>2026-04-18T15:24:17.001Z</time></trkpt><trkpt lat="45.706255402076465" lon="10.50499414411549"><ele>604.0</ele><time>2026-04-18T15:24:18.001Z</time></trkpt><trkpt lat="45.70634360037443" lon="10.504980130759746"><ele>604.0</ele><time>2026-04-18T15:24:19.001Z</time></trkpt><trkpt lat="45.70638914809612" lon="10.504913961015275"><ele>604.0</ele><time>2026-04-18T15:24:20.001Z</time></trkpt><trkpt lat="45.706481452371165" lon="10.50479468463442"><ele>604.0</ele><time>2026-04-18T15:24:22.001Z</time></trkpt><trkpt lat="45.7068020401799" lon="10.505197110967785"><ele>604.0</ele><time>2026-04-18T15:24:23.001Z</time></trkpt><trkpt lat="45.706874805272456" lon="10.505137772771398"><ele>601.5</ele><time>2026-04-18T15:24:25Z</time></trkpt><trkpt lat="45.70695178381157" lon="10.50507657684983"><ele>599.0</ele><time>2026-04-18T15:24:26Z</time></trkpt><trkpt lat="45.70707309126246" lon="10.504963338397063"><ele>596.5</ele><time>2026-04-18T15:24:27Z</time></trkpt><trkpt lat="45.7071446018696" lon="10.504876142523287"><ele>594.0</ele><time>2026-04-18T15:24:28Z</time></trkpt><trkpt lat="45.706683022958494" lon="10.504189335964877"><ele>594.0</ele><time>2026-04-18T15:24:32Z</time></trkpt><trkpt lat="45.70661111042199" lon="10.504141015411909"><ele>594.0</ele><time>2026-04-18T15:24:33Z</time></trkpt><trkpt lat="45.70651378605659" lon="10.504140474255248"><ele>594.0</ele><time>2026-04-18T15:24:34Z</time></trkpt><trkpt lat="45.70642637374705" lon="10.504174089678143"><ele>594.0</ele><time>2026-04-18T15:24:35Z</time></trkpt><trkpt lat="45.70634545251204" lon="10.504229293566326"><ele>594.0</ele><time>2026-04-18T15:24:36Z</time></trkpt><trkpt lat="45.7062481384593" lon="10.50424683245203"><ele>594.0</ele><time>2026-04-18T15:24:37Z</time></trkpt><trkpt lat="45.706171771374386" lon="10.504217842211604"><ele>594.0</ele><time>2026-04-18T15:24:38Z</time></trkpt><trkpt lat="45.706102230362575" lon="10.504168807461697"><ele>594.0</ele><time>2026-04-18T15:24:39Z</time></trkpt><trkpt lat="45.706024923247554" lon="10.504167889241213"><ele>594.0</ele><time>2026-04-18T15:24:40Z</time></trkpt><trkpt lat="45.70592080528423" lon="10.504183845804844"><ele>594.0</ele><time>2026-04-18T15:24:41Z</time></trkpt><trkpt lat="45.705769712393646" lon="10.504206150678078"><ele>593.6</ele><time>2026-04-18T15:24:42Z</time></trkpt><trkpt lat="45.70564379181608" lon="10.50420805008974"><ele>593.2</ele><time>2026-04-18T15:24:43Z</time></trkpt><trkpt lat="45.705552433964996" lon="10.504237727274365"><ele>592.8000000000001</ele><time>2026-04-18T15:24:44Z</time></trkpt><trkpt lat="45.70545441612726" lon="10.504342064703739"><ele>592.4</ele><time>2026-04-18T15:24:45Z</time></trkpt><trkpt lat="45.705391203108874" lon="10.504448915630462"><ele>592.0</ele><time>2026-04-18T15:24:46Z</time></trkpt><trkpt lat="45.705339890634015" lon="10.504539467040482"><ele>589.8000000000001</ele><time>2026-04-18T15:24:47Z</time></trkpt><trkpt lat="45.705223886156645" lon="10.504490191107518"><ele>587.6</ele><time>2026-04-18T15:24:49Z</time></trkpt><trkpt lat="45.70513952107391" lon="10.504475462713307"><ele>585.4000000000001</ele><time>2026-04-18T15:24:50Z</time></trkpt><trkpt lat="45.70503194674876" lon="10.504455896141788"><ele>583.2</ele><time>2026-04-18T15:24:51Z</time></trkpt><trkpt lat="45.70498263635359" lon="10.504387710689485"><ele>581.0</ele><time>2026-04-18T15:24:52Z</time></trkpt><trkpt lat="45.70490233247067" lon="10.504280034122953"><ele>581.0</ele><time>2026-04-18T15:24:54Z</time></trkpt><trkpt lat="45.704860276014266" lon="10.50410537632606"><ele>581.0</ele><time>2026-04-18T15:24:56Z</time></trkpt><trkpt lat="45.704858545614144" lon="10.503968740539516"><ele>581.0</ele><time>2026-04-18T15:24:57Z</time></trkpt><trkpt lat="45.70486759696743" lon="10.503822480634067"><ele>581.0</ele><time>2026-04-18T15:24:58Z</time></trkpt><trkpt lat="45.704855763785616" lon="10.503671080049902"><ele>581.0</ele><time>2026-04-18T15:24:59Z</time></trkpt><trkpt lat="45.70483718017273" lon="10.503529283537894"><ele>582.0</ele><time>2026-04-18T15:25:00Z</time></trkpt><trkpt lat="45.704797393002245" lon="10.503374871565537"><ele>583.0</ele><time>2026-04-18T15:25:01Z</time></trkpt><trkpt lat="45.70476772174972" lon="10.503221546377036"><ele>584.0</ele><time>2026-04-18T15:25:02Z</time></trkpt><trkpt lat="45.70474043680975" lon="10.503086388756332"><ele>585.0</ele><time>2026-04-18T15:25:03Z</time></trkpt><trkpt lat="45.70471223229732" lon="10.502927823767966"><ele>586.0</ele><time>2026-04-18T15:25:04Z</time></trkpt><trkpt lat="45.704685723022315" lon="10.50276907147804"><ele>586.8</ele><time>2026-04-18T15:25:05Z</time></trkpt><trkpt lat="45.7046823673212" lon="10.502657266889162"><ele>587.6</ele><time>2026-04-18T15:25:06Z</time></trkpt><trkpt lat="45.70465030716588" lon="10.502566620915935"><ele>588.4</ele><time>2026-04-18T15:25:07Z</time></trkpt><trkpt lat="45.70461252872376" lon="10.502366216639572"><ele>589.2</ele><time>2026-04-18T15:25:09Z</time></trkpt><trkpt lat="45.70463083003825" lon="10.502500419005877"><ele>590.0</ele><time>2026-04-18T15:25:13Z</time></trkpt><trkpt lat="45.70457693107065" lon="10.502601439811441"><ele>590.0</ele><time>2026-04-18T15:25:14Z</time></trkpt><trkpt lat="45.70454034999252" lon="10.502723000805833"><ele>590.0</ele><time>2026-04-18T15:25:15Z</time></trkpt><trkpt lat="45.704495162855714" lon="10.502806409701906"><ele>590.0</ele><time>2026-04-18T15:25:16Z</time></trkpt><trkpt lat="45.70442089713038" lon="10.502903026068662"><ele>590.0</ele><time>2026-04-18T15:25:17Z</time></trkpt><trkpt lat="45.70435103370842" lon="10.50293599781973"><ele>590.0</ele><time>2026-04-18T15:25:18Z</time></trkpt><trkpt lat="45.70428379314044" lon="10.502973615602325"><ele>590.0</ele><time>2026-04-18T15:25:19Z</time></trkpt><trkpt lat="45.70422714174444" lon="10.503043053931444"><ele>587.5</ele><time>2026-04-18T15:25:20Z</time></trkpt><trkpt lat="45.70419254656288" lon="10.50314279861903"><ele>585.0</ele><time>2026-04-18T15:25:21Z</time></trkpt><trkpt lat="45.7041546495196" lon="10.503234016249422"><ele>582.5</ele><time>2026-04-18T15:25:22Z</time></trkpt><trkpt lat="45.70408777982503" lon="10.503272308976987"><ele>580.0</ele><time>2026-04-18T15:25:23Z</time></trkpt><trkpt lat="45.70397009790897" lon="10.50325932430268"><ele>577.5</ele><time>2026-04-18T15:25:25Z</time></trkpt><trkpt lat="45.70386636041519" lon="10.503246142281702"><ele>575.0</ele><time>2026-04-18T15:25:27Z</time></trkpt><trkpt lat="45.70379586762864" lon="10.503222471657912"><ele>575.0</ele><time>2026-04-18T15:25:29Z</time></trkpt><trkpt lat="45.703716236543045" lon="10.503181346625112"><ele>575.0</ele><time>2026-04-18T15:25:31Z</time></trkpt><trkpt lat="45.70364707594418" lon="10.503176715042335"><ele>575.0</ele><time>2026-04-18T15:25:33Z</time></trkpt><trkpt lat="45.70359008875367" lon="10.503071445748814"><ele>575.0</ele><time>2026-04-18T15:25:35Z</time></trkpt><trkpt lat="45.70358111231124" lon="10.502956529795549"><ele>575.0</ele><time>2026-04-18T15:25:37Z</time></trkpt><trkpt lat="45.70361400855723" lon="10.502839664137474"><ele>575.0</ele><time>2026-04-18T15:25:40Z</time></trkpt><trkpt lat="45.70360570603568" lon="10.50269558834021"><ele>575.3333333333333</ele><time>2026-04-18T15:25:43.001Z</time></trkpt><trkpt lat="45.703686836881126" lon="10.50269788086295"><ele>575.6666666666666</ele><time>2026-04-18T15:25:48.001Z</time></trkpt><trkpt lat="45.703643747712015" lon="10.50262925574761"><ele>576.0</ele><time>2026-04-18T15:26:02.001Z</time></trkpt><trkpt lat="45.70362802331243" lon="10.50251918273873"><ele>576.3333333333334</ele><time>2026-04-18T15:26:10.001Z</time></trkpt><trkpt lat="45.703563500145705" lon="10.502455078098576"><ele>576.6666666666667</ele><time>2026-04-18T15:26:13.001Z</time></trkpt><trkpt lat="45.70353060099364" lon="10.502348534169336"><ele>577.0</ele><time>2026-04-18T15:26:14.001Z</time></trkpt><trkpt lat="45.703449870264" lon="10.502241530127629"><ele>577.0</ele><time>2026-04-18T15:26:15.001Z</time></trkpt><trkpt lat="45.70341138730836" lon="10.502329017804794"><ele>577.0</ele><time>2026-04-18T15:26:20.001Z</time></trkpt><trkpt lat="45.70331590172952" lon="10.502449295548553"><ele>577.0</ele><time>2026-04-18T15:26:23.001Z</time></trkpt><trkpt lat="45.703279650882436" lon="10.502563746557213"><ele>577.0</ele><time>2026-04-18T15:26:24.001Z</time></trkpt><trkpt lat="45.70324195186341" lon="10.502485638222542"><ele>577.0</ele><time>2026-04-18T15:26:44Z</time></trkpt><trkpt lat="45.70320164306209" lon="10.502558530579638"><ele>577.0</ele><time>2026-04-18T15:26:49Z</time></trkpt><trkpt lat="45.70315354478353" lon="10.50265582584829"><ele>577.0</ele><time>2026-04-18T15:26:52Z</time></trkpt><trkpt lat="45.70306865188053" lon="10.50271323349206"><ele>577.0</ele><time>2026-04-18T15:26:53Z</time></trkpt><trkpt lat="45.70301715634056" lon="10.502654906154747"><ele>577.0</ele><time>2026-04-18T15:26:57Z</time></trkpt><trkpt lat="45.702935609071325" lon="10.502577167065509"><ele>577.0</ele><time>2026-04-18T15:27:01Z</time></trkpt><trkpt lat="45.70280597078469" lon="10.502611636454887"><ele>577.0</ele><time>2026-04-18T15:27:03Z</time></trkpt><trkpt lat="45.70273917500972" lon="10.502652894709405"><ele>578.6666666666667</ele><time>2026-04-18T15:27:04Z</time></trkpt><trkpt lat="45.70267581764946" lon="10.5027727220497"><ele>580.3333333333334</ele><time>2026-04-18T15:27:06Z</time></trkpt><trkpt lat="45.70262435976859" lon="10.502867234988127"><ele>582.0</ele><time>2026-04-18T15:27:08Z</time></trkpt><trkpt lat="45.70254162906697" lon="10.50295172628553"><ele>583.6666666666666</ele><time>2026-04-18T15:27:10Z</time></trkpt><trkpt lat="45.70252379536672" lon="10.503060158662892"><ele>585.3333333333333</ele><time>2026-04-18T15:27:13Z</time></trkpt><trkpt lat="45.70248918323108" lon="10.503155362680022"><ele>587.0</ele><time>2026-04-18T15:27:15Z</time></trkpt><trkpt lat="45.70243417916108" lon="10.503225952358994"><ele>587.0</ele><time>2026-04-18T15:27:17Z</time></trkpt><trkpt lat="45.70243733170768" lon="10.503349360111743"><ele>587.0</ele><time>2026-04-18T15:27:20Z</time></trkpt><trkpt lat="45.702425410439545" lon="10.503458738465135"><ele>587.0</ele><time>2026-04-18T15:27:22Z</time></trkpt><trkpt lat="45.702373548893405" lon="10.503620860564464"><ele>587.0</ele><time>2026-04-18T15:27:24Z</time></trkpt><trkpt lat="45.70238158784302" lon="10.503784679903765"><ele>587.0</ele><time>2026-04-18T15:27:26Z</time></trkpt><trkpt lat="45.702322461961174" lon="10.503901695607638"><ele>583.6</ele><time>2026-04-18T15:27:28Z</time></trkpt><trkpt lat="45.702245921262325" lon="10.503965936682322"><ele>580.2</ele><time>2026-04-18T15:27:30Z</time></trkpt><trkpt lat="45.70214325464372" lon="10.504065000245548"><ele>576.8</ele><time>2026-04-18T15:27:32Z</time></trkpt><trkpt lat="45.702101279033336" lon="10.504136131668199"><ele>573.4</ele><time>2026-04-18T15:27:33Z</time></trkpt><trkpt lat="45.70199841840933" lon="10.504201070828165"><ele>570.0</ele><time>2026-04-18T15:27:35Z</time></trkpt><trkpt lat="45.70188579659553" lon="10.504277996143252"><ele>571.0</ele><time>2026-04-18T15:27:37Z</time></trkpt><trkpt lat="45.70178890367304" lon="10.50435343133931"><ele>572.0</ele><time>2026-04-18T15:27:39Z</time></trkpt><trkpt lat="45.701714543617044" lon="10.504468649249972"><ele>573.0</ele><time>2026-04-18T15:27:41Z</time></trkpt><trkpt lat="45.7016142756621" lon="10.504558779760929"><ele>574.0</ele><time>2026-04-18T15:27:43Z</time></trkpt><trkpt lat="45.701522923363136" lon="10.50459714459501"><ele>575.0</ele><time>2026-04-18T15:27:45Z</time></trkpt><trkpt lat="45.7014288141398" lon="10.504673551428603"><ele>581.4</ele><time>2026-04-18T15:27:47Z</time></trkpt><trkpt lat="45.70134271120773" lon="10.504537304046845"><ele>587.8</ele><time>2026-04-18T15:27:50Z</time></trkpt><trkpt lat="45.701374718269" lon="10.504447989047904"><ele>594.2</ele><time>2026-04-18T15:27:54Z</time></trkpt><trkpt lat="45.70129755343186" lon="10.504319207130278"><ele>600.6</ele><time>2026-04-18T15:27:57Z</time></trkpt><trkpt lat="45.70126279127648" lon="10.504203723187539"><ele>607.0</ele><time>2026-04-18T15:27:58Z</time></trkpt><trkpt lat="45.701211926728156" lon="10.504023940437294"><ele>607.0</ele><time>2026-04-18T15:27:59Z</time></trkpt><trkpt lat="45.70112469337844" lon="10.50388212966613"><ele>607.0</ele><time>2026-04-18T15:28:00Z</time></trkpt><trkpt lat="45.701064418933726" lon="10.5037992622147"><ele>607.0</ele><time>2026-04-18T15:28:01Z</time></trkpt><trkpt lat="45.700978100788575" lon="10.503667093374496"><ele>607.0</ele><time>2026-04-18T15:28:03Z</time></trkpt><trkpt lat="45.700946283802445" lon="10.503582580141767"><ele>607.0</ele><time>2026-04-18T15:28:04Z</time></trkpt><trkpt lat="45.700966207010055" lon="10.503438625649645"><ele>606.2</ele><time>2026-04-18T15:28:06Z</time></trkpt><trkpt lat="45.70093630004069" lon="10.503296929688092"><ele>605.4000000000001</ele><time>2026-04-18T15:28:08Z</time></trkpt><trkpt lat="45.700860715855576" lon="10.503219481539764"><ele>604.5999999999999</ele><time>2026-04-18T15:28:09Z</time></trkpt><trkpt lat="45.70079423676736" lon="10.50314710884008"><ele>603.8</ele><time>2026-04-18T15:28:10Z</time></trkpt><trkpt lat="45.700741646313155" lon="10.502991458749278"><ele>603.0</ele><time>2026-04-18T15:28:12Z</time></trkpt><trkpt lat="45.70066885437654" lon="10.50286389784905"><ele>606.6</ele><time>2026-04-18T15:28:14Z</time></trkpt><trkpt lat="45.700647984037346" lon="10.502777752731042"><ele>610.1999999999999</ele><time>2026-04-18T15:28:15Z</time></trkpt><trkpt lat="45.70068020136995" lon="10.502613495225793"><ele>613.8</ele><time>2026-04-18T15:28:17Z</time></trkpt><trkpt lat="45.70063810398671" lon="10.502476749884641"><ele>617.4</ele><time>2026-04-18T15:28:19Z</time></trkpt><trkpt lat="45.70061156607363" lon="10.50235821386848"><ele>621.0</ele><time>2026-04-18T15:28:21Z</time></trkpt><trkpt lat="45.700553516391345" lon="10.502225538830796"><ele>621.0</ele><time>2026-04-18T15:28:23Z</time></trkpt><trkpt lat="45.70047088686814" lon="10.502114758161737"><ele>621.0</ele><time>2026-04-18T15:28:25Z</time></trkpt><trkpt lat="45.70044718302205" lon="10.502016353397304"><ele>621.0</ele><time>2026-04-18T15:28:26Z</time></trkpt><trkpt lat="45.70041997521055" lon="10.501924604538388"><ele>621.0</ele><time>2026-04-18T15:28:27Z</time></trkpt><trkpt lat="45.70037374986358" lon="10.501827758618308"><ele>621.0</ele><time>2026-04-18T15:28:28Z</time></trkpt><trkpt lat="45.70035989649517" lon="10.501706293680598"><ele>621.0</ele><time>2026-04-18T15:28:30Z</time></trkpt><trkpt lat="45.70029387216122" lon="10.501737354722048"><ele>622.8</ele><time>2026-04-18T15:28:32Z</time></trkpt><trkpt lat="45.70027059474614" lon="10.501825244728531"><ele>624.6</ele><time>2026-04-18T15:28:33Z</time></trkpt><trkpt lat="45.70020454093309" lon="10.501924374004366"><ele>626.4</ele><time>2026-04-18T15:28:35Z</time></trkpt><trkpt lat="45.70012462513905" lon="10.502006473084247"><ele>628.2</ele><time>2026-04-18T15:28:37Z</time></trkpt><trkpt lat="45.70003021237749" lon="10.502060207084321"><ele>630.0</ele><time>2026-04-18T15:28:39Z</time></trkpt><trkpt lat="45.69991772563065" lon="10.50211788521096"><ele>626.2</ele><time>2026-04-18T15:28:41Z</time></trkpt><trkpt lat="45.69981552717924" lon="10.502093975912391"><ele>622.4</ele><time>2026-04-18T15:28:43Z</time></trkpt><trkpt lat="45.699723926946405" lon="10.502174999828945"><ele>618.6</ele><time>2026-04-18T15:28:45Z</time></trkpt><trkpt lat="45.69961947278443" lon="10.502179152128248"><ele>614.8</ele><time>2026-04-18T15:28:47Z</time></trkpt><trkpt lat="45.699509203367754" lon="10.502109519428208"><ele>611.0</ele><time>2026-04-18T15:28:52Z</time></trkpt><trkpt lat="45.69943552527691" lon="10.50216440830959"><ele>616.2</ele><time>2026-04-18T15:28:56Z</time></trkpt><trkpt lat="45.6993331481521" lon="10.502129169825311"><ele>621.4000000000001</ele><time>2026-04-18T15:28:58Z</time></trkpt><trkpt lat="45.69923024041224" lon="10.502083398461414"><ele>626.6</ele><time>2026-04-18T15:28:59Z</time></trkpt><trkpt lat="45.699162564336795" lon="10.502041668322487"><ele>631.8000000000001</ele><time>2026-04-18T15:29:00Z</time></trkpt><trkpt lat="45.69910800978281" lon="10.50193342907592"><ele>637.0</ele><time>2026-04-18T15:29:03Z</time></trkpt><trkpt lat="45.69906208370893" lon="10.501803532916833"><ele>637.0</ele><time>2026-04-18T15:29:05Z</time></trkpt><trkpt lat="45.69903864341542" lon="10.50169417190516"><ele>637.0</ele><time>2026-04-18T15:29:06Z</time></trkpt><trkpt lat="45.69902102549316" lon="10.501556787244152"><ele>637.0</ele><time>2026-04-18T15:29:08Z</time></trkpt><trkpt lat="45.69896205359723" lon="10.50138743542268"><ele>637.0</ele><time>2026-04-18T15:29:13Z</time></trkpt><trkpt lat="45.69890232501408" lon="10.501268373586667"><ele>637.0</ele><time>2026-04-18T15:29:17Z</time></trkpt><trkpt lat="45.6988364372577" lon="10.501145222564595"><ele>635.1666666666667</ele><time>2026-04-18T15:29:18Z</time></trkpt><trkpt lat="45.698794449720985" lon="10.501032150495362"><ele>633.3333333333334</ele><time>2026-04-18T15:29:19Z</time></trkpt><trkpt lat="45.6987288880395" lon="10.500947372400747"><ele>631.5</ele><time>2026-04-18T15:29:20Z</time></trkpt><trkpt lat="45.69866553685573" lon="10.500875548214504"><ele>629.6666666666666</ele><time>2026-04-18T15:29:21Z</time></trkpt><trkpt lat="45.698604058316334" lon="10.500836172552104"><ele>627.8333333333333</ele><time>2026-04-18T15:29:22Z</time></trkpt><trkpt lat="45.69850738936699" lon="10.500782270399302"><ele>626.0</ele><time>2026-04-18T15:29:23Z</time></trkpt><trkpt lat="45.69844331932203" lon="10.50074248419097"><ele>626.0</ele><time>2026-04-18T15:29:24Z</time></trkpt><trkpt lat="45.698379211509206" lon="10.500694139867417"><ele>626.0</ele><time>2026-04-18T15:29:25Z</time></trkpt><trkpt lat="45.6983275507435" lon="10.500638595004302"><ele>626.0</ele><time>2026-04-18T15:29:26Z</time></trkpt><trkpt lat="45.698259198465294" lon="10.500563637752652"><ele>626.0</ele><time>2026-04-18T15:29:28Z</time></trkpt><trkpt lat="45.698174419986636" lon="10.500510390453387"><ele>626.0</ele><time>2026-04-18T15:29:30Z</time></trkpt><trkpt lat="45.69809250769831" lon="10.500484675791014"><ele>626.0</ele><time>2026-04-18T15:29:31Z</time></trkpt><trkpt lat="45.69802459426812" lon="10.50046989664623"><ele>626.0</ele><time>2026-04-18T15:29:32Z</time></trkpt><trkpt lat="45.697943254867134" lon="10.500467368586975"><ele>626.0</ele><time>2026-04-18T15:29:33Z</time></trkpt><trkpt lat="45.69787219880976" lon="10.500477265591961"><ele>626.0</ele><time>2026-04-18T15:29:34Z</time></trkpt><trkpt lat="45.69780196256817" lon="10.500494904425171"><ele>626.0</ele><time>2026-04-18T15:29:35Z</time></trkpt><trkpt lat="45.69773345937608" lon="10.500484970157968"><ele>626.0</ele><time>2026-04-18T15:29:36Z</time></trkpt><trkpt lat="45.69765931886811" lon="10.500474932437152"><ele>626.0</ele><time>2026-04-18T15:29:37Z</time></trkpt><trkpt lat="45.69756745427645" lon="10.500468270749664"><ele>623.6</ele><time>2026-04-18T15:29:38Z</time></trkpt><trkpt lat="45.69749501727526" lon="10.500466321737305"><ele>621.2</ele><time>2026-04-18T15:29:39Z</time></trkpt><trkpt lat="45.69739094998265" lon="10.500387415267586"><ele>618.8</ele><time>2026-04-18T15:29:41Z</time></trkpt><trkpt lat="45.69726564714629" lon="10.500417389972396"><ele>616.4</ele><time>2026-04-18T15:29:43Z</time></trkpt><trkpt lat="45.697178801533575" lon="10.500484420706002"><ele>614.0</ele><time>2026-04-18T15:29:44Z</time></trkpt><trkpt lat="45.697114271450026" lon="10.500536705203187"><ele>614.0</ele><time>2026-04-18T15:29:45Z</time></trkpt><trkpt lat="45.69704519664055" lon="10.500633298245505"><ele>614.0</ele><time>2026-04-18T15:29:47Z</time></trkpt><trkpt lat="45.69701028992995" lon="10.500797057388258"><ele>614.0</ele><time>2026-04-18T15:29:49Z</time></trkpt><trkpt lat="45.69693570644615" lon="10.500849722542796"><ele>614.0</ele><time>2026-04-18T15:29:51Z</time></trkpt><trkpt lat="45.69685025573692" lon="10.500911012725304"><ele>614.0</ele><time>2026-04-18T15:29:53.001Z</time></trkpt><trkpt lat="45.69678887134233" lon="10.500943518578831"><ele>613.5</ele><time>2026-04-18T15:29:54.001Z</time></trkpt><trkpt lat="45.69671958206375" lon="10.500927283159422"><ele>613.0</ele><time>2026-04-18T15:29:56.001Z</time></trkpt><trkpt lat="45.69674595516008" lon="10.500844692637902"><ele>612.5</ele><time>2026-04-18T15:29:57.001Z</time></trkpt><trkpt lat="45.6967057367324" lon="10.50072730427937"><ele>612.0</ele><time>2026-04-18T15:29:59.001Z</time></trkpt><trkpt lat="45.696664989787934" lon="10.50063391694004"><ele>611.5</ele><time>2026-04-18T15:30:00.001Z</time></trkpt><trkpt lat="45.696691547310756" lon="10.500480812177182"><ele>611.0</ele><time>2026-04-18T15:30:02.001Z</time></trkpt><trkpt lat="45.69676544638672" lon="10.500381803108837"><ele>610.8333333333333</ele><time>2026-04-18T15:30:04.001Z</time></trkpt><trkpt lat="45.696776643179106" lon="10.500247296802021"><ele>610.6666666666666</ele><time>2026-04-18T15:30:06.001Z</time></trkpt><trkpt lat="45.69680748376819" lon="10.500125258923168"><ele>610.5</ele><time>2026-04-18T15:30:08.001Z</time></trkpt><trkpt lat="45.6968024982119" lon="10.500028531715861"><ele>610.3333333333334</ele><time>2026-04-18T15:30:10.001Z</time></trkpt><trkpt lat="45.69680928357439" lon="10.499932961677338"><ele>610.1666666666667</ele><time>2026-04-18T15:30:12.001Z</time></trkpt><trkpt lat="45.6968014657466" lon="10.499792900009533"><ele>610.0</ele><time>2026-04-18T15:30:14.001Z</time></trkpt><trkpt lat="45.69678237544337" lon="10.499678424605705"><ele>609.3333333333334</ele><time>2026-04-18T15:30:17.001Z</time></trkpt><trkpt lat="45.69674631301351" lon="10.499567733274866"><ele>608.6666666666667</ele><time>2026-04-18T15:30:20.001Z</time></trkpt><trkpt lat="45.69674955890303" lon="10.499468991335135"><ele>608.0</ele><time>2026-04-18T15:30:22.001Z</time></trkpt><trkpt lat="45.69677167937853" lon="10.499334264753053"><ele>607.3333333333334</ele><time>2026-04-18T15:30:30.001Z</time></trkpt><trkpt lat="45.6968418080557" lon="10.499283240307516"><ele>606.6666666666666</ele><time>2026-04-18T15:30:33.001Z</time></trkpt><trkpt lat="45.696890101550714" lon="10.499170493357504"><ele>606.0</ele><time>2026-04-18T15:30:37.001Z</time></trkpt><trkpt lat="45.696942227255136" lon="10.499085821588746"><ele>607.2</ele><time>2026-04-18T15:30:40.001Z</time></trkpt><trkpt lat="45.696989527269906" lon="10.498978526414145"><ele>608.4000000000001</ele><time>2026-04-18T15:30:42Z</time></trkpt><trkpt lat="45.696940768121486" lon="10.498862365871906"><ele>609.6</ele><time>2026-04-18T15:30:44Z</time></trkpt><trkpt lat="45.69692392006325" lon="10.498702982325748"><ele>610.8000000000001</ele><time>2026-04-18T15:30:46Z</time></trkpt><trkpt lat="45.69690036784568" lon="10.49858897098819"><ele>612.0</ele><time>2026-04-18T15:30:47Z</time></trkpt><trkpt lat="45.696923030738354" lon="10.498490653457512"><ele>612.0</ele><time>2026-04-18T15:30:49Z</time></trkpt><trkpt lat="45.69688169132301" lon="10.498400285151456"><ele>612.0</ele><time>2026-04-18T15:30:51Z</time></trkpt><trkpt lat="45.696802928093945" lon="10.498328944230236"><ele>612.0</ele><time>2026-04-18T15:30:53Z</time></trkpt><trkpt lat="45.69677844859346" lon="10.498438410110284"><ele>612.0</ele><time>2026-04-18T15:30:54Z</time></trkpt><trkpt lat="45.696661250661435" lon="10.498586540178955"><ele>612.0</ele><time>2026-04-18T15:30:56Z</time></trkpt><trkpt lat="45.69660392859472" lon="10.49862633145703"><ele>612.0</ele><time>2026-04-18T15:30:57Z</time></trkpt><trkpt lat="45.69651944456314" lon="10.498666287692"><ele>612.0</ele><time>2026-04-18T15:30:59Z</time></trkpt><trkpt lat="45.69643049824269" lon="10.498658939803999"><ele>612.0</ele><time>2026-04-18T15:31:02Z</time></trkpt><trkpt lat="45.69634517205338" lon="10.498618409104166"><ele>612.0</ele><time>2026-04-18T15:31:05Z</time></trkpt><trkpt lat="45.69628105859907" lon="10.498549554521137"><ele>612.0</ele><time>2026-04-18T15:31:07Z</time></trkpt><trkpt lat="45.69621343976182" lon="10.498387023373288"><ele>612.0</ele><time>2026-04-18T15:31:09Z</time></trkpt><trkpt lat="45.69623014750678" lon="10.49829309832717"><ele>612.0</ele><time>2026-04-18T15:31:11Z</time></trkpt><trkpt lat="45.69623772394868" lon="10.498176346607352"><ele>612.0</ele><time>2026-04-18T15:31:13Z</time></trkpt><trkpt lat="45.69625175940422" lon="10.49802804079966"><ele>612.0</ele><time>2026-04-18T15:31:15Z</time></trkpt><trkpt lat="45.69624788160978" lon="10.497884874448149"><ele>612.0</ele><time>2026-04-18T15:31:17Z</time></trkpt><trkpt lat="45.69623400209871" lon="10.497752083026054"><ele>612.0</ele><time>2026-04-18T15:31:35Z</time></trkpt><trkpt lat="45.69615986092512" lon="10.497656101384537"><ele>615.5</ele><time>2026-04-18T15:31:38Z</time></trkpt><trkpt lat="45.69620794736413" lon="10.497569414891606"><ele>619.0</ele><time>2026-04-18T15:31:42Z</time></trkpt><trkpt lat="45.69620699779494" lon="10.497478833788275"><ele>622.5</ele><time>2026-04-18T15:31:44Z</time></trkpt><trkpt lat="45.69610402033789" lon="10.497411768797997"><ele>626.0</ele><time>2026-04-18T15:31:47Z</time></trkpt><trkpt lat="45.696057442030714" lon="10.497341070584977"><ele>629.5</ele><time>2026-04-18T15:31:49Z</time></trkpt><trkpt lat="45.696032737977866" lon="10.497251103284091"><ele>633.0</ele><time>2026-04-18T15:31:52Z</time></trkpt><trkpt lat="45.69602370515132" lon="10.497138791572581"><ele>635.0</ele><time>2026-04-18T15:31:54Z</time></trkpt><trkpt lat="45.69603729987401" lon="10.497013759565302"><ele>637.0</ele><time>2026-04-18T15:31:56Z</time></trkpt><trkpt lat="45.69605159342025" lon="10.496902938882597"><ele>639.0</ele><time>2026-04-18T15:31:58Z</time></trkpt><trkpt lat="45.696069527543315" lon="10.496793640747718"><ele>641.0</ele><time>2026-04-18T15:32:01.001Z</time></trkpt><trkpt lat="45.696103632530445" lon="10.496690477937259"><ele>643.0</ele><time>2026-04-18T15:32:03.001Z</time></trkpt><trkpt lat="45.69607485543499" lon="10.496584056398385"><ele>645.0</ele><time>2026-04-18T15:32:08.001Z</time></trkpt><trkpt lat="45.69609941681431" lon="10.496441286089924"><ele>645.0</ele><time>2026-04-18T15:32:11.001Z</time></trkpt><trkpt lat="45.696145179371115" lon="10.496331875689625"><ele>645.0</ele><time>2026-04-18T15:32:13.001Z</time></trkpt><trkpt lat="45.69617050253141" lon="10.496235980179463"><ele>645.0</ele><time>2026-04-18T15:32:15.001Z</time></trkpt><trkpt lat="45.69611060461592" lon="10.496109914461963"><ele>645.0</ele><time>2026-04-18T15:32:17.001Z</time></trkpt><trkpt lat="45.696032719664785" lon="10.496037867695225"><ele>645.0</ele><time>2026-04-18T15:32:19.001Z</time></trkpt><trkpt lat="45.69604103180266" lon="10.495939826278622"><ele>645.0</ele><time>2026-04-18T15:32:24.001Z</time></trkpt><trkpt lat="45.69602594050988" lon="10.495813339208867"><ele>633.6</ele><time>2026-04-18T15:32:26.001Z</time></trkpt><trkpt lat="45.695958244493035" lon="10.49572079684474"><ele>622.2</ele><time>2026-04-18T15:32:28.001Z</time></trkpt><trkpt lat="45.69589035633816" lon="10.495740903192642"><ele>610.8</ele><time>2026-04-18T15:32:31.001Z</time></trkpt><trkpt lat="45.695802084001166" lon="10.49571269631701"><ele>599.4</ele><time>2026-04-18T15:32:33.001Z</time></trkpt><trkpt lat="45.69570032723637" lon="10.495716961979777"><ele>588.0</ele><time>2026-04-18T15:32:35.001Z</time></trkpt><trkpt lat="45.69561786395947" lon="10.495645994289664"><ele>588.0</ele><time>2026-04-18T15:32:37.001Z</time></trkpt><trkpt lat="45.695561759656314" lon="10.495542153377128"><ele>588.0</ele><time>2026-04-18T15:32:39.001Z</time></trkpt><trkpt lat="45.69551023031039" lon="10.495482867216575"><ele>588.0</ele><time>2026-04-18T15:32:41.001Z</time></trkpt><trkpt lat="45.69543839508389" lon="10.49542752782325"><ele>588.0</ele><time>2026-04-18T15:32:43.001Z</time></trkpt><trkpt lat="45.69538944499892" lon="10.495334862364125"><ele>588.0</ele><time>2026-04-18T15:32:46.001Z</time></trkpt><trkpt lat="45.695378101516276" lon="10.495218517481145"><ele>588.0</ele><time>2026-04-18T15:32:48Z</time></trkpt><trkpt lat="45.69535367578803" lon="10.495108821029632"><ele>587.8333333333334</ele><time>2026-04-18T15:32:49Z</time></trkpt><trkpt lat="45.695373289123104" lon="10.494983542896863"><ele>587.6666666666666</ele><time>2026-04-18T15:32:51Z</time></trkpt><trkpt lat="45.69538446435802" lon="10.494886197388226"><ele>587.5</ele><time>2026-04-18T15:32:53Z</time></trkpt><trkpt lat="45.69538153741161" lon="10.494765657651445"><ele>587.3333333333333</ele><time>2026-04-18T15:33:00Z</time></trkpt><trkpt lat="45.695448176043456" lon="10.49477755989071"><ele>587.1666666666666</ele><time>2026-04-18T15:33:06Z</time></trkpt><trkpt lat="45.69545191965281" lon="10.494665263990225"><ele>587.0</ele><time>2026-04-18T15:33:11Z</time></trkpt><trkpt lat="45.69547870798318" lon="10.494562018858064"><ele>587.0</ele><time>2026-04-18T15:33:37Z</time></trkpt><trkpt lat="45.695419857616876" lon="10.494456096265642"><ele>587.0</ele><time>2026-04-18T15:33:42Z</time></trkpt><trkpt lat="45.69534012213035" lon="10.494451006251522"><ele>587.0</ele><time>2026-04-18T15:33:44Z</time></trkpt><trkpt lat="45.69527621097294" lon="10.494469489099755"><ele>587.0</ele><time>2026-04-18T15:33:46Z</time></trkpt><trkpt lat="45.695194872001835" lon="10.494519921896886"><ele>587.0</ele><time>2026-04-18T15:33:48Z</time></trkpt><trkpt lat="45.69509891716761" lon="10.494570645168439"><ele>587.0</ele><time>2026-04-18T15:33:51Z</time></trkpt><trkpt lat="45.69500761026873" lon="10.494578131834768"><ele>584.6666666666666</ele><time>2026-04-18T15:33:55Z</time></trkpt><trkpt lat="45.69493372971165" lon="10.494665747317176"><ele>582.3333333333333</ele><time>2026-04-18T15:33:58Z</time></trkpt><trkpt lat="45.69489346944221" lon="10.494736347183135"><ele>580.0</ele><time>2026-04-18T15:34:00Z</time></trkpt><trkpt lat="45.69489629541502" lon="10.494841224927121"><ele>577.6666666666666</ele><time>2026-04-18T15:34:02Z</time></trkpt><trkpt lat="45.694847509511206" lon="10.4949937799763"><ele>575.3333333333334</ele><time>2026-04-18T15:34:04Z</time></trkpt><trkpt lat="45.6947752565837" lon="10.4950793355726"><ele>573.0</ele><time>2026-04-18T15:34:06Z</time></trkpt><trkpt lat="45.69472548165149" lon="10.495197537134958"><ele>573.0</ele><time>2026-04-18T15:34:08Z</time></trkpt><trkpt lat="45.69469604030094" lon="10.495336008020114"><ele>573.0</ele><time>2026-04-18T15:34:10Z</time></trkpt><trkpt lat="45.69464110163041" lon="10.495450736875533"><ele>573.0</ele><time>2026-04-18T15:34:12.001Z</time></trkpt><trkpt lat="45.69467716226016" lon="10.49560210492098"><ele>573.0</ele><time>2026-04-18T15:34:14.001Z</time></trkpt><trkpt lat="45.69466359989356" lon="10.495745491853066"><ele>573.0</ele><time>2026-04-18T15:34:16.001Z</time></trkpt><trkpt lat="45.694634951930084" lon="10.495868795143894"><ele>571.3333333333334</ele><time>2026-04-18T15:34:17.001Z</time></trkpt><trkpt lat="45.694625285595706" lon="10.495985012628532"><ele>569.6666666666666</ele><time>2026-04-18T15:34:19.001Z</time></trkpt><trkpt lat="45.6946075866928" lon="10.496101417588516"><ele>568.0</ele><time>2026-04-18T15:34:21.001Z</time></trkpt><trkpt lat="45.69450222408034" lon="10.496142146482471"><ele>566.3333333333333</ele><time>2026-04-18T15:34:24.001Z</time></trkpt><trkpt lat="45.694425384736626" lon="10.496191029442718"><ele>564.6666666666666</ele><time>2026-04-18T15:34:26.001Z</time></trkpt><trkpt lat="45.694431560638854" lon="10.4963077571633"><ele>563.0</ele><time>2026-04-18T15:34:28.001Z</time></trkpt><trkpt lat="45.694397871429956" lon="10.496423830071992"><ele>566.4285714285714</ele><time>2026-04-18T15:34:30.001Z</time></trkpt><trkpt lat="45.69438116129003" lon="10.49653893076988"><ele>569.8571428571429</ele><time>2026-04-18T15:34:32.001Z</time></trkpt><trkpt lat="45.69440947006095" lon="10.49663075395411"><ele>573.2857142857143</ele><time>2026-04-18T15:34:34.001Z</time></trkpt><trkpt lat="45.69435375590092" lon="10.496703904178254"><ele>576.7142857142858</ele><time>2026-04-18T15:34:36.001Z</time></trkpt><trkpt lat="45.694342174584115" lon="10.496796379523012"><ele>580.1428571428572</ele><time>2026-04-18T15:35:13Z</time></trkpt><trkpt lat="45.69426155299169" lon="10.496820229410016"><ele>583.5714285714286</ele><time>2026-04-18T15:35:16Z</time></trkpt><trkpt lat="45.694208910963674" lon="10.496761777247933"><ele>587.0</ele><time>2026-04-18T15:35:18Z</time></trkpt><trkpt lat="45.69414154074361" lon="10.496816014786736"><ele>587.0</ele><time>2026-04-18T15:35:21Z</time></trkpt><trkpt lat="45.694126816747435" lon="10.496933386270102"><ele>587.0</ele><time>2026-04-18T15:35:23Z</time></trkpt><trkpt lat="45.69404517168072" lon="10.496954450610106"><ele>587.0</ele><time>2026-04-18T15:35:25Z</time></trkpt><trkpt lat="45.6939711576207" lon="10.49696904461808"><ele>587.0</ele><time>2026-04-18T15:35:28Z</time></trkpt><trkpt lat="45.69389403460835" lon="10.49695804647895"><ele>587.0</ele><time>2026-04-18T15:35:30Z</time></trkpt><trkpt lat="45.69377503255627" lon="10.496953604136966"><ele>587.0</ele><time>2026-04-18T15:35:34Z</time></trkpt><trkpt lat="45.693703908186485" lon="10.496961790316206"><ele>587.0</ele><time>2026-04-18T15:35:37Z</time></trkpt><trkpt lat="45.69366762803756" lon="10.497055863245453"><ele>587.0</ele><time>2026-04-18T15:35:39Z</time></trkpt><trkpt lat="45.69370298177875" lon="10.497132366412034"><ele>587.0</ele><time>2026-04-18T15:35:42Z</time></trkpt><trkpt lat="45.6936860212771" lon="10.49724530003525"><ele>587.0</ele><time>2026-04-18T15:35:45Z</time></trkpt><trkpt lat="45.693760918185106" lon="10.497303526501582"><ele>587.0</ele><time>2026-04-18T15:35:48Z</time></trkpt><trkpt lat="45.693822044476605" lon="10.497423591955824"><ele>587.0</ele><time>2026-04-18T15:35:50Z</time></trkpt><trkpt lat="45.693815745347656" lon="10.497514862130906"><ele>586.3333333333333</ele><time>2026-04-18T15:35:53Z</time></trkpt><trkpt lat="45.69381857078142" lon="10.497662129942906"><ele>585.6666666666666</ele><time>2026-04-18T15:35:56Z</time></trkpt><trkpt lat="45.69381745589473" lon="10.497770644161927"><ele>585.0</ele><time>2026-04-18T15:35:57Z</time></trkpt><trkpt lat="45.69375813831688" lon="10.497842052829215"><ele>584.3333333333334</ele><time>2026-04-18T15:36:00Z</time></trkpt><trkpt lat="45.6936389387089" lon="10.497911315934173"><ele>583.6666666666667</ele><time>2026-04-18T15:36:02Z</time></trkpt><trkpt lat="45.693617339703636" lon="10.497825401882897"><ele>583.0</ele><time>2026-04-18T15:36:03Z</time></trkpt><trkpt lat="45.69353212235733" lon="10.497924302665968"><ele>583.0</ele><time>2026-04-18T15:36:06Z</time></trkpt><trkpt lat="45.69343028089216" lon="10.498002806040354"><ele>583.0</ele><time>2026-04-18T15:36:08Z</time></trkpt><trkpt lat="45.693353017625775" lon="10.498049610872368"><ele>583.0</ele><time>2026-04-18T15:36:11Z</time></trkpt><trkpt lat="45.69322218151318" lon="10.498135090732578"><ele>583.0</ele><time>2026-04-18T15:36:13.001Z</time></trkpt><trkpt lat="45.69317322901784" lon="10.498197959971177"><ele>583.0</ele><time>2026-04-18T15:36:15.001Z</time></trkpt><trkpt lat="45.693139876847" lon="10.498286629270616"><ele>583.0</ele><time>2026-04-18T15:36:17.001Z</time></trkpt><trkpt lat="45.69303877289714" lon="10.498338405638938"><ele>583.0</ele><time>2026-04-18T15:36:19.001Z</time></trkpt><trkpt lat="45.69296022161098" lon="10.498415861105714"><ele>583.0</ele><time>2026-04-18T15:36:20.001Z</time></trkpt><trkpt lat="45.69290870945575" lon="10.498485078279849"><ele>583.0</ele><time>2026-04-18T15:36:21.001Z</time></trkpt><trkpt lat="45.69274349538347" lon="10.49846889310046"><ele>583.0</ele><time>2026-04-18T15:36:23.001Z</time></trkpt><trkpt lat="45.692630339143506" lon="10.49848705891335"><ele>585.8333333333334</ele><time>2026-04-18T15:36:25.001Z</time></trkpt><trkpt lat="45.69256075293105" lon="10.498479823920729"><ele>588.6666666666667</ele><time>2026-04-18T15:36:27.001Z</time></trkpt><trkpt lat="45.69246889000886" lon="10.498468099916328"><ele>591.5</ele><time>2026-04-18T15:36:29.001Z</time></trkpt><trkpt lat="45.69238205079456" lon="10.498407025201093"><ele>594.3333333333334</ele><time>2026-04-18T15:36:31.001Z</time></trkpt><trkpt lat="45.69231965419729" lon="10.49838648477715"><ele>597.1666666666666</ele><time>2026-04-18T15:36:32.001Z</time></trkpt><trkpt lat="45.69221819632998" lon="10.498357282303246"><ele>600.0</ele><time>2026-04-18T15:36:34.001Z</time></trkpt><trkpt lat="45.69211945635347" lon="10.498387280147076"><ele>600.0</ele><time>2026-04-18T15:36:36.001Z</time></trkpt><trkpt lat="45.69199785093936" lon="10.498394558142794"><ele>600.0</ele><time>2026-04-18T15:36:38.001Z</time></trkpt><trkpt lat="45.69189298740827" lon="10.498365452394191"><ele>600.0</ele><time>2026-04-18T15:36:41.001Z</time></trkpt><trkpt lat="45.69182891449297" lon="10.498305312653414"><ele>600.0</ele><time>2026-04-18T15:36:46.001Z</time></trkpt><trkpt lat="45.691766757483656" lon="10.498335535246843"><ele>600.0</ele><time>2026-04-18T15:36:49.001Z</time></trkpt><trkpt lat="45.69170068826708" lon="10.498346286774048"><ele>600.0</ele><time>2026-04-18T15:36:54.001Z</time></trkpt><trkpt lat="45.69165444876009" lon="10.498264373745782"><ele>597.8</ele><time>2026-04-18T15:36:57.001Z</time></trkpt><trkpt lat="45.69159231052254" lon="10.498177030920106"><ele>595.6</ele><time>2026-04-18T15:36:59.001Z</time></trkpt><trkpt lat="45.691535050085655" lon="10.498127059105242"><ele>593.4</ele><time>2026-04-18T15:37:00Z</time></trkpt><trkpt lat="45.69148352991377" lon="10.498025355360577"><ele>591.2</ele><time>2026-04-18T15:37:02Z</time></trkpt><trkpt lat="45.6914138567799" lon="10.497915246409734"><ele>589.0</ele><time>2026-04-18T15:37:04Z</time></trkpt><trkpt lat="45.691344320330465" lon="10.497784743506976"><ele>595.3333333333334</ele><time>2026-04-18T15:37:06Z</time></trkpt><trkpt lat="45.69127819511196" lon="10.497695237369989"><ele>601.6666666666667</ele><time>2026-04-18T15:37:08Z</time></trkpt><trkpt lat="45.69123484734697" lon="10.49761945127721"><ele>608.0</ele><time>2026-04-18T15:37:10Z</time></trkpt><trkpt lat="45.691194722122965" lon="10.497694160116184"><ele>614.3333333333334</ele><time>2026-04-18T15:37:13Z</time></trkpt><trkpt lat="45.69118059829878" lon="10.497812596537907"><ele>620.6666666666666</ele><time>2026-04-18T15:37:15Z</time></trkpt><trkpt lat="45.69114022782462" lon="10.497899530584892"><ele>627.0</ele><time>2026-04-18T15:37:17Z</time></trkpt><trkpt lat="45.691060688878764" lon="10.497874566492735"><ele>625.3333333333334</ele><time>2026-04-18T15:37:27Z</time></trkpt><trkpt lat="45.69098969234259" lon="10.4978767896529"><ele>623.6666666666666</ele><time>2026-04-18T15:37:29Z</time></trkpt><trkpt lat="45.6909279331965" lon="10.497895598007027"><ele>622.0</ele><time>2026-04-18T15:39:25Z</time></trkpt><trkpt lat="45.6908721213184" lon="10.497972788233685"><ele>620.3333333333333</ele><time>2026-04-18T15:39:29Z</time></trkpt><trkpt lat="45.690935197728585" lon="10.497989255990404"><ele>618.6666666666666</ele><time>2026-04-18T15:39:31Z</time></trkpt><trkpt lat="45.69098993785046" lon="10.498083454055612"><ele>617.0</ele><time>2026-04-18T15:39:33Z</time></trkpt><trkpt lat="45.691032591863824" lon="10.498247390991189"><ele>617.0</ele><time>2026-04-18T15:39:35Z</time></trkpt><trkpt lat="45.691054874884934" lon="10.49834995868705"><ele>617.0</ele><time>2026-04-18T15:39:37Z</time></trkpt><trkpt lat="45.69105224103802" lon="10.498445691231401"><ele>617.0</ele><time>2026-04-18T15:39:39Z</time></trkpt><trkpt lat="45.69107018919764" lon="10.498553751704318"><ele>617.0</ele><time>2026-04-18T15:39:41Z</time></trkpt><trkpt lat="45.69100125373384" lon="10.498617637092586"><ele>617.0</ele><time>2026-04-18T15:39:43Z</time></trkpt><trkpt lat="45.69092416457153" lon="10.498620836700976"><ele>617.0</ele><time>2026-04-18T15:39:45Z</time></trkpt><trkpt lat="45.690816183632066" lon="10.498698912135994"><ele>615.8571428571429</ele><time>2026-04-18T15:39:47Z</time></trkpt><trkpt lat="45.6907511353634" lon="10.49875842358046"><ele>614.7142857142857</ele><time>2026-04-18T15:39:49Z</time></trkpt><trkpt lat="45.69079010708884" lon="10.498844101413283"><ele>613.5714285714286</ele><time>2026-04-18T15:39:52Z</time></trkpt><trkpt lat="45.69072795535227" lon="10.498876488502923"><ele>612.4285714285714</ele><time>2026-04-18T15:39:58Z</time></trkpt><trkpt lat="45.690683698652435" lon="10.498940597957194"><ele>611.2857142857142</ele><time>2026-04-18T15:41:46Z</time></trkpt><trkpt lat="45.69059567692337" lon="10.498925945060975"><ele>610.1428571428571</ele><time>2026-04-18T15:41:49Z</time></trkpt><trkpt lat="45.69053857775105" lon="10.498993939516634"><ele>609.0</ele><time>2026-04-18T15:41:51Z</time></trkpt><trkpt lat="45.69046801742855" lon="10.499027654109526"><ele>609.0</ele><time>2026-04-18T15:41:53Z</time></trkpt><trkpt lat="45.690392912632696" lon="10.499055691875197"><ele>609.0</ele><time>2026-04-18T15:41:55Z</time></trkpt><trkpt lat="45.690337296673704" lon="10.499012874322778"><ele>609.0</ele><time>2026-04-18T15:41:57Z</time></trkpt><trkpt lat="45.69029703280644" lon="10.49891226269633"><ele>609.0</ele><time>2026-04-18T15:41:59Z</time></trkpt><trkpt lat="45.69027044983886" lon="10.498822556005264"><ele>609.0</ele><time>2026-04-18T15:42:01Z</time></trkpt><trkpt lat="45.69024075874438" lon="10.498714902610102"><ele>609.0</ele><time>2026-04-18T15:42:03Z</time></trkpt><trkpt lat="45.69018516410091" lon="10.498638035586357"><ele>609.0</ele><time>2026-04-18T15:42:06Z</time></trkpt><trkpt lat="45.690135572551334" lon="10.498520245726015"><ele>614.2857142857143</ele><time>2026-04-18T15:42:08Z</time></trkpt><trkpt lat="45.69009314365918" lon="10.498428710485095"><ele>619.5714285714286</ele><time>2026-04-18T15:42:11Z</time></trkpt><trkpt lat="45.69005640421646" lon="10.49833930019998"><ele>624.8571428571429</ele><time>2026-04-18T15:42:13Z</time></trkpt><trkpt lat="45.69000903983665" lon="10.498242206967928"><ele>630.1428571428571</ele><time>2026-04-18T15:42:14Z</time></trkpt><trkpt lat="45.68997343150582" lon="10.498165491046828"><ele>635.4285714285714</ele><time>2026-04-18T15:42:15Z</time></trkpt><trkpt lat="45.68991300314442" lon="10.498083122603385"><ele>640.7142857142858</ele><time>2026-04-18T15:42:17Z</time></trkpt><trkpt lat="45.689850834725235" lon="10.498039037814943"><ele>646.0</ele><time>2026-04-18T15:42:19Z</time></trkpt><trkpt lat="45.68983073658065" lon="10.49795307971941"><ele>649.1666666666667</ele><time>2026-04-18T15:42:23Z</time></trkpt><trkpt lat="45.689787943132536" lon="10.497829627635285"><ele>652.3333333333334</ele><time>2026-04-18T15:42:26Z</time></trkpt><trkpt lat="45.689750142585844" lon="10.497729434224494"><ele>655.5</ele><time>2026-04-18T15:42:28Z</time></trkpt><trkpt lat="45.68971830632771" lon="10.497612144525645"><ele>658.6666666666666</ele><time>2026-04-18T15:42:30Z</time></trkpt><trkpt lat="45.689711448583516" lon="10.497493493603141"><ele>661.8333333333333</ele><time>2026-04-18T15:42:32.001Z</time></trkpt><trkpt lat="45.689664071226254" lon="10.497395791636938"><ele>665.0</ele><time>2026-04-18T15:42:34.001Z</time></trkpt><trkpt lat="45.689586793132804" lon="10.497411993790793"><ele>665.0</ele><time>2026-04-18T15:42:36.001Z</time></trkpt><trkpt lat="45.689539827906" lon="10.49732672244554"><ele>665.0</ele><time>2026-04-18T15:42:38.001Z</time></trkpt><trkpt lat="45.68947489592438" lon="10.497282305655474"><ele>665.0</ele><time>2026-04-18T15:42:41.001Z</time></trkpt><trkpt lat="45.68938879003293" lon="10.497260708641933"><ele>665.0</ele><time>2026-04-18T15:42:43.001Z</time></trkpt><trkpt lat="45.68929498646632" lon="10.4972039661249"><ele>665.0</ele><time>2026-04-18T15:42:46.001Z</time></trkpt><trkpt lat="45.68918333599285" lon="10.497297117150948"><ele>664.4</ele><time>2026-04-18T15:42:48.001Z</time></trkpt><trkpt lat="45.6891443093613" lon="10.497410047182683"><ele>663.8</ele><time>2026-04-18T15:42:50.001Z</time></trkpt><trkpt lat="45.68905977289377" lon="10.497478911805368"><ele>663.2</ele><time>2026-04-18T15:42:52.001Z</time></trkpt><trkpt lat="45.6889750076358" lon="10.497543468000782"><ele>662.6</ele><time>2026-04-18T15:42:54.001Z</time></trkpt><trkpt lat="45.68890141057611" lon="10.497590425042901"><ele>662.0</ele><time>2026-04-18T15:42:56.001Z</time></trkpt><trkpt lat="45.688811302048" lon="10.497635110710904"><ele>662.0</ele><time>2026-04-18T15:42:58.001Z</time></trkpt><trkpt lat="45.68875020608135" lon="10.497602349041244"><ele>662.0</ele><time>2026-04-18T15:43:01.001Z</time></trkpt><trkpt lat="45.68867106329753" lon="10.497567527444213"><ele>662.0</ele><time>2026-04-18T15:43:04.001Z</time></trkpt><trkpt lat="45.68858292912284" lon="10.497464318108474"><ele>662.0</ele><time>2026-04-18T15:43:06.001Z</time></trkpt><trkpt lat="45.68852062051882" lon="10.497407601441166"><ele>662.0</ele><time>2026-04-18T15:43:09.001Z</time></trkpt><trkpt lat="45.68844752081528" lon="10.497356205323698"><ele>662.0</ele><time>2026-04-18T15:43:12.001Z</time></trkpt><trkpt lat="45.68838432971121" lon="10.497352117504427"><ele>661.6666666666666</ele><time>2026-04-18T15:43:14.001Z</time></trkpt><trkpt lat="45.68829026190402" lon="10.497381684231522"><ele>661.3333333333333</ele><time>2026-04-18T15:43:16.001Z</time></trkpt><trkpt lat="45.68822909145167" lon="10.497407134591175"><ele>661.0</ele><time>2026-04-18T15:43:17.001Z</time></trkpt><trkpt lat="45.68812826888389" lon="10.497438837161697"><ele>660.6666666666666</ele><time>2026-04-18T15:43:19Z</time></trkpt><trkpt lat="45.688030280207" lon="10.497436805291153"><ele>660.3333333333334</ele><time>2026-04-18T15:43:21Z</time></trkpt><trkpt lat="45.68796352996017" lon="10.497402475631635"><ele>660.0</ele><time>2026-04-18T15:43:22Z</time></trkpt><trkpt lat="45.68786817509441" lon="10.497351142357354"><ele>660.4</ele><time>2026-04-18T15:43:24Z</time></trkpt><trkpt lat="45.68774871437597" lon="10.4973401779198"><ele>660.8</ele><time>2026-04-18T15:43:26Z</time></trkpt><trkpt lat="45.68766822533902" lon="10.497335708225638"><ele>661.2</ele><time>2026-04-18T15:43:30Z</time></trkpt><trkpt lat="45.68754441985984" lon="10.497336000134784"><ele>661.6</ele><time>2026-04-18T15:43:32Z</time></trkpt><trkpt lat="45.687466561038995" lon="10.497329966154872"><ele>662.0</ele><time>2026-04-18T15:43:33Z</time></trkpt><trkpt lat="45.68737349185556" lon="10.497293266285654"><ele>662.0</ele><time>2026-04-18T15:43:34Z</time></trkpt><trkpt lat="45.687297289050136" lon="10.497278735332522"><ele>662.0</ele><time>2026-04-18T15:43:35Z</time></trkpt><trkpt lat="45.68722384488322" lon="10.497307421207905"><ele>662.0</ele><time>2026-04-18T15:43:36Z</time></trkpt><trkpt lat="45.68714649266218" lon="10.497407937681112"><ele>662.0</ele><time>2026-04-18T15:43:38Z</time></trkpt><trkpt lat="45.687051819344326" lon="10.497444655687696"><ele>662.0</ele><time>2026-04-18T15:43:40Z</time></trkpt><trkpt lat="45.686966805337896" lon="10.49742455734346"><ele>662.0</ele><time>2026-04-18T15:43:42Z</time></trkpt><trkpt lat="45.68685826541" lon="10.497457394854035"><ele>661.0</ele><time>2026-04-18T15:43:44Z</time></trkpt><trkpt lat="45.686779937576304" lon="10.497407485757599"><ele>660.0</ele><time>2026-04-18T15:43:48Z</time></trkpt><trkpt lat="45.68668335082697" lon="10.497425164474441"><ele>659.0</ele><time>2026-04-18T15:43:50Z</time></trkpt><trkpt lat="45.68658153797979" lon="10.497359884399074"><ele>658.0</ele><time>2026-04-18T15:43:52Z</time></trkpt><trkpt lat="45.686526319931716" lon="10.49727454416999"><ele>657.0</ele><time>2026-04-18T15:43:55Z</time></trkpt><trkpt lat="45.68653104501256" lon="10.497162882459357"><ele>657.8</ele><time>2026-04-18T15:43:58Z</time></trkpt><trkpt lat="45.686561125487316" lon="10.497059233577206"><ele>658.6</ele><time>2026-04-18T15:44:00Z</time></trkpt><trkpt lat="45.6866375143104" lon="10.496942865080435"><ele>659.4</ele><time>2026-04-18T15:44:02Z</time></trkpt><trkpt lat="45.686684051859054" lon="10.496820969875358"><ele>660.1999999999999</ele><time>2026-04-18T15:44:04Z</time></trkpt><trkpt lat="45.68668044566158" lon="10.496667340358552"><ele>661.0</ele><time>2026-04-18T15:44:06Z</time></trkpt><trkpt lat="45.68670271966448" lon="10.496527173452664"><ele>661.0</ele><time>2026-04-18T15:44:08Z</time></trkpt><trkpt lat="45.68670358293729" lon="10.496394770101057"><ele>661.0</ele><time>2026-04-18T15:44:10Z</time></trkpt><trkpt lat="45.686706191503916" lon="10.496298797709505"><ele>661.0</ele><time>2026-04-18T15:44:13Z</time></trkpt><trkpt lat="45.68674949315291" lon="10.496213778567226"><ele>661.0</ele><time>2026-04-18T15:44:19Z</time></trkpt><trkpt lat="45.686787725629756" lon="10.496127517710388"><ele>661.0</ele><time>2026-04-18T15:44:21Z</time></trkpt><trkpt lat="45.68684835151351" lon="10.496063309445727"><ele>661.0</ele><time>2026-04-18T15:44:23Z</time></trkpt><trkpt lat="45.68689630897014" lon="10.495983421105674"><ele>666.6666666666667</ele><time>2026-04-18T15:44:25Z</time></trkpt><trkpt lat="45.68696043593219" lon="10.495907343761038"><ele>672.3333333333334</ele><time>2026-04-18T15:44:27Z</time></trkpt><trkpt lat="45.687006411851186" lon="10.49582397784694"><ele>678.0</ele><time>2026-04-18T15:44:29.001Z</time></trkpt><trkpt lat="45.687065623706985" lon="10.495739973195569"><ele>683.6666666666666</ele><time>2026-04-18T15:44:32.001Z</time></trkpt><trkpt lat="45.687128542493205" lon="10.495680448858113"><ele>689.3333333333333</ele><time>2026-04-18T15:44:34.001Z</time></trkpt><trkpt lat="45.68720680238134" lon="10.495574822402295"><ele>695.0</ele><time>2026-04-18T15:44:36.001Z</time></trkpt><trkpt lat="45.687268861021614" lon="10.49553039485628"><ele>695.0</ele><time>2026-04-18T15:44:38.001Z</time></trkpt><trkpt lat="45.68729761285724" lon="10.495423421709404"><ele>695.0</ele><time>2026-04-18T15:44:40.001Z</time></trkpt><trkpt lat="45.68729386084995" lon="10.495306548099197"><ele>695.0</ele><time>2026-04-18T15:44:41.001Z</time></trkpt><trkpt lat="45.68729997643014" lon="10.495215337569595"><ele>695.0</ele><time>2026-04-18T15:44:43.001Z</time></trkpt><trkpt lat="45.68725682051149" lon="10.495288221800338"><ele>695.0</ele><time>2026-04-18T15:45:05.001Z</time></trkpt><trkpt lat="45.68725725008461" lon="10.495183220023224"><ele>695.0</ele><time>2026-04-18T15:45:58Z</time></trkpt><trkpt lat="45.68723918233606" lon="10.495049870084994"><ele>694.0</ele><time>2026-04-18T15:46:01Z</time></trkpt><trkpt lat="45.6872063757359" lon="10.49494111936057"><ele>693.0</ele><time>2026-04-18T15:46:04Z</time></trkpt><trkpt lat="45.68723189162038" lon="10.49483379740208"><ele>692.0</ele><time>2026-04-18T15:46:07Z</time></trkpt><trkpt lat="45.68723695993315" lon="10.494698607623475"><ele>691.0</ele><time>2026-04-18T15:46:10Z</time></trkpt><trkpt lat="45.687221458545075" lon="10.494605099474908"><ele>690.0</ele><time>2026-04-18T15:46:12Z</time></trkpt><trkpt lat="45.68724702755128" lon="10.494496230087153"><ele>689.0</ele><time>2026-04-18T15:46:16Z</time></trkpt><trkpt lat="45.68726465822967" lon="10.494367368733489"><ele>688.5</ele><time>2026-04-18T15:46:18Z</time></trkpt><trkpt lat="45.687291246550636" lon="10.494264672067393"><ele>688.0</ele><time>2026-04-18T15:46:20Z</time></trkpt><trkpt lat="45.68727800010529" lon="10.494153518927057"><ele>687.5</ele><time>2026-04-18T15:46:22Z</time></trkpt><trkpt lat="45.68723048004396" lon="10.494059351814572"><ele>687.0</ele><time>2026-04-18T15:46:24Z</time></trkpt><trkpt lat="45.68716445824384" lon="10.494011898067557"><ele>686.5</ele><time>2026-04-18T15:46:26Z</time></trkpt><trkpt lat="45.687138158241574" lon="10.493890044197084"><ele>686.0</ele><time>2026-04-18T15:46:29Z</time></trkpt><trkpt lat="45.68713427093776" lon="10.493776700057"><ele>688.3333333333333</ele><time>2026-04-18T15:46:31Z</time></trkpt><trkpt lat="45.6871066110162" lon="10.493658882842679"><ele>690.6666666666666</ele><time>2026-04-18T15:46:33Z</time></trkpt><trkpt lat="45.68712885738615" lon="10.493570791655978"><ele>693.0</ele><time>2026-04-18T15:46:43.001Z</time></trkpt><trkpt lat="45.68708496058953" lon="10.4934337220023"><ele>695.3333333333334</ele><time>2026-04-18T15:46:47.001Z</time></trkpt><trkpt lat="45.687057375941656" lon="10.493293809463365"><ele>697.6666666666667</ele><time>2026-04-18T15:46:49.001Z</time></trkpt><trkpt lat="45.68703525684325" lon="10.493185846599273"><ele>700.0</ele><time>2026-04-18T15:46:51.001Z</time></trkpt><trkpt lat="45.68700102015888" lon="10.493052593842789"><ele>700.0</ele><time>2026-04-18T15:46:53.001Z</time></trkpt><trkpt lat="45.686989163858335" lon="10.492928089629755"><ele>700.0</ele><time>2026-04-18T15:46:55.001Z</time></trkpt><trkpt lat="45.68700885117578" lon="10.492816470173643"><ele>700.0</ele><time>2026-04-18T15:46:57.001Z</time></trkpt><trkpt lat="45.686981737385835" lon="10.492733808962088"><ele>700.0</ele><time>2026-04-18T15:46:59.001Z</time></trkpt><trkpt lat="45.68701513683931" lon="10.492623796788681"><ele>700.0</ele><time>2026-04-18T15:47:02.001Z</time></trkpt><trkpt lat="45.68699672242317" lon="10.492488432837456"><ele>700.0</ele><time>2026-04-18T15:47:04.001Z</time></trkpt><trkpt lat="45.68700327250579" lon="10.492345145077756"><ele>699.8333333333334</ele><time>2026-04-18T15:47:06.001Z</time></trkpt><trkpt lat="45.687021660914915" lon="10.492200984700428"><ele>699.6666666666667</ele><time>2026-04-18T15:47:08.001Z</time></trkpt><trkpt lat="45.687079775924595" lon="10.492117477304172"><ele>699.5</ele><time>2026-04-18T15:47:10.001Z</time></trkpt><trkpt lat="45.687150818422786" lon="10.492086452788238"><ele>699.3333333333334</ele><time>2026-04-18T15:47:12.001Z</time></trkpt><trkpt lat="45.68711922835033" lon="10.491956306143399"><ele>699.1666666666666</ele><time>2026-04-18T15:47:14.001Z</time></trkpt><trkpt lat="45.6870553920793" lon="10.491907603756987"><ele>699.0</ele><time>2026-04-18T15:47:16.001Z</time></trkpt><trkpt lat="45.687030287901315" lon="10.491786454628544"><ele>699.0</ele><time>2026-04-18T15:47:18.001Z</time></trkpt><trkpt lat="45.68705268690446" lon="10.491651766699448"><ele>699.0</ele><time>2026-04-18T15:47:20.001Z</time></trkpt><trkpt lat="45.68706141850292" lon="10.491475310781146"><ele>699.0</ele><time>2026-04-18T15:47:22.001Z</time></trkpt><trkpt lat="45.687053373718406" lon="10.491342385164938"><ele>699.0</ele><time>2026-04-18T15:47:25.001Z</time></trkpt><trkpt lat="45.68708880697218" lon="10.491207685769341"><ele>699.0</ele><time>2026-04-18T15:47:28.001Z</time></trkpt><trkpt lat="45.68709210352556" lon="10.491096594697273"><ele>699.8000000000001</ele><time>2026-04-18T15:47:30Z</time></trkpt><trkpt lat="45.687094580055" lon="10.490973214537242"><ele>700.6</ele><time>2026-04-18T15:47:34Z</time></trkpt><trkpt lat="45.68702823413223" lon="10.491042827421133"><ele>701.4</ele><time>2026-04-18T15:47:36Z</time></trkpt><trkpt lat="45.68693958210914" lon="10.491134118479362"><ele>702.2</ele><time>2026-04-18T15:47:39Z</time></trkpt><trkpt lat="45.68687586013474" lon="10.491223141564479"><ele>703.0</ele><time>2026-04-18T15:47:41Z</time></trkpt><trkpt lat="45.68679039324519" lon="10.491223407816275"><ele>703.0</ele><time>2026-04-18T15:47:44Z</time></trkpt><trkpt lat="45.68672638900163" lon="10.491194321824487"><ele>703.0</ele><time>2026-04-18T15:47:46Z</time></trkpt><trkpt lat="45.68666597891692" lon="10.491232031001209"><ele>703.0</ele><time>2026-04-18T15:47:48Z</time></trkpt><trkpt lat="45.68671434785695" lon="10.491298264042934"><ele>703.0</ele><time>2026-04-18T15:51:02.001Z</time></trkpt><trkpt lat="45.68663648802569" lon="10.491350419876982"><ele>703.0</ele><time>2026-04-18T15:51:04.001Z</time></trkpt><trkpt lat="45.68658097597596" lon="10.491426251825533"><ele>703.0</ele><time>2026-04-18T15:51:06.001Z</time></trkpt><trkpt lat="45.68652833302157" lon="10.491477035859072"><ele>703.0</ele><time>2026-04-18T15:51:08.001Z</time></trkpt><trkpt lat="45.68647473903889" lon="10.491556115136824"><ele>704.3333333333334</ele><time>2026-04-18T15:51:10.001Z</time></trkpt><trkpt lat="45.686418494207146" lon="10.491626170379357"><ele>705.6666666666667</ele><time>2026-04-18T15:51:12.001Z</time></trkpt><trkpt lat="45.686326938582425" lon="10.491683171628058"><ele>707.0</ele><time>2026-04-18T15:51:14.001Z</time></trkpt><trkpt lat="45.68628325983891" lon="10.491767308547274"><ele>708.3333333333334</ele><time>2026-04-18T15:51:18.001Z</time></trkpt><trkpt lat="45.68621786462352" lon="10.491831567069903"><ele>709.6666666666666</ele><time>2026-04-18T15:51:20.001Z</time></trkpt><trkpt lat="45.68618099238363" lon="10.491933150628256"><ele>711.0</ele><time>2026-04-18T15:51:21.001Z</time></trkpt><trkpt lat="45.68609218795113" lon="10.491972260572908"><ele>711.0</ele><time>2026-04-18T15:51:23.001Z</time></trkpt><trkpt lat="45.686009989375876" lon="10.492009429101762"><ele>711.0</ele><time>2026-04-18T15:51:25.001Z</time></trkpt><trkpt lat="45.68596350633552" lon="10.492121409650768"><ele>711.0</ele><time>2026-04-18T15:51:27.001Z</time></trkpt><trkpt lat="45.68596917569627" lon="10.492253308111998"><ele>711.0</ele><time>2026-04-18T15:51:29.001Z</time></trkpt><trkpt lat="45.685950434267816" lon="10.492360117591625"><ele>711.0</ele><time>2026-04-18T15:51:31.001Z</time></trkpt><trkpt lat="45.68591663796833" lon="10.4924592322467"><ele>711.0</ele><time>2026-04-18T15:51:33.001Z</time></trkpt><trkpt lat="45.685849324992304" lon="10.492560996535301"><ele>708.8333333333334</ele><time>2026-04-18T15:51:35.001Z</time></trkpt><trkpt lat="45.68582046391533" lon="10.492685462561793"><ele>706.6666666666666</ele><time>2026-04-18T15:51:37.001Z</time></trkpt><trkpt lat="45.68578622856078" lon="10.492816176201053"><ele>704.5</ele><time>2026-04-18T15:51:39.001Z</time></trkpt><trkpt lat="45.68574079934574" lon="10.492928052539316"><ele>702.3333333333333</ele><time>2026-04-18T15:51:41.001Z</time></trkpt><trkpt lat="45.6856576303094" lon="10.492980776982268"><ele>700.1666666666666</ele><time>2026-04-18T15:51:43Z</time></trkpt><trkpt lat="45.68558398206172" lon="10.49297780359388"><ele>698.0</ele><time>2026-04-18T15:51:45Z</time></trkpt><trkpt lat="45.68549924833825" lon="10.492870418099603"><ele>698.0</ele><time>2026-04-18T15:51:47Z</time></trkpt><trkpt lat="45.68545265656372" lon="10.492768310046399"><ele>698.0</ele><time>2026-04-18T15:51:48Z</time></trkpt><trkpt lat="45.6854236088791" lon="10.492683199292392"><ele>698.0</ele><time>2026-04-18T15:51:49Z</time></trkpt><trkpt lat="45.685372297491206" lon="10.492529265695861"><ele>698.0</ele><time>2026-04-18T15:51:51Z</time></trkpt><trkpt lat="45.68527686880896" lon="10.492499815993114"><ele>698.0</ele><time>2026-04-18T15:51:53Z</time></trkpt><trkpt lat="45.685188953676544" lon="10.492586041960273"><ele>696.0</ele><time>2026-04-18T15:51:55Z</time></trkpt><trkpt lat="45.685140322994755" lon="10.49266231481305"><ele>694.0</ele><time>2026-04-18T15:51:56Z</time></trkpt><trkpt lat="45.68511995616844" lon="10.492820972113629"><ele>692.0</ele><time>2026-04-18T15:51:58Z</time></trkpt><trkpt lat="45.68507777979769" lon="10.492895786619002"><ele>690.0</ele><time>2026-04-18T15:51:59Z</time></trkpt><trkpt lat="45.685023242872184" lon="10.492943678742538"><ele>688.0</ele><time>2026-04-18T15:52:00Z</time></trkpt><trkpt lat="45.684962395557015" lon="10.492976150047351"><ele>686.0</ele><time>2026-04-18T15:52:01Z</time></trkpt><trkpt lat="45.68489717851031" lon="10.493012132191666"><ele>686.0</ele><time>2026-04-18T15:52:02Z</time></trkpt><trkpt lat="45.68480160303322" lon="10.493072456585207"><ele>686.0</ele><time>2026-04-18T15:52:04Z</time></trkpt><trkpt lat="45.684678836182044" lon="10.493010487873423"><ele>686.0</ele><time>2026-04-18T15:52:06Z</time></trkpt><trkpt lat="45.684617248498625" lon="10.492955030590576"><ele>686.0</ele><time>2026-04-18T15:52:07Z</time></trkpt><trkpt lat="45.68455423108499" lon="10.49290707629194"><ele>686.0</ele><time>2026-04-18T15:52:08Z</time></trkpt><trkpt lat="45.684500527706874" lon="10.492852212996059"><ele>686.0</ele><time>2026-04-18T15:52:09Z</time></trkpt><trkpt lat="45.684425964085946" lon="10.492812622174226"><ele>691.6666666666666</ele><time>2026-04-18T15:52:10Z</time></trkpt><trkpt lat="45.68436058647646" lon="10.492813145809087"><ele>697.3333333333333</ele><time>2026-04-18T15:52:11Z</time></trkpt><trkpt lat="45.68427495531444" lon="10.492802397122055"><ele>703.0</ele><time>2026-04-18T15:52:13Z</time></trkpt><trkpt lat="45.68417601228727" lon="10.492744460449366"><ele>708.6666666666666</ele><time>2026-04-18T15:52:15Z</time></trkpt><trkpt lat="45.68411020227451" lon="10.492726536340006"><ele>714.3333333333334</ele><time>2026-04-18T15:52:16Z</time></trkpt><trkpt lat="45.68399098547942" lon="10.492696663040684"><ele>720.0</ele><time>2026-04-18T15:52:18Z</time></trkpt><trkpt lat="45.68393465440271" lon="10.492858424488531"><ele>715.1666666666666</ele><time>2026-04-18T15:52:21Z</time></trkpt><trkpt lat="45.68389479623946" lon="10.49294604830839"><ele>710.3333333333334</ele><time>2026-04-18T15:52:22Z</time></trkpt><trkpt lat="45.683825831194184" lon="10.493048314703309"><ele>705.5</ele><time>2026-04-18T15:52:23Z</time></trkpt><trkpt lat="45.68379634794178" lon="10.493133632959413"><ele>700.6666666666667</ele><time>2026-04-18T15:52:24Z</time></trkpt><trkpt lat="45.6837776640375" lon="10.493261591934761"><ele>695.8333333333334</ele><time>2026-04-18T15:52:25Z</time></trkpt><trkpt lat="45.683781486333295" lon="10.493404763907034"><ele>691.0</ele><time>2026-04-18T15:52:27Z</time></trkpt><trkpt lat="45.68386248801524" lon="10.49345808753607"><ele>691.0</ele><time>2026-04-18T15:52:29Z</time></trkpt><trkpt lat="45.6837930734661" lon="10.49358391615891"><ele>691.0</ele><time>2026-04-18T15:52:31Z</time></trkpt><trkpt lat="45.683689294203894" lon="10.493660314493727"><ele>691.0</ele><time>2026-04-18T15:52:33Z</time></trkpt><trkpt lat="45.68364479264669" lon="10.49379839792661"><ele>691.0</ele><time>2026-04-18T15:52:35Z</time></trkpt><trkpt lat="45.683558369218865" lon="10.493896426663174"><ele>691.0</ele><time>2026-04-18T15:52:37Z</time></trkpt><trkpt lat="45.683458562548594" lon="10.49393300839727"><ele>691.1999999999999</ele><time>2026-04-18T15:52:39Z</time></trkpt><trkpt lat="45.68334623074221" lon="10.493915891824727"><ele>691.4</ele><time>2026-04-18T15:52:41Z</time></trkpt><trkpt lat="45.68327668814534" lon="10.493913210939823"><ele>691.6</ele><time>2026-04-18T15:52:42Z</time></trkpt><trkpt lat="45.6831511188279" lon="10.493962986114171"><ele>691.8</ele><time>2026-04-18T15:52:44Z</time></trkpt><trkpt lat="45.68307009567928" lon="10.494014806994805"><ele>692.0</ele><time>2026-04-18T15:52:45Z</time></trkpt><trkpt lat="45.683026351481175" lon="10.494079985404728"><ele>692.0</ele><time>2026-04-18T15:52:46Z</time></trkpt><trkpt lat="45.68298932011409" lon="10.494180620434976"><ele>692.0</ele><time>2026-04-18T15:52:47Z</time></trkpt><trkpt lat="45.682958835424756" lon="10.494295143935284"><ele>692.0</ele><time>2026-04-18T15:52:48Z</time></trkpt><trkpt lat="45.682924982926096" lon="10.494403471742329"><ele>692.0</ele><time>2026-04-18T15:52:49Z</time></trkpt><trkpt lat="45.68288815295301" lon="10.494537024227833"><ele>692.0</ele><time>2026-04-18T15:52:50Z</time></trkpt><trkpt lat="45.68285095644857" lon="10.494661998442146"><ele>692.0</ele><time>2026-04-18T15:52:51Z</time></trkpt><trkpt lat="45.68282317373321" lon="10.494799339421563"><ele>691.8</ele><time>2026-04-18T15:52:52Z</time></trkpt><trkpt lat="45.682813725174164" lon="10.494895320408615"><ele>691.6</ele><time>2026-04-18T15:52:53Z</time></trkpt><trkpt lat="45.682722026108024" lon="10.494978338908926"><ele>691.4</ele><time>2026-04-18T15:52:56Z</time></trkpt><trkpt lat="45.68261109897208" lon="10.495039433537663"><ele>691.1999999999999</ele><time>2026-04-18T15:52:58Z</time></trkpt><trkpt lat="45.682540762465486" lon="10.49506053915696"><ele>691.0</ele><time>2026-04-18T15:52:59Z</time></trkpt><trkpt lat="45.682449297052116" lon="10.495098362062564"><ele>691.0</ele><time>2026-04-18T15:53:01.001Z</time></trkpt><trkpt lat="45.68236977443273" lon="10.495171042858523"><ele>691.0</ele><time>2026-04-18T15:53:03.001Z</time></trkpt><trkpt lat="45.682250102054745" lon="10.495178625771276"><ele>691.0</ele><time>2026-04-18T15:53:05.001Z</time></trkpt><trkpt lat="45.68218502621338" lon="10.495183967527282"><ele>691.0</ele><time>2026-04-18T15:53:06.001Z</time></trkpt><trkpt lat="45.682117352466854" lon="10.495198415811902"><ele>691.0</ele><time>2026-04-18T15:53:07.001Z</time></trkpt><trkpt lat="45.682056658913346" lon="10.495222910194"><ele>691.0</ele><time>2026-04-18T15:53:08.001Z</time></trkpt><trkpt lat="45.682001435833264" lon="10.495270345501137"><ele>691.0</ele><time>2026-04-18T15:53:09.001Z</time></trkpt><trkpt lat="45.68193669599462" lon="10.495361226762363"><ele>691.0</ele><time>2026-04-18T15:53:10.001Z</time></trkpt><trkpt lat="45.681873963632334" lon="10.49537963637386"><ele>691.0</ele><time>2026-04-18T15:53:12.001Z</time></trkpt><trkpt lat="45.68180395959108" lon="10.495399886866291"><ele>691.0</ele><time>2026-04-18T15:53:14.001Z</time></trkpt><trkpt lat="45.68173724460601" lon="10.495331995083625"><ele>691.0</ele><time>2026-04-18T15:53:16.001Z</time></trkpt><trkpt lat="45.68166251938615" lon="10.495194597397868"><ele>691.0</ele><time>2026-04-18T15:53:18.001Z</time></trkpt><trkpt lat="45.681591854335075" lon="10.49507827030658"><ele>688.0</ele><time>2026-04-18T15:53:20.001Z</time></trkpt><trkpt lat="45.681515929139756" lon="10.494970643722013"><ele>685.0</ele><time>2026-04-18T15:53:22.001Z</time></trkpt><trkpt lat="45.68144419021997" lon="10.49487108608974"><ele>682.0</ele><time>2026-04-18T15:53:24.001Z</time></trkpt><trkpt lat="45.68139405178657" lon="10.494812182420075"><ele>679.0</ele><time>2026-04-18T15:53:25.001Z</time></trkpt><trkpt lat="45.68133930157976" lon="10.494733269180474"><ele>676.0</ele><time>2026-04-18T15:53:26.001Z</time></trkpt><trkpt lat="45.68125577268987" lon="10.494646965829622"><ele>676.0</ele><time>2026-04-18T15:53:28.001Z</time></trkpt><trkpt lat="45.68123389087276" lon="10.494486194210005"><ele>676.0</ele><time>2026-04-18T15:53:30.001Z</time></trkpt><trkpt lat="45.68120288907048" lon="10.494390872791385"><ele>676.0</ele><time>2026-04-18T15:53:31.001Z</time></trkpt><trkpt lat="45.68110293321643" lon="10.494395579791776"><ele>676.0</ele><time>2026-04-18T15:53:33.001Z</time></trkpt><trkpt lat="45.681021724046445" lon="10.494353833388251"><ele>676.0</ele><time>2026-04-18T15:53:35.001Z</time></trkpt><trkpt lat="45.68093771923617" lon="10.494350766975217"><ele>676.0</ele><time>2026-04-18T15:53:37.001Z</time></trkpt><trkpt lat="45.68091828829122" lon="10.494453331824657"><ele>676.0</ele><time>2026-04-18T15:53:41.001Z</time></trkpt><trkpt lat="45.68083858474848" lon="10.49454555944402"><ele>676.0</ele><time>2026-04-18T15:53:43.001Z</time></trkpt><trkpt lat="45.680789774283184" lon="10.494612904943878"><ele>676.0</ele><time>2026-04-18T15:53:44.001Z</time></trkpt><trkpt lat="45.680729091842835" lon="10.494673761449421"><ele>676.0</ele><time>2026-04-18T15:53:45.001Z</time></trkpt><trkpt lat="45.68062560255272" lon="10.494770894694122"><ele>676.0</ele><time>2026-04-18T15:53:47.001Z</time></trkpt><trkpt lat="45.6805103416578" lon="10.494871980850382"><ele>670.0</ele><time>2026-04-18T15:53:49Z</time></trkpt><trkpt lat="45.68045556231511" lon="10.494937134178212"><ele>664.0</ele><time>2026-04-18T15:53:50Z</time></trkpt><trkpt lat="45.68036387038311" lon="10.495048979676689"><ele>658.0</ele><time>2026-04-18T15:53:52Z</time></trkpt><trkpt lat="45.6802681909076" lon="10.495008556269594"><ele>652.0</ele><time>2026-04-18T15:53:54Z</time></trkpt><trkpt lat="45.68018734803315" lon="10.494914234561685"><ele>646.0</ele><time>2026-04-18T15:53:56Z</time></trkpt><trkpt lat="45.68009041721292" lon="10.494936354981817"><ele>646.0</ele><time>2026-04-18T15:53:58Z</time></trkpt><trkpt lat="45.68008250272931" lon="10.495145428056862"><ele>646.0</ele><time>2026-04-18T15:54:00Z</time></trkpt><trkpt lat="45.68008638111094" lon="10.495239068693285"><ele>646.0</ele><time>2026-04-18T15:54:01Z</time></trkpt><trkpt lat="45.67999476862958" lon="10.495347138208823"><ele>646.0</ele><time>2026-04-18T15:54:03Z</time></trkpt><trkpt lat="45.67994772024403" lon="10.495437786812222"><ele>646.0</ele><time>2026-04-18T15:54:04Z</time></trkpt><trkpt lat="45.67988251442555" lon="10.49554135685103"><ele>641.3333333333334</ele><time>2026-04-18T15:54:05Z</time></trkpt><trkpt lat="45.67983595172808" lon="10.49562818667613"><ele>636.6666666666667</ele><time>2026-04-18T15:54:06Z</time></trkpt><trkpt lat="45.67980216262096" lon="10.495721465715558"><ele>632.0</ele><time>2026-04-18T15:54:07Z</time></trkpt><trkpt lat="45.67970646194592" lon="10.495810776077573"><ele>627.3333333333334</ele><time>2026-04-18T15:54:09Z</time></trkpt><trkpt lat="45.6796262052074" lon="10.495782475996586"><ele>622.6666666666666</ele><time>2026-04-18T15:54:10Z</time></trkpt><trkpt lat="45.679556442082685" lon="10.495798170577372"><ele>618.0</ele><time>2026-04-18T15:54:11Z</time></trkpt><trkpt lat="45.67947150349794" lon="10.495793656086143"><ele>617.0000000000001</ele><time>2026-04-18T15:54:12Z</time></trkpt><trkpt lat="45.679399287693954" lon="10.495791115709638"><ele>616.0</ele><time>2026-04-18T15:54:13Z</time></trkpt><trkpt lat="45.679336032815186" lon="10.495751270341596"><ele>615.0</ele><time>2026-04-18T15:54:14Z</time></trkpt><trkpt lat="45.67927139048874" lon="10.495714950968539"><ele>614.0</ele><time>2026-04-18T15:54:15Z</time></trkpt><trkpt lat="45.67920974865122" lon="10.495663490479565"><ele>613.0</ele><time>2026-04-18T15:54:16Z</time></trkpt><trkpt lat="45.679148599509254" lon="10.49559547624678"><ele>612.0000000000001</ele><time>2026-04-18T15:54:17Z</time></trkpt><trkpt lat="45.679090259798016" lon="10.49554005695088"><ele>611.0</ele><time>2026-04-18T15:54:18Z</time></trkpt><trkpt lat="45.67902714236049" lon="10.495466304204465"><ele>613.4</ele><time>2026-04-18T15:54:19Z</time></trkpt><trkpt lat="45.678950054195795" lon="10.495413714640488"><ele>615.8</ele><time>2026-04-18T15:54:20Z</time></trkpt><trkpt lat="45.67888154144297" lon="10.495342086586907"><ele>618.1999999999999</ele><time>2026-04-18T15:54:21Z</time></trkpt><trkpt lat="45.67879793342992" lon="10.495306066068885"><ele>620.6</ele><time>2026-04-18T15:54:22Z</time></trkpt><trkpt lat="45.6786924416792" lon="10.495263529094176"><ele>623.0</ele><time>2026-04-18T15:54:23Z</time></trkpt><trkpt lat="45.67860771332789" lon="10.495227032346186"><ele>615.1999999999999</ele><time>2026-04-18T15:54:24Z</time></trkpt><trkpt lat="45.6785198530173" lon="10.495259767400968"><ele>607.4</ele><time>2026-04-18T15:54:26Z</time></trkpt><trkpt lat="45.67845417133536" lon="10.495259421576979"><ele>599.5999999999999</ele><time>2026-04-18T15:54:28Z</time></trkpt><trkpt lat="45.678462171202995" lon="10.495048823385275"><ele>591.8</ele><time>2026-04-18T15:54:30Z</time></trkpt><trkpt lat="45.67837643377535" lon="10.494961152630104"><ele>584.0</ele><time>2026-04-18T15:54:32Z</time></trkpt><trkpt lat="45.67829792471658" lon="10.495037903826963"><ele>584.0</ele><time>2026-04-18T15:54:34Z</time></trkpt><trkpt lat="45.67822945546533" lon="10.495175751797127"><ele>584.0</ele><time>2026-04-18T15:54:36Z</time></trkpt><trkpt lat="45.678172661531086" lon="10.49533334160473"><ele>584.0</ele><time>2026-04-18T15:54:38Z</time></trkpt><trkpt lat="45.678080494721456" lon="10.49530682399381"><ele>584.0</ele><time>2026-04-18T15:54:40Z</time></trkpt><trkpt lat="45.677993455206334" lon="10.495238239765197"><ele>584.0</ele><time>2026-04-18T15:54:42Z</time></trkpt><trkpt lat="45.67792794099285" lon="10.49520767788396"><ele>584.0</ele><time>2026-04-18T15:54:43Z</time></trkpt><trkpt lat="45.67784131196232" lon="10.495319486326062"><ele>584.0</ele><time>2026-04-18T15:54:45Z</time></trkpt><trkpt lat="45.677772759796646" lon="10.495333258034067"><ele>584.0</ele><time>2026-04-18T15:54:46Z</time></trkpt><trkpt lat="45.67767837323451" lon="10.495246370351119"><ele>584.0</ele><time>2026-04-18T15:54:48Z</time></trkpt><trkpt lat="45.67761286540244" lon="10.495161409342865"><ele>584.0</ele><time>2026-04-18T15:54:49Z</time></trkpt><trkpt lat="45.677555881700826" lon="10.495109667304249"><ele>580.8333333333333</ele><time>2026-04-18T15:54:50Z</time></trkpt><trkpt lat="45.67750346493904" lon="10.495029536644024"><ele>577.6666666666666</ele><time>2026-04-18T15:54:51Z</time></trkpt><trkpt lat="45.6774463476133" lon="10.494965449073957"><ele>574.5</ele><time>2026-04-18T15:54:52Z</time></trkpt><trkpt lat="45.67738853550031" lon="10.49492347097932"><ele>571.3333333333334</ele><time>2026-04-18T15:54:53Z</time></trkpt><trkpt lat="45.677328531013984" lon="10.494879519088812"><ele>568.1666666666667</ele><time>2026-04-18T15:54:54Z</time></trkpt><trkpt lat="45.6772266007206" lon="10.494893987490327"><ele>565.0</ele><time>2026-04-18T15:54:56Z</time></trkpt><trkpt lat="45.677160567019875" lon="10.495004138769348"><ele>565.0</ele><time>2026-04-18T15:54:58Z</time></trkpt><trkpt lat="45.67710176479266" lon="10.495126354726782"><ele>565.0</ele><time>2026-04-18T15:55:00Z</time></trkpt><trkpt lat="45.67703114976758" lon="10.495187968862785"><ele>565.0</ele><time>2026-04-18T15:55:02Z</time></trkpt><trkpt lat="45.676970170891884" lon="10.49514888225134"><ele>565.0</ele><time>2026-04-18T15:55:03Z</time></trkpt><trkpt lat="45.67692010662098" lon="10.495092604606695"><ele>565.0</ele><time>2026-04-18T15:55:04Z</time></trkpt><trkpt lat="45.676805770457" lon="10.495036790277812"><ele>565.0</ele><time>2026-04-18T15:55:06Z</time></trkpt><trkpt lat="45.67670251649764" lon="10.495007263609232"><ele>565.0</ele><time>2026-04-18T15:55:08.001Z</time></trkpt><trkpt lat="45.67665146984269" lon="10.494910650218138"><ele>565.0</ele><time>2026-04-18T15:55:10.001Z</time></trkpt><trkpt lat="45.67671401474965" lon="10.494865312294015"><ele>565.0</ele><time>2026-04-18T15:55:11.001Z</time></trkpt><trkpt lat="45.67684206954307" lon="10.494803464522759"><ele>565.0</ele><time>2026-04-18T15:55:13.001Z</time></trkpt><trkpt lat="45.676929673956074" lon="10.494776734415108"><ele>565.0</ele><time>2026-04-18T15:55:14.001Z</time></trkpt><trkpt lat="45.67701109332468" lon="10.494756697070427"><ele>565.0</ele><time>2026-04-18T15:55:15.001Z</time></trkpt><trkpt lat="45.677092095895404" lon="10.49474677972849"><ele>565.0</ele><time>2026-04-18T15:55:16.001Z</time></trkpt><trkpt lat="45.67718240471968" lon="10.494734133599064"><ele>565.0</ele><time>2026-04-18T15:55:17.001Z</time></trkpt><trkpt lat="45.677261905011974" lon="10.49471099069216"><ele>565.0</ele><time>2026-04-18T15:55:18.001Z</time></trkpt><trkpt lat="45.67733961877622" lon="10.494673509356135"><ele>565.0</ele><time>2026-04-18T15:55:19.001Z</time></trkpt><trkpt lat="45.67741921706001" lon="10.49465961012872"><ele>565.0</ele><time>2026-04-18T15:55:20.001Z</time></trkpt><trkpt lat="45.67749935711612" lon="10.494598309656578"><ele>564.2</ele><time>2026-04-18T15:55:22.001Z</time></trkpt><trkpt lat="45.67757099504039" lon="10.494544985078672"><ele>563.4</ele><time>2026-04-18T15:55:23.001Z</time></trkpt><trkpt lat="45.67765975902091" lon="10.49442749306619"><ele>562.6</ele><time>2026-04-18T15:55:25.001Z</time></trkpt><trkpt lat="45.67771683020529" lon="10.494362323966033"><ele>561.8</ele><time>2026-04-18T15:55:26.001Z</time></trkpt><trkpt lat="45.67780030739421" lon="10.494267002398926"><ele>561.0</ele><time>2026-04-18T15:55:28.001Z</time></trkpt><trkpt lat="45.677847561876575" lon="10.494137798168206"><ele>561.0</ele><time>2026-04-18T15:55:30.001Z</time></trkpt><trkpt lat="45.67788184788143" lon="10.493950337673589"><ele>561.0</ele><time>2026-04-18T15:55:32.001Z</time></trkpt><trkpt lat="45.67792610484265" lon="10.493862813787993"><ele>561.0</ele><time>2026-04-18T15:55:33.001Z</time></trkpt><trkpt lat="45.67798158671197" lon="10.49377203510806"><ele>561.0</ele><time>2026-04-18T15:55:34.001Z</time></trkpt><trkpt lat="45.678044731409294" lon="10.493694292383006"><ele>561.0</ele><time>2026-04-18T15:55:35.001Z</time></trkpt><trkpt lat="45.67809127304268" lon="10.493592567868392"><ele>556.6666666666666</ele><time>2026-04-18T15:55:36.001Z</time></trkpt><trkpt lat="45.67811233084024" lon="10.493488859736912"><ele>552.3333333333333</ele><time>2026-04-18T15:55:38.001Z</time></trkpt><trkpt lat="45.67811398001327" lon="10.493308883822387"><ele>548.0</ele><time>2026-04-18T15:55:42.001Z</time></trkpt><trkpt lat="45.678758467802666" lon="10.493059524274216"><ele>557.6</ele><time>2026-04-18T15:55:47.001Z</time></trkpt><trkpt lat="45.67883267947636" lon="10.493033633751725"><ele>567.1999999999999</ele><time>2026-04-18T15:55:49.001Z</time></trkpt><trkpt lat="45.67878775222772" lon="10.492909401747085"><ele>576.8</ele><time>2026-04-18T15:55:51.001Z</time></trkpt><trkpt lat="45.67881045723176" lon="10.492772640014268"><ele>586.4</ele><time>2026-04-18T15:55:53.001Z</time></trkpt><trkpt lat="45.67884984636171" lon="10.492647034120452"><ele>596.0</ele><time>2026-04-18T15:55:55Z</time></trkpt><trkpt lat="45.678906954078144" lon="10.492505500686457"><ele>596.0</ele><time>2026-04-18T15:55:57Z</time></trkpt><trkpt lat="45.67884885052046" lon="10.492379709998554"><ele>596.0</ele><time>2026-04-18T15:55:59Z</time></trkpt><trkpt lat="45.67880368587841" lon="10.492303608616318"><ele>596.0</ele><time>2026-04-18T15:56:01Z</time></trkpt><trkpt lat="45.67882409480398" lon="10.492195653760987"><ele>596.0</ele><time>2026-04-18T15:56:03Z</time></trkpt><trkpt lat="45.678866616968435" lon="10.492120036787904"><ele>596.0</ele><time>2026-04-18T15:56:05Z</time></trkpt><trkpt lat="45.67887774579906" lon="10.491977646655524"><ele>596.0</ele><time>2026-04-18T15:56:07Z</time></trkpt><trkpt lat="45.678917115082335" lon="10.49190406572946"><ele>594.0</ele><time>2026-04-18T15:56:08Z</time></trkpt><trkpt lat="45.67902677228555" lon="10.491794249843974"><ele>592.0</ele><time>2026-04-18T15:56:10Z</time></trkpt><trkpt lat="45.67908687510808" lon="10.491735252323853"><ele>590.0</ele><time>2026-04-18T15:56:11Z</time></trkpt><trkpt lat="45.67918653829068" lon="10.491651258141298"><ele>588.0</ele><time>2026-04-18T15:56:13Z</time></trkpt><trkpt lat="45.6791663004297" lon="10.491479528909872"><ele>586.0</ele><time>2026-04-18T15:56:15Z</time></trkpt><trkpt lat="45.67917199518839" lon="10.491322928471865"><ele>586.0</ele><time>2026-04-18T15:56:17Z</time></trkpt><trkpt lat="45.679271312874775" lon="10.491260727374438"><ele>586.0</ele><time>2026-04-18T15:56:19Z</time></trkpt><trkpt lat="45.67930560884556" lon="10.491171789453688"><ele>586.0</ele><time>2026-04-18T15:56:21Z</time></trkpt><trkpt lat="45.67925760087237" lon="10.491103220238388"><ele>586.0</ele><time>2026-04-18T15:56:22Z</time></trkpt><trkpt lat="45.67919236294437" lon="10.491082452607207"><ele>586.0</ele><time>2026-04-18T15:56:23Z</time></trkpt><trkpt lat="45.67915957158416" lon="10.49100375925228"><ele>586.0</ele><time>2026-04-18T15:56:24Z</time></trkpt><trkpt lat="45.67917301297653" lon="10.490890977748371"><ele>585.0</ele><time>2026-04-18T15:56:25Z</time></trkpt><trkpt lat="45.67919316510601" lon="10.490803505538842"><ele>584.0</ele><time>2026-04-18T15:56:26Z</time></trkpt><trkpt lat="45.67925471421142" lon="10.490655449124889"><ele>583.0</ele><time>2026-04-18T15:56:28Z</time></trkpt><trkpt lat="45.67924569217178" lon="10.490559516500607"><ele>582.0</ele><time>2026-04-18T15:56:29Z</time></trkpt><trkpt lat="45.679271419454984" lon="10.490444841194618"><ele>581.0</ele><time>2026-04-18T15:56:31Z</time></trkpt><trkpt lat="45.67933370027199" lon="10.490424929432352"><ele>580.0</ele><time>2026-04-18T15:56:32Z</time></trkpt><trkpt lat="45.679445912314925" lon="10.490316380277088"><ele>585.2</ele><time>2026-04-18T15:56:34Z</time></trkpt><trkpt lat="45.67951677935972" lon="10.490258489097599"><ele>590.4</ele><time>2026-04-18T15:56:35Z</time></trkpt><trkpt lat="45.679592366437284" lon="10.490225661403743"><ele>595.6</ele><time>2026-04-18T15:56:36Z</time></trkpt><trkpt lat="45.67968507508884" lon="10.490113958286011"><ele>600.8</ele><time>2026-04-18T15:56:38Z</time></trkpt><trkpt lat="45.67969922873276" lon="10.490015727239932"><ele>606.0</ele><time>2026-04-18T15:56:39Z</time></trkpt><trkpt lat="45.679706404976166" lon="10.489841478757809"><ele>606.0</ele><time>2026-04-18T15:56:41Z</time></trkpt><trkpt lat="45.67969202052093" lon="10.48974244795994"><ele>606.0</ele><time>2026-04-18T15:56:42Z</time></trkpt><trkpt lat="45.67966937068888" lon="10.489648682797105"><ele>606.0</ele><time>2026-04-18T15:56:43Z</time></trkpt><trkpt lat="45.67965683946767" lon="10.48954077473418"><ele>606.0</ele><time>2026-04-18T15:56:44Z</time></trkpt><trkpt lat="45.67962841781733" lon="10.489444288632011"><ele>606.0</ele><time>2026-04-18T15:56:45Z</time></trkpt><trkpt lat="45.67959886258139" lon="10.489356822290134"><ele>606.0</ele><time>2026-04-18T15:56:46Z</time></trkpt><trkpt lat="45.67957735090456" lon="10.489241193045068"><ele>606.0</ele><time>2026-04-18T15:56:47Z</time></trkpt><trkpt lat="45.67959698556521" lon="10.48913383475909"><ele>603.8</ele><time>2026-04-18T15:56:48Z</time></trkpt><trkpt lat="45.67964792097773" lon="10.489036639430232"><ele>601.6</ele><time>2026-04-18T15:56:49Z</time></trkpt><trkpt lat="45.67964678710382" lon="10.488922949509247"><ele>599.4</ele><time>2026-04-18T15:56:50Z</time></trkpt><trkpt lat="45.679714618012454" lon="10.488795292012277"><ele>597.2</ele><time>2026-04-18T15:56:52Z</time></trkpt><trkpt lat="45.67978680819273" lon="10.488646576848092"><ele>595.0</ele><time>2026-04-18T15:56:54Z</time></trkpt><trkpt lat="45.679840145895554" lon="10.488561361558714"><ele>595.0</ele><time>2026-04-18T15:56:55Z</time></trkpt><trkpt lat="45.67986164116997" lon="10.488369733735265"><ele>595.0</ele><time>2026-04-18T15:56:57Z</time></trkpt><trkpt lat="45.67987906907825" lon="10.488265719309952"><ele>595.0</ele><time>2026-04-18T15:56:58Z</time></trkpt><trkpt lat="45.67990096915018" lon="10.488165707792726"><ele>595.0</ele><time>2026-04-18T15:56:59Z</time></trkpt><trkpt lat="45.67986781754578" lon="10.488079247166707"><ele>595.0</ele><time>2026-04-18T15:57:01Z</time></trkpt><trkpt lat="45.67976279739403" lon="10.488279441328272"><ele>595.0</ele><time>2026-04-18T15:57:04Z</time></trkpt><trkpt lat="45.67969982113748" lon="10.488364966927922"><ele>595.0</ele><time>2026-04-18T15:57:05Z</time></trkpt><trkpt lat="45.6796443279747" lon="10.48843980259107"><ele>595.0</ele><time>2026-04-18T15:57:06Z</time></trkpt><trkpt lat="45.67959425901606" lon="10.488496692149713"><ele>595.0</ele><time>2026-04-18T15:57:07Z</time></trkpt><trkpt lat="45.67955199307329" lon="10.488569777237307"><ele>595.0</ele><time>2026-04-18T15:57:08Z</time></trkpt><trkpt lat="45.679516925518165" lon="10.488654636037523"><ele>595.0</ele><time>2026-04-18T15:57:09Z</time></trkpt><trkpt lat="45.67943864234247" lon="10.488785455500457"><ele>597.8</ele><time>2026-04-18T15:57:11Z</time></trkpt><trkpt lat="45.67933311289203" lon="10.488862257305435"><ele>600.6</ele><time>2026-04-18T15:57:13Z</time></trkpt><trkpt lat="45.67927620813831" lon="10.48893128983068"><ele>603.4</ele><time>2026-04-18T15:57:14.001Z</time></trkpt><trkpt lat="45.679219844008124" lon="10.489070848177143"><ele>606.2</ele><time>2026-04-18T15:57:16.001Z</time></trkpt><trkpt lat="45.679185675639076" lon="10.48918359816756"><ele>609.0</ele><time>2026-04-18T15:57:17.001Z</time></trkpt><trkpt lat="45.67913938486525" lon="10.489292628569615"><ele>609.0</ele><time>2026-04-18T15:57:18.001Z</time></trkpt><trkpt lat="45.679102135469805" lon="10.489402498021573"><ele>609.0</ele><time>2026-04-18T15:57:19.001Z</time></trkpt><trkpt lat="45.6790509422494" lon="10.48951064326082"><ele>609.0</ele><time>2026-04-18T15:57:20.001Z</time></trkpt><trkpt lat="45.67899530885483" lon="10.489615085830286"><ele>609.0</ele><time>2026-04-18T15:57:21.001Z</time></trkpt><trkpt lat="45.67894961347136" lon="10.489529002500262"><ele>609.0</ele><time>2026-04-18T15:57:23.001Z</time></trkpt><trkpt lat="45.678942731862115" lon="10.489437423462704"><ele>609.0</ele><time>2026-04-18T15:57:24.001Z</time></trkpt><trkpt lat="45.678988744681" lon="10.489333048673165"><ele>609.0</ele><time>2026-04-18T15:57:25.001Z</time></trkpt><trkpt lat="45.67904187607826" lon="10.489199827098375"><ele>609.0</ele><time>2026-04-18T15:57:26.001Z</time></trkpt><trkpt lat="45.67907174031686" lon="10.489104691405643"><ele>609.0</ele><time>2026-04-18T15:57:27.001Z</time></trkpt><trkpt lat="45.67916487073736" lon="10.488964354014396"><ele>609.0</ele><time>2026-04-18T15:57:29.001Z</time></trkpt><trkpt lat="45.679152464248816" lon="10.48886634181854"><ele>609.0</ele><time>2026-04-18T15:57:30.001Z</time></trkpt><trkpt lat="45.679100945879775" lon="10.488749819132433"><ele>612.4</ele><time>2026-04-18T15:57:32.001Z</time></trkpt><trkpt lat="45.67915202124072" lon="10.488692488602757"><ele>615.8</ele><time>2026-04-18T15:57:35.001Z</time></trkpt><trkpt lat="45.679135648417635" lon="10.488599123885352"><ele>619.2</ele><time>2026-04-18T15:57:37.001Z</time></trkpt><trkpt lat="45.679140521257445" lon="10.488459770794304"><ele>622.6</ele><time>2026-04-18T15:57:40.001Z</time></trkpt><trkpt lat="45.67918279413185" lon="10.488308608952776"><ele>626.0</ele><time>2026-04-18T15:57:41.001Z</time></trkpt><trkpt lat="45.67923726211369" lon="10.488172973838711"><ele>626.0</ele><time>2026-04-18T15:57:42.001Z</time></trkpt><trkpt lat="45.679264556372374" lon="10.488045648255968"><ele>626.0</ele><time>2026-04-18T15:57:43.001Z</time></trkpt><trkpt lat="45.67927808196151" lon="10.48793087434405"><ele>626.0</ele><time>2026-04-18T15:57:44.001Z</time></trkpt><trkpt lat="45.6792726607008" lon="10.487803000202344"><ele>626.0</ele><time>2026-04-18T15:57:45.001Z</time></trkpt><trkpt lat="45.67927833878358" lon="10.487657424681153"><ele>626.0</ele><time>2026-04-18T15:57:46.001Z</time></trkpt><trkpt lat="45.679283411040615" lon="10.487532845524282"><ele>627.8333333333333</ele><time>2026-04-18T15:57:47.001Z</time></trkpt><trkpt lat="45.679294205381716" lon="10.487429259297672"><ele>629.6666666666666</ele><time>2026-04-18T15:57:48.001Z</time></trkpt><trkpt lat="45.67929644831702" lon="10.487337817417858"><ele>631.5</ele><time>2026-04-18T15:57:49.001Z</time></trkpt><trkpt lat="45.6793205001639" lon="10.487249212667134"><ele>633.3333333333334</ele><time>2026-04-18T15:57:50.001Z</time></trkpt><trkpt lat="45.67929327858519" lon="10.48716519845261"><ele>635.1666666666667</ele><time>2026-04-18T15:57:51.001Z</time></trkpt><trkpt lat="45.679269809090805" lon="10.486990519663545"><ele>637.0</ele><time>2026-04-18T15:57:53.001Z</time></trkpt><trkpt lat="45.67925157961914" lon="10.486879764569748"><ele>637.5</ele><time>2026-04-18T15:57:55.001Z</time></trkpt><trkpt lat="45.679251329460996" lon="10.486780975105617"><ele>638.0</ele><time>2026-04-18T15:57:58.001Z</time></trkpt><trkpt lat="45.67932888063137" lon="10.486713044414556"><ele>638.5</ele><time>2026-04-18T15:58:00Z</time></trkpt><trkpt lat="45.679288020357994" lon="10.486575971616842"><ele>639.0</ele><time>2026-04-18T15:58:03Z</time></trkpt><trkpt lat="45.67929187572725" lon="10.486484315436089"><ele>639.5</ele><time>2026-04-18T15:58:05Z</time></trkpt><trkpt lat="45.67929600673928" lon="10.486364455985708"><ele>640.0</ele><time>2026-04-18T15:58:07Z</time></trkpt><trkpt lat="45.679273992380324" lon="10.48620690270247"><ele>641.5</ele><time>2026-04-18T15:58:09Z</time></trkpt><trkpt lat="45.67925829123208" lon="10.486118888782936"><ele>643.0</ele><time>2026-04-18T15:58:10Z</time></trkpt><trkpt lat="45.679317231913416" lon="10.486162426294388"><ele>644.5</ele><time>2026-04-18T15:58:11Z</time></trkpt><trkpt lat="45.67928470606071" lon="10.486045235483777"><ele>646.0</ele><time>2026-04-18T15:58:14Z</time></trkpt><trkpt lat="45.67923503777783" lon="10.485945006958932"><ele>647.5</ele><time>2026-04-18T15:58:17Z</time></trkpt><trkpt lat="45.67926019847587" lon="10.485862106582424"><ele>649.0</ele><time>2026-04-18T15:58:19Z</time></trkpt><trkpt lat="45.67925362298349" lon="10.485715969859656"><ele>649.0</ele><time>2026-04-18T15:58:21Z</time></trkpt><trkpt lat="45.6792673422922" lon="10.485529177427873"><ele>649.0</ele><time>2026-04-18T15:58:23Z</time></trkpt><trkpt lat="45.67927901103933" lon="10.485419321893708"><ele>649.0</ele><time>2026-04-18T15:58:24Z</time></trkpt><trkpt lat="45.67932921895317" lon="10.485278483387546"><ele>649.0</ele><time>2026-04-18T15:58:26Z</time></trkpt><trkpt lat="45.6793056941824" lon="10.485142006523608"><ele>649.0</ele><time>2026-04-18T15:58:28Z</time></trkpt><trkpt lat="45.67933442303788" lon="10.485060341023399"><ele>646.6666666666667</ele><time>2026-04-18T15:58:31Z</time></trkpt><trkpt lat="45.679359549830565" lon="10.484968860623516"><ele>644.3333333333334</ele><time>2026-04-18T15:59:03Z</time></trkpt><trkpt lat="45.6793709591713" lon="10.48487453259948"><ele>642.0</ele><time>2026-04-18T15:59:05Z</time></trkpt><trkpt lat="45.6794029063568" lon="10.484724526345895"><ele>639.6666666666666</ele><time>2026-04-18T15:59:07Z</time></trkpt><trkpt lat="45.67942082477489" lon="10.484606124404804"><ele>637.3333333333333</ele><time>2026-04-18T15:59:09Z</time></trkpt><trkpt lat="45.679467826356074" lon="10.484488115139909"><ele>635.0</ele><time>2026-04-18T15:59:12Z</time></trkpt><trkpt lat="45.67943242514694" lon="10.484381238679356"><ele>643.3333333333333</ele><time>2026-04-18T15:59:15Z</time></trkpt><trkpt lat="45.67941349926913" lon="10.48429307709232"><ele>651.6666666666666</ele><time>2026-04-18T15:59:16Z</time></trkpt><trkpt lat="45.67939414243772" lon="10.484204764163428"><ele>660.0</ele><time>2026-04-18T15:59:17Z</time></trkpt><trkpt lat="45.679351112822616" lon="10.484069386985515"><ele>668.3333333333334</ele><time>2026-04-18T15:59:19Z</time></trkpt><trkpt lat="45.67937141900033" lon="10.483916370009743"><ele>676.6666666666667</ele><time>2026-04-18T15:59:21Z</time></trkpt><trkpt lat="45.67941749281666" lon="10.483803267764765"><ele>685.0</ele><time>2026-04-18T15:59:23.001Z</time></trkpt><trkpt lat="45.6794273969692" lon="10.483692707177086"><ele>686.5</ele><time>2026-04-18T15:59:25.001Z</time></trkpt><trkpt lat="45.67940789317589" lon="10.4835427585315"><ele>688.0</ele><time>2026-04-18T15:59:27.001Z</time></trkpt><trkpt lat="45.67938455565254" lon="10.483423115941072"><ele>689.5</ele><time>2026-04-18T15:59:30.001Z</time></trkpt><trkpt lat="45.67935883505531" lon="10.483329680070126"><ele>691.0</ele><time>2026-04-18T15:59:32.001Z</time></trkpt><trkpt lat="45.679306249873015" lon="10.483231957289277"><ele>692.5</ele><time>2026-04-18T15:59:34.001Z</time></trkpt><trkpt lat="45.679273148841894" lon="10.483147258785817"><ele>694.0</ele><time>2026-04-18T15:59:36.001Z</time></trkpt><trkpt lat="45.6792369434584" lon="10.483060057643565"><ele>694.0</ele><time>2026-04-18T15:59:37.001Z</time></trkpt><trkpt lat="45.679201957498165" lon="10.482946491228661"><ele>694.0</ele><time>2026-04-18T15:59:39.001Z</time></trkpt><trkpt lat="45.67914052667927" lon="10.482826969734905"><ele>694.0</ele><time>2026-04-18T15:59:41.001Z</time></trkpt><trkpt lat="45.67904446800868" lon="10.482684883490906"><ele>694.0</ele><time>2026-04-18T15:59:43.001Z</time></trkpt><trkpt lat="45.67901144386712" lon="10.482576510537738"><ele>694.0</ele><time>2026-04-18T15:59:45.001Z</time></trkpt><trkpt lat="45.67897144935258" lon="10.482479692031049"><ele>695.4000000000001</ele><time>2026-04-18T15:59:47.001Z</time></trkpt><trkpt lat="45.67892362360648" lon="10.482368528888879"><ele>696.8</ele><time>2026-04-18T15:59:49.001Z</time></trkpt><trkpt lat="45.678969985282144" lon="10.482268294249856"><ele>698.2</ele><time>2026-04-18T15:59:51.001Z</time></trkpt><trkpt lat="45.67904741261039" lon="10.482175477741523"><ele>699.5999999999999</ele><time>2026-04-18T15:59:53.001Z</time></trkpt><trkpt lat="45.67914479329342" lon="10.482054063654237"><ele>701.0</ele><time>2026-04-18T15:59:55.001Z</time></trkpt><trkpt lat="45.67905303413699" lon="10.48200012056598"><ele>701.0</ele><time>2026-04-18T15:59:57.001Z</time></trkpt><trkpt lat="45.67900958903323" lon="10.482074801496523"><ele>701.0</ele><time>2026-04-18T15:59:58.001Z</time></trkpt><trkpt lat="45.678954570955796" lon="10.482125563725026"><ele>701.0</ele><time>2026-04-18T16:00:00.001Z</time></trkpt><trkpt lat="45.678925429646135" lon="10.482007298705728"><ele>701.0</ele><time>2026-04-18T16:00:03.001Z</time></trkpt><trkpt lat="45.67887675763337" lon="10.48189539815686"><ele>701.0</ele><time>2026-04-18T16:00:10Z</time></trkpt><trkpt lat="45.67873345547247" lon="10.481911434154584"><ele>703.8571428571429</ele><time>2026-04-18T16:00:12Z</time></trkpt><trkpt lat="45.67869318063384" lon="10.48183911681863"><ele>706.7142857142857</ele><time>2026-04-18T16:00:13Z</time></trkpt><trkpt lat="45.67865991778176" lon="10.481762423045552"><ele>709.5714285714286</ele><time>2026-04-18T16:00:15Z</time></trkpt><trkpt lat="45.67863250850217" lon="10.481632028327532"><ele>712.4285714285714</ele><time>2026-04-18T16:00:17Z</time></trkpt><trkpt lat="45.678566808060644" lon="10.481604784366025"><ele>715.2857142857142</ele><time>2026-04-18T16:00:19Z</time></trkpt><trkpt lat="45.67858209346778" lon="10.481511781259853"><ele>718.1428571428571</ele><time>2026-04-18T16:00:20Z</time></trkpt><trkpt lat="45.67852083819222" lon="10.481470021389462"><ele>721.0</ele><time>2026-04-18T16:00:23Z</time></trkpt><trkpt lat="45.67845610689825" lon="10.481334451373135"><ele>721.0</ele><time>2026-04-18T16:00:25Z</time></trkpt><trkpt lat="45.67832942640981" lon="10.481311701212134"><ele>721.0</ele><time>2026-04-18T16:00:29Z</time></trkpt><trkpt lat="45.67833790483765" lon="10.48115336589644"><ele>721.0</ele><time>2026-04-18T16:00:32Z</time></trkpt><trkpt lat="45.67838609833721" lon="10.481004946349012"><ele>721.0</ele><time>2026-04-18T16:00:35Z</time></trkpt><trkpt lat="45.67836976954703" lon="10.480873624057505"><ele>721.0</ele><time>2026-04-18T16:00:37Z</time></trkpt><trkpt lat="45.67840090427875" lon="10.480709077778625"><ele>722.8333333333334</ele><time>2026-04-18T16:00:39Z</time></trkpt><trkpt lat="45.67841188719678" lon="10.48060341506656"><ele>724.6666666666667</ele><time>2026-04-18T16:00:40Z</time></trkpt><trkpt lat="45.678408720614584" lon="10.480508478576107"><ele>726.5</ele><time>2026-04-18T16:00:41Z</time></trkpt><trkpt lat="45.67843285883189" lon="10.48036625017562"><ele>728.3333333333334</ele><time>2026-04-18T16:00:43Z</time></trkpt><trkpt lat="45.67844039104789" lon="10.480214385297721"><ele>730.1666666666666</ele><time>2026-04-18T16:00:45Z</time></trkpt><trkpt lat="45.678444247539964" lon="10.48011964870099"><ele>732.0</ele><time>2026-04-18T16:00:47Z</time></trkpt><trkpt lat="45.67848806180087" lon="10.480021757905652"><ele>734.2</ele><time>2026-04-18T16:00:49Z</time></trkpt><trkpt lat="45.678477120178954" lon="10.479869544108581"><ele>736.4000000000001</ele><time>2026-04-18T16:00:51Z</time></trkpt><trkpt lat="45.67848052428445" lon="10.479712520915045"><ele>738.5999999999999</ele><time>2026-04-18T16:00:53Z</time></trkpt><trkpt lat="45.67846584995015" lon="10.479554697021909"><ele>740.8</ele><time>2026-04-18T16:00:55Z</time></trkpt><trkpt lat="45.678465617557926" lon="10.479435090976128"><ele>743.0</ele><time>2026-04-18T16:00:56Z</time></trkpt><trkpt lat="45.678441734496666" lon="10.479269207826212"><ele>745.0</ele><time>2026-04-18T16:00:58Z</time></trkpt><trkpt lat="45.67842066228889" lon="10.479183988402538"><ele>747.0</ele><time>2026-04-18T16:00:59Z</time></trkpt><trkpt lat="45.67838045032622" lon="10.479114318887184"><ele>749.0</ele><time>2026-04-18T16:01:00Z</time></trkpt><trkpt lat="45.67830919794847" lon="10.479067006736885"><ele>751.0</ele><time>2026-04-18T16:01:01Z</time></trkpt><trkpt lat="45.678252861099764" lon="10.479006906114968"><ele>753.0</ele><time>2026-04-18T16:01:02Z</time></trkpt><trkpt lat="45.678185514772586" lon="10.47889876501047"><ele>755.0</ele><time>2026-04-18T16:01:04Z</time></trkpt><trkpt lat="45.67824090188744" lon="10.478775423108821"><ele>754.4</ele><time>2026-04-18T16:01:07Z</time></trkpt><trkpt lat="45.678330911809674" lon="10.478682361817587"><ele>753.8</ele><time>2026-04-18T16:01:09Z</time></trkpt><trkpt lat="45.67839890191707" lon="10.478619455547896"><ele>753.2</ele><time>2026-04-18T16:01:10Z</time></trkpt><trkpt lat="45.67855070404329" lon="10.478582804163398"><ele>752.6</ele><time>2026-04-18T16:01:12Z</time></trkpt><trkpt lat="45.67862204727091" lon="10.478538141099259"><ele>752.0</ele><time>2026-04-18T16:01:13Z</time></trkpt><trkpt lat="45.678671440807214" lon="10.47847751090915"><ele>755.0</ele><time>2026-04-18T16:01:14Z</time></trkpt><trkpt lat="45.67873986207794" lon="10.478343895681643"><ele>758.0</ele><time>2026-04-18T16:01:16Z</time></trkpt><trkpt lat="45.67877828809169" lon="10.478257110758936"><ele>761.0</ele><time>2026-04-18T16:01:17Z</time></trkpt><trkpt lat="45.678810312957424" lon="10.478170420062982"><ele>764.0</ele><time>2026-04-18T16:01:18Z</time></trkpt><trkpt lat="45.678803852085935" lon="10.477934090291654"><ele>767.0</ele><time>2026-04-18T16:01:20Z</time></trkpt><trkpt lat="45.678796121425826" lon="10.47781666938022"><ele>767.0</ele><time>2026-04-18T16:01:21Z</time></trkpt><trkpt lat="45.67877757157586" lon="10.47772632141416"><ele>767.0</ele><time>2026-04-18T16:01:22Z</time></trkpt><trkpt lat="45.67882695043473" lon="10.477602138439421"><ele>767.0</ele><time>2026-04-18T16:01:24Z</time></trkpt><trkpt lat="45.67889988251961" lon="10.477549679139049"><ele>767.0</ele><time>2026-04-18T16:01:26Z</time></trkpt><trkpt lat="45.67898679715915" lon="10.477483637354945"><ele>767.0</ele><time>2026-04-18T16:01:28.001Z</time></trkpt><trkpt lat="45.679104072061484" lon="10.477549781336359"><ele>767.0</ele><time>2026-04-18T16:01:29.001Z</time></trkpt><trkpt lat="45.67919282594506" lon="10.477530670802782"><ele>767.0</ele><time>2026-04-18T16:01:31.001Z</time></trkpt><trkpt lat="45.67922697293751" lon="10.47745436916344"><ele>767.0</ele><time>2026-04-18T16:01:32.001Z</time></trkpt><trkpt lat="45.67919269816339" lon="10.477260448467984"><ele>767.0</ele><time>2026-04-18T16:01:34.001Z</time></trkpt><trkpt lat="45.679215300452945" lon="10.477153550523333"><ele>767.0</ele><time>2026-04-18T16:01:35.001Z</time></trkpt><trkpt lat="45.67923610924642" lon="10.477037775114015"><ele>766.5</ele><time>2026-04-18T16:01:36.001Z</time></trkpt><trkpt lat="45.67924464082097" lon="10.476941714573028"><ele>766.0</ele><time>2026-04-18T16:01:37.001Z</time></trkpt><trkpt lat="45.679273052374946" lon="10.476834786414473"><ele>765.5</ele><time>2026-04-18T16:01:38.001Z</time></trkpt><trkpt lat="45.6792957333062" lon="10.47674655228503"><ele>765.0</ele><time>2026-04-18T16:01:39.001Z</time></trkpt><trkpt lat="45.679293433205515" lon="10.47658474782709"><ele>764.5</ele><time>2026-04-18T16:01:41.001Z</time></trkpt><trkpt lat="45.679252716826205" lon="10.476499700619824"><ele>764.0</ele><time>2026-04-18T16:01:42.001Z</time></trkpt><trkpt lat="45.67925275127302" lon="10.476298609793018"><ele>765.1666666666666</ele><time>2026-04-18T16:01:44.001Z</time></trkpt><trkpt lat="45.679267787967405" lon="10.476183831606884"><ele>766.3333333333333</ele><time>2026-04-18T16:01:45.001Z</time></trkpt><trkpt lat="45.679272796291826" lon="10.476058002752035"><ele>767.5</ele><time>2026-04-18T16:01:46.001Z</time></trkpt><trkpt lat="45.67929862861292" lon="10.475909564467045"><ele>768.6666666666666</ele><time>2026-04-18T16:01:47.001Z</time></trkpt><trkpt lat="45.67931303846872" lon="10.475795121057573"><ele>769.8333333333334</ele><time>2026-04-18T16:01:48.001Z</time></trkpt><trkpt lat="45.679310561819705" lon="10.475692094719895"><ele>771.0</ele><time>2026-04-18T16:01:49.001Z</time></trkpt><trkpt lat="45.6793003323291" lon="10.475573911927478"><ele>771.0</ele><time>2026-04-18T16:01:50.001Z</time></trkpt><trkpt lat="45.67930384571" lon="10.475466871166434"><ele>771.0</ele><time>2026-04-18T16:01:51.001Z</time></trkpt><trkpt lat="45.679293911071106" lon="10.475343658319767"><ele>771.0</ele><time>2026-04-18T16:01:52.001Z</time></trkpt><trkpt lat="45.679277139181394" lon="10.475221388207785"><ele>771.0</ele><time>2026-04-18T16:01:53.001Z</time></trkpt><trkpt lat="45.67925203981818" lon="10.475095774197184"><ele>771.0</ele><time>2026-04-18T16:01:54.001Z</time></trkpt><trkpt lat="45.67923247069456" lon="10.474968627673006"><ele>771.0</ele><time>2026-04-18T16:01:55.001Z</time></trkpt><trkpt lat="45.679207882999314" lon="10.47486543448578"><ele>770.8</ele><time>2026-04-18T16:01:56.001Z</time></trkpt><trkpt lat="45.67917354329921" lon="10.474732873270682"><ele>770.5999999999999</ele><time>2026-04-18T16:01:57.001Z</time></trkpt><trkpt lat="45.67918839788123" lon="10.474594202654595"><ele>770.4</ele><time>2026-04-18T16:01:58.001Z</time></trkpt><trkpt lat="45.67920416777781" lon="10.474458321015797"><ele>770.2</ele><time>2026-04-18T16:01:59.001Z</time></trkpt><trkpt lat="45.67922495111315" lon="10.4743374801638"><ele>770.0</ele><time>2026-04-18T16:02:00.001Z</time></trkpt><trkpt lat="45.67925786331627" lon="10.474185536589275"><ele>770.0</ele><time>2026-04-18T16:02:01.001Z</time></trkpt><trkpt lat="45.67928001771849" lon="10.474042294987328"><ele>770.0</ele><time>2026-04-18T16:02:02.001Z</time></trkpt><trkpt lat="45.67930957601251" lon="10.47391187135412"><ele>770.0</ele><time>2026-04-18T16:02:03.001Z</time></trkpt><trkpt lat="45.67933141394734" lon="10.473788298714187"><ele>770.0</ele><time>2026-04-18T16:02:04.001Z</time></trkpt><trkpt lat="45.67935718497971" lon="10.47367992381457"><ele>770.0</ele><time>2026-04-18T16:02:05.001Z</time></trkpt><trkpt lat="45.679398428741344" lon="10.473565885346545"><ele>770.8</ele><time>2026-04-18T16:02:06.001Z</time></trkpt><trkpt lat="45.67943883676385" lon="10.47346748410255"><ele>771.6</ele><time>2026-04-18T16:02:07.001Z</time></trkpt><trkpt lat="45.679474724645715" lon="10.47338397014491"><ele>772.4000000000001</ele><time>2026-04-18T16:02:08.001Z</time></trkpt><trkpt lat="45.679462480856614" lon="10.473229782004669"><ele>773.2</ele><time>2026-04-18T16:02:10.001Z</time></trkpt><trkpt lat="45.679389859275105" lon="10.473162508928722"><ele>774.0</ele><time>2026-04-18T16:02:11.001Z</time></trkpt><trkpt lat="45.679289985128825" lon="10.473080232309414"><ele>774.0</ele><time>2026-04-18T16:02:12Z</time></trkpt><trkpt lat="45.679215030281256" lon="10.472983030953998"><ele>774.0</ele><time>2026-04-18T16:02:13Z</time></trkpt><trkpt lat="45.67913657252345" lon="10.472893094822751"><ele>774.0</ele><time>2026-04-18T16:02:14Z</time></trkpt><trkpt lat="45.67906112743307" lon="10.472776323919417"><ele>774.0</ele><time>2026-04-18T16:02:15Z</time></trkpt><trkpt lat="45.67901603000969" lon="10.472698194388691"><ele>774.0</ele><time>2026-04-18T16:02:16Z</time></trkpt><trkpt lat="45.678963770945884" lon="10.472611000219777"><ele>778.6666666666666</ele><time>2026-04-18T16:02:17Z</time></trkpt><trkpt lat="45.67893692008558" lon="10.472520029353065"><ele>783.3333333333333</ele><time>2026-04-18T16:02:18Z</time></trkpt><trkpt lat="45.6788792877106" lon="10.472414651184128"><ele>788.0</ele><time>2026-04-18T16:02:19Z</time></trkpt><trkpt lat="45.67881315232218" lon="10.472325819653904"><ele>792.6666666666666</ele><time>2026-04-18T16:02:20Z</time></trkpt><trkpt lat="45.67875654745146" lon="10.472227311362694"><ele>797.3333333333333</ele><time>2026-04-18T16:02:21Z</time></trkpt><trkpt lat="45.67871083792856" lon="10.472161768069668"><ele>802.0</ele><time>2026-04-18T16:02:22Z</time></trkpt><trkpt lat="45.67861955148001" lon="10.472153671049696"><ele>801.6666666666666</ele><time>2026-04-18T16:02:23Z</time></trkpt><trkpt lat="45.67854622821823" lon="10.472154977722967"><ele>801.3333333333333</ele><time>2026-04-18T16:02:24Z</time></trkpt><trkpt lat="45.67847876945887" lon="10.472091845305945"><ele>801.0</ele><time>2026-04-18T16:02:25Z</time></trkpt><trkpt lat="45.67840958413625" lon="10.472037242452323"><ele>800.6666666666667</ele><time>2026-04-18T16:02:26Z</time></trkpt><trkpt lat="45.67834076686972" lon="10.472041334063174"><ele>800.3333333333334</ele><time>2026-04-18T16:02:27Z</time></trkpt><trkpt lat="45.67826662390951" lon="10.472025116707531"><ele>800.0</ele><time>2026-04-18T16:02:28Z</time></trkpt><trkpt lat="45.67820256226741" lon="10.47196369738768"><ele>800.0000000000001</ele><time>2026-04-18T16:02:29Z</time></trkpt><trkpt lat="45.67818176402588" lon="10.47180387220158"><ele>800.0</ele><time>2026-04-18T16:02:31Z</time></trkpt><trkpt lat="45.67821494372692" lon="10.471721447928013"><ele>800.0</ele><time>2026-04-18T16:02:32Z</time></trkpt><trkpt lat="45.678248448495886" lon="10.471626063657501"><ele>800.0</ele><time>2026-04-18T16:02:33Z</time></trkpt><trkpt lat="45.678277514742774" lon="10.471531953668313"><ele>800.0000000000001</ele><time>2026-04-18T16:02:34Z</time></trkpt><trkpt lat="45.67825767146446" lon="10.471437640635646"><ele>800.0</ele><time>2026-04-18T16:02:35Z</time></trkpt><trkpt lat="45.67822518985954" lon="10.471336824520815"><ele>800.0</ele><time>2026-04-18T16:02:36Z</time></trkpt><trkpt lat="45.67819359442833" lon="10.471240854967483"><ele>800.0</ele><time>2026-04-18T16:02:37Z</time></trkpt><trkpt lat="45.67823923872455" lon="10.47109951004518"><ele>800.0</ele><time>2026-04-18T16:02:39Z</time></trkpt><trkpt lat="45.678338253074166" lon="10.470978499906517"><ele>800.0</ele><time>2026-04-18T16:02:41Z</time></trkpt><trkpt lat="45.67845657558167" lon="10.470861243178204"><ele>800.0000000000001</ele><time>2026-04-18T16:02:43Z</time></trkpt><trkpt lat="45.67854067359963" lon="10.47078902770588"><ele>800.0</ele><time>2026-04-18T16:02:44Z</time></trkpt><trkpt lat="45.678640152514845" lon="10.470728993773362"><ele>800.0</ele><time>2026-04-18T16:02:45Z</time></trkpt><trkpt lat="45.67871886413754" lon="10.470693359782466"><ele>800.0</ele><time>2026-04-18T16:02:46Z</time></trkpt><trkpt lat="45.67879926496173" lon="10.470639544242792"><ele>800.0000000000001</ele><time>2026-04-18T16:02:47Z</time></trkpt><trkpt lat="45.67881594039305" lon="10.47054784835536"><ele>800.0</ele><time>2026-04-18T16:02:48Z</time></trkpt><trkpt lat="45.67879166617712" lon="10.470329918115453"><ele>803.4</ele><time>2026-04-18T16:02:50Z</time></trkpt><trkpt lat="45.67876891266732" lon="10.470203255788999"><ele>806.8</ele><time>2026-04-18T16:02:51Z</time></trkpt><trkpt lat="45.67875829453487" lon="10.470074891840182"><ele>810.2</ele><time>2026-04-18T16:02:52Z</time></trkpt><trkpt lat="45.67875666967518" lon="10.469951381639106"><ele>813.6</ele><time>2026-04-18T16:02:53Z</time></trkpt><trkpt lat="45.67876218222335" lon="10.469820818586768"><ele>817.0</ele><time>2026-04-18T16:02:54Z</time></trkpt><trkpt lat="45.67876021175071" lon="10.469668185150269"><ele>817.8</ele><time>2026-04-18T16:02:55Z</time></trkpt><trkpt lat="45.67874702188718" lon="10.469516127469793"><ele>818.6</ele><time>2026-04-18T16:02:56Z</time></trkpt><trkpt lat="45.678723802843535" lon="10.469350583252599"><ele>819.4</ele><time>2026-04-18T16:02:57Z</time></trkpt><trkpt lat="45.67869435787071" lon="10.469215601435033"><ele>820.1999999999999</ele><time>2026-04-18T16:02:58Z</time></trkpt><trkpt lat="45.67868502570459" lon="10.469097237939092"><ele>821.0</ele><time>2026-04-18T16:02:59Z</time></trkpt><trkpt lat="45.67868848632774" lon="10.46898714491532"><ele>821.0000000000001</ele><time>2026-04-18T16:03:00Z</time></trkpt><trkpt lat="45.678743462772026" lon="10.46888367133678"><ele>821.0</ele><time>2026-04-18T16:03:01Z</time></trkpt><trkpt lat="45.67876108314873" lon="10.468768378690147"><ele>821.0</ele><time>2026-04-18T16:03:02Z</time></trkpt><trkpt lat="45.678773196809146" lon="10.468649046406806"><ele>821.0</ele><time>2026-04-18T16:03:03Z</time></trkpt><trkpt lat="45.678768204574816" lon="10.468516715703188"><ele>821.0000000000001</ele><time>2026-04-18T16:03:04Z</time></trkpt><trkpt lat="45.67874523261532" lon="10.468383369623652"><ele>821.0</ele><time>2026-04-18T16:03:05Z</time></trkpt><trkpt lat="45.678711704278605" lon="10.46825869291689"><ele>821.6666666666667</ele><time>2026-04-18T16:03:06Z</time></trkpt><trkpt lat="45.678689789128434" lon="10.468138713359977"><ele>822.3333333333334</ele><time>2026-04-18T16:03:07Z</time></trkpt><trkpt lat="45.67867235947696" lon="10.468031651171396"><ele>823.0</ele><time>2026-04-18T16:03:08Z</time></trkpt><trkpt lat="45.678666688635964" lon="10.46792335334005"><ele>823.6666666666667</ele><time>2026-04-18T16:03:09Z</time></trkpt><trkpt lat="45.67865484605992" lon="10.467801032602871"><ele>824.3333333333334</ele><time>2026-04-18T16:03:10Z</time></trkpt><trkpt lat="45.6786330364148" lon="10.467689303485168"><ele>825.0</ele><time>2026-04-18T16:03:11Z</time></trkpt><trkpt lat="45.67866527606927" lon="10.467580878213793"><ele>825.0</ele><time>2026-04-18T16:03:13Z</time></trkpt><trkpt lat="45.67873333339113" lon="10.467520132768014"><ele>825.0</ele><time>2026-04-18T16:03:15Z</time></trkpt><trkpt lat="45.67882974084454" lon="10.4675748146437"><ele>825.0</ele><time>2026-04-18T16:03:16Z</time></trkpt><trkpt lat="45.67891175722371" lon="10.467431653568077"><ele>825.0</ele><time>2026-04-18T16:03:18Z</time></trkpt><trkpt lat="45.678889127974735" lon="10.467310717482006"><ele>825.0</ele><time>2026-04-18T16:03:19Z</time></trkpt><trkpt lat="45.678921685525104" lon="10.46721056076329"><ele>822.5</ele><time>2026-04-18T16:03:20Z</time></trkpt><trkpt lat="45.678956635785696" lon="10.467109500024351"><ele>820.0</ele><time>2026-04-18T16:03:21Z</time></trkpt><trkpt lat="45.6790111674019" lon="10.467032167372347"><ele>817.5</ele><time>2026-04-18T16:03:22Z</time></trkpt><trkpt lat="45.67909129681379" lon="10.467022486993878"><ele>815.0</ele><time>2026-04-18T16:03:23Z</time></trkpt><trkpt lat="45.679165098284095" lon="10.466974891482709"><ele>812.5</ele><time>2026-04-18T16:03:24Z</time></trkpt><trkpt lat="45.67925487765173" lon="10.466926406267"><ele>810.0</ele><time>2026-04-18T16:03:25Z</time></trkpt><trkpt lat="45.67936802081961" lon="10.4668706242741"><ele>813.6</ele><time>2026-04-18T16:03:26Z</time></trkpt><trkpt lat="45.67945675032844" lon="10.466793717502014"><ele>817.2</ele><time>2026-04-18T16:03:27Z</time></trkpt><trkpt lat="45.67953787634209" lon="10.466746426533469"><ele>820.8</ele><time>2026-04-18T16:03:28Z</time></trkpt><trkpt lat="45.67960494861558" lon="10.466705038269222"><ele>824.4</ele><time>2026-04-18T16:03:29Z</time></trkpt><trkpt lat="45.67967769631108" lon="10.466679139718698"><ele>828.0</ele><time>2026-04-18T16:03:30Z</time></trkpt><trkpt lat="45.679761203605686" lon="10.466561781836042"><ele>828.0000000000001</ele><time>2026-04-18T16:03:32Z</time></trkpt><trkpt lat="45.67979980879866" lon="10.466483836920911"><ele>828.0</ele><time>2026-04-18T16:03:33Z</time></trkpt><trkpt lat="45.67984515788146" lon="10.466407003247419"><ele>828.0</ele><time>2026-04-18T16:03:34.001Z</time></trkpt><trkpt lat="45.67989158290755" lon="10.46632187861056"><ele>828.0</ele><time>2026-04-18T16:03:35.001Z</time></trkpt><trkpt lat="45.67993023323701" lon="10.46622551224821"><ele>828.0</ele><time>2026-04-18T16:03:36.001Z</time></trkpt><trkpt lat="45.679966600600906" lon="10.466126561236726"><ele>828.0000000000001</ele><time>2026-04-18T16:03:37.001Z</time></trkpt><trkpt lat="45.67999315026487" lon="10.466029114854262"><ele>828.0</ele><time>2026-04-18T16:03:38.001Z</time></trkpt><trkpt lat="45.680008560290716" lon="10.465911137205246"><ele>825.5714285714287</ele><time>2026-04-18T16:03:39.001Z</time></trkpt><trkpt lat="45.68002308828476" lon="10.465817795669325"><ele>823.1428571428571</ele><time>2026-04-18T16:03:40.001Z</time></trkpt><trkpt lat="45.68003354848632" lon="10.465711565302518"><ele>820.7142857142858</ele><time>2026-04-18T16:03:41.001Z</time></trkpt><trkpt lat="45.68004496727943" lon="10.465609187921546"><ele>818.2857142857143</ele><time>2026-04-18T16:03:42.001Z</time></trkpt><trkpt lat="45.6800484628727" lon="10.465506763376016"><ele>815.8571428571429</ele><time>2026-04-18T16:03:43.001Z</time></trkpt><trkpt lat="45.680051556793956" lon="10.465411792822358"><ele>813.4285714285714</ele><time>2026-04-18T16:03:44.001Z</time></trkpt><trkpt lat="45.680062944545256" lon="10.465310085835588"><ele>811.0</ele><time>2026-04-18T16:03:45.001Z</time></trkpt><trkpt lat="45.68015506566851" lon="10.465178687797968"><ele>809.1999999999999</ele><time>2026-04-18T16:03:47.001Z</time></trkpt><trkpt lat="45.680207167878095" lon="10.465071624009195"><ele>807.4</ele><time>2026-04-18T16:03:48.001Z</time></trkpt><trkpt lat="45.680281522425396" lon="10.464993590156592"><ele>805.6</ele><time>2026-04-18T16:03:49.001Z</time></trkpt><trkpt lat="45.68035351516012" lon="10.464897485472884"><ele>803.8</ele><time>2026-04-18T16:03:50.001Z</time></trkpt><trkpt lat="45.680419109919626" lon="10.464795650595057"><ele>802.0</ele><time>2026-04-18T16:03:51.001Z</time></trkpt><trkpt lat="45.680478486658814" lon="10.46470622671121"><ele>803.6666666666666</ele><time>2026-04-18T16:03:52.001Z</time></trkpt><trkpt lat="45.68053430105507" lon="10.464608016281794"><ele>805.3333333333333</ele><time>2026-04-18T16:03:53.001Z</time></trkpt><trkpt lat="45.680597701245915" lon="10.464534427814186"><ele>807.0</ele><time>2026-04-18T16:03:54.001Z</time></trkpt><trkpt lat="45.68065273263797" lon="10.46446758809799"><ele>808.6666666666667</ele><time>2026-04-18T16:03:55.001Z</time></trkpt><trkpt lat="45.68070444194714" lon="10.464389683843406"><ele>810.3333333333334</ele><time>2026-04-18T16:03:56.001Z</time></trkpt><trkpt lat="45.68075857905172" lon="10.464321793030361"><ele>812.0</ele><time>2026-04-18T16:03:57.001Z</time></trkpt><trkpt lat="45.68081129349587" lon="10.464260484825813"><ele>812.0000000000001</ele><time>2026-04-18T16:03:58.001Z</time></trkpt><trkpt lat="45.68085776416021" lon="10.464189090027489"><ele>812.0</ele><time>2026-04-18T16:03:59.001Z</time></trkpt><trkpt lat="45.68091428351903" lon="10.464137213235997"><ele>812.0</ele><time>2026-04-18T16:04:00.001Z</time></trkpt><trkpt lat="45.68095643244076" lon="10.46403310510283"><ele>812.0</ele><time>2026-04-18T16:04:01.001Z</time></trkpt><trkpt lat="45.68096306932765" lon="10.463893838168604"><ele>812.0000000000001</ele><time>2026-04-18T16:04:02.001Z</time></trkpt><trkpt lat="45.681015579829385" lon="10.463784228997437"><ele>812.0</ele><time>2026-04-18T16:04:03.001Z</time></trkpt><trkpt lat="45.681048893484814" lon="10.463706545009188"><ele>812.6666666666667</ele><time>2026-04-18T16:04:04.001Z</time></trkpt><trkpt lat="45.68109241460302" lon="10.463626997919189"><ele>813.3333333333334</ele><time>2026-04-18T16:04:05.001Z</time></trkpt><trkpt lat="45.68114208358806" lon="10.463534707851815"><ele>814.0</ele><time>2026-04-18T16:04:06.001Z</time></trkpt><trkpt lat="45.68118759401498" lon="10.463450144916372"><ele>814.6666666666667</ele><time>2026-04-18T16:04:07.001Z</time></trkpt><trkpt lat="45.68123277878333" lon="10.46334375899913"><ele>815.3333333333334</ele><time>2026-04-18T16:04:08.001Z</time></trkpt><trkpt lat="45.68127066229509" lon="10.46325209150168"><ele>816.0</ele><time>2026-04-18T16:04:09.001Z</time></trkpt><trkpt lat="45.68131822528293" lon="10.463167631144005"><ele>816.0</ele><time>2026-04-18T16:04:10.001Z</time></trkpt><trkpt lat="45.681435415985945" lon="10.463129677299143"><ele>816.0</ele><time>2026-04-18T16:04:12.001Z</time></trkpt><trkpt lat="45.68150122366564" lon="10.463068444728801"><ele>816.0</ele><time>2026-04-18T16:04:13.001Z</time></trkpt><trkpt lat="45.68157116763736" lon="10.46297993841686"><ele>816.0</ele><time>2026-04-18T16:04:14.001Z</time></trkpt><trkpt lat="45.68160040293468" lon="10.462863418828817"><ele>816.0</ele><time>2026-04-18T16:04:15.001Z</time></trkpt><trkpt lat="45.68164209401676" lon="10.462767122024665"><ele>815.8333333333334</ele><time>2026-04-18T16:04:16.001Z</time></trkpt><trkpt lat="45.68167109231119" lon="10.462674175999581"><ele>815.6666666666667</ele><time>2026-04-18T16:04:17.001Z</time></trkpt><trkpt lat="45.68173690361953" lon="10.462542423662608"><ele>815.5</ele><time>2026-04-18T16:04:19Z</time></trkpt><trkpt lat="45.68178472467886" lon="10.462454662826845"><ele>815.3333333333334</ele><time>2026-04-18T16:04:20Z</time></trkpt><trkpt lat="45.68187157634583" lon="10.4624232630734"><ele>815.1666666666667</ele><time>2026-04-18T16:04:21Z</time></trkpt><trkpt lat="45.68194086581301" lon="10.462454561880577"><ele>815.0</ele><time>2026-04-18T16:04:22Z</time></trkpt><trkpt lat="45.68201845577592" lon="10.462450887494885"><ele>815.0000000000001</ele><time>2026-04-18T16:04:23Z</time></trkpt><trkpt lat="45.68209746363828" lon="10.46242527812597"><ele>815.0</ele><time>2026-04-18T16:04:24Z</time></trkpt><trkpt lat="45.68216866381558" lon="10.462371492804303"><ele>815.0</ele><time>2026-04-18T16:04:25Z</time></trkpt><trkpt lat="45.682208261213646" lon="10.462235054924765"><ele>815.0</ele><time>2026-04-18T16:04:26Z</time></trkpt><trkpt lat="45.682255034855594" lon="10.462135610456258"><ele>815.0000000000001</ele><time>2026-04-18T16:04:27Z</time></trkpt><trkpt lat="45.6822995863325" lon="10.462024324211113"><ele>815.0</ele><time>2026-04-18T16:04:28Z</time></trkpt><trkpt lat="45.682344689069566" lon="10.461923075354651"><ele>810.0000000000001</ele><time>2026-04-18T16:04:29Z</time></trkpt><trkpt lat="45.68238483615035" lon="10.46182013192311"><ele>805.0</ele><time>2026-04-18T16:04:30Z</time></trkpt><trkpt lat="45.68242244895652" lon="10.461709562755209"><ele>800.0</ele><time>2026-04-18T16:04:31Z</time></trkpt><trkpt lat="45.682445629452914" lon="10.461616143303353"><ele>795.0</ele><time>2026-04-18T16:04:32Z</time></trkpt><trkpt lat="45.68246729197411" lon="10.46152425782842"><ele>790.0000000000001</ele><time>2026-04-18T16:04:33Z</time></trkpt><trkpt lat="45.682410120142556" lon="10.46135005225324"><ele>785.0</ele><time>2026-04-18T16:04:35Z</time></trkpt><trkpt lat="45.68239361153209" lon="10.461262686775706"><ele>781.5000000000001</ele><time>2026-04-18T16:04:36Z</time></trkpt><trkpt lat="45.6824578625375" lon="10.461147598623292"><ele>778.0</ele><time>2026-04-18T16:04:38Z</time></trkpt><trkpt lat="45.68248400238042" lon="10.4610648748514"><ele>774.5</ele><time>2026-04-18T16:04:39Z</time></trkpt><trkpt lat="45.68256614575272" lon="10.46095363561841"><ele>771.0</ele><time>2026-04-18T16:05:25Z</time></trkpt><trkpt lat="45.682624015004905" lon="10.46089092273441"><ele>767.5</ele><time>2026-04-18T16:05:26Z</time></trkpt><trkpt lat="45.68269171828139" lon="10.46080299860317"><ele>764.0</ele><time>2026-04-18T16:05:27Z</time></trkpt><trkpt lat="45.68275139823895" lon="10.460702235472544"><ele>763.8333333333333</ele><time>2026-04-18T16:05:28Z</time></trkpt><trkpt lat="45.68279902414716" lon="10.460617562077934"><ele>763.6666666666666</ele><time>2026-04-18T16:05:29Z</time></trkpt><trkpt lat="45.68283769130736" lon="10.460532429686786"><ele>763.5</ele><time>2026-04-18T16:05:30Z</time></trkpt><trkpt lat="45.682867846107314" lon="10.460450168613013"><ele>763.3333333333334</ele><time>2026-04-18T16:05:31Z</time></trkpt><trkpt lat="45.68294227008093" lon="10.460313514307584"><ele>763.1666666666667</ele><time>2026-04-18T16:05:33Z</time></trkpt><trkpt lat="45.6829952606064" lon="10.46025064554912"><ele>763.0</ele><time>2026-04-18T16:05:34Z</time></trkpt><trkpt lat="45.683051448257224" lon="10.46017506705403"><ele>763.0</ele><time>2026-04-18T16:05:35Z</time></trkpt><trkpt lat="45.68313780224391" lon="10.460111141559203"><ele>763.0</ele><time>2026-04-18T16:05:36Z</time></trkpt><trkpt lat="45.68323694810818" lon="10.460043512081485"><ele>763.0</ele><time>2026-04-18T16:05:37Z</time></trkpt><trkpt lat="45.683340866077835" lon="10.459958109116448"><ele>763.0</ele><time>2026-04-18T16:05:38Z</time></trkpt><trkpt lat="45.68343918897196" lon="10.45985022673734"><ele>763.0</ele><time>2026-04-18T16:05:39Z</time></trkpt><trkpt lat="45.68352943424955" lon="10.45972376651304"><ele>763.0</ele><time>2026-04-18T16:05:40Z</time></trkpt><trkpt lat="45.68359066536676" lon="10.45958818623852"><ele>763.0</ele><time>2026-04-18T16:05:41.001Z</time></trkpt><trkpt lat="45.68364086112351" lon="10.459477864960235"><ele>763.0</ele><time>2026-04-18T16:05:42.001Z</time></trkpt><trkpt lat="45.683687979689864" lon="10.459375748689252"><ele>763.0</ele><time>2026-04-18T16:05:43.001Z</time></trkpt><trkpt lat="45.68371961803297" lon="10.459260172269992"><ele>765.0</ele><time>2026-04-18T16:05:44.001Z</time></trkpt><trkpt lat="45.68377776311336" lon="10.45912041682552"><ele>767.0</ele><time>2026-04-18T16:05:45.001Z</time></trkpt><trkpt lat="45.68382723760866" lon="10.458963761873994"><ele>769.0</ele><time>2026-04-18T16:05:46.001Z</time></trkpt><trkpt lat="45.683878019893655" lon="10.458798926187587"><ele>771.0</ele><time>2026-04-18T16:05:47.001Z</time></trkpt><trkpt lat="45.683929841123245" lon="10.458630718126287"><ele>771.0</ele><time>2026-04-18T16:05:48.001Z</time></trkpt><trkpt lat="45.683980040612624" lon="10.458467774120152"><ele>771.0</ele><time>2026-04-18T16:05:49.001Z</time></trkpt><trkpt lat="45.68401850368323" lon="10.458306674881074"><ele>771.0</ele><time>2026-04-18T16:05:50.001Z</time></trkpt><trkpt lat="45.68407393994001" lon="10.45815813727864"><ele>771.0</ele><time>2026-04-18T16:05:51.001Z</time></trkpt><trkpt lat="45.68412501046625" lon="10.458004371631313"><ele>767.0</ele><time>2026-04-18T16:05:52.001Z</time></trkpt><trkpt lat="45.68416767820082" lon="10.457836031568005"><ele>763.0</ele><time>2026-04-18T16:05:53.001Z</time></trkpt><trkpt lat="45.68420433404289" lon="10.45766723865381"><ele>759.0</ele><time>2026-04-18T16:05:54.001Z</time></trkpt><trkpt lat="45.68423291540029" lon="10.45748631736729"><ele>755.0</ele><time>2026-04-18T16:05:55.001Z</time></trkpt><trkpt lat="45.68426480761155" lon="10.457301736481604"><ele>755.0</ele><time>2026-04-18T16:05:56.001Z</time></trkpt><trkpt lat="45.68430425220603" lon="10.457131993059408"><ele>755.0</ele><time>2026-04-18T16:05:57.001Z</time></trkpt><trkpt lat="45.68438310332508" lon="10.457022475130364"><ele>755.0</ele><time>2026-04-18T16:05:58.001Z</time></trkpt><trkpt lat="45.68443968340446" lon="10.456847769065899"><ele>755.0</ele><time>2026-04-18T16:05:59.001Z</time></trkpt><trkpt lat="45.684471924495085" lon="10.456655643877117"><ele>753.75</ele><time>2026-04-18T16:06:00.001Z</time></trkpt><trkpt lat="45.68451441968071" lon="10.456492076324565"><ele>752.5</ele><time>2026-04-18T16:06:01.001Z</time></trkpt><trkpt lat="45.684573907398025" lon="10.456350183391528"><ele>751.25</ele><time>2026-04-18T16:06:02.001Z</time></trkpt><trkpt lat="45.684645231519106" lon="10.456215325087882"><ele>750.0</ele><time>2026-04-18T16:06:03.001Z</time></trkpt><trkpt lat="45.68472499780916" lon="10.456079689039832"><ele>750.0</ele><time>2026-04-18T16:06:04.001Z</time></trkpt><trkpt lat="45.68479584944839" lon="10.455937178752459"><ele>750.0</ele><time>2026-04-18T16:06:05.001Z</time></trkpt><trkpt lat="45.68489151389472" lon="10.455841608073603"><ele>750.0</ele><time>2026-04-18T16:06:06.001Z</time></trkpt><trkpt lat="45.68497703953376" lon="10.455730367120095"><ele>750.0</ele><time>2026-04-18T16:06:07.001Z</time></trkpt><trkpt lat="45.68504869448204" lon="10.455599276772594"><ele>750.0</ele><time>2026-04-18T16:06:08.001Z</time></trkpt><trkpt lat="45.68513610133333" lon="10.455503418857543"><ele>750.0</ele><time>2026-04-18T16:06:09.001Z</time></trkpt><trkpt lat="45.68519636195459" lon="10.45539734122398"><ele>750.0</ele><time>2026-04-18T16:06:10.001Z</time></trkpt><trkpt lat="45.685264371178775" lon="10.45529410006533"><ele>750.0</ele><time>2026-04-18T16:06:11.001Z</time></trkpt><trkpt lat="45.68531248524597" lon="10.455188688298598"><ele>750.0</ele><time>2026-04-18T16:06:12.001Z</time></trkpt><trkpt lat="45.685327269485235" lon="10.455070802304876"><ele>752.8333333333334</ele><time>2026-04-18T16:06:13.001Z</time></trkpt><trkpt lat="45.68533593169526" lon="10.454951711062018"><ele>755.6666666666666</ele><time>2026-04-18T16:06:14.001Z</time></trkpt><trkpt lat="45.6853415691723" lon="10.45484592688251"><ele>758.5</ele><time>2026-04-18T16:06:15.001Z</time></trkpt><trkpt lat="45.685343577241554" lon="10.454747305923394"><ele>761.3333333333333</ele><time>2026-04-18T16:06:16.001Z</time></trkpt><trkpt lat="45.685350166137994" lon="10.45465472919576"><ele>764.1666666666666</ele><time>2026-04-18T16:06:17.001Z</time></trkpt><trkpt lat="45.68536067865673" lon="10.454556161073125"><ele>767.0</ele><time>2026-04-18T16:06:18.001Z</time></trkpt><trkpt lat="45.68533829855589" lon="10.454363736682332"><ele>767.0</ele><time>2026-04-18T16:06:20.001Z</time></trkpt><trkpt lat="45.68531802217328" lon="10.454254714089373"><ele>767.0</ele><time>2026-04-18T16:06:21.001Z</time></trkpt><trkpt lat="45.685286038015484" lon="10.454142324066279"><ele>767.0</ele><time>2026-04-18T16:06:22.001Z</time></trkpt><trkpt lat="45.68525938005111" lon="10.45403550255684"><ele>767.0</ele><time>2026-04-18T16:06:23.001Z</time></trkpt><trkpt lat="45.685227454397385" lon="10.453907572828932"><ele>767.0</ele><time>2026-04-18T16:06:24Z</time></trkpt><trkpt lat="45.685206110406675" lon="10.453775932932206"><ele>767.0</ele><time>2026-04-18T16:06:25Z</time></trkpt><trkpt lat="45.685165930003045" lon="10.453680470783329"><ele>761.0</ele><time>2026-04-18T16:06:26Z</time></trkpt><trkpt lat="45.68515222651696" lon="10.453539932419474"><ele>755.0</ele><time>2026-04-18T16:06:27Z</time></trkpt><trkpt lat="45.68509861615768" lon="10.453428447352058"><ele>749.0</ele><time>2026-04-18T16:06:28Z</time></trkpt><trkpt lat="45.68509052434552" lon="10.453305199536945"><ele>743.0</ele><time>2026-04-18T16:06:29Z</time></trkpt><trkpt lat="45.68508113066616" lon="10.453202436566903"><ele>737.0</ele><time>2026-04-18T16:06:30Z</time></trkpt><trkpt lat="45.685117099645616" lon="10.453062112484199"><ele>736.4285714285714</ele><time>2026-04-18T16:06:31Z</time></trkpt><trkpt lat="45.685138733073416" lon="10.452952538118218"><ele>735.8571428571429</ele><time>2026-04-18T16:06:32Z</time></trkpt><trkpt lat="45.68517350408731" lon="10.452857656331078"><ele>735.2857142857142</ele><time>2026-04-18T16:06:33Z</time></trkpt><trkpt lat="45.685218055977735" lon="10.452785208056019"><ele>734.7142857142858</ele><time>2026-04-18T16:06:34Z</time></trkpt><trkpt lat="45.685295773567226" lon="10.452782969559848"><ele>734.1428571428571</ele><time>2026-04-18T16:06:35Z</time></trkpt><trkpt lat="45.68536696400262" lon="10.452761235365136"><ele>733.5714285714286</ele><time>2026-04-18T16:06:36Z</time></trkpt><trkpt lat="45.68543552295211" lon="10.452729825817155"><ele>733.0</ele><time>2026-04-18T16:06:37Z</time></trkpt><trkpt lat="45.685521642963884" lon="10.452698317319129"><ele>734.6666666666667</ele><time>2026-04-18T16:06:38Z</time></trkpt><trkpt lat="45.685597550764456" lon="10.452667743416766"><ele>736.3333333333334</ele><time>2026-04-18T16:06:39Z</time></trkpt><trkpt lat="45.68567057041871" lon="10.452619703979426"><ele>738.0</ele><time>2026-04-18T16:06:40Z</time></trkpt><trkpt lat="45.68574786129676" lon="10.452570299106274"><ele>739.6666666666666</ele><time>2026-04-18T16:06:41Z</time></trkpt><trkpt lat="45.68582505099388" lon="10.452522547447288"><ele>741.3333333333333</ele><time>2026-04-18T16:06:42Z</time></trkpt><trkpt lat="45.685904374954966" lon="10.452498106766964"><ele>743.0</ele><time>2026-04-18T16:06:43Z</time></trkpt><trkpt lat="45.68596659928794" lon="10.45247005705597"><ele>743.0</ele><time>2026-04-18T16:06:44Z</time></trkpt><trkpt lat="45.686040856019794" lon="10.452431273717405"><ele>743.0</ele><time>2026-04-18T16:06:46Z</time></trkpt><trkpt lat="45.68612338213872" lon="10.452427355205666"><ele>743.0</ele><time>2026-04-18T16:06:48Z</time></trkpt><trkpt lat="45.6861971375296" lon="10.452408082137396"><ele>743.0</ele><time>2026-04-18T16:06:49Z</time></trkpt><trkpt lat="45.68630511406436" lon="10.452393853512959"><ele>743.0</ele><time>2026-04-18T16:06:50Z</time></trkpt><trkpt lat="45.68642453170632" lon="10.452392142233336"><ele>744.5</ele><time>2026-04-18T16:06:51Z</time></trkpt><trkpt lat="45.68654621661262" lon="10.45232808268716"><ele>746.0</ele><time>2026-04-18T16:06:52Z</time></trkpt><trkpt lat="45.68667275506774" lon="10.452217909792664"><ele>747.5</ele><time>2026-04-18T16:06:53Z</time></trkpt><trkpt lat="45.68679779028659" lon="10.452154847544474"><ele>749.0</ele><time>2026-04-18T16:06:54Z</time></trkpt><trkpt lat="45.68690369588506" lon="10.452073939566903"><ele>742.75</ele><time>2026-04-18T16:06:55Z</time></trkpt><trkpt lat="45.6870208327374" lon="10.452016052992114"><ele>736.5</ele><time>2026-04-18T16:06:56Z</time></trkpt><trkpt lat="45.68713807816889" lon="10.451978007255615"><ele>730.25</ele><time>2026-04-18T16:06:57Z</time></trkpt><trkpt lat="45.68725983646553" lon="10.45195965032836"><ele>724.0</ele><time>2026-04-18T16:06:58Z</time></trkpt><trkpt lat="45.68737632101958" lon="10.451945193156526"><ele>724.0</ele><time>2026-04-18T16:06:59Z</time></trkpt><trkpt lat="45.68749722001606" lon="10.451917212021026"><ele>724.0</ele><time>2026-04-18T16:07:00Z</time></trkpt><trkpt lat="45.68761427810554" lon="10.451879498511834"><ele>724.0</ele><time>2026-04-18T16:07:01Z</time></trkpt><trkpt lat="45.68771466388289" lon="10.45182800193553"><ele>724.0</ele><time>2026-04-18T16:07:02Z</time></trkpt><trkpt lat="45.68780882001993" lon="10.451742811707048"><ele>722.4000000000001</ele><time>2026-04-18T16:07:03Z</time></trkpt><trkpt lat="45.68787762887135" lon="10.451614580923673"><ele>720.8</ele><time>2026-04-18T16:07:04Z</time></trkpt><trkpt lat="45.68790188041977" lon="10.451473196984509"><ele>719.2</ele><time>2026-04-18T16:07:05Z</time></trkpt><trkpt lat="45.687891790151376" lon="10.451331355671085"><ele>717.5999999999999</ele><time>2026-04-18T16:07:06Z</time></trkpt><trkpt lat="45.68781320534187" lon="10.451178678671026"><ele>716.0</ele><time>2026-04-18T16:07:07Z</time></trkpt><trkpt lat="45.687738770094306" lon="10.451033476512627"><ele>716.0</ele><time>2026-04-18T16:07:08Z</time></trkpt><trkpt lat="45.68767099641772" lon="10.450877968815167"><ele>716.0</ele><time>2026-04-18T16:07:09Z</time></trkpt><trkpt lat="45.68761626157704" lon="10.450724229323713"><ele>716.0</ele><time>2026-04-18T16:07:10Z</time></trkpt><trkpt lat="45.68756144623916" lon="10.450577070696784"><ele>716.0</ele><time>2026-04-18T16:07:11Z</time></trkpt><trkpt lat="45.68750621177294" lon="10.450436192655774"><ele>716.0</ele><time>2026-04-18T16:07:12Z</time></trkpt><trkpt lat="45.687460544945374" lon="10.450304155589494"><ele>716.0</ele><time>2026-04-18T16:07:13Z</time></trkpt><trkpt lat="45.68741417655517" lon="10.45016213203929"><ele>716.0</ele><time>2026-04-18T16:07:14Z</time></trkpt><trkpt lat="45.68740651524022" lon="10.450008403434877"><ele>716.0</ele><time>2026-04-18T16:07:15Z</time></trkpt><trkpt lat="45.687455410006" lon="10.44983150161593"><ele>716.0</ele><time>2026-04-18T16:07:16Z</time></trkpt><trkpt lat="45.68748859846876" lon="10.449685971218843"><ele>716.0</ele><time>2026-04-18T16:07:17Z</time></trkpt><trkpt lat="45.68747585483826" lon="10.449514507654325"><ele>716.0</ele><time>2026-04-18T16:07:18Z</time></trkpt><trkpt lat="45.68743043679682" lon="10.449340790207005"><ele>716.0</ele><time>2026-04-18T16:07:19Z</time></trkpt><trkpt lat="45.687367685662444" lon="10.449173302439053"><ele>715.1999999999999</ele><time>2026-04-18T16:07:20Z</time></trkpt><trkpt lat="45.68731250470173" lon="10.449028656288311"><ele>714.4</ele><time>2026-04-18T16:07:21Z</time></trkpt><trkpt lat="45.687269606761504" lon="10.448905424684867"><ele>713.6</ele><time>2026-04-18T16:07:22Z</time></trkpt><trkpt lat="45.68720781586284" lon="10.448807451260093"><ele>712.8</ele><time>2026-04-18T16:07:23Z</time></trkpt><trkpt lat="45.68711106813433" lon="10.448794899437079"><ele>712.0</ele><time>2026-04-18T16:07:24Z</time></trkpt><trkpt lat="45.687001777911775" lon="10.448871317297955"><ele>706.75</ele><time>2026-04-18T16:07:25Z</time></trkpt><trkpt lat="45.686856747755364" lon="10.448906562972573"><ele>701.5</ele><time>2026-04-18T16:07:26Z</time></trkpt><trkpt lat="45.6867284117093" lon="10.448896561453962"><ele>696.25</ele><time>2026-04-18T16:07:27Z</time></trkpt><trkpt lat="45.686619008856326" lon="10.448828407651533"><ele>691.0</ele><time>2026-04-18T16:07:28Z</time></trkpt><trkpt lat="45.68652228949583" lon="10.44874051116574"><ele>690.8</ele><time>2026-04-18T16:07:29Z</time></trkpt><trkpt lat="45.68647255383683" lon="10.448573012736537"><ele>690.5999999999999</ele><time>2026-04-18T16:07:30Z</time></trkpt><trkpt lat="45.68640987788717" lon="10.448423333650581"><ele>690.4</ele><time>2026-04-18T16:07:31Z</time></trkpt><trkpt lat="45.686389908330284" lon="10.448295847965724"><ele>690.2</ele><time>2026-04-18T16:07:32Z</time></trkpt><trkpt lat="45.68639260781768" lon="10.448186729786984"><ele>690.0</ele><time>2026-04-18T16:07:33Z</time></trkpt><trkpt lat="45.686481967801875" lon="10.448116938649525"><ele>690.0</ele><time>2026-04-18T16:07:34Z</time></trkpt><trkpt lat="45.68656883302005" lon="10.447999061458685"><ele>690.0</ele><time>2026-04-18T16:07:35Z</time></trkpt><trkpt lat="45.68664197085681" lon="10.447843699569951"><ele>690.0</ele><time>2026-04-18T16:07:36Z</time></trkpt><trkpt lat="45.686660974879686" lon="10.44763609556792"><ele>690.0</ele><time>2026-04-18T16:07:37Z</time></trkpt><trkpt lat="45.686655478256085" lon="10.44742116089871"><ele>689.5</ele><time>2026-04-18T16:07:38Z</time></trkpt><trkpt lat="45.6866406394126" lon="10.44721864447658"><ele>689.0</ele><time>2026-04-18T16:07:39Z</time></trkpt><trkpt lat="45.68661670011136" lon="10.447041482609054"><ele>688.5</ele><time>2026-04-18T16:07:40Z</time></trkpt><trkpt lat="45.686577922614354" lon="10.446862613578974"><ele>688.0</ele><time>2026-04-18T16:07:41Z</time></trkpt><trkpt lat="45.68656391409004" lon="10.44667604708707"><ele>686.5999999999999</ele><time>2026-04-18T16:07:42Z</time></trkpt><trkpt lat="45.6865498615506" lon="10.446514668919155"><ele>685.1999999999999</ele><time>2026-04-18T16:07:43Z</time></trkpt><trkpt lat="45.68657583585404" lon="10.44637137855482"><ele>683.8</ele><time>2026-04-18T16:07:44Z</time></trkpt><trkpt lat="45.686663125647755" lon="10.446250905583447"><ele>682.4</ele><time>2026-04-18T16:07:45Z</time></trkpt><trkpt lat="45.686707209864295" lon="10.446106959190153"><ele>681.0</ele><time>2026-04-18T16:07:46.001Z</time></trkpt><trkpt lat="45.68671899174546" lon="10.445939361807307"><ele>678.6666666666666</ele><time>2026-04-18T16:07:47.001Z</time></trkpt><trkpt lat="45.68665265054389" lon="10.445727562739046"><ele>676.3333333333333</ele><time>2026-04-18T16:07:48.001Z</time></trkpt><trkpt lat="45.6866062908007" lon="10.445531638302727"><ele>674.0</ele><time>2026-04-18T16:07:49.001Z</time></trkpt><trkpt lat="45.686605305440246" lon="10.445306685177789"><ele>673.0</ele><time>2026-04-18T16:07:50.001Z</time></trkpt><trkpt lat="45.6866076181287" lon="10.44508672313544"><ele>672.0</ele><time>2026-04-18T16:07:51.001Z</time></trkpt><trkpt lat="45.686635684959896" lon="10.444876503587171"><ele>671.0</ele><time>2026-04-18T16:07:52.001Z</time></trkpt><trkpt lat="45.68666604314207" lon="10.444633093256511"><ele>668.0</ele><time>2026-04-18T16:07:53.001Z</time></trkpt><trkpt lat="45.68664544583527" lon="10.444420992511438"><ele>665.0</ele><time>2026-04-18T16:07:54.001Z</time></trkpt><trkpt lat="45.68665648655236" lon="10.444220518775028"><ele>662.0</ele><time>2026-04-18T16:07:55.001Z</time></trkpt><trkpt lat="45.68668854891482" lon="10.44401946747331"><ele>659.0</ele><time>2026-04-18T16:07:56.001Z</time></trkpt><trkpt lat="45.686718913214854" lon="10.443819642211894"><ele>655.25</ele><time>2026-04-18T16:07:57.001Z</time></trkpt><trkpt lat="45.68674887092708" lon="10.443622536364105"><ele>651.5</ele><time>2026-04-18T16:07:58.001Z</time></trkpt><trkpt lat="45.68677686547218" lon="10.443438379502568"><ele>647.75</ele><time>2026-04-18T16:07:59.001Z</time></trkpt><trkpt lat="45.686797278571085" lon="10.443251061085109"><ele>644.0</ele><time>2026-04-18T16:08:00.001Z</time></trkpt><trkpt lat="45.686821787634194" lon="10.443051933734763"><ele>641.0</ele><time>2026-04-18T16:08:01.001Z</time></trkpt><trkpt lat="45.686835934655285" lon="10.442870260444353"><ele>638.0</ele><time>2026-04-18T16:08:02.001Z</time></trkpt><trkpt lat="45.68686380171207" lon="10.442688426015883"><ele>635.0</ele><time>2026-04-18T16:08:03.001Z</time></trkpt><trkpt lat="45.686900929517" lon="10.44252810685474"><ele>632.0</ele><time>2026-04-18T16:08:04.001Z</time></trkpt><trkpt lat="45.686969936139825" lon="10.44237059375436"><ele>638.0</ele><time>2026-04-18T16:08:05.001Z</time></trkpt><trkpt lat="45.687048312211395" lon="10.442202535804064"><ele>644.0</ele><time>2026-04-18T16:08:06.001Z</time></trkpt><trkpt lat="45.6871272878017" lon="10.44202771076448"><ele>650.0</ele><time>2026-04-18T16:08:07.001Z</time></trkpt><trkpt lat="45.68720232919296" lon="10.441848839578093"><ele>656.0</ele><time>2026-04-18T16:08:08.001Z</time></trkpt><trkpt lat="45.687257880487884" lon="10.441675411020901"><ele>656.0</ele><time>2026-04-18T16:08:09.001Z</time></trkpt><trkpt lat="45.68732936230761" lon="10.441522733491787"><ele>656.0</ele><time>2026-04-18T16:08:10.001Z</time></trkpt><trkpt lat="45.687386800123434" lon="10.441349095589267"><ele>656.0</ele><time>2026-04-18T16:08:11.001Z</time></trkpt><trkpt lat="45.68744864578058" lon="10.441190222145329"><ele>656.0</ele><time>2026-04-18T16:08:12.001Z</time></trkpt><trkpt lat="45.68748218490995" lon="10.441039911616981"><ele>653.3333333333333</ele><time>2026-04-18T16:08:13.001Z</time></trkpt><trkpt lat="45.687475818527396" lon="10.440840831162726"><ele>650.6666666666666</ele><time>2026-04-18T16:08:14.001Z</time></trkpt><trkpt lat="45.68746223145208" lon="10.44061337382699"><ele>648.0</ele><time>2026-04-18T16:08:15.001Z</time></trkpt><trkpt lat="45.687433198819804" lon="10.440348542309378"><ele>648.0</ele><time>2026-04-18T16:08:16.001Z</time></trkpt><trkpt lat="45.68742055444335" lon="10.440126854071178"><ele>648.0</ele><time>2026-04-18T16:08:17.001Z</time></trkpt><trkpt lat="45.68737306326052" lon="10.439930457192748"><ele>648.0</ele><time>2026-04-18T16:08:18.001Z</time></trkpt><trkpt lat="45.68730861893106" lon="10.439732170825444"><ele>650.75</ele><time>2026-04-18T16:08:19.001Z</time></trkpt><trkpt lat="45.68722454735252" lon="10.439534753161572"><ele>653.5</ele><time>2026-04-18T16:08:20.001Z</time></trkpt><trkpt lat="45.68713478757582" lon="10.439359551185284"><ele>656.25</ele><time>2026-04-18T16:08:21.001Z</time></trkpt><trkpt lat="45.687049696383625" lon="10.439213757552258"><ele>659.0</ele><time>2026-04-18T16:08:22.001Z</time></trkpt><trkpt lat="45.68694147990906" lon="10.439112688264933"><ele>653.0</ele><time>2026-04-18T16:08:23.001Z</time></trkpt><trkpt lat="45.68683593133666" lon="10.439010879553813"><ele>647.0</ele><time>2026-04-18T16:08:24.001Z</time></trkpt><trkpt lat="45.68672645352761" lon="10.43891329674676"><ele>641.0</ele><time>2026-04-18T16:08:25.001Z</time></trkpt><trkpt lat="45.68660469155957" lon="10.438830953398774"><ele>635.0</ele><time>2026-04-18T16:08:26.001Z</time></trkpt><trkpt lat="45.68650183792714" lon="10.438742400302841"><ele>635.0</ele><time>2026-04-18T16:08:27.001Z</time></trkpt><trkpt lat="45.6864027067553" lon="10.438658002136645"><ele>635.0</ele><time>2026-04-18T16:08:28.001Z</time></trkpt><trkpt lat="45.68631516797544" lon="10.438571306854366"><ele>635.0</ele><time>2026-04-18T16:08:29.001Z</time></trkpt><trkpt lat="45.686259102630586" lon="10.438454707206025"><ele>635.0</ele><time>2026-04-18T16:08:30Z</time></trkpt><trkpt lat="45.686190179277176" lon="10.438346471407248"><ele>635.0</ele><time>2026-04-18T16:08:31Z</time></trkpt><trkpt lat="45.68613183145864" lon="10.438248125932258"><ele>635.0</ele><time>2026-04-18T16:08:32Z</time></trkpt><trkpt lat="45.68607030682935" lon="10.438149266098495"><ele>635.0</ele><time>2026-04-18T16:08:33Z</time></trkpt><trkpt lat="45.686041511990524" lon="10.438039280354424"><ele>635.0</ele><time>2026-04-18T16:08:34Z</time></trkpt><trkpt lat="45.686024989280696" lon="10.437914704637135"><ele>635.0</ele><time>2026-04-18T16:08:35Z</time></trkpt><trkpt lat="45.68603582425093" lon="10.437799265609021"><ele>635.0</ele><time>2026-04-18T16:08:36Z</time></trkpt><trkpt lat="45.686071402350784" lon="10.437674735079815"><ele>635.0</ele><time>2026-04-18T16:08:37Z</time></trkpt><trkpt lat="45.6861034393463" lon="10.437528608737274"><ele>635.0</ele><time>2026-04-18T16:08:38Z</time></trkpt><trkpt lat="45.68613392076488" lon="10.437377549232021"><ele>635.0</ele><time>2026-04-18T16:08:39Z</time></trkpt><trkpt lat="45.6861672582703" lon="10.437218321166712"><ele>635.0</ele><time>2026-04-18T16:08:40Z</time></trkpt><trkpt lat="45.686201699212475" lon="10.437055329536673"><ele>635.0</ele><time>2026-04-18T16:08:41Z</time></trkpt><trkpt lat="45.686238463665426" lon="10.436883540160025"><ele>633.6666666666666</ele><time>2026-04-18T16:08:42Z</time></trkpt><trkpt lat="45.686259223454044" lon="10.436674341692871"><ele>632.3333333333334</ele><time>2026-04-18T16:08:43Z</time></trkpt><trkpt lat="45.68625094291266" lon="10.436419904429"><ele>631.0</ele><time>2026-04-18T16:08:44Z</time></trkpt><trkpt lat="45.68620611074002" lon="10.43616348676997"><ele>631.0</ele><time>2026-04-18T16:08:45Z</time></trkpt><trkpt lat="45.68614386504587" lon="10.435947806599106"><ele>631.0</ele><time>2026-04-18T16:08:46Z</time></trkpt><trkpt lat="45.68607413823411" lon="10.435743995245502"><ele>631.0</ele><time>2026-04-18T16:08:47Z</time></trkpt><trkpt lat="45.685979753220444" lon="10.435571331698617"><ele>628.6666666666667</ele><time>2026-04-18T16:08:48Z</time></trkpt><trkpt lat="45.685854623476835" lon="10.435430785486478"><ele>626.3333333333334</ele><time>2026-04-18T16:08:49Z</time></trkpt><trkpt lat="45.685716392861416" lon="10.435324396599501"><ele>624.0</ele><time>2026-04-18T16:08:50Z</time></trkpt><trkpt lat="45.685570890589766" lon="10.43522915171028"><ele>624.0</ele><time>2026-04-18T16:08:51Z</time></trkpt><trkpt lat="45.685419781965706" lon="10.435143931151211"><ele>624.0</ele><time>2026-04-18T16:08:52Z</time></trkpt><trkpt lat="45.68527112618579" lon="10.43507363089097"><ele>624.0</ele><time>2026-04-18T16:08:53Z</time></trkpt><trkpt lat="45.68513727472013" lon="10.435003640789567"><ele>622.5</ele><time>2026-04-18T16:08:54Z</time></trkpt><trkpt lat="45.68501543635699" lon="10.434942363223435"><ele>621.0</ele><time>2026-04-18T16:08:55Z</time></trkpt><trkpt lat="45.684902372253276" lon="10.4348668765201"><ele>619.5</ele><time>2026-04-18T16:08:56Z</time></trkpt><trkpt lat="45.684819513161045" lon="10.434757215734843"><ele>618.0</ele><time>2026-04-18T16:08:57Z</time></trkpt><trkpt lat="45.68477502615583" lon="10.434607638940207"><ele>618.0</ele><time>2026-04-18T16:08:58Z</time></trkpt><trkpt lat="45.68474527266816" lon="10.434434402762877"><ele>618.0</ele><time>2026-04-18T16:08:59Z</time></trkpt><trkpt lat="45.68472200324806" lon="10.434233972090423"><ele>618.0</ele><time>2026-04-18T16:09:00Z</time></trkpt><trkpt lat="45.68473666809215" lon="10.434012466783066"><ele>618.0</ele><time>2026-04-18T16:09:01Z</time></trkpt><trkpt lat="45.68475707604715" lon="10.433799905139546"><ele>617.25</ele><time>2026-04-18T16:09:02Z</time></trkpt><trkpt lat="45.684774267157565" lon="10.433590162085588"><ele>616.5</ele><time>2026-04-18T16:09:03Z</time></trkpt><trkpt lat="45.68478238163878" lon="10.433382127698206"><ele>615.75</ele><time>2026-04-18T16:09:04Z</time></trkpt><trkpt lat="45.68474936495762" lon="10.433185194337575"><ele>615.0</ele><time>2026-04-18T16:09:05Z</time></trkpt><trkpt lat="45.68471845048637" lon="10.432993598084005"><ele>613.25</ele><time>2026-04-18T16:09:06Z</time></trkpt><trkpt lat="45.684678364303444" lon="10.432820586589775"><ele>611.5</ele><time>2026-04-18T16:09:07Z</time></trkpt><trkpt lat="45.68465362557592" lon="10.43265982564713"><ele>609.75</ele><time>2026-04-18T16:09:08Z</time></trkpt><trkpt lat="45.6846744570142" lon="10.432500422781843"><ele>608.0</ele><time>2026-04-18T16:09:09Z</time></trkpt><trkpt lat="45.684708160322195" lon="10.432352981777006"><ele>608.0</ele><time>2026-04-18T16:09:10Z</time></trkpt><trkpt lat="45.68473602851576" lon="10.432230069872247"><ele>608.0</ele><time>2026-04-18T16:09:11Z</time></trkpt><trkpt lat="45.68474314695294" lon="10.432111275164072"><ele>608.0</ele><time>2026-04-18T16:09:12Z</time></trkpt><trkpt lat="45.68470669079565" lon="10.432023924097969"><ele>608.0</ele><time>2026-04-18T16:09:13Z</time></trkpt><trkpt lat="45.68463704337684" lon="10.431999312558242"><ele>608.0</ele><time>2026-04-18T16:09:14Z</time></trkpt><trkpt lat="45.68456374256113" lon="10.432050553204437"><ele>608.0</ele><time>2026-04-18T16:09:15Z</time></trkpt><trkpt lat="45.68450223480115" lon="10.432159059748882"><ele>608.0</ele><time>2026-04-18T16:09:16Z</time></trkpt><trkpt lat="45.684474550825264" lon="10.432321382544957"><ele>608.0</ele><time>2026-04-18T16:09:17Z</time></trkpt><trkpt lat="45.684462357501914" lon="10.432514023614198"><ele>608.0</ele><time>2026-04-18T16:09:18Z</time></trkpt><trkpt lat="45.684444578613" lon="10.432691820131053"><ele>608.0</ele><time>2026-04-18T16:09:19Z</time></trkpt><trkpt lat="45.684441640847" lon="10.432846814474479"><ele>603.8</ele><time>2026-04-18T16:09:20Z</time></trkpt><trkpt lat="45.68442797131815" lon="10.432990123732242"><ele>599.5999999999999</ele><time>2026-04-18T16:09:21Z</time></trkpt><trkpt lat="45.68438724494064" lon="10.433115648653287"><ele>595.4000000000001</ele><time>2026-04-18T16:09:22Z</time></trkpt><trkpt lat="45.68433445661423" lon="10.433222643066884"><ele>591.2</ele><time>2026-04-18T16:09:23Z</time></trkpt><trkpt lat="45.68427325927806" lon="10.433338065947728"><ele>587.0</ele><time>2026-04-18T16:09:24Z</time></trkpt><trkpt lat="45.68420747441064" lon="10.433417307353151"><ele>587.0</ele><time>2026-04-18T16:09:25Z</time></trkpt><trkpt lat="45.6841686329499" lon="10.433499472416814"><ele>587.0</ele><time>2026-04-18T16:09:26Z</time></trkpt><trkpt lat="45.684103799945746" lon="10.433501553598612"><ele>587.0</ele><time>2026-04-18T16:09:27Z</time></trkpt><trkpt lat="45.6840455536819" lon="10.433444960933324"><ele>587.0</ele><time>2026-04-18T16:09:28Z</time></trkpt><trkpt lat="45.684041421816545" lon="10.433334844215896"><ele>587.0</ele><time>2026-04-18T16:09:29Z</time></trkpt><trkpt lat="45.684064031122844" lon="10.43309613922275"><ele>585.6666666666666</ele><time>2026-04-18T16:09:30Z</time></trkpt><trkpt lat="45.684062613953" lon="10.432837842496742"><ele>584.3333333333334</ele><time>2026-04-18T16:09:31Z</time></trkpt><trkpt lat="45.68406999918337" lon="10.432614928800751"><ele>583.0</ele><time>2026-04-18T16:09:32Z</time></trkpt><trkpt lat="45.68410706373506" lon="10.432436457690319"><ele>583.0</ele><time>2026-04-18T16:09:33Z</time></trkpt><trkpt lat="45.68416425253174" lon="10.432248855464364"><ele>583.0</ele><time>2026-04-18T16:09:34Z</time></trkpt><trkpt lat="45.68421730207073" lon="10.432006879828588"><ele>583.0</ele><time>2026-04-18T16:09:35Z</time></trkpt><trkpt lat="45.68424650463511" lon="10.43179404653547"><ele>580.5</ele><time>2026-04-18T16:09:36Z</time></trkpt><trkpt lat="45.68429286293701" lon="10.431623924650955"><ele>578.0</ele><time>2026-04-18T16:09:37Z</time></trkpt><trkpt lat="45.68431088856867" lon="10.431461947484973"><ele>575.5</ele><time>2026-04-18T16:09:38Z</time></trkpt><trkpt lat="45.684282536820675" lon="10.43127937821798"><ele>573.0</ele><time>2026-04-18T16:09:39Z</time></trkpt><trkpt lat="45.68424559770168" lon="10.431093683219066"><ele>571.0</ele><time>2026-04-18T16:09:40Z</time></trkpt><trkpt lat="45.68422749290264" lon="10.430961545243441"><ele>569.0</ele><time>2026-04-18T16:09:41Z</time></trkpt><trkpt lat="45.68422524569019" lon="10.43082478944792"><ele>567.0</ele><time>2026-04-18T16:09:42Z</time></trkpt><trkpt lat="45.68427145847009" lon="10.430685121924002"><ele>565.0</ele><time>2026-04-18T16:09:43Z</time></trkpt><trkpt lat="45.684394742787916" lon="10.430639464415137"><ele>563.0</ele><time>2026-04-18T16:09:44Z</time></trkpt><trkpt lat="45.684501120095504" lon="10.430470202953476"><ele>562.25</ele><time>2026-04-18T16:09:45Z</time></trkpt><trkpt lat="45.68454417449268" lon="10.430257783610797"><ele>561.5</ele><time>2026-04-18T16:09:46Z</time></trkpt><trkpt lat="45.68457618024705" lon="10.430068017658165"><ele>560.75</ele><time>2026-04-18T16:09:47Z</time></trkpt><trkpt lat="45.68464073536662" lon="10.429933324993556"><ele>560.0</ele><time>2026-04-18T16:09:48Z</time></trkpt><trkpt lat="45.68476076320589" lon="10.429861437690066"><ele>560.0</ele><time>2026-04-18T16:09:49Z</time></trkpt><trkpt lat="45.68487161092589" lon="10.42974356899946"><ele>560.0</ele><time>2026-04-18T16:09:50Z</time></trkpt><trkpt lat="45.68499366686729" lon="10.429639994664738"><ele>560.0</ele><time>2026-04-18T16:09:51Z</time></trkpt><trkpt lat="45.68508307058344" lon="10.429556817952761"><ele>560.0</ele><time>2026-04-18T16:09:52Z</time></trkpt><trkpt lat="45.685196817096674" lon="10.429511840454378"><ele>559.75</ele><time>2026-04-18T16:09:53.001Z</time></trkpt><trkpt lat="45.685315613275996" lon="10.429531537238134"><ele>559.5</ele><time>2026-04-18T16:09:54.001Z</time></trkpt><trkpt lat="45.68542903672039" lon="10.429570419085673"><ele>559.25</ele><time>2026-04-18T16:09:55.001Z</time></trkpt><trkpt lat="45.68554388505762" lon="10.429611696472337"><ele>559.0</ele><time>2026-04-18T16:09:56.001Z</time></trkpt><trkpt lat="45.685680320128874" lon="10.429725434383874"><ele>559.0</ele><time>2026-04-18T16:09:57.001Z</time></trkpt><trkpt lat="45.68579115953609" lon="10.429786500687618"><ele>559.0</ele><time>2026-04-18T16:09:58.001Z</time></trkpt><trkpt lat="45.68591422898479" lon="10.42982053043296"><ele>559.0</ele><time>2026-04-18T16:09:59.001Z</time></trkpt><trkpt lat="45.686040797499025" lon="10.429807187737417"><ele>559.0</ele><time>2026-04-18T16:10:00.001Z</time></trkpt><trkpt lat="45.686174181523725" lon="10.42972658401606"><ele>556.0</ele><time>2026-04-18T16:10:01.001Z</time></trkpt><trkpt lat="45.68628768724054" lon="10.429598235254526"><ele>553.0</ele><time>2026-04-18T16:10:02.001Z</time></trkpt><trkpt lat="45.68637362379084" lon="10.429452584995692"><ele>550.0</ele><time>2026-04-18T16:10:03.001Z</time></trkpt><trkpt lat="45.686421640677736" lon="10.429234905769576"><ele>547.0</ele><time>2026-04-18T16:10:04.001Z</time></trkpt><trkpt lat="45.68647565800121" lon="10.4290059440132"><ele>544.5</ele><time>2026-04-18T16:10:05.001Z</time></trkpt><trkpt lat="45.686535687521086" lon="10.428799574706378"><ele>542.0</ele><time>2026-04-18T16:10:06.001Z</time></trkpt><trkpt lat="45.686593642644475" lon="10.428613363918597"><ele>539.5</ele><time>2026-04-18T16:10:07.001Z</time></trkpt><trkpt lat="45.68666058396701" lon="10.428426860816192"><ele>537.0</ele><time>2026-04-18T16:10:08.001Z</time></trkpt><trkpt lat="45.686721665660635" lon="10.428240143849669"><ele>537.0</ele><time>2026-04-18T16:10:09.001Z</time></trkpt><trkpt lat="45.68682030614138" lon="10.428102008943094"><ele>537.0</ele><time>2026-04-18T16:10:10.001Z</time></trkpt><trkpt lat="45.68691537755218" lon="10.427968357524785"><ele>537.0</ele><time>2026-04-18T16:10:11.001Z</time></trkpt><trkpt lat="45.686985767147085" lon="10.42783604515198"><ele>537.0</ele><time>2026-04-18T16:10:12.001Z</time></trkpt><trkpt lat="45.68700334891734" lon="10.427674292878027"><ele>536.6666666666666</ele><time>2026-04-18T16:10:13.001Z</time></trkpt><trkpt lat="45.68696274935002" lon="10.42745161083898"><ele>536.3333333333333</ele><time>2026-04-18T16:10:14.001Z</time></trkpt><trkpt lat="45.68687328017944" lon="10.427223049910193"><ele>536.0</ele><time>2026-04-18T16:10:15.001Z</time></trkpt><trkpt lat="45.68677377916452" lon="10.426994204759437"><ele>536.0</ele><time>2026-04-18T16:10:16.001Z</time></trkpt><trkpt lat="45.68670051640667" lon="10.42676394096815"><ele>536.0</ele><time>2026-04-18T16:10:17.001Z</time></trkpt><trkpt lat="45.686634963423465" lon="10.426543334805201"><ele>536.0</ele><time>2026-04-18T16:10:18.001Z</time></trkpt><trkpt lat="45.68659604677083" lon="10.426352141725985"><ele>535.25</ele><time>2026-04-18T16:10:19.001Z</time></trkpt><trkpt lat="45.686591914183005" lon="10.426172694064647"><ele>534.5</ele><time>2026-04-18T16:10:20.001Z</time></trkpt><trkpt lat="45.68658920025065" lon="10.425986362739259"><ele>533.75</ele><time>2026-04-18T16:10:21.001Z</time></trkpt><trkpt lat="45.68658695911677" lon="10.425814926510466"><ele>533.0</ele><time>2026-04-18T16:10:22.001Z</time></trkpt><trkpt lat="45.68659313596051" lon="10.425633944942133"><ele>530.6</ele><time>2026-04-18T16:10:23.001Z</time></trkpt><trkpt lat="45.68663685033911" lon="10.425478303731165"><ele>528.1999999999999</ele><time>2026-04-18T16:10:24.001Z</time></trkpt><trkpt lat="45.686672595925856" lon="10.425299050600252"><ele>525.8</ele><time>2026-04-18T16:10:25.001Z</time></trkpt><trkpt lat="45.68669496727098" lon="10.42514037369956"><ele>523.4</ele><time>2026-04-18T16:10:26.001Z</time></trkpt><trkpt lat="45.686713373637865" lon="10.425040024155294"><ele>521.0</ele><time>2026-04-18T16:10:27.001Z</time></trkpt><trkpt lat="45.68675771604664" lon="10.42495401568918"><ele>521.0</ele><time>2026-04-18T16:10:28.001Z</time></trkpt><trkpt lat="45.68685400025179" lon="10.424954911113163"><ele>521.0</ele><time>2026-04-18T16:10:29.001Z</time></trkpt><trkpt lat="45.68695693690231" lon="10.424864195692631"><ele>521.0</ele><time>2026-04-18T16:10:30.001Z</time></trkpt><trkpt lat="45.68707874188662" lon="10.42472362566231"><ele>521.0</ele><time>2026-04-18T16:10:31.001Z</time></trkpt><trkpt lat="45.687209176898236" lon="10.424577230191188"><ele>524.5</ele><time>2026-04-18T16:10:32.001Z</time></trkpt><trkpt lat="45.6873222961368" lon="10.424454485306908"><ele>528.0</ele><time>2026-04-18T16:10:33.001Z</time></trkpt><trkpt lat="45.68738497026592" lon="10.424292548764464"><ele>531.5</ele><time>2026-04-18T16:10:34.001Z</time></trkpt><trkpt lat="45.6873871738015" lon="10.424082132177631"><ele>535.0</ele><time>2026-04-18T16:10:35.001Z</time></trkpt><trkpt lat="45.687338344849366" lon="10.423868274364377"><ele>534.6666666666667</ele><time>2026-04-18T16:10:36Z</time></trkpt><trkpt lat="45.68724281812408" lon="10.423664798110657"><ele>534.3333333333334</ele><time>2026-04-18T16:10:37Z</time></trkpt><trkpt lat="45.68714266717852" lon="10.423460055340582"><ele>534.0</ele><time>2026-04-18T16:10:38Z</time></trkpt><trkpt lat="45.68707437427781" lon="10.423216767249755"><ele>534.25</ele><time>2026-04-18T16:10:39Z</time></trkpt><trkpt lat="45.68703732006" lon="10.422975534581695"><ele>534.5</ele><time>2026-04-18T16:10:40Z</time></trkpt><trkpt lat="45.68700807420216" lon="10.422787574022243"><ele>534.75</ele><time>2026-04-18T16:10:41Z</time></trkpt><trkpt lat="45.6869768114655" lon="10.422624504826098"><ele>535.0</ele><time>2026-04-18T16:10:42Z</time></trkpt><trkpt lat="45.6869308251615" lon="10.42249736834126"><ele>532.25</ele><time>2026-04-18T16:10:43Z</time></trkpt><trkpt lat="45.68683576195862" lon="10.422400234507672"><ele>529.5</ele><time>2026-04-18T16:10:44Z</time></trkpt><trkpt lat="45.68670522305725" lon="10.422374754066803"><ele>526.75</ele><time>2026-04-18T16:10:45Z</time></trkpt><trkpt lat="45.68655932437906" lon="10.42239451803003"><ele>524.0</ele><time>2026-04-18T16:10:46Z</time></trkpt><trkpt lat="45.68640760182045" lon="10.422427518907467"><ele>524.0</ele><time>2026-04-18T16:10:47Z</time></trkpt><trkpt lat="45.68626280713504" lon="10.42244791697836"><ele>524.0</ele><time>2026-04-18T16:10:48Z</time></trkpt><trkpt lat="45.68613056745674" lon="10.422463656909457"><ele>524.0</ele><time>2026-04-18T16:10:49Z</time></trkpt><trkpt lat="45.686013447813224" lon="10.422478413296542"><ele>524.0</ele><time>2026-04-18T16:10:50Z</time></trkpt><trkpt lat="45.68589518062382" lon="10.42249220369553"><ele>522.2</ele><time>2026-04-18T16:10:51Z</time></trkpt><trkpt lat="45.685795788598874" lon="10.42250976800024"><ele>520.4</ele><time>2026-04-18T16:10:52Z</time></trkpt><trkpt lat="45.68568488877478" lon="10.422517330054056"><ele>518.6</ele><time>2026-04-18T16:10:53Z</time></trkpt><trkpt lat="45.68559389764721" lon="10.422532565462491"><ele>516.8</ele><time>2026-04-18T16:10:54Z</time></trkpt><trkpt lat="45.68550015318288" lon="10.422511853265611"><ele>515.0</ele><time>2026-04-18T16:10:55Z</time></trkpt><trkpt lat="45.6854255058563" lon="10.422449814953941"><ele>515.0</ele><time>2026-04-18T16:10:56Z</time></trkpt><trkpt lat="45.68537282323851" lon="10.422342552900478"><ele>515.0</ele><time>2026-04-18T16:10:57Z</time></trkpt><trkpt lat="45.68531733356392" lon="10.42226945572227"><ele>515.0</ele><time>2026-04-18T16:10:58Z</time></trkpt><trkpt lat="45.68527746457088" lon="10.422186134921313"><ele>515.0</ele><time>2026-04-18T16:10:59Z</time></trkpt><trkpt lat="45.685208061523824" lon="10.422133854092534"><ele>515.0</ele><time>2026-04-18T16:11:00Z</time></trkpt><trkpt lat="45.68512709242916" lon="10.422109104356727"><ele>515.0</ele><time>2026-04-18T16:11:01Z</time></trkpt><trkpt lat="45.68504774816937" lon="10.422100757737967"><ele>512.2</ele><time>2026-04-18T16:11:02Z</time></trkpt><trkpt lat="45.68497489381633" lon="10.422079194026058"><ele>509.4</ele><time>2026-04-18T16:11:03Z</time></trkpt><trkpt lat="45.68486184825675" lon="10.422044830148646"><ele>506.6</ele><time>2026-04-18T16:11:05Z</time></trkpt><trkpt lat="45.68479729348954" lon="10.42200680423488"><ele>503.8</ele><time>2026-04-18T16:11:06Z</time></trkpt><trkpt lat="45.68468627074144" lon="10.421972413870897"><ele>501.0</ele><time>2026-04-18T16:11:08Z</time></trkpt><trkpt lat="45.68459395057313" lon="10.421961694699217"><ele>501.0</ele><time>2026-04-18T16:11:10Z</time></trkpt><trkpt lat="45.68449604351498" lon="10.421904455579726"><ele>501.0</ele><time>2026-04-18T16:11:12Z</time></trkpt><trkpt lat="45.68445092620095" lon="10.42182169549086"><ele>501.0</ele><time>2026-04-18T16:11:13Z</time></trkpt><trkpt lat="45.68447179675822" lon="10.421660013080183"><ele>501.0</ele><time>2026-04-18T16:11:15Z</time></trkpt><trkpt lat="45.68453422588647" lon="10.421609739558887"><ele>501.0</ele><time>2026-04-18T16:11:17Z</time></trkpt><trkpt lat="45.68463508270731" lon="10.421609611067339"><ele>501.0</ele><time>2026-04-18T16:11:19Z</time></trkpt><trkpt lat="45.684767471708795" lon="10.421618883066978"><ele>501.0</ele><time>2026-04-18T16:11:21Z</time></trkpt><trkpt lat="45.68483143390148" lon="10.42161952186779"><ele>501.0</ele><time>2026-04-18T16:11:22Z</time></trkpt><trkpt lat="45.684938149080665" lon="10.42167520862904"><ele>501.0</ele><time>2026-04-18T16:11:24Z</time></trkpt><trkpt lat="45.68498950530764" lon="10.421615503646946"><ele>501.0</ele><time>2026-04-18T16:11:25Z</time></trkpt><trkpt lat="45.68500842917993" lon="10.42152455577514"><ele>501.0</ele><time>2026-04-18T16:11:26Z</time></trkpt><trkpt lat="45.68492970536397" lon="10.42137591003044"><ele>501.0</ele><time>2026-04-18T16:11:28Z</time></trkpt><trkpt lat="45.68484863634729" lon="10.42135126838718"><ele>501.0</ele><time>2026-04-18T16:11:29Z</time></trkpt><trkpt lat="45.68477771716817" lon="10.421351349096646"><ele>501.0</ele><time>2026-04-18T16:11:30Z</time></trkpt><trkpt lat="45.68470985285499" lon="10.421339863372177"><ele>501.0</ele><time>2026-04-18T16:11:31Z</time></trkpt><trkpt lat="45.684647671427875" lon="10.421304288513115"><ele>501.0</ele><time>2026-04-18T16:11:32Z</time></trkpt><trkpt lat="45.684585360539685" lon="10.421255058869502"><ele>501.0</ele><time>2026-04-18T16:11:33Z</time></trkpt><trkpt lat="45.68452538899921" lon="10.421207084283488"><ele>501.0</ele><time>2026-04-18T16:11:34Z</time></trkpt><trkpt lat="45.68446078679641" lon="10.421159952469173"><ele>495.6666666666667</ele><time>2026-04-18T16:11:35Z</time></trkpt><trkpt lat="45.68438967872828" lon="10.421118310136887"><ele>490.33333333333337</ele><time>2026-04-18T16:11:36Z</time></trkpt><trkpt lat="45.68431480024368" lon="10.421088270422718"><ele>485.0</ele><time>2026-04-18T16:11:37Z</time></trkpt><trkpt lat="45.684233899113195" lon="10.421074827267562"><ele>479.6666666666667</ele><time>2026-04-18T16:11:38Z</time></trkpt><trkpt lat="45.68415457111037" lon="10.421076552208932"><ele>474.33333333333337</ele><time>2026-04-18T16:11:39Z</time></trkpt><trkpt lat="45.6840849375347" lon="10.42108813097963"><ele>469.0</ele><time>2026-04-18T16:11:40Z</time></trkpt><trkpt lat="45.68401927248871" lon="10.42110554564556"><ele>469.0</ele><time>2026-04-18T16:11:41Z</time></trkpt><trkpt lat="45.68390597146106" lon="10.421133236294693"><ele>469.0</ele><time>2026-04-18T16:11:43Z</time></trkpt><trkpt lat="45.683802026721494" lon="10.42109632433694"><ele>469.0</ele><time>2026-04-18T16:11:45Z</time></trkpt><trkpt lat="45.683781366342835" lon="10.420954544348229"><ele>469.0</ele><time>2026-04-18T16:11:47Z</time></trkpt><trkpt lat="45.68388047787883" lon="10.420868546346634"><ele>469.0</ele><time>2026-04-18T16:11:49Z</time></trkpt><trkpt lat="45.683947733244246" lon="10.420882040617615"><ele>469.0</ele><time>2026-04-18T16:11:50Z</time></trkpt><trkpt lat="45.684027114859006" lon="10.420843836251915"><ele>469.0</ele><time>2026-04-18T16:11:51Z</time></trkpt><trkpt lat="45.68411479633168" lon="10.42082608041864"><ele>469.0</ele><time>2026-04-18T16:11:52Z</time></trkpt><trkpt lat="45.684209140740904" lon="10.420794255601908"><ele>469.0</ele><time>2026-04-18T16:11:53Z</time></trkpt><trkpt lat="45.68433863119791" lon="10.420767197973186"><ele>469.0</ele><time>2026-04-18T16:11:54Z</time></trkpt><trkpt lat="45.68453014005886" lon="10.420631099440556"><ele>470.33333333333337</ele><time>2026-04-18T16:11:55Z</time></trkpt><trkpt lat="45.684690488615054" lon="10.420459803941936"><ele>471.66666666666663</ele><time>2026-04-18T16:11:56Z</time></trkpt><trkpt lat="45.68484292200965" lon="10.420328948457072"><ele>473.0</ele><time>2026-04-18T16:11:57Z</time></trkpt><trkpt lat="45.68495245008897" lon="10.420196271692031"><ele>473.0</ele><time>2026-04-18T16:11:58Z</time></trkpt><trkpt lat="45.685039773315516" lon="10.420063118737948"><ele>473.0</ele><time>2026-04-18T16:11:59Z</time></trkpt><trkpt lat="45.685088052351595" lon="10.419879184797054"><ele>473.0</ele><time>2026-04-18T16:12:00Z</time></trkpt><trkpt lat="45.685090654398586" lon="10.419644362906528"><ele>473.0</ele><time>2026-04-18T16:12:01.001Z</time></trkpt><trkpt lat="45.685122724959" lon="10.419412337840527"><ele>474.25</ele><time>2026-04-18T16:12:02.001Z</time></trkpt><trkpt lat="45.68518168523318" lon="10.41921719793386"><ele>475.5</ele><time>2026-04-18T16:12:03.001Z</time></trkpt><trkpt lat="45.68523393778549" lon="10.419023838009045"><ele>476.75</ele><time>2026-04-18T16:12:04.001Z</time></trkpt><trkpt lat="45.68530755250018" lon="10.41886596641579"><ele>478.0</ele><time>2026-04-18T16:12:05.001Z</time></trkpt><trkpt lat="45.6853600271477" lon="10.418730190381227"><ele>478.0</ele><time>2026-04-18T16:12:06.001Z</time></trkpt><trkpt lat="45.68539302411587" lon="10.41861622412716"><ele>477.99999999999994</ele><time>2026-04-18T16:12:07.001Z</time></trkpt><trkpt lat="45.68537434121672" lon="10.418494480672344"><ele>477.99999999999994</ele><time>2026-04-18T16:12:08.001Z</time></trkpt><trkpt lat="45.68530005271275" lon="10.418419077601326"><ele>478.0</ele><time>2026-04-18T16:12:09.001Z</time></trkpt><trkpt lat="45.68520315788805" lon="10.418394096071863"><ele>478.0</ele><time>2026-04-18T16:12:10.001Z</time></trkpt><trkpt lat="45.6851075716061" lon="10.41847616715919"><ele>470.75</ele><time>2026-04-18T16:12:11.001Z</time></trkpt><trkpt lat="45.68502938472375" lon="10.41859263491576"><ele>463.5</ele><time>2026-04-18T16:12:12.001Z</time></trkpt><trkpt lat="45.68494017582298" lon="10.418612898247925"><ele>456.25</ele><time>2026-04-18T16:12:13.001Z</time></trkpt><trkpt lat="45.68481665418491" lon="10.41853541089862"><ele>449.0</ele><time>2026-04-18T16:12:14.001Z</time></trkpt><trkpt lat="45.684719236034056" lon="10.41838576371388"><ele>449.0</ele><time>2026-04-18T16:12:15.001Z</time></trkpt><trkpt lat="45.684601384136606" lon="10.41828151675362"><ele>449.0</ele><time>2026-04-18T16:12:16.001Z</time></trkpt><trkpt lat="45.684546976367784" lon="10.418164525385984"><ele>449.0</ele><time>2026-04-18T16:12:17.001Z</time></trkpt><trkpt lat="45.68450708193394" lon="10.418037660704204"><ele>449.0</ele><time>2026-04-18T16:12:18.001Z</time></trkpt><trkpt lat="45.68448553500147" lon="10.417915251085597"><ele>449.0</ele><time>2026-04-18T16:12:19.001Z</time></trkpt><trkpt lat="45.68453136780152" lon="10.417752949635597"><ele>449.0</ele><time>2026-04-18T16:12:20.001Z</time></trkpt><trkpt lat="45.68456476553306" lon="10.417569174748033"><ele>449.0</ele><time>2026-04-18T16:12:21.001Z</time></trkpt><trkpt lat="45.68460987493722" lon="10.417339501468204"><ele>449.0</ele><time>2026-04-18T16:12:22.001Z</time></trkpt><trkpt lat="45.68465349179717" lon="10.417141571609076"><ele>449.0</ele><time>2026-04-18T16:12:23.001Z</time></trkpt><trkpt lat="45.684700084617035" lon="10.41697469638867"><ele>447.6</ele><time>2026-04-18T16:12:24.001Z</time></trkpt><trkpt lat="45.684752750150665" lon="10.416832064115823"><ele>446.2</ele><time>2026-04-18T16:12:25.001Z</time></trkpt><trkpt lat="45.68480542229591" lon="10.416693697320044"><ele>444.80000000000007</ele><time>2026-04-18T16:12:26.001Z</time></trkpt><trkpt lat="45.68483834276357" lon="10.416561745687213"><ele>443.40000000000003</ele><time>2026-04-18T16:12:27.001Z</time></trkpt><trkpt lat="45.68487255322256" lon="10.416442067734096"><ele>442.0</ele><time>2026-04-18T16:12:28.001Z</time></trkpt><trkpt lat="45.68487786960802" lon="10.416335983996696"><ele>442.0</ele><time>2026-04-18T16:12:29.001Z</time></trkpt><trkpt lat="45.68482921522206" lon="10.41625760273289"><ele>442.00000000000006</ele><time>2026-04-18T16:12:30.001Z</time></trkpt><trkpt lat="45.68473755001963" lon="10.416232544051942"><ele>442.00000000000006</ele><time>2026-04-18T16:12:31.001Z</time></trkpt><trkpt lat="45.684655235658745" lon="10.416315459035275"><ele>442.0</ele><time>2026-04-18T16:12:32.001Z</time></trkpt><trkpt lat="45.68459722104384" lon="10.416461268391366"><ele>442.0</ele><time>2026-04-18T16:12:33.001Z</time></trkpt><trkpt lat="45.68452668586752" lon="10.416579786450148"><ele>436.25</ele><time>2026-04-18T16:12:34.001Z</time></trkpt><trkpt lat="45.684410897495034" lon="10.416623552817587"><ele>430.5</ele><time>2026-04-18T16:12:35.001Z</time></trkpt><trkpt lat="45.684274407257604" lon="10.416600878572225"><ele>424.75</ele><time>2026-04-18T16:12:36.001Z</time></trkpt><trkpt lat="45.68413872280326" lon="10.416560236467584"><ele>419.0</ele><time>2026-04-18T16:12:37.001Z</time></trkpt><trkpt lat="45.68400629765787" lon="10.416539949247705"><ele>419.0</ele><time>2026-04-18T16:12:38.001Z</time></trkpt><trkpt lat="45.683878120245566" lon="10.416574504521384"><ele>419.0</ele><time>2026-04-18T16:12:39.001Z</time></trkpt><trkpt lat="45.68376237359133" lon="10.416695929961692"><ele>419.0</ele><time>2026-04-18T16:12:40.001Z</time></trkpt><trkpt lat="45.68365164489067" lon="10.416805315748553"><ele>419.0</ele><time>2026-04-18T16:12:41.001Z</time></trkpt><trkpt lat="45.68355591173424" lon="10.416890026564658"><ele>415.75</ele><time>2026-04-18T16:12:42Z</time></trkpt><trkpt lat="45.68345948519281" lon="10.416977751533256"><ele>412.5</ele><time>2026-04-18T16:12:43Z</time></trkpt><trkpt lat="45.6834184387537" lon="10.417117761739242"><ele>409.25</ele><time>2026-04-18T16:12:44Z</time></trkpt><trkpt lat="45.68341023520539" lon="10.417279194914359"><ele>406.0</ele><time>2026-04-18T16:12:45Z</time></trkpt><trkpt lat="45.6834446455741" lon="10.41745723569947"><ele>406.0</ele><time>2026-04-18T16:12:46Z</time></trkpt><trkpt lat="45.683509259091856" lon="10.417620575141761"><ele>406.0</ele><time>2026-04-18T16:12:47Z</time></trkpt><trkpt lat="45.68353201220584" lon="10.417772894027033"><ele>406.0</ele><time>2026-04-18T16:12:48Z</time></trkpt><trkpt lat="45.68354617503398" lon="10.417900199279604"><ele>406.0</ele><time>2026-04-18T16:12:49Z</time></trkpt><trkpt lat="45.68352849229641" lon="10.4180138196183"><ele>406.0</ele><time>2026-04-18T16:12:50Z</time></trkpt><trkpt lat="45.68346097354709" lon="10.418091766767088"><ele>407.4</ele><time>2026-04-18T16:12:51Z</time></trkpt><trkpt lat="45.68337500518622" lon="10.41811128042831"><ele>408.8</ele><time>2026-04-18T16:12:52Z</time></trkpt><trkpt lat="45.68327952683635" lon="10.418113463750053"><ele>410.2</ele><time>2026-04-18T16:12:53Z</time></trkpt><trkpt lat="45.683175617113456" lon="10.418153670304847"><ele>411.59999999999997</ele><time>2026-04-18T16:12:54Z</time></trkpt><trkpt lat="45.683064811236235" lon="10.41819811453984"><ele>413.0</ele><time>2026-04-18T16:12:55Z</time></trkpt><trkpt lat="45.68295500711055" lon="10.418297456376175"><ele>413.0</ele><time>2026-04-18T16:12:56Z</time></trkpt><trkpt lat="45.682847151720935" lon="10.418431714514897"><ele>413.0</ele><time>2026-04-18T16:12:57Z</time></trkpt><trkpt lat="45.682740319371455" lon="10.418581544353584"><ele>413.0</ele><time>2026-04-18T16:12:58Z</time></trkpt><trkpt lat="45.68266372792243" lon="10.41876440388163"><ele>413.0</ele><time>2026-04-18T16:12:59Z</time></trkpt><trkpt lat="45.682566311342704" lon="10.418948549876168"><ele>410.5</ele><time>2026-04-18T16:13:00Z</time></trkpt><trkpt lat="45.682482585379" lon="10.419135709983184"><ele>408.0</ele><time>2026-04-18T16:13:01Z</time></trkpt><trkpt lat="45.6824235029209" lon="10.419325485358241"><ele>405.5</ele><time>2026-04-18T16:13:02Z</time></trkpt><trkpt lat="45.68236728394863" lon="10.419511357853647"><ele>403.0</ele><time>2026-04-18T16:13:03Z</time></trkpt><trkpt lat="45.68232150284706" lon="10.419710990152957"><ele>403.0</ele><time>2026-04-18T16:13:04Z</time></trkpt><trkpt lat="45.6823026148777" lon="10.41992002160233"><ele>403.0</ele><time>2026-04-18T16:13:05Z</time></trkpt><trkpt lat="45.682299886639406" lon="10.420120251896092"><ele>403.0</ele><time>2026-04-18T16:13:06Z</time></trkpt><trkpt lat="45.682322532640775" lon="10.420292552156276"><ele>403.0</ele><time>2026-04-18T16:13:07Z</time></trkpt><trkpt lat="45.682319485525966" lon="10.420441212123462"><ele>403.4</ele><time>2026-04-18T16:13:08Z</time></trkpt><trkpt lat="45.682287589001724" lon="10.420567562320695"><ele>403.79999999999995</ele><time>2026-04-18T16:13:09Z</time></trkpt><trkpt lat="45.68223604980657" lon="10.420624663471143"><ele>404.2</ele><time>2026-04-18T16:13:10Z</time></trkpt><trkpt lat="45.68214512281361" lon="10.420639689659705"><ele>404.6</ele><time>2026-04-18T16:13:11Z</time></trkpt><trkpt lat="45.68202549477152" lon="10.42054568056216"><ele>405.0</ele><time>2026-04-18T16:13:12Z</time></trkpt><trkpt lat="45.68191380483497" lon="10.420383132931793"><ele>399.0</ele><time>2026-04-18T16:13:13Z</time></trkpt><trkpt lat="45.68180502695055" lon="10.420231373620993"><ele>393.0</ele><time>2026-04-18T16:13:14Z</time></trkpt><trkpt lat="45.681691790060526" lon="10.420092469142727"><ele>387.0</ele><time>2026-04-18T16:13:15Z</time></trkpt><trkpt lat="45.68157800817055" lon="10.41995623565522"><ele>381.0</ele><time>2026-04-18T16:13:16Z</time></trkpt><trkpt lat="45.681463141951745" lon="10.419809393858138"><ele>381.0</ele><time>2026-04-18T16:13:17Z</time></trkpt><trkpt lat="45.681357464728066" lon="10.419682278146103"><ele>381.0</ele><time>2026-04-18T16:13:18Z</time></trkpt><trkpt lat="45.68125208685856" lon="10.419564072361068"><ele>381.0</ele><time>2026-04-18T16:13:19Z</time></trkpt><trkpt lat="45.681146539596895" lon="10.41944196206262"><ele>381.0</ele><time>2026-04-18T16:13:20Z</time></trkpt><trkpt lat="45.681049780471795" lon="10.419326834295937"><ele>380.4</ele><time>2026-04-18T16:13:21Z</time></trkpt><trkpt lat="45.68095767658357" lon="10.419201206606498"><ele>379.8</ele><time>2026-04-18T16:13:22Z</time></trkpt><trkpt lat="45.68087828072455" lon="10.419099821207704"><ele>379.2</ele><time>2026-04-18T16:13:23Z</time></trkpt><trkpt lat="45.68080327662193" lon="10.419020451660536"><ele>378.59999999999997</ele><time>2026-04-18T16:13:24Z</time></trkpt><trkpt lat="45.68073731759555" lon="10.41892992779167"><ele>378.0</ele><time>2026-04-18T16:13:25Z</time></trkpt><trkpt lat="45.680707906945074" lon="10.418819624153837"><ele>378.2</ele><time>2026-04-18T16:13:26Z</time></trkpt><trkpt lat="45.68075419925886" lon="10.418698947340143"><ele>378.4</ele><time>2026-04-18T16:13:27Z</time></trkpt><trkpt lat="45.680820925919456" lon="10.41863165493155"><ele>378.59999999999997</ele><time>2026-04-18T16:13:28Z</time></trkpt><trkpt lat="45.68091696313396" lon="10.418653171808277"><ele>378.79999999999995</ele><time>2026-04-18T16:13:29Z</time></trkpt><trkpt lat="45.681007412023035" lon="10.418749017807349"><ele>379.0</ele><time>2026-04-18T16:13:30Z</time></trkpt><trkpt lat="45.68110266029928" lon="10.418839122861026"><ele>379.0</ele><time>2026-04-18T16:13:31Z</time></trkpt><trkpt lat="45.68120244931491" lon="10.418857237985831"><ele>379.0</ele><time>2026-04-18T16:13:32Z</time></trkpt><trkpt lat="45.68131077711026" lon="10.418823382937646"><ele>379.0</ele><time>2026-04-18T16:13:33Z</time></trkpt><trkpt lat="45.68140852027249" lon="10.41870568683427"><ele>379.0</ele><time>2026-04-18T16:13:34Z</time></trkpt><trkpt lat="45.68143920054695" lon="10.418564321433879"><ele>379.0</ele><time>2026-04-18T16:13:35Z</time></trkpt><trkpt lat="45.681458346047144" lon="10.418444722676213"><ele>378.3333333333333</ele><time>2026-04-18T16:13:36Z</time></trkpt><trkpt lat="45.681430041344036" lon="10.418321151726616"><ele>377.6666666666667</ele><time>2026-04-18T16:13:37Z</time></trkpt><trkpt lat="45.6813453085221" lon="10.418076224168303"><ele>377.0</ele><time>2026-04-18T16:13:38Z</time></trkpt><trkpt lat="45.68126804346762" lon="10.417792065201725"><ele>375.25</ele><time>2026-04-18T16:13:39Z</time></trkpt><trkpt lat="45.681282090679225" lon="10.417583712369778"><ele>373.5</ele><time>2026-04-18T16:13:40Z</time></trkpt><trkpt lat="45.681318274822644" lon="10.4173856290407"><ele>371.75</ele><time>2026-04-18T16:13:41Z</time></trkpt><trkpt lat="45.68136848404267" lon="10.41717676255839"><ele>370.0</ele><time>2026-04-18T16:13:42Z</time></trkpt><trkpt lat="45.68141729958938" lon="10.416951755319133"><ele>367.66666666666663</ele><time>2026-04-18T16:13:43Z</time></trkpt><trkpt lat="45.68145372516195" lon="10.416718160107056"><ele>365.3333333333333</ele><time>2026-04-18T16:13:44Z</time></trkpt><trkpt lat="45.68152174420694" lon="10.41646313545025"><ele>363.0</ele><time>2026-04-18T16:13:45Z</time></trkpt><trkpt lat="45.681571142461614" lon="10.416222311966566"><ele>361.3333333333333</ele><time>2026-04-18T16:13:46Z</time></trkpt><trkpt lat="45.68160166871868" lon="10.415996846824687"><ele>359.66666666666663</ele><time>2026-04-18T16:13:47Z</time></trkpt><trkpt lat="45.68164686579293" lon="10.415788388283119"><ele>358.0</ele><time>2026-04-18T16:13:48Z</time></trkpt><trkpt lat="45.681657579205954" lon="10.415566320893705"><ele>354.66666666666663</ele><time>2026-04-18T16:13:49Z</time></trkpt><trkpt lat="45.68164360859346" lon="10.415353545059919"><ele>351.3333333333333</ele><time>2026-04-18T16:13:50Z</time></trkpt><trkpt lat="45.68160297219931" lon="10.415157309664417"><ele>348.0</ele><time>2026-04-18T16:13:51Z</time></trkpt><trkpt lat="45.68154893800737" lon="10.414936988091348"><ele>348.0</ele><time>2026-04-18T16:13:52Z</time></trkpt><trkpt lat="45.68151286918546" lon="10.414761008685666"><ele>348.0</ele><time>2026-04-18T16:13:53Z</time></trkpt><trkpt lat="45.68147196855451" lon="10.41455271853256"><ele>348.0</ele><time>2026-04-18T16:13:54Z</time></trkpt><trkpt lat="45.68143885271999" lon="10.41436855347445"><ele>348.0</ele><time>2026-04-18T16:13:55Z</time></trkpt><trkpt lat="45.68141146167354" lon="10.414201089951021"><ele>348.0</ele><time>2026-04-18T16:13:56Z</time></trkpt><trkpt lat="45.68141562262713" lon="10.414033488993665"><ele>348.0</ele><time>2026-04-18T16:13:57Z</time></trkpt><trkpt lat="45.68142223303306" lon="10.413878859875643"><ele>348.0</ele><time>2026-04-18T16:13:58Z</time></trkpt><trkpt lat="45.68145080683659" lon="10.413714781126112"><ele>348.0</ele><time>2026-04-18T16:13:59Z</time></trkpt><trkpt lat="45.681483919260764" lon="10.413530212384213"><ele>345.75</ele><time>2026-04-18T16:14:00Z</time></trkpt><trkpt lat="45.68154462888461" lon="10.413359674017716"><ele>343.5</ele><time>2026-04-18T16:14:01Z</time></trkpt><trkpt lat="45.68163187883643" lon="10.413200962229283"><ele>341.25</ele><time>2026-04-18T16:14:02Z</time></trkpt><trkpt lat="45.68171627651241" lon="10.413051858996704"><ele>339.0</ele><time>2026-04-18T16:14:03Z</time></trkpt><trkpt lat="45.681790305488185" lon="10.412907809790257"><ele>338.0</ele><time>2026-04-18T16:14:04.001Z</time></trkpt><trkpt lat="45.681846962885075" lon="10.412759679098917"><ele>337.0</ele><time>2026-04-18T16:14:05.001Z</time></trkpt><trkpt lat="45.68187303432066" lon="10.412606211998733"><ele>336.0</ele><time>2026-04-18T16:14:06.001Z</time></trkpt><trkpt lat="45.68185623850024" lon="10.412436076563093"><ele>335.0</ele><time>2026-04-18T16:14:07.001Z</time></trkpt><trkpt lat="45.68176057735011" lon="10.412269255534452"><ele>335.0</ele><time>2026-04-18T16:14:08.001Z</time></trkpt><trkpt lat="45.68168365369518" lon="10.41211106894008"><ele>335.0</ele><time>2026-04-18T16:14:09.001Z</time></trkpt><trkpt lat="45.68163078190684" lon="10.411966282128642"><ele>335.0</ele><time>2026-04-18T16:14:10.001Z</time></trkpt><trkpt lat="45.68159219091584" lon="10.411845865772817"><ele>335.0</ele><time>2026-04-18T16:14:11.001Z</time></trkpt><trkpt lat="45.68154560763326" lon="10.411693773590018"><ele>335.0</ele><time>2026-04-18T16:14:13.001Z</time></trkpt><trkpt lat="45.681488428914925" lon="10.41164699250455"><ele>335.0</ele><time>2026-04-18T16:14:15.001Z</time></trkpt><trkpt lat="45.68144596452002" lon="10.411478111038399"><ele>335.0</ele><time>2026-04-18T16:14:17.001Z</time></trkpt><trkpt lat="45.681401346553564" lon="10.411386632196141"><ele>335.0</ele><time>2026-04-18T16:14:18.001Z</time></trkpt><trkpt lat="45.68136176770706" lon="10.411292715602158"><ele>335.0</ele><time>2026-04-18T16:14:19.001Z</time></trkpt><trkpt lat="45.68133463924132" lon="10.411204404129386"><ele>335.0</ele><time>2026-04-18T16:14:20.001Z</time></trkpt><trkpt lat="45.68130558294134" lon="10.411115299763496"><ele>333.8</ele><time>2026-04-18T16:14:21.001Z</time></trkpt><trkpt lat="45.6812982969632" lon="10.411011672886165"><ele>332.6</ele><time>2026-04-18T16:14:22.001Z</time></trkpt><trkpt lat="45.68130810607265" lon="10.41089377769812"><ele>331.4</ele><time>2026-04-18T16:14:23.001Z</time></trkpt><trkpt lat="45.68134889432446" lon="10.41079467931131"><ele>330.2</ele><time>2026-04-18T16:14:24.001Z</time></trkpt><trkpt lat="45.68143082525391" lon="10.410757734777267"><ele>329.0</ele><time>2026-04-18T16:14:25.001Z</time></trkpt><trkpt lat="45.68155158719304" lon="10.41069710815824"><ele>329.0</ele><time>2026-04-18T16:14:27.001Z</time></trkpt><trkpt lat="45.6816226451613" lon="10.410651557978756"><ele>329.0</ele><time>2026-04-18T16:14:28.001Z</time></trkpt><trkpt lat="45.68169084576372" lon="10.410608792395351"><ele>329.0</ele><time>2026-04-18T16:14:29.001Z</time></trkpt><trkpt lat="45.6817570749665" lon="10.410557090695093"><ele>329.0</ele><time>2026-04-18T16:14:30.001Z</time></trkpt><trkpt lat="45.68181115629501" lon="10.410505019498475"><ele>329.0</ele><time>2026-04-18T16:14:31.001Z</time></trkpt><trkpt lat="45.68183019652255" lon="10.410399053398715"><ele>329.0</ele><time>2026-04-18T16:14:32.001Z</time></trkpt><trkpt lat="45.681791924807406" lon="10.410277428390625"><ele>327.2</ele><time>2026-04-18T16:14:33.001Z</time></trkpt><trkpt lat="45.68174383427787" lon="10.41019663131789"><ele>325.4</ele><time>2026-04-18T16:14:34.001Z</time></trkpt><trkpt lat="45.68165665986772" lon="10.410159021491184"><ele>323.6</ele><time>2026-04-18T16:14:35.001Z</time></trkpt><trkpt lat="45.68156657038792" lon="10.41019997678145"><ele>321.8</ele><time>2026-04-18T16:14:36.001Z</time></trkpt><trkpt lat="45.68148432267698" lon="10.410342583108285"><ele>320.0</ele><time>2026-04-18T16:14:37.001Z</time></trkpt><trkpt lat="45.68140180153821" lon="10.410479519717569"><ele>322.25</ele><time>2026-04-18T16:14:38.001Z</time></trkpt><trkpt lat="45.68130285693354" lon="10.410617951951208"><ele>324.5</ele><time>2026-04-18T16:14:39.001Z</time></trkpt><trkpt lat="45.68121390637383" lon="10.410757410020485"><ele>326.75</ele><time>2026-04-18T16:14:40.001Z</time></trkpt><trkpt lat="45.681141312079056" lon="10.410882588678959"><ele>329.0</ele><time>2026-04-18T16:14:41.001Z</time></trkpt><trkpt lat="45.681058554219334" lon="10.41099570099088"><ele>325.4</ele><time>2026-04-18T16:14:42.001Z</time></trkpt><trkpt lat="45.68097402734076" lon="10.411078451558556"><ele>321.79999999999995</ele><time>2026-04-18T16:14:43.001Z</time></trkpt><trkpt lat="45.680856361223924" lon="10.411111586382093"><ele>318.20000000000005</ele><time>2026-04-18T16:14:44.001Z</time></trkpt><trkpt lat="45.68075394633366" lon="10.411148689252009"><ele>314.6</ele><time>2026-04-18T16:14:45.001Z</time></trkpt><trkpt lat="45.68064754006792" lon="10.411164136850472"><ele>311.0</ele><time>2026-04-18T16:14:46.001Z</time></trkpt><trkpt lat="45.68054315919425" lon="10.411183586915408"><ele>311.0</ele><time>2026-04-18T16:14:47.001Z</time></trkpt><trkpt lat="45.6804427932536" lon="10.411194375006628"><ele>311.0</ele><time>2026-04-18T16:14:48Z</time></trkpt><trkpt lat="45.680360607462546" lon="10.41116707146466"><ele>311.0</ele><time>2026-04-18T16:14:49Z</time></trkpt><trkpt lat="45.680284050821264" lon="10.41111603807725"><ele>311.0</ele><time>2026-04-18T16:14:50Z</time></trkpt><trkpt lat="45.680219459427185" lon="10.411042628139343"><ele>311.0</ele><time>2026-04-18T16:14:51Z</time></trkpt><trkpt lat="45.68015882138823" lon="10.41095950601062"><ele>311.0</ele><time>2026-04-18T16:14:52Z</time></trkpt><trkpt lat="45.68010222999965" lon="10.410881162279058"><ele>309.83333333333337</ele><time>2026-04-18T16:14:53Z</time></trkpt><trkpt lat="45.68004134566828" lon="10.410804259804076"><ele>308.6666666666667</ele><time>2026-04-18T16:14:54Z</time></trkpt><trkpt lat="45.679981206181374" lon="10.410736587517595"><ele>307.5</ele><time>2026-04-18T16:14:55Z</time></trkpt><trkpt lat="45.6799169267385" lon="10.410675533785419"><ele>306.3333333333333</ele><time>2026-04-18T16:14:56Z</time></trkpt><trkpt lat="45.67980086323222" lon="10.410654417244428"><ele>305.16666666666663</ele><time>2026-04-18T16:14:58Z</time></trkpt><trkpt lat="45.67975470209812" lon="10.410731911721454"><ele>304.0</ele><time>2026-04-18T16:14:59Z</time></trkpt><trkpt lat="45.67969639501854" lon="10.410895829221246"><ele>304.0</ele><time>2026-04-18T16:15:01Z</time></trkpt><trkpt lat="45.67970551869515" lon="10.411020923415215"><ele>304.0</ele><time>2026-04-18T16:15:02Z</time></trkpt><trkpt lat="45.679721394438154" lon="10.411165697675733"><ele>304.0</ele><time>2026-04-18T16:15:03Z</time></trkpt><trkpt lat="45.67972189150152" lon="10.411326434127401"><ele>304.0</ele><time>2026-04-18T16:15:04Z</time></trkpt><trkpt lat="45.679721002495626" lon="10.411477673444908"><ele>304.0</ele><time>2026-04-18T16:15:05Z</time></trkpt><trkpt lat="45.67972583625725" lon="10.4116181308864"><ele>305.0</ele><time>2026-04-18T16:15:06Z</time></trkpt><trkpt lat="45.6797323156697" lon="10.411748904473054"><ele>306.0</ele><time>2026-04-18T16:15:07Z</time></trkpt><trkpt lat="45.679739870885214" lon="10.411862882471844"><ele>307.0</ele><time>2026-04-18T16:15:08Z</time></trkpt><trkpt lat="45.67974040183574" lon="10.411963476256485"><ele>308.0</ele><time>2026-04-18T16:15:09Z</time></trkpt><trkpt lat="45.6797213836188" lon="10.412051423926574"><ele>309.0</ele><time>2026-04-18T16:15:10Z</time></trkpt><trkpt lat="45.67967159486433" lon="10.412112440698795"><ele>310.0</ele><time>2026-04-18T16:15:11Z</time></trkpt><trkpt lat="45.67960598621401" lon="10.412108339832079"><ele>311.0</ele><time>2026-04-18T16:15:12Z</time></trkpt><trkpt lat="45.67955369115756" lon="10.412037970978629"><ele>311.0</ele><time>2026-04-18T16:15:13Z</time></trkpt><trkpt lat="45.679519689814825" lon="10.411947282126432"><ele>311.0</ele><time>2026-04-18T16:15:14Z</time></trkpt><trkpt lat="45.67948540571808" lon="10.411818592407903"><ele>311.0</ele><time>2026-04-18T16:15:15Z</time></trkpt><trkpt lat="45.67945716091707" lon="10.41167418499769"><ele>311.0</ele><time>2026-04-18T16:15:16Z</time></trkpt><trkpt lat="45.67940661551468" lon="10.411541670665871"><ele>311.0</ele><time>2026-04-18T16:15:17Z</time></trkpt><trkpt lat="45.67937423799517" lon="10.4114034222791"><ele>307.6</ele><time>2026-04-18T16:15:18Z</time></trkpt><trkpt lat="45.67934470161916" lon="10.411275420699672"><ele>304.20000000000005</ele><time>2026-04-18T16:15:19Z</time></trkpt><trkpt lat="45.679324188917974" lon="10.411146095862224"><ele>300.79999999999995</ele><time>2026-04-18T16:15:20Z</time></trkpt><trkpt lat="45.67932484847331" lon="10.41101452493542"><ele>297.4</ele><time>2026-04-18T16:15:21Z</time></trkpt><trkpt lat="45.67932481073868" lon="10.410878800217638"><ele>294.0</ele><time>2026-04-18T16:15:22Z</time></trkpt><trkpt lat="45.679316713218775" lon="10.410739283069312"><ele>294.0</ele><time>2026-04-18T16:15:23Z</time></trkpt><trkpt lat="45.67930398646377" lon="10.410608169726155"><ele>294.0</ele><time>2026-04-18T16:15:24Z</time></trkpt><trkpt lat="45.67926731565825" lon="10.41049351655991"><ele>294.0</ele><time>2026-04-18T16:15:25Z</time></trkpt><trkpt lat="45.679236384463465" lon="10.410375773791342"><ele>294.0</ele><time>2026-04-18T16:15:26Z</time></trkpt><trkpt lat="45.679205501896895" lon="10.410266529354669"><ele>294.0</ele><time>2026-04-18T16:15:27Z</time></trkpt><trkpt lat="45.67918355965007" lon="10.410140734974686"><ele>294.0</ele><time>2026-04-18T16:15:28Z</time></trkpt><trkpt lat="45.67917903377528" lon="10.410008571778455"><ele>293.6666666666667</ele><time>2026-04-18T16:15:29Z</time></trkpt><trkpt lat="45.67917204589143" lon="10.409891399532492"><ele>293.3333333333333</ele><time>2026-04-18T16:15:30Z</time></trkpt><trkpt lat="45.679172555059736" lon="10.409794744862774"><ele>293.0</ele><time>2026-04-18T16:15:31Z</time></trkpt><trkpt lat="45.67921774315142" lon="10.409686752384145"><ele>292.66666666666663</ele><time>2026-04-18T16:15:33Z</time></trkpt><trkpt lat="45.67924499907479" lon="10.409596028777068"><ele>292.3333333333333</ele><time>2026-04-18T16:15:34Z</time></trkpt><trkpt lat="45.67923505760225" lon="10.4094898401211"><ele>292.0</ele><time>2026-04-18T16:15:42Z</time></trkpt><trkpt lat="45.67906004797719" lon="10.409417984798152"><ele>290.75</ele><time>2026-04-18T16:15:48Z</time></trkpt><trkpt lat="45.6789270482728" lon="10.409422065125364"><ele>289.5</ele><time>2026-04-18T16:15:49Z</time></trkpt><trkpt lat="45.67879547358861" lon="10.409432848030045"><ele>288.25</ele><time>2026-04-18T16:15:50Z</time></trkpt><trkpt lat="45.67863567448185" lon="10.409431678410037"><ele>287.0</ele><time>2026-04-18T16:15:51Z</time></trkpt><trkpt lat="45.67845589427061" lon="10.40944379680747"><ele>287.0</ele><time>2026-04-18T16:15:52Z</time></trkpt><trkpt lat="45.67829846197685" lon="10.409511551561067"><ele>287.0</ele><time>2026-04-18T16:15:53Z</time></trkpt><trkpt lat="45.678189648823206" lon="10.409552306696947"><ele>287.0</ele><time>2026-04-18T16:15:54Z</time></trkpt><trkpt lat="45.67808813107472" lon="10.409555342034245"><ele>287.0</ele><time>2026-04-18T16:15:55Z</time></trkpt><trkpt lat="45.67797385409896" lon="10.40950368801892"><ele>287.0</ele><time>2026-04-18T16:15:56Z</time></trkpt><trkpt lat="45.677866356748055" lon="10.409373696073315"><ele>287.0</ele><time>2026-04-18T16:15:57Z</time></trkpt><trkpt lat="45.67777663881424" lon="10.409207456247048"><ele>287.0</ele><time>2026-04-18T16:15:58Z</time></trkpt><trkpt lat="45.677708417974486" lon="10.409003690825916"><ele>287.0</ele><time>2026-04-18T16:15:59Z</time></trkpt><trkpt lat="45.67771769484412" lon="10.408777887444778"><ele>287.0</ele><time>2026-04-18T16:16:00Z</time></trkpt><trkpt lat="45.67768932753094" lon="10.40857932838251"><ele>287.0</ele><time>2026-04-18T16:16:01Z</time></trkpt><trkpt lat="45.67768039287318" lon="10.408422050805678"><ele>287.0</ele><time>2026-04-18T16:16:02Z</time></trkpt><trkpt lat="45.677664470620535" lon="10.408277640261343"><ele>287.0</ele><time>2026-04-18T16:16:03Z</time></trkpt><trkpt lat="45.677649739032944" lon="10.40814725107002"><ele>287.0</ele><time>2026-04-18T16:16:04Z</time></trkpt><trkpt lat="45.67762898691244" lon="10.407982870470576"><ele>288.25</ele><time>2026-04-18T16:16:05Z</time></trkpt><trkpt lat="45.67760689397913" lon="10.407798217970063"><ele>289.5</ele><time>2026-04-18T16:16:06Z</time></trkpt><trkpt lat="45.67758464185968" lon="10.407613773845748"><ele>290.75</ele><time>2026-04-18T16:16:07Z</time></trkpt><trkpt lat="45.677556522979074" lon="10.407398406809769"><ele>292.0</ele><time>2026-04-18T16:16:08.001Z</time></trkpt><trkpt lat="45.677517274096886" lon="10.407184819092874"><ele>292.66666666666663</ele><time>2026-04-18T16:16:09.001Z</time></trkpt><trkpt lat="45.67745364079056" lon="10.406968398089763"><ele>293.3333333333333</ele><time>2026-04-18T16:16:10.001Z</time></trkpt><trkpt lat="45.6773661785993" lon="10.40676167834829"><ele>294.0</ele><time>2026-04-18T16:16:11.001Z</time></trkpt><trkpt lat="45.67726114027763" lon="10.406560444014735"><ele>294.0</ele><time>2026-04-18T16:16:12.001Z</time></trkpt><trkpt lat="45.67714069626783" lon="10.406371678855919"><ele>294.0</ele><time>2026-04-18T16:16:13.001Z</time></trkpt><trkpt lat="45.67702126200446" lon="10.406192587054793"><ele>294.0</ele><time>2026-04-18T16:16:14.001Z</time></trkpt><trkpt lat="45.676913618792476" lon="10.406024760474024"><ele>294.6666666666667</ele><time>2026-04-18T16:16:15.001Z</time></trkpt><trkpt lat="45.676807627915316" lon="10.405862742256252"><ele>295.33333333333337</ele><time>2026-04-18T16:16:16.001Z</time></trkpt><trkpt lat="45.67670279582658" lon="10.405695186568265"><ele>296.0</ele><time>2026-04-18T16:16:17.001Z</time></trkpt><trkpt lat="45.676598587326005" lon="10.40552334353806"><ele>297.6666666666667</ele><time>2026-04-18T16:16:18.001Z</time></trkpt><trkpt lat="45.676488184902105" lon="10.40534725092005"><ele>299.3333333333333</ele><time>2026-04-18T16:16:19.001Z</time></trkpt><trkpt lat="45.67637735393231" lon="10.405168373195446"><ele>301.0</ele><time>2026-04-18T16:16:20.001Z</time></trkpt><trkpt lat="45.67625514501171" lon="10.404982796393758"><ele>301.0</ele><time>2026-04-18T16:16:21.001Z</time></trkpt><trkpt lat="45.67613995340563" lon="10.404798456628503"><ele>301.0</ele><time>2026-04-18T16:16:22.001Z</time></trkpt><trkpt lat="45.676027542798565" lon="10.40462546013655"><ele>301.0</ele><time>2026-04-18T16:16:23.001Z</time></trkpt><trkpt lat="45.67592234459159" lon="10.404445372764275"><ele>303.3333333333333</ele><time>2026-04-18T16:16:24.001Z</time></trkpt><trkpt lat="45.675810712015895" lon="10.404257325607274"><ele>305.6666666666667</ele><time>2026-04-18T16:16:25.001Z</time></trkpt><trkpt lat="45.675691592177174" lon="10.404080732817684"><ele>308.0</ele><time>2026-04-18T16:16:26.001Z</time></trkpt><trkpt lat="45.67557926350514" lon="10.403900680942973"><ele>308.6666666666667</ele><time>2026-04-18T16:16:27.001Z</time></trkpt><trkpt lat="45.675462775761666" lon="10.403718324295651"><ele>309.3333333333333</ele><time>2026-04-18T16:16:28.001Z</time></trkpt><trkpt lat="45.675348499946416" lon="10.403531097249143"><ele>310.0</ele><time>2026-04-18T16:16:29.001Z</time></trkpt><trkpt lat="45.675230976121235" lon="10.403344026226579"><ele>310.0</ele><time>2026-04-18T16:16:30.001Z</time></trkpt><trkpt lat="45.6751169270311" lon="10.403157957626162"><ele>310.0</ele><time>2026-04-18T16:16:31.001Z</time></trkpt><trkpt lat="45.675003520809895" lon="10.402972765441495"><ele>310.0</ele><time>2026-04-18T16:16:32.001Z</time></trkpt><trkpt lat="45.674896949017764" lon="10.402797088576722"><ele>312.66666666666663</ele><time>2026-04-18T16:16:33.001Z</time></trkpt><trkpt lat="45.674795525336535" lon="10.40263577812188"><ele>315.3333333333333</ele><time>2026-04-18T16:16:34.001Z</time></trkpt><trkpt lat="45.67468456301524" lon="10.402466348568844"><ele>318.0</ele><time>2026-04-18T16:16:35.001Z</time></trkpt><trkpt lat="45.67458029768617" lon="10.40231435363416"><ele>318.0</ele><time>2026-04-18T16:16:36.001Z</time></trkpt><trkpt lat="45.67448005540827" lon="10.402201301791083"><ele>318.0</ele><time>2026-04-18T16:16:37.001Z</time></trkpt><trkpt lat="45.67437355018099" lon="10.40212984619195"><ele>318.0</ele><time>2026-04-18T16:16:38.001Z</time></trkpt><trkpt lat="45.674271078118714" lon="10.402102168345204"><ele>318.0</ele><time>2026-04-18T16:16:39.001Z</time></trkpt><trkpt lat="45.67418259841075" lon="10.402095728383737"><ele>318.0</ele><time>2026-04-18T16:16:40.001Z</time></trkpt><trkpt lat="45.67409638028687" lon="10.402086899975073"><ele>320.6</ele><time>2026-04-18T16:16:41.001Z</time></trkpt><trkpt lat="45.674027779889336" lon="10.402056077162522"><ele>323.20000000000005</ele><time>2026-04-18T16:16:42.001Z</time></trkpt><trkpt lat="45.67393273038221" lon="10.401953575799313"><ele>325.8</ele><time>2026-04-18T16:16:44.001Z</time></trkpt><trkpt lat="45.673821688624535" lon="10.40189913635692"><ele>328.40000000000003</ele><time>2026-04-18T16:16:46.001Z</time></trkpt><trkpt lat="45.67376126253199" lon="10.40184263798217"><ele>331.0</ele><time>2026-04-18T16:16:47.001Z</time></trkpt><trkpt lat="45.67365816325749" lon="10.401774712444984"><ele>329.8333333333333</ele><time>2026-04-18T16:16:49.001Z</time></trkpt><trkpt lat="45.67357850408034" lon="10.401727329188715"><ele>328.66666666666663</ele><time>2026-04-18T16:16:51.001Z</time></trkpt><trkpt lat="45.67350922718213" lon="10.401691918453123"><ele>327.5</ele><time>2026-04-18T16:16:53.001Z</time></trkpt><trkpt lat="45.67342823744028" lon="10.401665960353196"><ele>326.3333333333333</ele><time>2026-04-18T16:16:54Z</time></trkpt><trkpt lat="45.67333956343935" lon="10.401619079704798"><ele>325.1666666666667</ele><time>2026-04-18T16:16:55Z</time></trkpt><trkpt lat="45.6732360702507" lon="10.401618205424453"><ele>324.0</ele><time>2026-04-18T16:16:56Z</time></trkpt><trkpt lat="45.6731230334097" lon="10.401593309359754"><ele>324.0</ele><time>2026-04-18T16:16:57Z</time></trkpt><trkpt lat="45.673015045865796" lon="10.401600643385887"><ele>324.0</ele><time>2026-04-18T16:16:58Z</time></trkpt><trkpt lat="45.672893559746925" lon="10.40158177617763"><ele>324.0</ele><time>2026-04-18T16:16:59Z</time></trkpt><trkpt lat="45.67279851730594" lon="10.401130864399798"><ele>326.4</ele><time>2026-04-18T16:17:00Z</time></trkpt><trkpt lat="45.672709014139066" lon="10.401020172393778"><ele>328.79999999999995</ele><time>2026-04-18T16:17:01Z</time></trkpt><trkpt lat="45.672640101030915" lon="10.400898939276546"><ele>331.20000000000005</ele><time>2026-04-18T16:17:02Z</time></trkpt><trkpt lat="45.67257078959012" lon="10.400779651174771"><ele>333.6</ele><time>2026-04-18T16:17:03Z</time></trkpt><trkpt lat="45.67253027266518" lon="10.400652938035279"><ele>336.0</ele><time>2026-04-18T16:17:04Z</time></trkpt><trkpt lat="45.67246917660671" lon="10.400514227134584"><ele>339.20000000000005</ele><time>2026-04-18T16:17:05Z</time></trkpt><trkpt lat="45.67246857920134" lon="10.400378182578931"><ele>342.40000000000003</ele><time>2026-04-18T16:17:06Z</time></trkpt><trkpt lat="45.67243596249663" lon="10.400264377743245"><ele>345.6</ele><time>2026-04-18T16:17:07Z</time></trkpt><trkpt lat="45.67232769589573" lon="10.40028821605415"><ele>348.8</ele><time>2026-04-18T16:17:10Z</time></trkpt><trkpt lat="45.672260279073804" lon="10.400392761031632"><ele>352.0</ele><time>2026-04-18T16:17:11Z</time></trkpt><trkpt lat="45.672188683493786" lon="10.400471242064334"><ele>352.0</ele><time>2026-04-18T16:17:12Z</time></trkpt><trkpt lat="45.67205866408604" lon="10.40050844925381"><ele>352.0</ele><time>2026-04-18T16:17:14Z</time></trkpt><trkpt lat="45.67199025038839" lon="10.400484748923084"><ele>352.0</ele><time>2026-04-18T16:17:15Z</time></trkpt><trkpt lat="45.67192915165291" lon="10.400416576093084"><ele>352.0</ele><time>2026-04-18T16:17:16Z</time></trkpt><trkpt lat="45.671895786078885" lon="10.400300504857519"><ele>352.0</ele><time>2026-04-18T16:17:17Z</time></trkpt><trkpt lat="45.671824143642944" lon="10.400119853779232"><ele>352.0</ele><time>2026-04-18T16:17:18Z</time></trkpt><trkpt lat="45.67177283708319" lon="10.400014781041875"><ele>352.0</ele><time>2026-04-18T16:17:19Z</time></trkpt><trkpt lat="45.67171143660586" lon="10.399934243553911"><ele>352.0</ele><time>2026-04-18T16:17:20Z</time></trkpt><trkpt lat="45.671647014229634" lon="10.399871104022452"><ele>352.0</ele><time>2026-04-18T16:17:21Z</time></trkpt><trkpt lat="45.671579223015584" lon="10.399851969813087"><ele>352.0</ele><time>2026-04-18T16:17:22Z</time></trkpt><trkpt lat="45.67149859316359" lon="10.399990305682646"><ele>352.0</ele><time>2026-04-18T16:17:24Z</time></trkpt><trkpt lat="45.67143145441747" lon="10.4001135248562"><ele>352.0</ele><time>2026-04-18T16:17:25Z</time></trkpt><trkpt lat="45.67132133528329" lon="10.40024942044198"><ele>352.0</ele><time>2026-04-18T16:17:26Z</time></trkpt><trkpt lat="45.67124539303531" lon="10.400253519592113"><ele>352.0</ele><time>2026-04-18T16:17:27Z</time></trkpt><trkpt lat="45.671173689320106" lon="10.40025855928439"><ele>352.0</ele><time>2026-04-18T16:17:28Z</time></trkpt><trkpt lat="45.67110069382429" lon="10.400133971895125"><ele>352.0</ele><time>2026-04-18T16:17:30Z</time></trkpt><trkpt lat="45.67102911990652" lon="10.400007969000423"><ele>354.0</ele><time>2026-04-18T16:17:31Z</time></trkpt><trkpt lat="45.6709786929783" lon="10.399830936878882"><ele>356.0</ele><time>2026-04-18T16:17:32Z</time></trkpt><trkpt lat="45.670917707303715" lon="10.399716513382499"><ele>358.0</ele><time>2026-04-18T16:17:33Z</time></trkpt><trkpt lat="45.67082396564214" lon="10.399564933278297"><ele>360.0</ele><time>2026-04-18T16:17:34Z</time></trkpt><trkpt lat="45.670742726179284" lon="10.399409937842103"><ele>361.0</ele><time>2026-04-18T16:17:35Z</time></trkpt><trkpt lat="45.67065581049453" lon="10.399314216446598"><ele>362.0</ele><time>2026-04-18T16:17:36Z</time></trkpt><trkpt lat="45.67058210388549" lon="10.39920447935537"><ele>363.0</ele><time>2026-04-18T16:17:37Z</time></trkpt><trkpt lat="45.670506769974985" lon="10.399082880383059"><ele>364.0</ele><time>2026-04-18T16:17:38Z</time></trkpt><trkpt lat="45.67042912899425" lon="10.398953442761702"><ele>365.0</ele><time>2026-04-18T16:17:39Z</time></trkpt><trkpt lat="45.67033541365035" lon="10.39880495322538"><ele>368.0</ele><time>2026-04-18T16:17:40Z</time></trkpt><trkpt lat="45.6702394784832" lon="10.398670577761436"><ele>371.0</ele><time>2026-04-18T16:17:41Z</time></trkpt><trkpt lat="45.670149048998134" lon="10.398547105405557"><ele>374.0</ele><time>2026-04-18T16:17:42Z</time></trkpt><trkpt lat="45.670054350305094" lon="10.398425115149267"><ele>377.0</ele><time>2026-04-18T16:17:43Z</time></trkpt><trkpt lat="45.669943096708764" lon="10.39830724917236"><ele>377.0</ele><time>2026-04-18T16:17:44Z</time></trkpt><trkpt lat="45.66982415693951" lon="10.398215492371097"><ele>377.0</ele><time>2026-04-18T16:17:45Z</time></trkpt><trkpt lat="45.66970431878363" lon="10.39815656055282"><ele>377.0</ele><time>2026-04-18T16:17:46Z</time></trkpt><trkpt lat="45.66957768307235" lon="10.39810056319397"><ele>377.0</ele><time>2026-04-18T16:17:47Z</time></trkpt><trkpt lat="45.66945148298935" lon="10.39804583158446"><ele>380.25</ele><time>2026-04-18T16:17:48Z</time></trkpt><trkpt lat="45.66932389017483" lon="10.398003335780697"><ele>383.5</ele><time>2026-04-18T16:17:49Z</time></trkpt><trkpt lat="45.66921333178164" lon="10.397976335690666"><ele>386.75</ele><time>2026-04-18T16:17:50Z</time></trkpt><trkpt lat="45.669139578126384" lon="10.397882727478178"><ele>390.0</ele><time>2026-04-18T16:17:51Z</time></trkpt><trkpt lat="45.6690287392341" lon="10.397870940183267"><ele>390.8</ele><time>2026-04-18T16:17:55Z</time></trkpt><trkpt lat="45.66891927590474" lon="10.397864072423143"><ele>391.6</ele><time>2026-04-18T16:17:56Z</time></trkpt><trkpt lat="45.66883761171475" lon="10.397844078532133"><ele>392.4</ele><time>2026-04-18T16:17:57Z</time></trkpt><trkpt lat="45.66884038166991" lon="10.397744201422748"><ele>393.2</ele><time>2026-04-18T16:17:59Z</time></trkpt><trkpt lat="45.66890077207216" lon="10.397558772783096"><ele>394.0</ele><time>2026-04-18T16:18:03Z</time></trkpt><trkpt lat="45.668860014038934" lon="10.397731139241518"><ele>394.0</ele><time>2026-04-18T16:18:04Z</time></trkpt><trkpt lat="45.669040206732376" lon="10.39752560013461"><ele>394.0</ele><time>2026-04-18T16:18:05Z</time></trkpt><trkpt lat="45.66918561214788" lon="10.397369633100661"><ele>394.0</ele><time>2026-04-18T16:18:06Z</time></trkpt><trkpt lat="45.669317093914884" lon="10.397284455458903"><ele>394.0</ele><time>2026-04-18T16:18:07Z</time></trkpt><trkpt lat="45.669409097423035" lon="10.39724706860332"><ele>394.0</ele><time>2026-04-18T16:18:08Z</time></trkpt><trkpt lat="45.66930399154147" lon="10.396976427138553"><ele>394.0</ele><time>2026-04-18T16:18:13Z</time></trkpt><trkpt lat="45.66931060824734" lon="10.396873716171388"><ele>394.0</ele><time>2026-04-18T16:18:14Z</time></trkpt><trkpt lat="45.66928998109201" lon="10.39671151483489"><ele>395.6666666666667</ele><time>2026-04-18T16:18:16Z</time></trkpt><trkpt lat="45.66927260756949" lon="10.396593261579754"><ele>397.33333333333337</ele><time>2026-04-18T16:18:18.001Z</time></trkpt><trkpt lat="45.6691611896257" lon="10.396591624246097"><ele>399.0</ele><time>2026-04-18T16:18:20.001Z</time></trkpt><trkpt lat="45.66910598446629" lon="10.396687649467045"><ele>400.66666666666663</ele><time>2026-04-18T16:18:22.001Z</time></trkpt><trkpt lat="45.66904574670469" lon="10.396730911433611"><ele>402.3333333333333</ele><time>2026-04-18T16:18:28.001Z</time></trkpt><trkpt lat="45.66898144845782" lon="10.396720528653791"><ele>404.0</ele><time>2026-04-18T16:19:14Z</time></trkpt><trkpt lat="45.66905380303079" lon="10.396779289814294"><ele>404.0</ele><time>2026-04-18T16:19:58Z</time></trkpt><trkpt lat="45.66914054344272" lon="10.396767347699539"><ele>404.0</ele><time>2026-04-18T16:20:14Z</time></trkpt><trkpt lat="45.669293878642804" lon="10.396646903837468"><ele>404.0</ele><time>2026-04-18T16:20:48.001Z</time></trkpt><trkpt lat="45.66914439046955" lon="10.396723264160757"><ele>404.0</ele><time>2026-04-18T16:21:10.011Z</time></trkpt></trkseg></trk></gpx>